<?xml version="1.0" encoding="UTF-8" standalone="no" ?>
<gpx xmlns="http://www.topografix.com/GPX/1/1" xmlns:xsi="http://www.w3.org/2001/XMLSchema-instance" xsi:schemaLocation="http://www.topografix.com/GPX/1/1 http://www.topografix.com/GPX/1/1/gpx.xsd" version="1.1" creator="VisuGPX - https://www.visugpx.com">
  <metadata>
    <name>GR30</name>
    <desc><![CDATA[Tour des volcans d'Auvergne]]></desc>
  </metadata>
  <trk>
    <name><![CDATA[GR30]]></name>
    <extensions>
      <line xmlns="http://www.topografix.com/GPX/gpx_style/0/2">
        <color>0000FF</color>
        <width>4</width>
      </line>
    </extensions>
    <trkseg>
      <trkpt lat="45.59045" lon="2.74711">
        <ele>872.6</ele>
        <time>2012-06-04T07:18:57Z</time>
      </trkpt>
      <trkpt lat="45.59061" lon="2.74836">
        <ele>875.2</ele>
        <time>2012-06-04T07:21:34Z</time>
      </trkpt>
      <trkpt lat="45.59061" lon="2.74838">
        <ele>875.3</ele>
        <time>2012-06-04T07:21:35Z</time>
      </trkpt>
      <trkpt lat="45.59104" lon="2.74951">
        <ele>893.1</ele>
        <time>2012-06-04T07:22:40Z</time>
      </trkpt>
      <trkpt lat="45.59134" lon="2.75091">
        <ele>872.7</ele>
      </trkpt>
      <trkpt lat="45.59111" lon="2.75077">
        <ele>889.4</ele>
        <time>2012-06-04T07:23:53Z</time>
      </trkpt>
      <trkpt lat="45.59191" lon="2.75134">
        <ele>889</ele>
        <time>2012-06-04T07:26:28Z</time>
      </trkpt>
      <trkpt lat="45.59265" lon="2.75207">
        <ele>896.5</ele>
        <time>2012-06-04T07:27:40Z</time>
      </trkpt>
      <trkpt lat="45.59316" lon="2.75312">
        <ele>902.2</ele>
        <time>2012-06-04T07:28:51Z</time>
      </trkpt>
      <trkpt lat="45.59346" lon="2.75432">
        <ele>906.4</ele>
        <time>2012-06-04T07:30:03Z</time>
      </trkpt>
      <trkpt lat="45.59374" lon="2.75554">
        <ele>909.5</ele>
        <time>2012-06-04T07:31:13Z</time>
      </trkpt>
      <trkpt lat="45.59393" lon="2.75679">
        <ele>910.5</ele>
        <time>2012-06-04T07:32:23Z</time>
      </trkpt>
      <trkpt lat="45.59399" lon="2.75806">
        <ele>912</ele>
        <time>2012-06-04T07:33:32Z</time>
      </trkpt>
      <trkpt lat="45.59357" lon="2.75919">
        <ele>912.5</ele>
        <time>2012-06-04T07:34:39Z</time>
      </trkpt>
      <trkpt lat="45.59355" lon="2.76047">
        <ele>917.4</ele>
        <time>2012-06-04T07:35:51Z</time>
      </trkpt>
      <trkpt lat="45.5939" lon="2.76164">
        <ele>922.3</ele>
        <time>2012-06-04T07:37:06Z</time>
      </trkpt>
      <trkpt lat="45.59453" lon="2.76255">
        <ele>929</ele>
        <time>2012-06-04T07:38:18Z</time>
      </trkpt>
      <trkpt lat="45.59456" lon="2.76382">
        <ele>938.3</ele>
        <time>2012-06-04T07:39:37Z</time>
      </trkpt>
      <trkpt lat="45.5952" lon="2.76474">
        <ele>950.1</ele>
        <time>2012-06-04T07:46:55Z</time>
      </trkpt>
      <trkpt lat="45.5957" lon="2.76579">
        <ele>962.6</ele>
        <time>2012-06-04T07:48:24Z</time>
      </trkpt>
      <trkpt lat="45.5958" lon="2.76707">
        <ele>975.7</ele>
        <time>2012-06-04T07:49:49Z</time>
      </trkpt>
      <trkpt lat="45.59628" lon="2.76815">
        <ele>990.3</ele>
        <time>2012-06-04T07:51:18Z</time>
      </trkpt>
      <trkpt lat="45.59645" lon="2.7694">
        <ele>1017.1</ele>
        <time>2012-06-04T07:54:04Z</time>
      </trkpt>
      <trkpt lat="45.59656" lon="2.77067">
        <ele>1034.9</ele>
        <time>2012-06-04T07:55:44Z</time>
      </trkpt>
      <trkpt lat="45.5969" lon="2.77184">
        <ele>1051</ele>
        <time>2012-06-04T07:57:11Z</time>
      </trkpt>
      <trkpt lat="45.59748" lon="2.77282">
        <ele>1068.3</ele>
        <time>2012-06-04T07:58:50Z</time>
      </trkpt>
      <trkpt lat="45.59699" lon="2.7739">
        <ele>1075</ele>
        <time>2012-06-04T08:01:45Z</time>
      </trkpt>
      <trkpt lat="45.59613" lon="2.77421">
        <ele>1078</ele>
        <time>2012-06-04T08:02:54Z</time>
      </trkpt>
      <trkpt lat="45.59528" lon="2.77379">
        <ele>1084.2</ele>
        <time>2012-06-04T08:04:04Z</time>
      </trkpt>
      <trkpt lat="45.59516" lon="2.77507">
        <ele>1096.2</ele>
        <time>2012-06-04T08:07:58Z</time>
      </trkpt>
      <trkpt lat="45.59539" lon="2.7763">
        <ele>1108.3</ele>
        <time>2012-06-04T08:11:38Z</time>
      </trkpt>
      <trkpt lat="45.59543" lon="2.77758">
        <ele>1125.2</ele>
        <time>2012-06-04T08:13:26Z</time>
      </trkpt>
      <trkpt lat="45.59629" lon="2.77795">
        <ele>1151</ele>
        <time>2012-06-04T08:15:49Z</time>
      </trkpt>
      <trkpt lat="45.59716" lon="2.77828">
        <ele>1171.9</ele>
        <time>2012-06-04T08:17:44Z</time>
      </trkpt>
      <trkpt lat="45.59805" lon="2.77842">
        <ele>1190.3</ele>
        <time>2012-06-04T08:25:58Z</time>
      </trkpt>
      <trkpt lat="45.59893" lon="2.77826">
        <ele>1203</ele>
        <time>2012-06-04T08:27:34Z</time>
      </trkpt>
      <trkpt lat="45.59979" lon="2.77862">
        <ele>1215.3</ele>
        <time>2012-06-04T08:30:41Z</time>
      </trkpt>
      <trkpt lat="45.60056" lon="2.77928">
        <ele>1233.7</ele>
        <time>2012-06-04T08:32:34Z</time>
      </trkpt>
      <trkpt lat="45.60142" lon="2.7789">
        <ele>1266.7</ele>
        <time>2012-06-04T08:36:41Z</time>
      </trkpt>
      <trkpt lat="45.60225" lon="2.77842">
        <ele>1292.3</ele>
        <time>2012-06-04T08:39:26Z</time>
      </trkpt>
      <trkpt lat="45.60256" lon="2.77722">
        <ele>1309.6</ele>
        <time>2012-06-04T08:42:56Z</time>
      </trkpt>
      <trkpt lat="45.60335" lon="2.77783">
        <ele>1333.7</ele>
        <time>2012-06-04T08:45:24Z</time>
      </trkpt>
      <trkpt lat="45.60409" lon="2.77857">
        <ele>1354.3</ele>
        <time>2012-06-04T08:54:05Z</time>
      </trkpt>
      <trkpt lat="45.60463" lon="2.77958">
        <ele>1359.8</ele>
        <time>2012-06-04T08:57:21Z</time>
      </trkpt>
      <trkpt lat="45.6049" lon="2.7808">
        <ele>1368.4</ele>
        <time>2012-06-04T08:58:32Z</time>
      </trkpt>
      <trkpt lat="45.60454" lon="2.78196">
        <ele>1372.5</ele>
        <time>2012-06-04T08:59:52Z</time>
      </trkpt>
      <trkpt lat="45.60382" lon="2.78272">
        <ele>1390</ele>
        <time>2012-06-04T09:01:40Z</time>
      </trkpt>
      <trkpt lat="45.60307" lon="2.78343">
        <ele>1417.7</ele>
        <time>2012-06-04T09:06:09Z</time>
      </trkpt>
      <trkpt lat="45.60229" lon="2.78406">
        <ele>1431.5</ele>
        <time>2012-06-04T09:09:39Z</time>
      </trkpt>
      <trkpt lat="45.60144" lon="2.78365">
        <ele>1455.9</ele>
        <time>2012-06-04T09:11:35Z</time>
      </trkpt>
      <trkpt lat="45.60055" lon="2.78383">
        <ele>1467.1</ele>
        <time>2012-06-04T09:19:26Z</time>
      </trkpt>
      <trkpt lat="45.6001" lon="2.78493">
        <ele>1472.5</ele>
        <time>2012-06-04T09:23:19Z</time>
      </trkpt>
      <trkpt lat="45.60009" lon="2.7862">
        <ele>1477.5</ele>
        <time>2012-06-04T09:24:40Z</time>
      </trkpt>
      <trkpt lat="45.59953" lon="2.78719">
        <ele>1483.9</ele>
        <time>2012-06-04T09:26:05Z</time>
      </trkpt>
      <trkpt lat="45.59913" lon="2.78833">
        <ele>1491.2</ele>
        <time>2012-06-04T09:27:39Z</time>
      </trkpt>
      <trkpt lat="45.59847" lon="2.78921">
        <ele>1499.8</ele>
        <time>2012-06-04T09:28:57Z</time>
      </trkpt>
      <trkpt lat="45.59858" lon="2.79049">
        <ele>1496.2</ele>
        <time>2012-06-04T09:31:47Z</time>
      </trkpt>
      <trkpt lat="45.59909" lon="2.79154">
        <ele>1489.4</ele>
        <time>2012-06-04T09:33:25Z</time>
      </trkpt>
      <trkpt lat="45.59979" lon="2.79232">
        <ele>1478.3</ele>
        <time>2012-06-04T09:34:57Z</time>
      </trkpt>
      <trkpt lat="45.60062" lon="2.79279">
        <ele>1462.2</ele>
        <time>2012-06-04T09:47:27Z</time>
      </trkpt>
      <trkpt lat="45.60138" lon="2.79346">
        <ele>1429.2</ele>
        <time>2012-06-04T09:56:30Z</time>
      </trkpt>
      <trkpt lat="45.60153" lon="2.79473">
        <ele>1413.6</ele>
        <time>2012-06-04T10:04:21Z</time>
      </trkpt>
      <trkpt lat="45.60115" lon="2.79588">
        <ele>1401.2</ele>
        <time>2012-06-04T10:05:38Z</time>
      </trkpt>
      <trkpt lat="45.60153" lon="2.79705">
        <ele>1377.5</ele>
        <time>2012-06-04T10:08:04Z</time>
      </trkpt>
      <trkpt lat="45.60232" lon="2.79766">
        <ele>1374.6</ele>
        <time>2012-06-04T10:09:31Z</time>
      </trkpt>
      <trkpt lat="45.60267" lon="2.79883">
        <ele>1354.8</ele>
        <time>2012-06-04T10:11:20Z</time>
      </trkpt>
      <trkpt lat="45.6032" lon="2.79985">
        <ele>1346.1</ele>
        <time>2012-06-04T10:16:01Z</time>
      </trkpt>
      <trkpt lat="45.60399" lon="2.80046">
        <ele>1354.3</ele>
        <time>2012-06-04T10:20:55Z</time>
      </trkpt>
      <trkpt lat="45.60484" lon="2.80085">
        <ele>1355</ele>
        <time>2012-06-04T10:22:06Z</time>
      </trkpt>
      <trkpt lat="45.60546" lon="2.80177">
        <ele>1354.7</ele>
        <time>2012-06-04T10:23:17Z</time>
      </trkpt>
      <trkpt lat="45.60603" lon="2.80275">
        <ele>1353.2</ele>
        <time>2012-06-04T10:24:26Z</time>
      </trkpt>
      <trkpt lat="45.60631" lon="2.80396">
        <ele>1350.9</ele>
        <time>2012-06-04T10:25:35Z</time>
      </trkpt>
      <trkpt lat="45.60614" lon="2.80522">
        <ele>1349</ele>
        <time>2012-06-04T10:26:58Z</time>
      </trkpt>
      <trkpt lat="45.60599" lon="2.80648">
        <ele>1348.4</ele>
        <time>2012-06-04T10:28:20Z</time>
      </trkpt>
      <trkpt lat="45.60593" lon="2.80775">
        <ele>1346.2</ele>
        <time>2012-06-04T10:29:44Z</time>
      </trkpt>
      <trkpt lat="45.60626" lon="2.80895">
        <ele>1347.4</ele>
        <time>2012-06-04T10:30:54Z</time>
      </trkpt>
      <trkpt lat="45.60637" lon="2.81022">
        <ele>1349.3</ele>
        <time>2012-06-04T10:32:06Z</time>
      </trkpt>
      <trkpt lat="45.60606" lon="2.81141">
        <ele>1351.3</ele>
        <time>2012-06-04T10:33:16Z</time>
      </trkpt>
      <trkpt lat="45.60573" lon="2.81261">
        <ele>1353.2</ele>
        <time>2012-06-04T10:40:17Z</time>
      </trkpt>
      <trkpt lat="45.60572" lon="2.81388">
        <ele>1358.6</ele>
        <time>2012-06-04T10:41:37Z</time>
      </trkpt>
      <trkpt lat="45.60574" lon="2.81517">
        <ele>1371.5</ele>
        <time>2012-06-04T10:43:39Z</time>
      </trkpt>
      <trkpt lat="45.60574" lon="2.81645">
        <ele>1363.9</ele>
        <time>2012-06-04T10:44:51Z</time>
      </trkpt>
      <trkpt lat="45.60577" lon="2.81772">
        <ele>1334.5</ele>
        <time>2012-06-04T10:46:43Z</time>
      </trkpt>
      <trkpt lat="45.60574" lon="2.819">
        <ele>1312.6</ele>
        <time>2012-06-04T10:48:22Z</time>
      </trkpt>
      <trkpt lat="45.60573" lon="2.82028">
        <ele>1303.2</ele>
        <time>2012-06-04T10:50:13Z</time>
      </trkpt>
      <trkpt lat="45.60605" lon="2.82148">
        <ele>1295.1</ele>
        <time>2012-06-04T10:51:38Z</time>
      </trkpt>
      <trkpt lat="45.60687" lon="2.82195">
        <ele>1293</ele>
        <time>2012-06-04T10:52:47Z</time>
      </trkpt>
      <trkpt lat="45.60775" lon="2.82213">
        <ele>1291.5</ele>
        <time>2012-06-04T10:53:53Z</time>
      </trkpt>
      <trkpt lat="45.60863" lon="2.82235">
        <ele>1283.4</ele>
        <time>2012-06-04T10:54:56Z</time>
      </trkpt>
      <trkpt lat="45.6095" lon="2.82206">
        <ele>1276.4</ele>
        <time>2012-06-04T10:56:10Z</time>
      </trkpt>
      <trkpt lat="45.61039" lon="2.82209">
        <ele>1269.4</ele>
        <time>2012-06-04T10:57:16Z</time>
      </trkpt>
      <trkpt lat="45.61127" lon="2.82232">
        <ele>1267.1</ele>
        <time>2012-06-04T10:59:52Z</time>
      </trkpt>
      <trkpt lat="45.61214" lon="2.82201">
        <ele>1259.2</ele>
        <time>2012-06-04T11:01:09Z</time>
      </trkpt>
      <trkpt lat="45.61285" lon="2.82122">
        <ele>1256.6</ele>
        <time>2012-06-04T11:15:14Z</time>
      </trkpt>
      <trkpt lat="45.61346" lon="2.82029">
        <ele>1264.7</ele>
        <time>2012-06-04T11:19:06Z</time>
      </trkpt>
      <trkpt lat="45.6139" lon="2.81996">
        <ele>1296.8</ele>
        <time>2012-06-04T11:47:42Z</time>
      </trkpt>
      <trkpt lat="45.61443" lon="2.81892">
        <ele>1287.5</ele>
        <time>2012-06-04T12:02:49Z</time>
      </trkpt>
      <trkpt lat="45.61443" lon="2.81892">
        <ele>1287.3</ele>
        <time>2012-06-04T12:02:50Z</time>
      </trkpt>
      <trkpt lat="45.61531" lon="2.81861">
        <ele>1272.3</ele>
        <time>2012-06-04T12:04:11Z</time>
      </trkpt>
      <trkpt lat="45.61615" lon="2.8182">
        <ele>1255.9</ele>
        <time>2012-06-04T12:05:45Z</time>
      </trkpt>
      <trkpt lat="45.61678" lon="2.81729">
        <ele>1260.9</ele>
        <time>2012-06-04T12:08:30Z</time>
      </trkpt>
      <trkpt lat="45.61699" lon="2.81605">
        <ele>1289.7</ele>
        <time>2012-06-04T12:11:39Z</time>
      </trkpt>
      <trkpt lat="45.61674" lon="2.8173">
        <ele>1261.8</ele>
        <time>2012-06-04T12:23:39Z</time>
      </trkpt>
      <trkpt lat="45.61745" lon="2.81808">
        <ele>1252.8</ele>
        <time>2012-06-04T12:26:50Z</time>
      </trkpt>
      <trkpt lat="45.61832" lon="2.81837">
        <ele>1260.2</ele>
        <time>2012-06-04T12:31:20Z</time>
      </trkpt>
      <trkpt lat="45.61859" lon="2.8196">
        <ele>1261.1</ele>
        <time>2012-06-04T12:32:40Z</time>
      </trkpt>
      <trkpt lat="45.61844" lon="2.82085">
        <ele>1256.9</ele>
        <time>2012-06-04T12:33:53Z</time>
      </trkpt>
      <trkpt lat="45.61882" lon="2.82201">
        <ele>1252.6</ele>
        <time>2012-06-04T12:35:43Z</time>
      </trkpt>
      <trkpt lat="45.61963" lon="2.82141">
        <ele>1261.3</ele>
        <time>2012-06-04T12:37:55Z</time>
      </trkpt>
      <trkpt lat="45.62039" lon="2.82075">
        <ele>1272.7</ele>
        <time>2012-06-04T12:39:19Z</time>
      </trkpt>
      <trkpt lat="45.62123" lon="2.82123">
        <ele>1278.1</ele>
        <time>2012-06-04T12:42:34Z</time>
      </trkpt>
      <trkpt lat="45.62168" lon="2.82233">
        <ele>1291.7</ele>
        <time>2012-06-04T12:43:52Z</time>
      </trkpt>
      <trkpt lat="45.62144" lon="2.82357">
        <ele>1306.2</ele>
        <time>2012-06-04T12:45:18Z</time>
      </trkpt>
      <trkpt lat="45.62108" lon="2.82473">
        <ele>1315.9</ele>
        <time>2012-06-04T12:47:48Z</time>
      </trkpt>
      <trkpt lat="45.62082" lon="2.82595">
        <ele>1332.5</ele>
        <time>2012-06-04T12:49:13Z</time>
      </trkpt>
      <trkpt lat="45.62035" lon="2.82704">
        <ele>1345.6</ele>
        <time>2012-06-04T12:50:32Z</time>
      </trkpt>
      <trkpt lat="45.62002" lon="2.82823">
        <ele>1353.3</ele>
        <time>2012-06-04T12:51:47Z</time>
      </trkpt>
      <trkpt lat="45.62046" lon="2.82934">
        <ele>1366.1</ele>
        <time>2012-06-04T12:53:27Z</time>
      </trkpt>
      <trkpt lat="45.62096" lon="2.83041">
        <ele>1383.4</ele>
        <time>2012-06-04T12:55:24Z</time>
      </trkpt>
      <trkpt lat="45.62144" lon="2.83148">
        <ele>1400.3</ele>
        <time>2012-06-04T12:58:18Z</time>
      </trkpt>
      <trkpt lat="45.62226" lon="2.83094">
        <ele>1409.6</ele>
        <time>2012-06-04T12:59:52Z</time>
      </trkpt>
      <trkpt lat="45.62315" lon="2.83079">
        <ele>1412.4</ele>
        <time>2012-06-04T13:01:03Z</time>
      </trkpt>
      <trkpt lat="45.62391" lon="2.83146">
        <ele>1418.7</ele>
        <time>2012-06-04T13:10:25Z</time>
      </trkpt>
      <trkpt lat="45.62456" lon="2.83233">
        <ele>1413.9</ele>
        <time>2012-06-04T13:11:41Z</time>
      </trkpt>
      <trkpt lat="45.62544" lon="2.83251">
        <ele>1422.2</ele>
        <time>2012-06-04T13:12:52Z</time>
      </trkpt>
      <trkpt lat="45.62621" lon="2.83316">
        <ele>1434.1</ele>
        <time>2012-06-04T13:14:11Z</time>
      </trkpt>
      <trkpt lat="45.6258" lon="2.83432">
        <ele>1475.7</ele>
        <time>2012-06-04T13:17:25Z</time>
      </trkpt>
      <trkpt lat="45.62518" lon="2.83523">
        <ele>1483.3</ele>
        <time>2012-06-04T13:18:52Z</time>
      </trkpt>
      <trkpt lat="45.62449" lon="2.83605">
        <ele>1491.1</ele>
        <time>2012-06-04T13:21:38Z</time>
      </trkpt>
      <trkpt lat="45.62371" lon="2.83666">
        <ele>1491.4</ele>
        <time>2012-06-04T13:24:48Z</time>
      </trkpt>
      <trkpt lat="45.62305" lon="2.83752">
        <ele>1491.7</ele>
        <time>2012-06-04T13:26:02Z</time>
      </trkpt>
      <trkpt lat="45.62259" lon="2.83862">
        <ele>1494.9</ele>
        <time>2012-06-04T13:27:16Z</time>
      </trkpt>
      <trkpt lat="45.62258" lon="2.8399">
        <ele>1496.5</ele>
        <time>2012-06-04T13:28:35Z</time>
      </trkpt>
      <trkpt lat="45.62299" lon="2.84103">
        <ele>1492.2</ele>
        <time>2012-06-04T13:29:47Z</time>
      </trkpt>
      <trkpt lat="45.62352" lon="2.84206">
        <ele>1483.7</ele>
        <time>2012-06-04T13:30:56Z</time>
      </trkpt>
      <trkpt lat="45.62393" lon="2.84319">
        <ele>1479.9</ele>
        <time>2012-06-04T13:32:05Z</time>
      </trkpt>
      <trkpt lat="45.62419" lon="2.84442">
        <ele>1478.9</ele>
        <time>2012-06-04T13:33:15Z</time>
      </trkpt>
      <trkpt lat="45.62468" lon="2.8455">
        <ele>1481.9</ele>
        <time>2012-06-04T13:34:29Z</time>
      </trkpt>
      <trkpt lat="45.62527" lon="2.84645">
        <ele>1475.5</ele>
        <time>2012-06-04T13:35:38Z</time>
      </trkpt>
      <trkpt lat="45.62579" lon="2.84749">
        <ele>1461.6</ele>
        <time>2012-06-04T13:36:48Z</time>
      </trkpt>
      <trkpt lat="45.62613" lon="2.84867">
        <ele>1443.7</ele>
        <time>2012-06-04T13:38:02Z</time>
      </trkpt>
      <trkpt lat="45.62627" lon="2.84993">
        <ele>1434.6</ele>
        <time>2012-06-04T13:39:14Z</time>
      </trkpt>
      <trkpt lat="45.62673" lon="2.85102">
        <ele>1419.2</ele>
        <time>2012-06-04T13:40:37Z</time>
      </trkpt>
      <trkpt lat="45.62708" lon="2.8522">
        <ele>1405.2</ele>
        <time>2012-06-04T13:41:44Z</time>
      </trkpt>
      <trkpt lat="45.62796" lon="2.85234">
        <ele>1389.1</ele>
        <time>2012-06-04T13:42:54Z</time>
      </trkpt>
      <trkpt lat="45.62879" lon="2.85282">
        <ele>1382.1</ele>
        <time>2012-06-04T13:44:05Z</time>
      </trkpt>
      <trkpt lat="45.62961" lon="2.85336">
        <ele>1374.8</ele>
        <time>2012-06-04T13:45:12Z</time>
      </trkpt>
      <trkpt lat="45.63049" lon="2.85357">
        <ele>1366.4</ele>
        <time>2012-06-04T13:47:25Z</time>
      </trkpt>
      <trkpt lat="45.63136" lon="2.85381">
        <ele>1363.6</ele>
        <time>2012-06-04T13:48:30Z</time>
      </trkpt>
      <trkpt lat="45.63225" lon="2.85399">
        <ele>1375.9</ele>
        <time>2012-06-04T13:49:47Z</time>
      </trkpt>
      <trkpt lat="45.63314" lon="2.85412">
        <ele>1382.5</ele>
        <time>2012-06-04T13:51:01Z</time>
      </trkpt>
      <trkpt lat="45.63403" lon="2.85434">
        <ele>1382.9</ele>
        <time>2012-06-04T13:52:13Z</time>
      </trkpt>
      <trkpt lat="45.63491" lon="2.85441">
        <ele>1380</ele>
        <time>2012-06-04T13:53:26Z</time>
      </trkpt>
      <trkpt lat="45.63581" lon="2.85445">
        <ele>1381.5</ele>
        <time>2012-06-04T14:01:05Z</time>
      </trkpt>
      <trkpt lat="45.6367" lon="2.85464">
        <ele>1390.2</ele>
        <time>2012-06-04T14:04:55Z</time>
      </trkpt>
      <trkpt lat="45.63757" lon="2.85493">
        <ele>1380.8</ele>
        <time>2012-06-04T14:06:08Z</time>
      </trkpt>
      <trkpt lat="45.63788" lon="2.85614">
        <ele>1360.3</ele>
        <time>2012-06-04T14:13:51Z</time>
      </trkpt>
      <trkpt lat="45.63783" lon="2.85742">
        <ele>1341.1</ele>
        <time>2012-06-04T14:15:01Z</time>
      </trkpt>
      <trkpt lat="45.63784" lon="2.8587">
        <ele>1310.6</ele>
        <time>2012-06-04T14:16:25Z</time>
      </trkpt>
      <trkpt lat="45.63858" lon="2.85943">
        <ele>1290.4</ele>
        <time>2012-06-04T14:22:06Z</time>
      </trkpt>
      <trkpt lat="45.63945" lon="2.85969">
        <ele>1282.2</ele>
        <time>2012-06-04T14:24:17Z</time>
      </trkpt>
      <trkpt lat="45.64032" lon="2.85997">
        <ele>1272.8</ele>
        <time>2012-06-04T14:25:24Z</time>
      </trkpt>
      <trkpt lat="45.64119" lon="2.86026">
        <ele>1265</ele>
        <time>2012-06-04T14:26:37Z</time>
      </trkpt>
      <trkpt lat="45.64207" lon="2.86047">
        <ele>1256.2</ele>
        <time>2012-06-04T14:27:52Z</time>
      </trkpt>
      <trkpt lat="45.64294" lon="2.86075">
        <ele>1245.7</ele>
        <time>2012-06-04T14:29:02Z</time>
      </trkpt>
      <trkpt lat="45.64381" lon="2.86103">
        <ele>1226.6</ele>
        <time>2012-06-04T14:30:22Z</time>
      </trkpt>
      <trkpt lat="45.64467" lon="2.86135">
        <ele>1209.9</ele>
        <time>2012-06-04T14:40:05Z</time>
      </trkpt>
      <trkpt lat="45.64531" lon="2.86224">
        <ele>1209.3</ele>
        <time>2012-06-04T14:42:28Z</time>
      </trkpt>
      <trkpt lat="45.6462" lon="2.86217">
        <ele>1210.5</ele>
        <time>2012-06-04T14:44:11Z</time>
      </trkpt>
      <trkpt lat="45.64695" lon="2.86147">
        <ele>1209</ele>
        <time>2012-06-04T14:45:24Z</time>
      </trkpt>
      <trkpt lat="45.64757" lon="2.86054">
        <ele>1211</ele>
        <time>2012-06-04T14:47:12Z</time>
      </trkpt>
      <trkpt lat="45.6479" lon="2.85935">
        <ele>1211.6</ele>
        <time>2012-06-04T14:48:27Z</time>
      </trkpt>
      <trkpt lat="45.64799" lon="2.85807">
        <ele>1213.6</ele>
        <time>2012-06-04T14:49:46Z</time>
      </trkpt>
      <trkpt lat="45.64889" lon="2.85819">
        <ele>1226.7</ele>
        <time>2012-06-04T15:02:49Z</time>
      </trkpt>
      <trkpt lat="45.6497" lon="2.8576">
        <ele>1223.5</ele>
        <time>2012-06-04T15:05:48Z</time>
      </trkpt>
      <trkpt lat="45.65022" lon="2.85657">
        <ele>1216.6</ele>
        <time>2012-06-04T15:06:57Z</time>
      </trkpt>
      <trkpt lat="45.65074" lon="2.85554">
        <ele>1211.5</ele>
        <time>2012-06-04T15:07:58Z</time>
      </trkpt>
      <trkpt lat="45.65132" lon="2.85457">
        <ele>1200.4</ele>
        <time>2012-06-04T15:09:06Z</time>
      </trkpt>
      <trkpt lat="45.65222" lon="2.85449">
        <ele>1191.4</ele>
        <time>2012-06-04T15:10:32Z</time>
      </trkpt>
      <trkpt lat="45.6531" lon="2.85427">
        <ele>1182.3</ele>
        <time>2012-06-04T15:11:35Z</time>
      </trkpt>
      <trkpt lat="45.65397" lon="2.85397">
        <ele>1177.9</ele>
        <time>2012-06-04T15:13:18Z</time>
      </trkpt>
      <trkpt lat="45.65487" lon="2.854">
        <ele>1168.4</ele>
        <time>2012-06-04T15:15:13Z</time>
      </trkpt>
      <trkpt lat="45.65559" lon="2.85322">
        <ele>1157.5</ele>
        <time>2012-06-04T15:16:24Z</time>
      </trkpt>
      <trkpt lat="45.65627" lon="2.85242">
        <ele>1149.7</ele>
        <time>2012-06-04T15:17:33Z</time>
      </trkpt>
      <trkpt lat="45.65689" lon="2.85148">
        <ele>1146.1</ele>
        <time>2012-06-04T15:18:41Z</time>
      </trkpt>
      <trkpt lat="45.6576" lon="2.85073">
        <ele>1139.2</ele>
        <time>2012-06-04T15:20:50Z</time>
      </trkpt>
      <trkpt lat="45.65845" lon="2.85032">
        <ele>1130.7</ele>
        <time>2012-06-04T15:24:51Z</time>
      </trkpt>
      <trkpt lat="45.65931" lon="2.84997">
        <ele>1122.1</ele>
        <time>2012-06-04T15:26:04Z</time>
      </trkpt>
      <trkpt lat="45.66018" lon="2.84967">
        <ele>1116.5</ele>
        <time>2012-06-04T15:27:22Z</time>
      </trkpt>
      <trkpt lat="45.66105" lon="2.84938">
        <ele>1109.1</ele>
        <time>2012-06-04T15:28:32Z</time>
      </trkpt>
      <trkpt lat="45.66188" lon="2.8489">
        <ele>1106.3</ele>
        <time>2012-06-04T15:29:40Z</time>
      </trkpt>
      <trkpt lat="45.66221" lon="2.84772">
        <ele>1102</ele>
        <time>2012-06-04T15:30:53Z</time>
      </trkpt>
      <trkpt lat="45.66305" lon="2.84724">
        <ele>1097.2</ele>
        <time>2012-06-04T15:32:02Z</time>
      </trkpt>
      <trkpt lat="45.66389" lon="2.8477">
        <ele>1098.9</ele>
        <time>2012-06-04T15:33:14Z</time>
      </trkpt>
      <trkpt lat="45.66469" lon="2.84826">
        <ele>1093.7</ele>
        <time>2012-06-04T15:34:20Z</time>
      </trkpt>
      <trkpt lat="45.66552" lon="2.84872">
        <ele>1088.9</ele>
        <time>2012-06-04T15:35:28Z</time>
      </trkpt>
      <trkpt lat="45.66635" lon="2.84918">
        <ele>1084.6</ele>
        <time>2012-06-04T15:38:56Z</time>
      </trkpt>
      <trkpt lat="45.66723" lon="2.84943">
        <ele>1076.9</ele>
        <time>2012-06-04T15:40:36Z</time>
      </trkpt>
      <trkpt lat="45.66811" lon="2.84976">
        <ele>1068.2</ele>
        <time>2012-06-04T15:42:07Z</time>
      </trkpt>
      <trkpt lat="45.66896" lon="2.85013">
        <ele>1059.4</ele>
        <time>2012-06-04T15:43:17Z</time>
      </trkpt>
      <trkpt lat="45.66982" lon="2.85052">
        <ele>1052.9</ele>
        <time>2012-06-04T15:44:27Z</time>
      </trkpt>
      <trkpt lat="45.67068" lon="2.85085">
        <ele>1048.4</ele>
        <time>2012-06-04T15:45:35Z</time>
      </trkpt>
      <trkpt lat="45.67155" lon="2.85111">
        <ele>1045.8</ele>
        <time>2012-06-04T15:46:42Z</time>
      </trkpt>
      <trkpt lat="45.67189" lon="2.84992">
        <ele>1032.7</ele>
        <time>2012-06-04T15:50:17Z</time>
      </trkpt>
      <trkpt lat="45.67252" lon="2.84903">
        <ele>1032.3</ele>
        <time>2012-06-04T15:51:25Z</time>
      </trkpt>
      <trkpt lat="45.6729" lon="2.84787">
        <ele>1031</ele>
        <time>2012-06-04T15:53:52Z</time>
      </trkpt>
      <trkpt lat="45.67314" lon="2.84664">
        <ele>1017.5</ele>
        <time>2012-06-04T15:55:08Z</time>
      </trkpt>
      <trkpt lat="45.67405" lon="2.84657">
        <ele>993</ele>
        <time>2012-06-04T15:57:12Z</time>
      </trkpt>
      <trkpt lat="45.67483" lon="2.84593">
        <ele>971.6</ele>
        <time>2012-06-04T15:58:35Z</time>
      </trkpt>
      <trkpt lat="45.67532" lon="2.84486">
        <ele>955</ele>
        <time>2012-06-04T15:59:45Z</time>
      </trkpt>
      <trkpt lat="45.67584" lon="2.8438">
        <ele>947.5</ele>
        <time>2012-06-04T16:01:04Z</time>
      </trkpt>
      <trkpt lat="45.67644" lon="2.84286">
        <ele>936.1</ele>
        <time>2012-06-04T16:02:44Z</time>
      </trkpt>
      <trkpt lat="45.67715" lon="2.84211">
        <ele>921</ele>
        <time>2012-06-04T16:04:11Z</time>
      </trkpt>
      <trkpt lat="45.67805" lon="2.84202">
        <ele>911.7</ele>
        <time>2012-06-04T16:06:53Z</time>
      </trkpt>
      <trkpt lat="45.67894" lon="2.84193">
        <ele>904.1</ele>
        <time>2012-06-04T16:08:03Z</time>
      </trkpt>
      <trkpt lat="45.67981" lon="2.84223">
        <ele>903.9</ele>
        <time>2012-06-04T16:09:14Z</time>
      </trkpt>
      <trkpt lat="45.68065" lon="2.84268">
        <ele>899.3</ele>
        <time>2012-06-04T16:10:24Z</time>
      </trkpt>
      <trkpt lat="45.68122" lon="2.84169">
        <ele>892.5</ele>
        <time>2012-06-04T16:13:31Z</time>
      </trkpt>
      <trkpt lat="45.68209" lon="2.8414">
        <ele>885.7</ele>
        <time>2012-06-04T16:15:05Z</time>
      </trkpt>
      <trkpt lat="45.68292" lon="2.84186">
        <ele>881.6</ele>
        <time>2012-06-04T16:19:19Z</time>
      </trkpt>
      <trkpt lat="45.68479" lon="2.84467">
        <ele>893.7</ele>
        <time>2012-06-05T07:28:57Z</time>
      </trkpt>
      <trkpt lat="45.68479" lon="2.84467">
        <ele>894.3</ele>
        <time>2012-06-05T07:28:58Z</time>
      </trkpt>
      <trkpt lat="45.6856" lon="2.84525">
        <ele>939.7</ele>
        <time>2012-06-05T07:36:18Z</time>
      </trkpt>
      <trkpt lat="45.6865" lon="2.84512">
        <ele>941.6</ele>
        <time>2012-06-05T07:37:27Z</time>
      </trkpt>
      <trkpt lat="45.68738" lon="2.8449">
        <ele>929.7</ele>
        <time>2012-06-05T07:38:37Z</time>
      </trkpt>
      <trkpt lat="45.68828" lon="2.84479">
        <ele>930.1</ele>
        <time>2012-06-05T07:39:38Z</time>
      </trkpt>
      <trkpt lat="45.68912" lon="2.84516">
        <ele>936.7</ele>
        <time>2012-06-05T07:40:48Z</time>
      </trkpt>
      <trkpt lat="45.68985" lon="2.84589">
        <ele>941.3</ele>
        <time>2012-06-05T07:41:51Z</time>
      </trkpt>
      <trkpt lat="45.69055" lon="2.84669">
        <ele>946.9</ele>
        <time>2012-06-05T07:42:57Z</time>
      </trkpt>
      <trkpt lat="45.69138" lon="2.8472">
        <ele>946.8</ele>
        <time>2012-06-05T07:44:03Z</time>
      </trkpt>
      <trkpt lat="45.69205" lon="2.84802">
        <ele>946.5</ele>
        <time>2012-06-05T07:45:08Z</time>
      </trkpt>
      <trkpt lat="45.69284" lon="2.84859">
        <ele>948.4</ele>
        <time>2012-06-05T07:46:41Z</time>
      </trkpt>
      <trkpt lat="45.69335" lon="2.84965">
        <ele>957</ele>
        <time>2012-06-05T07:48:15Z</time>
      </trkpt>
      <trkpt lat="45.69378" lon="2.85077">
        <ele>965</ele>
        <time>2012-06-05T07:49:27Z</time>
      </trkpt>
      <trkpt lat="45.69365" lon="2.85204">
        <ele>963.8</ele>
        <time>2012-06-05T07:50:44Z</time>
      </trkpt>
      <trkpt lat="45.69348" lon="2.85331">
        <ele>958.6</ele>
        <time>2012-06-05T07:51:58Z</time>
      </trkpt>
      <trkpt lat="45.69292" lon="2.8543">
        <ele>948.5</ele>
        <time>2012-06-05T07:53:19Z</time>
      </trkpt>
      <trkpt lat="45.6922" lon="2.85505">
        <ele>942.1</ele>
        <time>2012-06-05T07:54:32Z</time>
      </trkpt>
      <trkpt lat="45.69151" lon="2.85586">
        <ele>935.4</ele>
        <time>2012-06-05T07:55:51Z</time>
      </trkpt>
      <trkpt lat="45.69072" lon="2.85646">
        <ele>930</ele>
        <time>2012-06-05T07:57:08Z</time>
      </trkpt>
      <trkpt lat="45.68991" lon="2.85699">
        <ele>925</ele>
        <time>2012-06-05T07:58:20Z</time>
      </trkpt>
      <trkpt lat="45.69079" lon="2.85731">
        <ele>904.3</ele>
        <time>2012-06-05T08:00:27Z</time>
      </trkpt>
      <trkpt lat="45.6909" lon="2.85859">
        <ele>882.2</ele>
        <time>2012-06-05T08:02:49Z</time>
      </trkpt>
      <trkpt lat="45.69028" lon="2.8595">
        <ele>872.8</ele>
        <time>2012-06-05T08:04:04Z</time>
      </trkpt>
      <trkpt lat="45.68982" lon="2.8606">
        <ele>864.7</ele>
        <time>2012-06-05T08:05:18Z</time>
      </trkpt>
      <trkpt lat="45.69023" lon="2.86173">
        <ele>854.2</ele>
        <time>2012-06-05T08:06:52Z</time>
      </trkpt>
      <trkpt lat="45.69101" lon="2.86234">
        <ele>849.7</ele>
        <time>2012-06-05T08:08:14Z</time>
      </trkpt>
      <trkpt lat="45.69153" lon="2.8634">
        <ele>842.6</ele>
        <time>2012-06-05T08:09:35Z</time>
      </trkpt>
      <trkpt lat="45.69192" lon="2.86455">
        <ele>837.1</ele>
        <time>2012-06-05T08:10:51Z</time>
      </trkpt>
      <trkpt lat="45.6922" lon="2.86577">
        <ele>841.1</ele>
        <time>2012-06-05T08:12:31Z</time>
      </trkpt>
      <trkpt lat="45.6923" lon="2.86703">
        <ele>844.2</ele>
        <time>2012-06-05T08:15:52Z</time>
      </trkpt>
      <trkpt lat="45.69193" lon="2.8682">
        <ele>838.1</ele>
        <time>2012-06-05T08:17:21Z</time>
      </trkpt>
      <trkpt lat="45.69107" lon="2.86854">
        <ele>840</ele>
        <time>2012-06-05T08:18:40Z</time>
      </trkpt>
      <trkpt lat="45.69018" lon="2.86867">
        <ele>842.8</ele>
        <time>2012-06-05T08:19:55Z</time>
      </trkpt>
      <trkpt lat="45.68949" lon="2.86949">
        <ele>843.5</ele>
        <time>2012-06-05T08:26:39Z</time>
      </trkpt>
      <trkpt lat="45.68937" lon="2.87075">
        <ele>847.1</ele>
        <time>2012-06-05T08:27:55Z</time>
      </trkpt>
      <trkpt lat="45.68971" lon="2.87194">
        <ele>864</ele>
        <time>2012-06-05T08:29:26Z</time>
      </trkpt>
      <trkpt lat="45.6896" lon="2.87321">
        <ele>876.2</ele>
        <time>2012-06-05T08:31:07Z</time>
      </trkpt>
      <trkpt lat="45.68929" lon="2.87441">
        <ele>893.9</ele>
        <time>2012-06-05T08:32:42Z</time>
      </trkpt>
      <trkpt lat="45.68909" lon="2.87566">
        <ele>909.8</ele>
        <time>2012-06-05T08:34:17Z</time>
      </trkpt>
      <trkpt lat="45.68917" lon="2.87693">
        <ele>922.4</ele>
        <time>2012-06-05T08:35:37Z</time>
      </trkpt>
      <trkpt lat="45.68931" lon="2.8782">
        <ele>930.2</ele>
        <time>2012-06-05T08:36:55Z</time>
      </trkpt>
      <trkpt lat="45.6892" lon="2.87947">
        <ele>938.8</ele>
        <time>2012-06-05T08:38:03Z</time>
      </trkpt>
      <trkpt lat="45.6894" lon="2.88072">
        <ele>954.3</ele>
        <time>2012-06-05T08:42:04Z</time>
      </trkpt>
      <trkpt lat="45.68935" lon="2.882">
        <ele>962</ele>
        <time>2012-06-05T08:43:22Z</time>
      </trkpt>
      <trkpt lat="45.68924" lon="2.88327">
        <ele>959.8</ele>
        <time>2012-06-05T08:44:30Z</time>
      </trkpt>
      <trkpt lat="45.68908" lon="2.88452">
        <ele>962.7</ele>
        <time>2012-06-05T08:45:40Z</time>
      </trkpt>
      <trkpt lat="45.68901" lon="2.88579">
        <ele>963.2</ele>
        <time>2012-06-05T08:48:01Z</time>
      </trkpt>
      <trkpt lat="45.68935" lon="2.88697">
        <ele>956.3</ele>
        <time>2012-06-05T08:49:43Z</time>
      </trkpt>
      <trkpt lat="45.69018" lon="2.88748">
        <ele>952.2</ele>
        <time>2012-06-05T08:50:56Z</time>
      </trkpt>
      <trkpt lat="45.69106" lon="2.88762">
        <ele>949.8</ele>
        <time>2012-06-05T08:52:02Z</time>
      </trkpt>
      <trkpt lat="45.69184" lon="2.88825">
        <ele>949.9</ele>
        <time>2012-06-05T08:53:12Z</time>
      </trkpt>
      <trkpt lat="45.69271" lon="2.88851">
        <ele>950.2</ele>
        <time>2012-06-05T08:54:23Z</time>
      </trkpt>
      <trkpt lat="45.6936" lon="2.88846">
        <ele>944.9</ele>
        <time>2012-06-05T08:56:35Z</time>
      </trkpt>
      <trkpt lat="45.6945" lon="2.88853">
        <ele>941.1</ele>
        <time>2012-06-05T08:57:45Z</time>
      </trkpt>
      <trkpt lat="45.69534" lon="2.88894">
        <ele>940.7</ele>
        <time>2012-06-05T08:58:51Z</time>
      </trkpt>
      <trkpt lat="45.69622" lon="2.88921">
        <ele>940.3</ele>
        <time>2012-06-05T08:59:58Z</time>
      </trkpt>
      <trkpt lat="45.69706" lon="2.88961">
        <ele>941.1</ele>
        <time>2012-06-05T09:15:48Z</time>
      </trkpt>
      <trkpt lat="45.69755" lon="2.89068">
        <ele>926.3</ele>
        <time>2012-06-05T09:19:04Z</time>
      </trkpt>
      <trkpt lat="45.69832" lon="2.89132">
        <ele>913.4</ele>
        <time>2012-06-05T09:20:19Z</time>
      </trkpt>
      <trkpt lat="45.69859" lon="2.89254">
        <ele>896.1</ele>
        <time>2012-06-05T09:21:56Z</time>
      </trkpt>
      <trkpt lat="45.6991" lon="2.89359">
        <ele>884</ele>
        <time>2012-06-05T09:23:11Z</time>
      </trkpt>
      <trkpt lat="45.69944" lon="2.89477">
        <ele>880.3</ele>
        <time>2012-06-05T09:25:05Z</time>
      </trkpt>
      <trkpt lat="45.70013" lon="2.89559">
        <ele>887</ele>
        <time>2012-06-05T09:29:12Z</time>
      </trkpt>
      <trkpt lat="45.70082" lon="2.8964">
        <ele>891.1</ele>
        <time>2012-06-05T09:30:22Z</time>
      </trkpt>
      <trkpt lat="45.70168" lon="2.89678">
        <ele>899.4</ele>
        <time>2012-06-05T09:31:36Z</time>
      </trkpt>
      <trkpt lat="45.70225" lon="2.89776">
        <ele>907.5</ele>
        <time>2012-06-05T09:32:59Z</time>
      </trkpt>
      <trkpt lat="45.70298" lon="2.89849">
        <ele>914.7</ele>
        <time>2012-06-05T09:34:14Z</time>
      </trkpt>
      <trkpt lat="45.70379" lon="2.89904">
        <ele>925</ele>
        <time>2012-06-05T09:35:24Z</time>
      </trkpt>
      <trkpt lat="45.70439" lon="2.9">
        <ele>922.2</ele>
        <time>2012-06-05T09:36:37Z</time>
      </trkpt>
      <trkpt lat="45.70506" lon="2.90083">
        <ele>922.1</ele>
        <time>2012-06-05T09:38:25Z</time>
      </trkpt>
      <trkpt lat="45.70513" lon="2.90212">
        <ele>921.1</ele>
        <time>2012-06-05T09:39:42Z</time>
      </trkpt>
      <trkpt lat="45.70463" lon="2.9032">
        <ele>911.5</ele>
        <time>2012-06-05T09:41:00Z</time>
      </trkpt>
      <trkpt lat="45.70449" lon="2.90446">
        <ele>919.4</ele>
        <time>2012-06-05T09:42:21Z</time>
      </trkpt>
      <trkpt lat="45.70495" lon="2.90555">
        <ele>925.8</ele>
        <time>2012-06-05T09:43:32Z</time>
      </trkpt>
      <trkpt lat="45.70535" lon="2.90669">
        <ele>929.1</ele>
        <time>2012-06-05T09:44:36Z</time>
      </trkpt>
      <trkpt lat="45.70591" lon="2.90769">
        <ele>934.4</ele>
        <time>2012-06-05T09:45:49Z</time>
      </trkpt>
      <trkpt lat="45.70657" lon="2.90854">
        <ele>940.1</ele>
        <time>2012-06-05T09:47:17Z</time>
      </trkpt>
      <trkpt lat="45.7062" lon="2.90972">
        <ele>934.4</ele>
        <time>2012-06-05T09:48:34Z</time>
      </trkpt>
      <trkpt lat="45.70549" lon="2.91048">
        <ele>932.8</ele>
        <time>2012-06-05T09:49:46Z</time>
      </trkpt>
      <trkpt lat="45.70499" lon="2.91153">
        <ele>930.4</ele>
        <time>2012-06-05T09:50:47Z</time>
      </trkpt>
      <trkpt lat="45.70453" lon="2.91263">
        <ele>928.6</ele>
        <time>2012-06-05T10:12:58Z</time>
      </trkpt>
      <trkpt lat="45.70371" lon="2.91313">
        <ele>933</ele>
        <time>2012-06-05T10:14:41Z</time>
      </trkpt>
      <trkpt lat="45.70329" lon="2.91425">
        <ele>938.9</ele>
        <time>2012-06-05T10:16:30Z</time>
      </trkpt>
      <trkpt lat="45.70343" lon="2.91552">
        <ele>950.6</ele>
        <time>2012-06-05T10:20:20Z</time>
      </trkpt>
      <trkpt lat="45.70372" lon="2.91632">
        <ele>968</ele>
        <time>2012-06-05T11:03:38Z</time>
      </trkpt>
      <trkpt lat="45.70372" lon="2.91632">
        <ele>968</ele>
        <time>2012-06-05T11:03:39Z</time>
      </trkpt>
      <trkpt lat="45.70358" lon="2.9176">
        <ele>974.7</ele>
        <time>2012-06-05T11:07:00Z</time>
      </trkpt>
      <trkpt lat="45.7043" lon="2.91837">
        <ele>992.3</ele>
        <time>2012-06-05T11:09:24Z</time>
      </trkpt>
      <trkpt lat="45.70467" lon="2.91953">
        <ele>1005</ele>
        <time>2012-06-05T11:10:37Z</time>
      </trkpt>
      <trkpt lat="45.70496" lon="2.92074">
        <ele>1012</ele>
        <time>2012-06-05T11:11:59Z</time>
      </trkpt>
      <trkpt lat="45.70495" lon="2.92203">
        <ele>1016.6</ele>
        <time>2012-06-05T11:13:09Z</time>
      </trkpt>
      <trkpt lat="45.70498" lon="2.92331">
        <ele>1020.2</ele>
        <time>2012-06-05T11:14:17Z</time>
      </trkpt>
      <trkpt lat="45.70508" lon="2.92458">
        <ele>1025.8</ele>
        <time>2012-06-05T11:15:26Z</time>
      </trkpt>
      <trkpt lat="45.70495" lon="2.92585">
        <ele>1035.8</ele>
        <time>2012-06-05T11:16:44Z</time>
      </trkpt>
      <trkpt lat="45.70498" lon="2.92713">
        <ele>1042</ele>
        <time>2012-06-05T11:24:08Z</time>
      </trkpt>
      <trkpt lat="45.70518" lon="2.92837">
        <ele>1043.4</ele>
        <time>2012-06-05T11:25:17Z</time>
      </trkpt>
      <trkpt lat="45.70538" lon="2.9296">
        <ele>1046.1</ele>
        <time>2012-06-05T11:26:25Z</time>
      </trkpt>
      <trkpt lat="45.70539" lon="2.93087">
        <ele>1049.3</ele>
        <time>2012-06-05T11:27:32Z</time>
      </trkpt>
      <trkpt lat="45.70546" lon="2.93216">
        <ele>1052.1</ele>
        <time>2012-06-05T11:28:40Z</time>
      </trkpt>
      <trkpt lat="45.70573" lon="2.93338">
        <ele>1051.9</ele>
        <time>2012-06-05T11:29:48Z</time>
      </trkpt>
      <trkpt lat="45.7061" lon="2.93456">
        <ele>1054.6</ele>
        <time>2012-06-05T11:30:57Z</time>
      </trkpt>
      <trkpt lat="45.70642" lon="2.93576">
        <ele>1051.1</ele>
        <time>2012-06-05T11:32:06Z</time>
      </trkpt>
      <trkpt lat="45.70674" lon="2.93696">
        <ele>1050.5</ele>
        <time>2012-06-05T11:33:13Z</time>
      </trkpt>
      <trkpt lat="45.70707" lon="2.93814">
        <ele>1050</ele>
        <time>2012-06-05T11:34:21Z</time>
      </trkpt>
      <trkpt lat="45.70754" lon="2.93923">
        <ele>1049.2</ele>
        <time>2012-06-05T11:41:05Z</time>
      </trkpt>
      <trkpt lat="45.70819" lon="2.94011">
        <ele>1049</ele>
        <time>2012-06-05T11:42:12Z</time>
      </trkpt>
      <trkpt lat="45.7089" lon="2.94087">
        <ele>1050.4</ele>
        <time>2012-06-05T11:43:18Z</time>
      </trkpt>
      <trkpt lat="45.70952" lon="2.94178">
        <ele>1048.9</ele>
        <time>2012-06-05T11:44:23Z</time>
      </trkpt>
      <trkpt lat="45.71023" lon="2.94257">
        <ele>1047.6</ele>
        <time>2012-06-05T11:45:29Z</time>
      </trkpt>
      <trkpt lat="45.71007" lon="2.94384">
        <ele>1049.1</ele>
        <time>2012-06-05T11:47:39Z</time>
      </trkpt>
      <trkpt lat="45.70972" lon="2.94503">
        <ele>1051.2</ele>
        <time>2012-06-05T11:48:55Z</time>
      </trkpt>
      <trkpt lat="45.70911" lon="2.94596">
        <ele>1051.9</ele>
        <time>2012-06-05T11:50:10Z</time>
      </trkpt>
      <trkpt lat="45.70855" lon="2.94696">
        <ele>1049.8</ele>
        <time>2012-06-05T11:51:21Z</time>
      </trkpt>
      <trkpt lat="45.70793" lon="2.94789">
        <ele>1048.5</ele>
        <time>2012-06-05T11:52:32Z</time>
      </trkpt>
      <trkpt lat="45.7073" lon="2.94878">
        <ele>1047.3</ele>
        <time>2012-06-05T11:54:14Z</time>
      </trkpt>
      <trkpt lat="45.7069" lon="2.94995">
        <ele>1044.3</ele>
        <time>2012-06-05T11:55:53Z</time>
      </trkpt>
      <trkpt lat="45.70678" lon="2.95122">
        <ele>1041.2</ele>
        <time>2012-06-05T11:57:02Z</time>
      </trkpt>
      <trkpt lat="45.70632" lon="2.95233">
        <ele>1037.6</ele>
        <time>2012-06-05T11:58:15Z</time>
      </trkpt>
      <trkpt lat="45.70569" lon="2.95322">
        <ele>1023.1</ele>
        <time>2012-06-05T12:04:46Z</time>
      </trkpt>
      <trkpt lat="45.70504" lon="2.95411">
        <ele>1012.2</ele>
        <time>2012-06-05T12:06:03Z</time>
      </trkpt>
      <trkpt lat="45.70464" lon="2.95525">
        <ele>1005.7</ele>
        <time>2012-06-05T12:07:16Z</time>
      </trkpt>
      <trkpt lat="45.70415" lon="2.95632">
        <ele>1000.7</ele>
        <time>2012-06-05T12:08:26Z</time>
      </trkpt>
      <trkpt lat="45.70368" lon="2.9574">
        <ele>998.4</ele>
        <time>2012-06-05T12:09:32Z</time>
      </trkpt>
      <trkpt lat="45.70316" lon="2.95845">
        <ele>997.6</ele>
        <time>2012-06-05T12:10:52Z</time>
      </trkpt>
      <trkpt lat="45.70261" lon="2.95946">
        <ele>997.4</ele>
        <time>2012-06-05T12:12:05Z</time>
      </trkpt>
      <trkpt lat="45.70196" lon="2.96032">
        <ele>996.8</ele>
        <time>2012-06-05T12:13:56Z</time>
      </trkpt>
      <trkpt lat="45.7014" lon="2.96132">
        <ele>995.2</ele>
        <time>2012-06-05T12:15:07Z</time>
      </trkpt>
      <trkpt lat="45.70084" lon="2.96232">
        <ele>999.4</ele>
        <time>2012-06-05T12:16:17Z</time>
      </trkpt>
      <trkpt lat="45.70064" lon="2.96355">
        <ele>1001.2</ele>
        <time>2012-06-05T12:17:25Z</time>
      </trkpt>
      <trkpt lat="45.70064" lon="2.96484">
        <ele>994.6</ele>
        <time>2012-06-05T12:18:33Z</time>
      </trkpt>
      <trkpt lat="45.70111" lon="2.96592">
        <ele>988.5</ele>
        <time>2012-06-05T12:19:42Z</time>
      </trkpt>
      <trkpt lat="45.70136" lon="2.96714">
        <ele>985.6</ele>
        <time>2012-06-05T12:21:07Z</time>
      </trkpt>
      <trkpt lat="45.70113" lon="2.96837">
        <ele>983.5</ele>
        <time>2012-06-05T12:22:15Z</time>
      </trkpt>
      <trkpt lat="45.70067" lon="2.96947">
        <ele>985</ele>
        <time>2012-06-05T12:23:27Z</time>
      </trkpt>
      <trkpt lat="45.70017" lon="2.97053">
        <ele>987.2</ele>
        <time>2012-06-05T12:30:54Z</time>
      </trkpt>
      <trkpt lat="45.69974" lon="2.97166">
        <ele>988.6</ele>
        <time>2012-06-05T12:32:18Z</time>
      </trkpt>
      <trkpt lat="45.69951" lon="2.97289">
        <ele>985.4</ele>
        <time>2012-06-05T12:33:31Z</time>
      </trkpt>
      <trkpt lat="45.69914" lon="2.97405">
        <ele>977.3</ele>
        <time>2012-06-05T12:34:43Z</time>
      </trkpt>
      <trkpt lat="45.69868" lon="2.97515">
        <ele>970.6</ele>
        <time>2012-06-05T12:35:53Z</time>
      </trkpt>
      <trkpt lat="45.69832" lon="2.97632">
        <ele>965.4</ele>
        <time>2012-06-05T12:37:03Z</time>
      </trkpt>
      <trkpt lat="45.69805" lon="2.97754">
        <ele>962.4</ele>
        <time>2012-06-05T12:38:16Z</time>
      </trkpt>
      <trkpt lat="45.69763" lon="2.97866">
        <ele>959.2</ele>
        <time>2012-06-05T12:39:27Z</time>
      </trkpt>
      <trkpt lat="45.69726" lon="2.97981">
        <ele>956.7</ele>
        <time>2012-06-05T12:40:33Z</time>
      </trkpt>
      <trkpt lat="45.69705" lon="2.98106">
        <ele>954.9</ele>
        <time>2012-06-05T12:41:49Z</time>
      </trkpt>
      <trkpt lat="45.69687" lon="2.9823">
        <ele>955.1</ele>
        <time>2012-06-05T12:43:03Z</time>
      </trkpt>
      <trkpt lat="45.69663" lon="2.98353">
        <ele>953.8</ele>
        <time>2012-06-05T12:44:11Z</time>
      </trkpt>
      <trkpt lat="45.69641" lon="2.98477">
        <ele>948.7</ele>
        <time>2012-06-05T12:45:20Z</time>
      </trkpt>
      <trkpt lat="45.69618" lon="2.98601">
        <ele>943.5</ele>
        <time>2012-06-05T12:46:27Z</time>
      </trkpt>
      <trkpt lat="45.69588" lon="2.9872">
        <ele>944.4</ele>
        <time>2012-06-05T12:47:37Z</time>
      </trkpt>
      <trkpt lat="45.6956" lon="2.98842">
        <ele>941.6</ele>
        <time>2012-06-05T12:48:49Z</time>
      </trkpt>
      <trkpt lat="45.69523" lon="2.98958">
        <ele>938.9</ele>
        <time>2012-06-05T12:49:58Z</time>
      </trkpt>
      <trkpt lat="45.69557" lon="2.99078">
        <ele>942.7</ele>
        <time>2012-06-05T12:51:13Z</time>
      </trkpt>
      <trkpt lat="45.69534" lon="2.99201">
        <ele>936.7</ele>
        <time>2012-06-05T12:52:30Z</time>
      </trkpt>
      <trkpt lat="45.69506" lon="2.99324">
        <ele>931.6</ele>
        <time>2012-06-05T12:53:45Z</time>
      </trkpt>
      <trkpt lat="45.69447" lon="2.99418">
        <ele>926.7</ele>
        <time>2012-06-05T12:54:51Z</time>
      </trkpt>
      <trkpt lat="45.69408" lon="2.99535">
        <ele>923.5</ele>
        <time>2012-06-05T12:56:09Z</time>
      </trkpt>
      <trkpt lat="45.69321" lon="2.99505">
        <ele>922.8</ele>
        <time>2012-06-05T13:05:28Z</time>
      </trkpt>
      <trkpt lat="45.69268" lon="2.99609">
        <ele>909.1</ele>
        <time>2012-06-05T13:19:50Z</time>
      </trkpt>
      <trkpt lat="45.6923" lon="2.99726">
        <ele>908.7</ele>
        <time>2012-06-05T13:21:02Z</time>
      </trkpt>
      <trkpt lat="45.69321" lon="2.9972">
        <ele>920.3</ele>
        <time>2012-06-05T13:24:10Z</time>
      </trkpt>
      <trkpt lat="45.69407" lon="2.99757">
        <ele>928.6</ele>
        <time>2012-06-05T13:25:24Z</time>
      </trkpt>
      <trkpt lat="45.6944" lon="2.99876">
        <ele>939.5</ele>
        <time>2012-06-05T13:26:54Z</time>
      </trkpt>
      <trkpt lat="45.6943" lon="3.00003">
        <ele>948.6</ele>
        <time>2012-06-05T13:28:30Z</time>
      </trkpt>
      <trkpt lat="45.69374" lon="3.00104">
        <ele>957.3</ele>
        <time>2012-06-05T13:29:52Z</time>
      </trkpt>
      <trkpt lat="45.69348" lon="3.00226">
        <ele>965.8</ele>
        <time>2012-06-05T13:31:16Z</time>
      </trkpt>
      <trkpt lat="45.69316" lon="3.00345">
        <ele>976.7</ele>
        <time>2012-06-05T13:32:39Z</time>
      </trkpt>
      <trkpt lat="45.69252" lon="3.00436">
        <ele>982.7</ele>
        <time>2012-06-05T13:35:21Z</time>
      </trkpt>
      <trkpt lat="45.69176" lon="3.00502">
        <ele>982.3</ele>
        <time>2012-06-05T13:36:42Z</time>
      </trkpt>
      <trkpt lat="45.69095" lon="3.00555">
        <ele>987.4</ele>
        <time>2012-06-05T13:37:54Z</time>
      </trkpt>
      <trkpt lat="45.69006" lon="3.00546">
        <ele>993</ele>
        <time>2012-06-05T13:39:15Z</time>
      </trkpt>
      <trkpt lat="45.68916" lon="3.00546">
        <ele>998.1</ele>
        <time>2012-06-05T13:40:32Z</time>
      </trkpt>
      <trkpt lat="45.68833" lon="3.00594">
        <ele>1001.8</ele>
        <time>2012-06-05T13:42:07Z</time>
      </trkpt>
      <trkpt lat="45.68748" lon="3.00631">
        <ele>999.4</ele>
        <time>2012-06-05T13:43:26Z</time>
      </trkpt>
      <trkpt lat="45.68667" lon="3.00684">
        <ele>995.7</ele>
        <time>2012-06-05T13:45:23Z</time>
      </trkpt>
      <trkpt lat="45.68577" lon="3.00689">
        <ele>994.4</ele>
        <time>2012-06-05T13:46:51Z</time>
      </trkpt>
      <trkpt lat="45.68502" lon="3.00619">
        <ele>995.7</ele>
        <time>2012-06-05T14:01:09Z</time>
      </trkpt>
      <trkpt lat="45.68415" lon="3.00593">
        <ele>990.6</ele>
        <time>2012-06-05T14:02:50Z</time>
      </trkpt>
      <trkpt lat="45.68331" lon="3.00548">
        <ele>989.4</ele>
        <time>2012-06-05T14:04:06Z</time>
      </trkpt>
      <trkpt lat="45.68245" lon="3.00513">
        <ele>985</ele>
        <time>2012-06-05T14:05:17Z</time>
      </trkpt>
      <trkpt lat="45.68162" lon="3.00468">
        <ele>976.9</ele>
        <time>2012-06-05T14:06:31Z</time>
      </trkpt>
      <trkpt lat="45.68078" lon="3.00424">
        <ele>967.7</ele>
        <time>2012-06-05T14:07:43Z</time>
      </trkpt>
      <trkpt lat="45.67997" lon="3.00371">
        <ele>957.6</ele>
        <time>2012-06-05T14:09:25Z</time>
      </trkpt>
      <trkpt lat="45.67908" lon="3.00363">
        <ele>945.6</ele>
        <time>2012-06-05T14:10:43Z</time>
      </trkpt>
      <trkpt lat="45.67829" lon="3.00303">
        <ele>934.4</ele>
        <time>2012-06-05T14:11:57Z</time>
      </trkpt>
      <trkpt lat="45.67744" lon="3.00263">
        <ele>925.3</ele>
        <time>2012-06-05T14:13:25Z</time>
      </trkpt>
      <trkpt lat="45.67736" lon="3.00135">
        <ele>916.7</ele>
        <time>2012-06-05T14:14:42Z</time>
      </trkpt>
      <trkpt lat="45.67734" lon="3.00008">
        <ele>912.8</ele>
        <time>2012-06-05T14:15:55Z</time>
      </trkpt>
      <trkpt lat="45.6776" lon="2.99886">
        <ele>906.8</ele>
        <time>2012-06-05T14:17:06Z</time>
      </trkpt>
      <trkpt lat="45.67683" lon="2.9982">
        <ele>898.6</ele>
        <time>2012-06-05T14:19:21Z</time>
      </trkpt>
      <trkpt lat="45.67599" lon="2.99775">
        <ele>886.3</ele>
        <time>2012-06-05T14:20:54Z</time>
      </trkpt>
      <trkpt lat="45.67512" lon="2.99809">
        <ele>879</ele>
        <time>2012-06-05T14:22:13Z</time>
      </trkpt>
      <trkpt lat="45.67425" lon="2.99772">
        <ele>861.5</ele>
        <time>2012-06-05T14:24:15Z</time>
      </trkpt>
      <trkpt lat="45.67339" lon="2.99808">
        <ele>860.7</ele>
        <time>2012-06-05T14:25:46Z</time>
      </trkpt>
      <trkpt lat="45.67262" lon="2.99872">
        <ele>858.4</ele>
        <time>2012-06-05T14:26:54Z</time>
      </trkpt>
      <trkpt lat="45.67175" lon="2.99902">
        <ele>854.9</ele>
        <time>2012-06-05T14:28:08Z</time>
      </trkpt>
      <trkpt lat="45.67094" lon="2.99955">
        <ele>850.6</ele>
        <time>2012-06-05T14:29:30Z</time>
      </trkpt>
      <trkpt lat="45.67023" lon="3.00033">
        <ele>848.7</ele>
        <time>2012-06-05T14:32:18Z</time>
      </trkpt>
      <trkpt lat="45.67077" lon="3.00136">
        <ele>833.7</ele>
        <time>2012-06-05T14:38:02Z</time>
      </trkpt>
      <trkpt lat="45.67051" lon="3.00258">
        <ele>830.4</ele>
        <time>2012-06-05T14:39:17Z</time>
      </trkpt>
      <trkpt lat="45.6703" lon="3.00383">
        <ele>829.3</ele>
        <time>2012-06-05T14:40:35Z</time>
      </trkpt>
      <trkpt lat="45.67052" lon="3.00255">
        <ele>831.6</ele>
        <time>2012-06-05T15:00:45Z</time>
      </trkpt>
      <trkpt lat="45.67074" lon="3.00132">
        <ele>833.4</ele>
        <time>2012-06-05T15:01:58Z</time>
      </trkpt>
      <trkpt lat="45.67099" lon="3.00009">
        <ele>839.3</ele>
        <time>2012-06-05T15:03:09Z</time>
      </trkpt>
      <trkpt lat="45.67011" lon="3.00043">
        <ele>839.6</ele>
        <time>2012-06-05T15:04:41Z</time>
      </trkpt>
      <trkpt lat="45.66943" lon="2.99959">
        <ele>846.9</ele>
        <time>2012-06-05T15:06:02Z</time>
      </trkpt>
      <trkpt lat="45.66854" lon="2.99942">
        <ele>843.8</ele>
        <time>2012-06-05T15:07:19Z</time>
      </trkpt>
      <trkpt lat="45.66766" lon="2.99934">
        <ele>845.9</ele>
        <time>2012-06-05T15:08:39Z</time>
      </trkpt>
      <trkpt lat="45.66707" lon="2.99839">
        <ele>847.1</ele>
        <time>2012-06-05T15:09:58Z</time>
      </trkpt>
      <trkpt lat="45.66661" lon="2.99728">
        <ele>849.4</ele>
        <time>2012-06-05T15:11:21Z</time>
      </trkpt>
      <trkpt lat="45.66624" lon="2.99612">
        <ele>851.6</ele>
        <time>2012-06-05T15:12:41Z</time>
      </trkpt>
      <trkpt lat="45.66597" lon="2.99491">
        <ele>854.8</ele>
        <time>2012-06-05T15:13:56Z</time>
      </trkpt>
      <trkpt lat="45.66521" lon="2.99423">
        <ele>868</ele>
        <time>2012-06-05T15:15:26Z</time>
      </trkpt>
      <trkpt lat="45.66466" lon="2.99322">
        <ele>879.3</ele>
        <time>2012-06-05T15:16:50Z</time>
      </trkpt>
      <trkpt lat="45.66405" lon="2.99229">
        <ele>879.3</ele>
        <time>2012-06-05T15:18:06Z</time>
      </trkpt>
      <trkpt lat="45.66326" lon="2.99169">
        <ele>875.7</ele>
        <time>2012-06-05T15:19:22Z</time>
      </trkpt>
      <trkpt lat="45.66236" lon="2.99165">
        <ele>871.1</ele>
        <time>2012-06-05T15:38:49Z</time>
      </trkpt>
      <trkpt lat="45.66162" lon="2.99236">
        <ele>866</ele>
        <time>2012-06-05T15:40:12Z</time>
      </trkpt>
      <trkpt lat="45.66074" lon="2.99245">
        <ele>853.2</ele>
        <time>2012-06-05T15:41:47Z</time>
      </trkpt>
      <trkpt lat="45.66035" lon="2.99129">
        <ele>859.2</ele>
        <time>2012-06-05T15:46:51Z</time>
      </trkpt>
      <trkpt lat="45.66008" lon="2.99007">
        <ele>865</ele>
        <time>2012-06-05T15:48:26Z</time>
      </trkpt>
      <trkpt lat="45.66013" lon="2.98879">
        <ele>861.5</ele>
        <time>2012-06-05T15:49:45Z</time>
      </trkpt>
      <trkpt lat="45.65953" lon="2.98784">
        <ele>864.3</ele>
        <time>2012-06-05T15:51:01Z</time>
      </trkpt>
      <trkpt lat="45.65887" lon="2.98699">
        <ele>867.9</ele>
        <time>2012-06-05T15:52:24Z</time>
      </trkpt>
      <trkpt lat="45.65878" lon="2.98572">
        <ele>881.3</ele>
        <time>2012-06-05T15:53:54Z</time>
      </trkpt>
      <trkpt lat="45.65915" lon="2.98455">
        <ele>886.1</ele>
        <time>2012-06-05T15:55:15Z</time>
      </trkpt>
      <trkpt lat="45.65966" lon="2.98351">
        <ele>890.5</ele>
        <time>2012-06-05T15:58:32Z</time>
      </trkpt>
      <trkpt lat="45.6588" lon="2.98314">
        <ele>904.5</ele>
        <time>2012-06-05T16:00:56Z</time>
      </trkpt>
      <trkpt lat="45.65806" lon="2.98241">
        <ele>922.3</ele>
        <time>2012-06-05T16:02:34Z</time>
      </trkpt>
      <trkpt lat="45.65742" lon="2.98151">
        <ele>935</ele>
        <time>2012-06-05T16:03:53Z</time>
      </trkpt>
      <trkpt lat="45.65654" lon="2.98131">
        <ele>947.5</ele>
        <time>2012-06-05T16:05:28Z</time>
      </trkpt>
      <trkpt lat="45.65571" lon="2.98181">
        <ele>946.4</ele>
        <time>2012-06-05T16:06:40Z</time>
      </trkpt>
      <trkpt lat="45.65489" lon="2.98232">
        <ele>942.4</ele>
        <time>2012-06-05T16:07:50Z</time>
      </trkpt>
      <trkpt lat="45.65417" lon="2.98308">
        <ele>939.8</ele>
        <time>2012-06-05T16:09:47Z</time>
      </trkpt>
      <trkpt lat="45.65388" lon="2.98428">
        <ele>939.1</ele>
        <time>2012-06-05T16:10:58Z</time>
      </trkpt>
      <trkpt lat="45.65357" lon="2.98548">
        <ele>937.3</ele>
        <time>2012-06-05T16:12:15Z</time>
      </trkpt>
      <trkpt lat="45.6532" lon="2.98448">
        <ele>920.9</ele>
        <time>2012-06-06T06:54:06Z</time>
      </trkpt>
      <trkpt lat="45.65323" lon="2.98452">
        <ele>922.9</ele>
        <time>2012-06-06T06:54:07Z</time>
      </trkpt>
      <trkpt lat="45.65353" lon="2.98568">
        <ele>917.9</ele>
        <time>2012-06-06T06:57:09Z</time>
      </trkpt>
      <trkpt lat="45.65346" lon="2.98696">
        <ele>923.4</ele>
        <time>2012-06-06T06:58:46Z</time>
      </trkpt>
      <trkpt lat="45.65277" lon="2.98775">
        <ele>907.8</ele>
        <time>2012-06-06T06:59:54Z</time>
      </trkpt>
      <trkpt lat="45.65274" lon="2.98904">
        <ele>907.9</ele>
        <time>2012-06-06T07:01:07Z</time>
      </trkpt>
      <trkpt lat="45.65238" lon="2.99021">
        <ele>904.5</ele>
        <time>2012-06-06T07:02:15Z</time>
      </trkpt>
      <trkpt lat="45.65209" lon="2.99142">
        <ele>907.1</ele>
        <time>2012-06-06T07:03:21Z</time>
      </trkpt>
      <trkpt lat="45.65207" lon="2.99269">
        <ele>912.6</ele>
        <time>2012-06-06T07:04:37Z</time>
      </trkpt>
      <trkpt lat="45.6518" lon="2.99391">
        <ele>921.9</ele>
        <time>2012-06-06T07:05:56Z</time>
      </trkpt>
      <trkpt lat="45.65143" lon="2.99508">
        <ele>930.3</ele>
        <time>2012-06-06T07:07:16Z</time>
      </trkpt>
      <trkpt lat="45.65089" lon="2.9961">
        <ele>934.3</ele>
        <time>2012-06-06T07:10:20Z</time>
      </trkpt>
      <trkpt lat="45.65009" lon="2.99667">
        <ele>944.7</ele>
        <time>2012-06-06T07:11:40Z</time>
      </trkpt>
      <trkpt lat="45.64952" lon="2.99766">
        <ele>949.1</ele>
        <time>2012-06-06T07:13:24Z</time>
      </trkpt>
      <trkpt lat="45.64926" lon="2.99889">
        <ele>951.7</ele>
        <time>2012-06-06T07:15:09Z</time>
      </trkpt>
      <trkpt lat="45.64901" lon="3.00012">
        <ele>948.2</ele>
        <time>2012-06-06T07:19:29Z</time>
      </trkpt>
      <trkpt lat="45.64855" lon="3.00121">
        <ele>942.5</ele>
        <time>2012-06-06T07:20:46Z</time>
      </trkpt>
      <trkpt lat="45.64788" lon="3.00207">
        <ele>935.1</ele>
        <time>2012-06-06T07:21:58Z</time>
      </trkpt>
      <trkpt lat="45.64728" lon="3.00301">
        <ele>931.6</ele>
        <time>2012-06-06T07:23:04Z</time>
      </trkpt>
      <trkpt lat="45.64817" lon="3.0033">
        <ele>939</ele>
        <time>2012-06-06T07:26:34Z</time>
      </trkpt>
      <trkpt lat="45.64873" lon="3.00429">
        <ele>940.8</ele>
        <time>2012-06-06T07:28:04Z</time>
      </trkpt>
      <trkpt lat="45.64854" lon="3.00554">
        <ele>932.3</ele>
        <time>2012-06-06T07:29:18Z</time>
      </trkpt>
      <trkpt lat="45.64885" lon="3.00673">
        <ele>935.1</ele>
        <time>2012-06-06T07:30:29Z</time>
      </trkpt>
      <trkpt lat="45.64888" lon="3.008">
        <ele>932.4</ele>
        <time>2012-06-06T07:31:35Z</time>
      </trkpt>
      <trkpt lat="45.6487" lon="3.00925">
        <ele>933.2</ele>
        <time>2012-06-06T07:32:48Z</time>
      </trkpt>
      <trkpt lat="45.64877" lon="3.01053">
        <ele>934</ele>
        <time>2012-06-06T07:34:15Z</time>
      </trkpt>
      <trkpt lat="45.64846" lon="3.01173">
        <ele>926.2</ele>
        <time>2012-06-06T07:35:35Z</time>
      </trkpt>
      <trkpt lat="45.64815" lon="3.01293">
        <ele>921.1</ele>
        <time>2012-06-06T07:42:47Z</time>
      </trkpt>
      <trkpt lat="45.64791" lon="3.01416">
        <ele>912.8</ele>
        <time>2012-06-06T07:44:27Z</time>
      </trkpt>
      <trkpt lat="45.64769" lon="3.0154">
        <ele>905.2</ele>
        <time>2012-06-06T07:48:36Z</time>
      </trkpt>
      <trkpt lat="45.64757" lon="3.01667">
        <ele>898.6</ele>
        <time>2012-06-06T07:56:48Z</time>
      </trkpt>
      <trkpt lat="45.64682" lon="3.01739">
        <ele>893.2</ele>
        <time>2012-06-06T07:58:20Z</time>
      </trkpt>
      <trkpt lat="45.64671" lon="3.01771">
        <ele>892.6</ele>
        <time>2012-06-06T08:08:12Z</time>
      </trkpt>
      <trkpt lat="45.64698" lon="3.01893">
        <ele>883.4</ele>
        <time>2012-06-06T08:10:59Z</time>
      </trkpt>
      <trkpt lat="45.64707" lon="3.02021">
        <ele>869.1</ele>
        <time>2012-06-06T08:13:42Z</time>
      </trkpt>
      <trkpt lat="45.64638" lon="3.02103">
        <ele>872.3</ele>
        <time>2012-06-06T08:28:33Z</time>
      </trkpt>
      <trkpt lat="45.6455" lon="3.02123">
        <ele>871.9</ele>
        <time>2012-06-06T08:29:40Z</time>
      </trkpt>
      <trkpt lat="45.64474" lon="3.02189">
        <ele>869.3</ele>
        <time>2012-06-06T08:32:35Z</time>
      </trkpt>
      <trkpt lat="45.64399" lon="3.02256">
        <ele>867.9</ele>
        <time>2012-06-06T08:33:38Z</time>
      </trkpt>
      <trkpt lat="45.64309" lon="3.02264">
        <ele>864.3</ele>
        <time>2012-06-06T08:35:08Z</time>
      </trkpt>
      <trkpt lat="45.64221" lon="3.02244">
        <ele>864.8</ele>
        <time>2012-06-06T08:36:18Z</time>
      </trkpt>
      <trkpt lat="45.64133" lon="3.02262">
        <ele>864.3</ele>
        <time>2012-06-06T08:37:30Z</time>
      </trkpt>
      <trkpt lat="45.6405" lon="3.0231">
        <ele>864</ele>
        <time>2012-06-06T08:42:05Z</time>
      </trkpt>
      <trkpt lat="45.63995" lon="3.0241">
        <ele>861.7</ele>
        <time>2012-06-06T08:43:27Z</time>
      </trkpt>
      <trkpt lat="45.64051" lon="3.02509">
        <ele>854.6</ele>
        <time>2012-06-06T08:44:40Z</time>
      </trkpt>
      <trkpt lat="45.64113" lon="3.026">
        <ele>850.7</ele>
        <time>2012-06-06T08:45:53Z</time>
      </trkpt>
      <trkpt lat="45.64128" lon="3.02727">
        <ele>843.2</ele>
        <time>2012-06-06T08:47:03Z</time>
      </trkpt>
      <trkpt lat="45.64117" lon="3.02853">
        <ele>835.7</ele>
        <time>2012-06-06T08:48:14Z</time>
      </trkpt>
      <trkpt lat="45.64089" lon="3.02975">
        <ele>824.8</ele>
        <time>2012-06-06T08:49:32Z</time>
      </trkpt>
      <trkpt lat="45.64147" lon="3.03071">
        <ele>815.4</ele>
        <time>2012-06-06T08:50:52Z</time>
      </trkpt>
      <trkpt lat="45.64148" lon="3.032">
        <ele>804.3</ele>
        <time>2012-06-06T08:53:02Z</time>
      </trkpt>
      <trkpt lat="45.64106" lon="3.03313">
        <ele>805</ele>
        <time>2012-06-06T08:54:12Z</time>
      </trkpt>
      <trkpt lat="45.64024" lon="3.03367">
        <ele>809.6</ele>
        <time>2012-06-06T08:55:24Z</time>
      </trkpt>
      <trkpt lat="45.63977" lon="3.03477">
        <ele>810</ele>
        <time>2012-06-06T08:56:58Z</time>
      </trkpt>
      <trkpt lat="45.63983" lon="3.03604">
        <ele>806.2</ele>
        <time>2012-06-06T08:58:06Z</time>
      </trkpt>
      <trkpt lat="45.6399" lon="3.03731">
        <ele>802.9</ele>
        <time>2012-06-06T08:59:17Z</time>
      </trkpt>
      <trkpt lat="45.6408" lon="3.03744">
        <ele>800.8</ele>
        <time>2012-06-06T09:00:43Z</time>
      </trkpt>
      <trkpt lat="45.64133" lon="3.03641">
        <ele>803.4</ele>
        <time>2012-06-06T09:05:18Z</time>
      </trkpt>
      <trkpt lat="45.6419" lon="3.03742">
        <ele>801.8</ele>
        <time>2012-06-06T09:16:15Z</time>
      </trkpt>
      <trkpt lat="45.64269" lon="3.03798">
        <ele>796.3</ele>
        <time>2012-06-06T09:17:33Z</time>
      </trkpt>
      <trkpt lat="45.64359" lon="3.03798">
        <ele>791.3</ele>
        <time>2012-06-06T09:18:41Z</time>
      </trkpt>
      <trkpt lat="45.64432" lon="3.03871">
        <ele>784.7</ele>
        <time>2012-06-06T09:20:03Z</time>
      </trkpt>
      <trkpt lat="45.64433" lon="3.04">
        <ele>778.6</ele>
        <time>2012-06-06T09:21:52Z</time>
      </trkpt>
      <trkpt lat="45.64385" lon="3.04108">
        <ele>773.7</ele>
        <time>2012-06-06T09:25:40Z</time>
      </trkpt>
      <trkpt lat="45.64316" lon="3.04187">
        <ele>774.3</ele>
        <time>2012-06-06T09:27:00Z</time>
      </trkpt>
      <trkpt lat="45.64228" lon="3.04171">
        <ele>780.5</ele>
        <time>2012-06-06T09:28:11Z</time>
      </trkpt>
      <trkpt lat="45.64146" lon="3.04223">
        <ele>779.5</ele>
        <time>2012-06-06T09:29:17Z</time>
      </trkpt>
      <trkpt lat="45.64078" lon="3.04307">
        <ele>778</ele>
        <time>2012-06-06T09:30:33Z</time>
      </trkpt>
      <trkpt lat="45.6399" lon="3.04331">
        <ele>782.9</ele>
        <time>2012-06-06T09:31:46Z</time>
      </trkpt>
      <trkpt lat="45.63913" lon="3.04396">
        <ele>787.6</ele>
        <time>2012-06-06T09:33:35Z</time>
      </trkpt>
      <trkpt lat="45.63826" lon="3.04373">
        <ele>789.4</ele>
        <time>2012-06-06T09:34:55Z</time>
      </trkpt>
      <trkpt lat="45.63742" lon="3.04415">
        <ele>787</ele>
        <time>2012-06-06T09:36:20Z</time>
      </trkpt>
      <trkpt lat="45.63656" lon="3.04448">
        <ele>782.5</ele>
        <time>2012-06-06T09:39:53Z</time>
      </trkpt>
      <trkpt lat="45.63572" lon="3.04493">
        <ele>759.4</ele>
        <time>2012-06-06T09:42:20Z</time>
      </trkpt>
      <trkpt lat="45.63484" lon="3.04512">
        <ele>726.2</ele>
        <time>2012-06-06T09:44:57Z</time>
      </trkpt>
      <trkpt lat="45.63413" lon="3.04432">
        <ele>691.5</ele>
        <time>2012-06-06T09:48:42Z</time>
      </trkpt>
      <trkpt lat="45.63333" lon="3.04492">
        <ele>697.8</ele>
        <time>2012-06-06T10:00:28Z</time>
      </trkpt>
      <trkpt lat="45.63244" lon="3.04498">
        <ele>715.7</ele>
        <time>2012-06-06T10:02:13Z</time>
      </trkpt>
      <trkpt lat="45.63261" lon="3.04625">
        <ele>744.1</ele>
        <time>2012-06-06T10:08:00Z</time>
      </trkpt>
      <trkpt lat="45.63308" lon="3.04734">
        <ele>754.5</ele>
        <time>2012-06-06T10:09:21Z</time>
      </trkpt>
      <trkpt lat="45.63318" lon="3.04861">
        <ele>768.1</ele>
        <time>2012-06-06T10:10:50Z</time>
      </trkpt>
      <trkpt lat="45.63271" lon="3.04971">
        <ele>777.8</ele>
        <time>2012-06-06T10:12:22Z</time>
      </trkpt>
      <trkpt lat="45.63184" lon="3.04943">
        <ele>784.3</ele>
        <time>2012-06-06T10:13:33Z</time>
      </trkpt>
      <trkpt lat="45.63095" lon="3.04951">
        <ele>789.9</ele>
        <time>2012-06-06T10:14:51Z</time>
      </trkpt>
      <trkpt lat="45.63008" lon="3.04974">
        <ele>796.1</ele>
        <time>2012-06-06T10:16:02Z</time>
      </trkpt>
      <trkpt lat="45.62923" lon="3.05013">
        <ele>801.8</ele>
        <time>2012-06-06T10:18:18Z</time>
      </trkpt>
      <trkpt lat="45.62839" lon="3.05054">
        <ele>803.9</ele>
        <time>2012-06-06T10:19:26Z</time>
      </trkpt>
      <trkpt lat="45.62761" lon="3.05115">
        <ele>806.9</ele>
        <time>2012-06-06T10:20:34Z</time>
      </trkpt>
      <trkpt lat="45.62679" lon="3.05164">
        <ele>815.5</ele>
        <time>2012-06-06T10:21:47Z</time>
      </trkpt>
      <trkpt lat="45.62589" lon="3.05164">
        <ele>825.1</ele>
        <time>2012-06-06T10:23:09Z</time>
      </trkpt>
      <trkpt lat="45.62524" lon="3.05077">
        <ele>834.4</ele>
        <time>2012-06-06T10:24:22Z</time>
      </trkpt>
      <trkpt lat="45.62467" lon="3.04978">
        <ele>836.7</ele>
        <time>2012-06-06T10:25:30Z</time>
      </trkpt>
      <trkpt lat="45.62414" lon="3.04876">
        <ele>844.1</ele>
        <time>2012-06-06T10:26:43Z</time>
      </trkpt>
      <trkpt lat="45.62366" lon="3.04768">
        <ele>850.2</ele>
        <time>2012-06-06T10:27:52Z</time>
      </trkpt>
      <trkpt lat="45.62296" lon="3.04688">
        <ele>858.4</ele>
        <time>2012-06-06T10:29:17Z</time>
      </trkpt>
      <trkpt lat="45.6229" lon="3.04682">
        <ele>853.5</ele>
        <time>2012-06-06T11:39:48Z</time>
      </trkpt>
      <trkpt lat="45.622" lon="3.04678">
        <ele>856.7</ele>
        <time>2012-06-06T11:41:46Z</time>
      </trkpt>
      <trkpt lat="45.62199" lon="3.04678">
        <ele>856.1</ele>
        <time>2012-06-06T11:41:47Z</time>
      </trkpt>
      <trkpt lat="45.62132" lon="3.04592">
        <ele>857.9</ele>
        <time>2012-06-06T11:43:10Z</time>
      </trkpt>
      <trkpt lat="45.62049" lon="3.04549">
        <ele>858.9</ele>
        <time>2012-06-06T11:44:52Z</time>
      </trkpt>
      <trkpt lat="45.61972" lon="3.04612">
        <ele>859.5</ele>
        <time>2012-06-06T11:46:12Z</time>
      </trkpt>
      <trkpt lat="45.61883" lon="3.04624">
        <ele>851.7</ele>
        <time>2012-06-06T11:47:30Z</time>
      </trkpt>
      <trkpt lat="45.61794" lon="3.04635">
        <ele>850</ele>
        <time>2012-06-06T11:48:42Z</time>
      </trkpt>
      <trkpt lat="45.61706" lon="3.04625">
        <ele>847.6</ele>
        <time>2012-06-06T11:49:54Z</time>
      </trkpt>
      <trkpt lat="45.61618" lon="3.046">
        <ele>850.8</ele>
        <time>2012-06-06T11:51:03Z</time>
      </trkpt>
      <trkpt lat="45.6153" lon="3.04608">
        <ele>853.3</ele>
        <time>2012-06-06T11:52:15Z</time>
      </trkpt>
      <trkpt lat="45.61446" lon="3.04564">
        <ele>858.9</ele>
        <time>2012-06-06T11:53:28Z</time>
      </trkpt>
      <trkpt lat="45.61378" lon="3.04482">
        <ele>861.9</ele>
        <time>2012-06-06T11:54:43Z</time>
      </trkpt>
      <trkpt lat="45.61308" lon="3.04402">
        <ele>869.4</ele>
        <time>2012-06-06T11:55:57Z</time>
      </trkpt>
      <trkpt lat="45.61295" lon="3.04276">
        <ele>878.6</ele>
        <time>2012-06-06T11:57:17Z</time>
      </trkpt>
      <trkpt lat="45.6131" lon="3.04151">
        <ele>876</ele>
        <time>2012-06-06T11:58:35Z</time>
      </trkpt>
      <trkpt lat="45.61322" lon="3.04024">
        <ele>883</ele>
        <time>2012-06-06T11:59:46Z</time>
      </trkpt>
      <trkpt lat="45.61332" lon="3.03898">
        <ele>887.4</ele>
        <time>2012-06-06T12:00:55Z</time>
      </trkpt>
      <trkpt lat="45.61356" lon="3.03775">
        <ele>889.8</ele>
        <time>2012-06-06T12:02:02Z</time>
      </trkpt>
      <trkpt lat="45.6141" lon="3.03672">
        <ele>888.2</ele>
        <time>2012-06-06T12:04:39Z</time>
      </trkpt>
      <trkpt lat="45.61464" lon="3.0357">
        <ele>881.3</ele>
        <time>2012-06-06T12:05:51Z</time>
      </trkpt>
      <trkpt lat="45.61522" lon="3.03471">
        <ele>878.6</ele>
        <time>2012-06-06T12:06:58Z</time>
      </trkpt>
      <trkpt lat="45.61585" lon="3.03382">
        <ele>881.6</ele>
        <time>2012-06-06T12:08:08Z</time>
      </trkpt>
      <trkpt lat="45.61655" lon="3.03303">
        <ele>880.1</ele>
        <time>2012-06-06T12:09:15Z</time>
      </trkpt>
      <trkpt lat="45.61726" lon="3.03228">
        <ele>878.4</ele>
        <time>2012-06-06T12:10:21Z</time>
      </trkpt>
      <trkpt lat="45.61808" lon="3.03179">
        <ele>873.2</ele>
        <time>2012-06-06T12:11:28Z</time>
      </trkpt>
      <trkpt lat="45.61895" lon="3.03147">
        <ele>870.7</ele>
        <time>2012-06-06T12:12:35Z</time>
      </trkpt>
      <trkpt lat="45.61852" lon="3.03032">
        <ele>856.4</ele>
        <time>2012-06-06T12:15:25Z</time>
      </trkpt>
      <trkpt lat="45.61779" lon="3.02958">
        <ele>848.7</ele>
        <time>2012-06-06T12:16:40Z</time>
      </trkpt>
      <trkpt lat="45.6169" lon="3.02956">
        <ele>844.1</ele>
        <time>2012-06-06T12:17:42Z</time>
      </trkpt>
      <trkpt lat="45.61601" lon="3.02966">
        <ele>839.4</ele>
        <time>2012-06-06T12:18:44Z</time>
      </trkpt>
      <trkpt lat="45.61513" lon="3.02982">
        <ele>836.7</ele>
        <time>2012-06-06T12:19:52Z</time>
      </trkpt>
      <trkpt lat="45.61448" lon="3.03069">
        <ele>831.7</ele>
        <time>2012-06-06T12:21:03Z</time>
      </trkpt>
      <trkpt lat="45.61399" lon="3.03176">
        <ele>825.5</ele>
        <time>2012-06-06T12:22:11Z</time>
      </trkpt>
      <trkpt lat="45.61358" lon="3.03222">
        <ele>837.2</ele>
        <time>2012-06-06T12:23:15Z</time>
      </trkpt>
      <trkpt lat="45.61348" lon="3.03081">
        <ele>829.7</ele>
        <time>2012-06-06T12:24:20Z</time>
      </trkpt>
      <trkpt lat="45.61409" lon="3.0279">
        <ele>845.9</ele>
        <time>2012-06-06T12:25:30Z</time>
      </trkpt>
      <trkpt lat="45.61427" lon="3.02673">
        <ele>860.1</ele>
        <time>2012-06-06T12:26:37Z</time>
      </trkpt>
      <trkpt lat="45.61507" lon="3.02566">
        <ele>873.4</ele>
        <time>2012-06-06T12:27:45Z</time>
      </trkpt>
      <trkpt lat="45.61531" lon="3.02386">
        <ele>883.5</ele>
        <time>2012-06-06T12:28:52Z</time>
      </trkpt>
      <trkpt lat="45.61604" lon="3.02088">
        <ele>891.2</ele>
        <time>2012-06-06T12:29:57Z</time>
      </trkpt>
      <trkpt lat="45.6155" lon="3.02049">
        <ele>889.7</ele>
        <time>2012-06-06T12:31:05Z</time>
      </trkpt>
      <trkpt lat="45.61453" lon="3.02123">
        <ele>886.7</ele>
        <time>2012-06-06T12:33:11Z</time>
      </trkpt>
      <trkpt lat="45.6137" lon="3.02076">
        <ele>882.9</ele>
        <time>2012-06-06T12:45:38Z</time>
      </trkpt>
      <trkpt lat="45.61368" lon="3.01974">
        <ele>879.6</ele>
        <time>2012-06-06T12:46:45Z</time>
      </trkpt>
      <trkpt lat="45.61322" lon="3.02062">
        <ele>876.7</ele>
        <time>2012-06-06T12:47:53Z</time>
      </trkpt>
      <trkpt lat="45.61278" lon="3.01986">
        <ele>860.4</ele>
        <time>2012-06-06T12:49:01Z</time>
      </trkpt>
      <trkpt lat="45.61283" lon="3.01876">
        <ele>856.5</ele>
        <time>2012-06-06T12:50:08Z</time>
      </trkpt>
      <trkpt lat="45.61069" lon="3.0208">
        <ele>816.3</ele>
        <time>2012-06-06T12:51:18Z</time>
      </trkpt>
      <trkpt lat="45.61003" lon="3.02145">
        <ele>809.2</ele>
        <time>2012-06-06T12:53:08Z</time>
      </trkpt>
      <trkpt lat="45.60947" lon="3.02191">
        <ele>803</ele>
        <time>2012-06-06T12:54:10Z</time>
      </trkpt>
      <trkpt lat="45.60901" lon="3.02136">
        <ele>794.3</ele>
        <time>2012-06-06T13:09:06Z</time>
      </trkpt>
      <trkpt lat="45.60863" lon="3.02139">
        <ele>784.5</ele>
        <time>2012-06-06T13:12:14Z</time>
      </trkpt>
      <trkpt lat="45.60789" lon="3.02066">
        <ele>777.7</ele>
        <time>2012-06-06T13:13:22Z</time>
      </trkpt>
      <trkpt lat="45.60711" lon="3.02006">
        <ele>786.4</ele>
        <time>2012-06-06T13:14:59Z</time>
      </trkpt>
      <trkpt lat="45.60656" lon="3.01905">
        <ele>804.9</ele>
        <time>2012-06-06T13:16:39Z</time>
      </trkpt>
      <trkpt lat="45.60602" lon="3.01803">
        <ele>825.8</ele>
        <time>2012-06-06T13:18:23Z</time>
      </trkpt>
      <trkpt lat="45.60555" lon="3.01693">
        <ele>838.5</ele>
        <time>2012-06-06T13:19:46Z</time>
      </trkpt>
      <trkpt lat="45.60492" lon="3.01602">
        <ele>855.9</ele>
        <time>2012-06-06T13:21:16Z</time>
      </trkpt>
      <trkpt lat="45.60403" lon="3.01607">
        <ele>859.8</ele>
        <time>2012-06-06T13:22:32Z</time>
      </trkpt>
      <trkpt lat="45.60315" lon="3.0159">
        <ele>867.3</ele>
        <time>2012-06-06T13:23:47Z</time>
      </trkpt>
      <trkpt lat="45.6024" lon="3.01521">
        <ele>872.3</ele>
        <time>2012-06-06T13:25:04Z</time>
      </trkpt>
      <trkpt lat="45.60182" lon="3.01425">
        <ele>877.2</ele>
        <time>2012-06-06T13:26:19Z</time>
      </trkpt>
      <trkpt lat="45.60109" lon="3.01352">
        <ele>886.5</ele>
        <time>2012-06-06T13:27:34Z</time>
      </trkpt>
      <trkpt lat="45.6005" lon="3.01258">
        <ele>890.3</ele>
        <time>2012-06-06T13:28:42Z</time>
      </trkpt>
      <trkpt lat="45.59996" lon="3.01156">
        <ele>901.9</ele>
        <time>2012-06-06T13:30:10Z</time>
      </trkpt>
      <trkpt lat="45.59928" lon="3.01075">
        <ele>905.6</ele>
        <time>2012-06-06T13:31:27Z</time>
      </trkpt>
      <trkpt lat="45.59863" lon="3.00988">
        <ele>905.2</ele>
        <time>2012-06-06T13:32:34Z</time>
      </trkpt>
      <trkpt lat="45.59779" lon="3.00943">
        <ele>908.9</ele>
        <time>2012-06-06T13:33:46Z</time>
      </trkpt>
      <trkpt lat="45.59697" lon="3.0089">
        <ele>910.3</ele>
        <time>2012-06-06T13:34:54Z</time>
      </trkpt>
      <trkpt lat="45.5962" lon="3.00829">
        <ele>906.9</ele>
        <time>2012-06-06T13:36:08Z</time>
      </trkpt>
      <trkpt lat="45.59538" lon="3.00775">
        <ele>908.1</ele>
        <time>2012-06-06T13:37:17Z</time>
      </trkpt>
      <trkpt lat="45.59457" lon="3.00721">
        <ele>913.1</ele>
        <time>2012-06-06T13:38:32Z</time>
      </trkpt>
      <trkpt lat="45.59374" lon="3.00675">
        <ele>914.6</ele>
        <time>2012-06-06T13:39:43Z</time>
      </trkpt>
      <trkpt lat="45.59306" lon="3.00594">
        <ele>913.8</ele>
        <time>2012-06-06T13:40:53Z</time>
      </trkpt>
      <trkpt lat="45.59227" lon="3.00534">
        <ele>910.7</ele>
        <time>2012-06-06T13:43:27Z</time>
      </trkpt>
      <trkpt lat="45.59212" lon="3.00408">
        <ele>892.4</ele>
        <time>2012-06-06T13:44:47Z</time>
      </trkpt>
      <trkpt lat="45.59124" lon="3.00386">
        <ele>872.9</ele>
        <time>2012-06-06T13:49:07Z</time>
      </trkpt>
      <trkpt lat="45.59053" lon="3.00461">
        <ele>874.5</ele>
        <time>2012-06-06T13:50:15Z</time>
      </trkpt>
      <trkpt lat="45.59023" lon="3.00338">
        <ele>855.7</ele>
        <time>2012-06-06T13:53:16Z</time>
      </trkpt>
      <trkpt lat="45.59055" lon="3.0022">
        <ele>839.6</ele>
        <time>2012-06-06T13:54:35Z</time>
      </trkpt>
      <trkpt lat="45.59091" lon="3.00103">
        <ele>823.8</ele>
        <time>2012-06-06T13:55:56Z</time>
      </trkpt>
      <trkpt lat="45.5909" lon="2.99975">
        <ele>809.3</ele>
        <time>2012-06-06T13:57:22Z</time>
      </trkpt>
      <trkpt lat="45.59094" lon="2.99847">
        <ele>796.1</ele>
        <time>2012-06-06T13:58:43Z</time>
      </trkpt>
      <trkpt lat="45.59085" lon="2.9972">
        <ele>782.9</ele>
        <time>2012-06-06T13:59:59Z</time>
      </trkpt>
      <trkpt lat="45.5908" lon="2.99593">
        <ele>769.1</ele>
        <time>2012-06-06T14:01:08Z</time>
      </trkpt>
      <trkpt lat="45.59032" lon="2.99486">
        <ele>761.5</ele>
        <time>2012-06-06T14:02:21Z</time>
      </trkpt>
      <trkpt lat="45.58987" lon="2.99375">
        <ele>760</ele>
        <time>2012-06-06T14:03:39Z</time>
      </trkpt>
      <trkpt lat="45.58909" lon="2.9931">
        <ele>750.8</ele>
        <time>2012-06-06T14:05:06Z</time>
      </trkpt>
      <trkpt lat="45.5884" lon="2.9923">
        <ele>750.7</ele>
        <time>2012-06-06T14:07:34Z</time>
      </trkpt>
      <trkpt lat="45.5893" lon="2.99208">
        <ele>747.2</ele>
        <time>2012-06-06T14:48:11Z</time>
      </trkpt>
      <trkpt lat="45.5885" lon="2.99148">
        <ele>720.1</ele>
        <time>2012-06-06T14:51:20Z</time>
      </trkpt>
      <trkpt lat="45.58776" lon="2.99075">
        <ele>717</ele>
        <time>2012-06-06T14:54:11Z</time>
      </trkpt>
      <trkpt lat="45.587" lon="2.99008">
        <ele>730.5</ele>
        <time>2012-06-06T14:55:54Z</time>
      </trkpt>
      <trkpt lat="45.5862" lon="2.98953">
        <ele>742.5</ele>
        <time>2012-06-06T14:57:28Z</time>
      </trkpt>
      <trkpt lat="45.58605" lon="2.98827">
        <ele>768</ele>
        <time>2012-06-06T15:01:40Z</time>
      </trkpt>
      <trkpt lat="45.58631" lon="2.98704">
        <ele>773.5</ele>
        <time>2012-06-06T15:02:57Z</time>
      </trkpt>
      <trkpt lat="45.5862" lon="2.98578">
        <ele>774</ele>
        <time>2012-06-06T15:04:06Z</time>
      </trkpt>
      <trkpt lat="45.58603" lon="2.98452">
        <ele>778.2</ele>
        <time>2012-06-06T15:05:21Z</time>
      </trkpt>
      <trkpt lat="45.58596" lon="2.98325">
        <ele>781.5</ele>
        <time>2012-06-06T15:06:53Z</time>
      </trkpt>
      <trkpt lat="45.58652" lon="2.98225">
        <ele>786.1</ele>
        <time>2012-06-06T15:08:17Z</time>
      </trkpt>
      <trkpt lat="45.5868" lon="2.98104">
        <ele>794.7</ele>
        <time>2012-06-06T15:09:33Z</time>
      </trkpt>
      <trkpt lat="45.58707" lon="2.97982">
        <ele>803.5</ele>
        <time>2012-06-06T15:10:51Z</time>
      </trkpt>
      <trkpt lat="45.58709" lon="2.97854">
        <ele>810</ele>
        <time>2012-06-06T15:12:13Z</time>
      </trkpt>
      <trkpt lat="45.58698" lon="2.97727">
        <ele>812.2</ele>
        <time>2012-06-06T15:13:25Z</time>
      </trkpt>
      <trkpt lat="45.58688" lon="2.97601">
        <ele>816.4</ele>
        <time>2012-06-06T15:14:34Z</time>
      </trkpt>
      <trkpt lat="45.58699" lon="2.97475">
        <ele>820.2</ele>
        <time>2012-06-06T15:15:47Z</time>
      </trkpt>
      <trkpt lat="45.58713" lon="2.97349">
        <ele>820.4</ele>
        <time>2012-06-06T15:16:55Z</time>
      </trkpt>
      <trkpt lat="45.58713" lon="2.97221">
        <ele>824.8</ele>
        <time>2012-06-06T15:18:09Z</time>
      </trkpt>
      <trkpt lat="45.58725" lon="2.97095">
        <ele>825.2</ele>
        <time>2012-06-06T15:19:24Z</time>
      </trkpt>
      <trkpt lat="45.58723" lon="2.96967">
        <ele>827.1</ele>
        <time>2012-06-06T15:20:39Z</time>
      </trkpt>
      <trkpt lat="45.58699" lon="2.96844">
        <ele>826.7</ele>
        <time>2012-06-06T15:21:51Z</time>
      </trkpt>
      <trkpt lat="45.58696" lon="2.96717">
        <ele>827.8</ele>
        <time>2012-06-06T15:23:03Z</time>
      </trkpt>
      <trkpt lat="45.58692" lon="2.96589">
        <ele>823.1</ele>
        <time>2012-06-06T15:24:18Z</time>
      </trkpt>
      <trkpt lat="45.58703" lon="2.96462">
        <ele>822.4</ele>
        <time>2012-06-06T15:25:30Z</time>
      </trkpt>
      <trkpt lat="45.58778" lon="2.96394">
        <ele>814.3</ele>
        <time>2012-06-06T15:26:53Z</time>
      </trkpt>
      <trkpt lat="45.58843" lon="2.96306">
        <ele>813.2</ele>
        <time>2012-06-06T15:27:59Z</time>
      </trkpt>
      <trkpt lat="45.5878" lon="2.96214">
        <ele>815.8</ele>
        <time>2012-06-06T15:29:39Z</time>
      </trkpt>
      <trkpt lat="45.58809" lon="2.96092">
        <ele>823.3</ele>
        <time>2012-06-06T15:31:08Z</time>
      </trkpt>
      <trkpt lat="45.58831" lon="2.95968">
        <ele>828.6</ele>
        <time>2012-06-06T15:32:24Z</time>
      </trkpt>
      <trkpt lat="45.58853" lon="2.95845">
        <ele>834.5</ele>
        <time>2012-06-06T15:33:40Z</time>
      </trkpt>
      <trkpt lat="45.5885" lon="2.95718">
        <ele>842</ele>
        <time>2012-06-06T15:35:00Z</time>
      </trkpt>
      <trkpt lat="45.58844" lon="2.95591">
        <ele>857.6</ele>
        <time>2012-06-06T15:36:30Z</time>
      </trkpt>
      <trkpt lat="45.58826" lon="2.95465">
        <ele>874.4</ele>
        <time>2012-06-06T15:38:15Z</time>
      </trkpt>
      <trkpt lat="45.58777" lon="2.95357">
        <ele>880.8</ele>
        <time>2012-06-06T15:39:32Z</time>
      </trkpt>
      <trkpt lat="45.58726" lon="2.95253">
        <ele>887.5</ele>
        <time>2012-06-06T15:40:50Z</time>
      </trkpt>
      <trkpt lat="45.58712" lon="2.95126">
        <ele>890.3</ele>
        <time>2012-06-06T15:42:03Z</time>
      </trkpt>
      <trkpt lat="45.58693" lon="2.95001">
        <ele>890.4</ele>
        <time>2012-06-06T15:46:23Z</time>
      </trkpt>
      <trkpt lat="45.58676" lon="2.94875">
        <ele>895</ele>
        <time>2012-06-06T15:47:49Z</time>
      </trkpt>
      <trkpt lat="45.58671" lon="2.94748">
        <ele>897.7</ele>
        <time>2012-06-06T15:49:05Z</time>
      </trkpt>
      <trkpt lat="45.58618" lon="2.94644">
        <ele>898.7</ele>
        <time>2012-06-06T15:50:21Z</time>
      </trkpt>
      <trkpt lat="45.58585" lon="2.94525">
        <ele>895.6</ele>
        <time>2012-06-06T15:51:33Z</time>
      </trkpt>
      <trkpt lat="45.58534" lon="2.9442">
        <ele>885.8</ele>
        <time>2012-06-06T15:53:02Z</time>
      </trkpt>
      <trkpt lat="45.58447" lon="2.9439">
        <ele>878.6</ele>
        <time>2012-06-06T16:02:36Z</time>
      </trkpt>
      <trkpt lat="45.58363" lon="2.94346">
        <ele>873.8</ele>
        <time>2012-06-06T16:03:56Z</time>
      </trkpt>
      <trkpt lat="45.58305" lon="2.94249">
        <ele>871.5</ele>
        <time>2012-06-06T16:05:09Z</time>
      </trkpt>
      <trkpt lat="45.58235" lon="2.94172">
        <ele>869.6</ele>
        <time>2012-06-06T16:07:48Z</time>
      </trkpt>
      <trkpt lat="45.58147" lon="2.94141">
        <ele>868.9</ele>
        <time>2012-06-06T16:08:57Z</time>
      </trkpt>
      <trkpt lat="45.5806" lon="2.94114">
        <ele>867.5</ele>
        <time>2012-06-06T16:10:10Z</time>
      </trkpt>
      <trkpt lat="45.57971" lon="2.94112">
        <ele>868.5</ele>
        <time>2012-06-06T16:11:16Z</time>
      </trkpt>
      <trkpt lat="45.57889" lon="2.94165">
        <ele>876.3</ele>
        <time>2012-06-06T16:12:34Z</time>
      </trkpt>
      <trkpt lat="45.57808" lon="2.9422">
        <ele>885.6</ele>
        <time>2012-06-06T16:13:50Z</time>
      </trkpt>
      <trkpt lat="45.57719" lon="2.94236">
        <ele>889.3</ele>
        <time>2012-06-06T16:17:09Z</time>
      </trkpt>
      <trkpt lat="45.57634" lon="2.94276">
        <ele>873.8</ele>
        <time>2012-06-06T16:18:54Z</time>
      </trkpt>
      <trkpt lat="45.57553" lon="2.9422">
        <ele>859</ele>
        <time>2012-06-06T16:20:22Z</time>
      </trkpt>
      <trkpt lat="45.57464" lon="2.94225">
        <ele>845.4</ele>
        <time>2012-06-06T16:23:43Z</time>
      </trkpt>
      <trkpt lat="45.57499" lon="2.94107">
        <ele>841.3</ele>
        <time>2012-06-06T16:27:01Z</time>
      </trkpt>
      <trkpt lat="45.57743" lon="2.94247">
        <ele>1002.7</ele>
        <time>2012-06-07T09:41:34Z</time>
      </trkpt>
      <trkpt lat="45.57655" lon="2.9427">
        <ele>882.5</ele>
        <time>2012-06-07T09:43:10Z</time>
      </trkpt>
      <trkpt lat="45.57654" lon="2.94271">
        <ele>882.5</ele>
        <time>2012-06-07T09:43:11Z</time>
      </trkpt>
      <trkpt lat="45.57567" lon="2.94236">
        <ele>869.5</ele>
        <time>2012-06-07T09:44:42Z</time>
      </trkpt>
      <trkpt lat="45.57478" lon="2.94226">
        <ele>853.9</ele>
        <time>2012-06-07T09:45:59Z</time>
      </trkpt>
      <trkpt lat="45.57399" lon="2.94283">
        <ele>859.4</ele>
        <time>2012-06-07T09:49:05Z</time>
      </trkpt>
      <trkpt lat="45.57373" lon="2.9416">
        <ele>850.5</ele>
        <time>2012-06-07T09:50:31Z</time>
      </trkpt>
      <trkpt lat="45.57393" lon="2.94035">
        <ele>853.7</ele>
        <time>2012-06-07T09:51:43Z</time>
      </trkpt>
      <trkpt lat="45.57455" lon="2.93944">
        <ele>856.2</ele>
        <time>2012-06-07T09:53:08Z</time>
      </trkpt>
      <trkpt lat="45.57373" lon="2.94">
        <ele>862.3</ele>
        <time>2012-06-07T09:56:28Z</time>
      </trkpt>
      <trkpt lat="45.57304" lon="2.94081">
        <ele>866.4</ele>
        <time>2012-06-07T09:57:45Z</time>
      </trkpt>
      <trkpt lat="45.57253" lon="2.94185">
        <ele>868.1</ele>
        <time>2012-06-07T09:58:58Z</time>
      </trkpt>
      <trkpt lat="45.57163" lon="2.94174">
        <ele>870.4</ele>
        <time>2012-06-07T10:00:08Z</time>
      </trkpt>
      <trkpt lat="45.57075" lon="2.94148">
        <ele>874.7</ele>
        <time>2012-06-07T10:01:19Z</time>
      </trkpt>
      <trkpt lat="45.57" lon="2.9408">
        <ele>880.6</ele>
        <time>2012-06-07T10:03:03Z</time>
      </trkpt>
      <trkpt lat="45.56935" lon="2.93991">
        <ele>885.2</ele>
        <time>2012-06-07T10:04:15Z</time>
      </trkpt>
      <trkpt lat="45.56886" lon="2.93885">
        <ele>889.7</ele>
        <time>2012-06-07T10:05:24Z</time>
      </trkpt>
      <trkpt lat="45.56856" lon="2.93839">
        <ele>891.6</ele>
        <time>2012-06-07T10:07:16Z</time>
      </trkpt>
      <trkpt lat="45.56825" lon="2.938">
        <ele>894</ele>
        <time>2012-06-07T10:31:03Z</time>
      </trkpt>
      <trkpt lat="45.56771" lon="2.93707">
        <ele>902.7</ele>
        <time>2012-06-07T10:33:54Z</time>
      </trkpt>
      <trkpt lat="45.56734" lon="2.93591">
        <ele>909.4</ele>
        <time>2012-06-07T10:35:08Z</time>
      </trkpt>
      <trkpt lat="45.56647" lon="2.93561">
        <ele>904</ele>
        <time>2012-06-07T10:39:06Z</time>
      </trkpt>
      <trkpt lat="45.56576" lon="2.93637">
        <ele>894.3</ele>
        <time>2012-06-07T10:40:20Z</time>
      </trkpt>
      <trkpt lat="45.56503" lon="2.93713">
        <ele>881.8</ele>
        <time>2012-06-07T10:41:44Z</time>
      </trkpt>
      <trkpt lat="45.56416" lon="2.93739">
        <ele>874.9</ele>
        <time>2012-06-07T10:42:55Z</time>
      </trkpt>
      <trkpt lat="45.56326" lon="2.93736">
        <ele>873.8</ele>
        <time>2012-06-07T10:44:15Z</time>
      </trkpt>
      <trkpt lat="45.56237" lon="2.93736">
        <ele>873.5</ele>
        <time>2012-06-07T10:45:29Z</time>
      </trkpt>
      <trkpt lat="45.5617" lon="2.9365">
        <ele>874</ele>
        <time>2012-06-07T10:46:55Z</time>
      </trkpt>
      <trkpt lat="45.5611" lon="2.93558">
        <ele>875.1</ele>
        <time>2012-06-07T10:48:03Z</time>
      </trkpt>
      <trkpt lat="45.56062" lon="2.93451">
        <ele>876.4</ele>
        <time>2012-06-07T10:49:09Z</time>
      </trkpt>
      <trkpt lat="45.56017" lon="2.9334">
        <ele>877.5</ele>
        <time>2012-06-07T10:50:23Z</time>
      </trkpt>
      <trkpt lat="45.5599" lon="2.93218">
        <ele>880.1</ele>
        <time>2012-06-07T10:51:34Z</time>
      </trkpt>
      <trkpt lat="45.55967" lon="2.93096">
        <ele>886</ele>
        <time>2012-06-07T10:53:16Z</time>
      </trkpt>
      <trkpt lat="45.56017" lon="2.93039">
        <ele>877.8</ele>
        <time>2012-06-07T11:31:18Z</time>
      </trkpt>
      <trkpt lat="45.56016" lon="2.93038">
        <ele>878.6</ele>
        <time>2012-06-07T11:31:22Z</time>
      </trkpt>
      <trkpt lat="45.55959" lon="2.9294">
        <ele>866.8</ele>
        <time>2012-06-07T11:34:48Z</time>
      </trkpt>
      <trkpt lat="45.55961" lon="2.92813">
        <ele>876.2</ele>
        <time>2012-06-07T11:36:13Z</time>
      </trkpt>
      <trkpt lat="45.55922" lon="2.92696">
        <ele>869.8</ele>
        <time>2012-06-07T11:37:27Z</time>
      </trkpt>
      <trkpt lat="45.55883" lon="2.92583">
        <ele>877.6</ele>
        <time>2012-06-07T11:38:40Z</time>
      </trkpt>
      <trkpt lat="45.55839" lon="2.92472">
        <ele>892.6</ele>
        <time>2012-06-07T11:39:59Z</time>
      </trkpt>
      <trkpt lat="45.55793" lon="2.92362">
        <ele>906.9</ele>
        <time>2012-06-07T11:41:22Z</time>
      </trkpt>
      <trkpt lat="45.5574" lon="2.92261">
        <ele>911.9</ele>
        <time>2012-06-07T11:42:28Z</time>
      </trkpt>
      <trkpt lat="45.55719" lon="2.92137">
        <ele>920.6</ele>
        <time>2012-06-07T11:43:46Z</time>
      </trkpt>
      <trkpt lat="45.55698" lon="2.92013">
        <ele>926.3</ele>
        <time>2012-06-07T11:45:07Z</time>
      </trkpt>
      <trkpt lat="45.55694" lon="2.91885">
        <ele>933.4</ele>
        <time>2012-06-07T11:46:30Z</time>
      </trkpt>
      <trkpt lat="45.55652" lon="2.91773">
        <ele>937.1</ele>
        <time>2012-06-07T11:47:51Z</time>
      </trkpt>
      <trkpt lat="45.55592" lon="2.91679">
        <ele>934.2</ele>
        <time>2012-06-07T11:49:07Z</time>
      </trkpt>
      <trkpt lat="45.55531" lon="2.91774">
        <ele>941.4</ele>
        <time>2012-06-07T11:50:49Z</time>
      </trkpt>
      <trkpt lat="45.55549" lon="2.91899">
        <ele>943.4</ele>
        <time>2012-06-07T11:52:10Z</time>
      </trkpt>
      <trkpt lat="45.5557" lon="2.92023">
        <ele>930.7</ele>
        <time>2012-06-07T11:53:41Z</time>
      </trkpt>
      <trkpt lat="45.55592" lon="2.92146">
        <ele>927.5</ele>
        <time>2012-06-07T11:54:58Z</time>
      </trkpt>
      <trkpt lat="45.55603" lon="2.92272">
        <ele>934.1</ele>
        <time>2012-06-07T11:56:21Z</time>
      </trkpt>
      <trkpt lat="45.55517" lon="2.92238">
        <ele>978.5</ele>
        <time>2012-06-07T12:01:02Z</time>
      </trkpt>
      <trkpt lat="45.55459" lon="2.92139">
        <ele>1002.4</ele>
        <time>2012-06-07T12:03:15Z</time>
      </trkpt>
      <trkpt lat="45.55378" lon="2.92084">
        <ele>1012.2</ele>
        <time>2012-06-07T12:04:47Z</time>
      </trkpt>
      <trkpt lat="45.55323" lon="2.91984">
        <ele>1032.4</ele>
        <time>2012-06-07T12:06:50Z</time>
      </trkpt>
      <trkpt lat="45.55308" lon="2.91858">
        <ele>1056.6</ele>
        <time>2012-06-07T12:09:27Z</time>
      </trkpt>
      <trkpt lat="45.55297" lon="2.91732">
        <ele>1069.3</ele>
        <time>2012-06-07T12:11:05Z</time>
      </trkpt>
      <trkpt lat="45.55289" lon="2.91605">
        <ele>1085.9</ele>
        <time>2012-06-07T12:12:42Z</time>
      </trkpt>
      <trkpt lat="45.55298" lon="2.91477">
        <ele>1091.8</ele>
        <time>2012-06-07T12:15:33Z</time>
      </trkpt>
      <trkpt lat="45.55281" lon="2.91352">
        <ele>1095.1</ele>
        <time>2012-06-07T12:16:50Z</time>
      </trkpt>
      <trkpt lat="45.5525" lon="2.91232">
        <ele>1102.1</ele>
        <time>2012-06-07T12:18:06Z</time>
      </trkpt>
      <trkpt lat="45.55187" lon="2.91142">
        <ele>1107.2</ele>
        <time>2012-06-07T12:20:11Z</time>
      </trkpt>
      <trkpt lat="45.55144" lon="2.91028">
        <ele>1116.1</ele>
        <time>2012-06-07T12:22:28Z</time>
      </trkpt>
      <trkpt lat="45.55103" lon="2.90915">
        <ele>1120.4</ele>
        <time>2012-06-07T12:23:45Z</time>
      </trkpt>
      <trkpt lat="45.55063" lon="2.90801">
        <ele>1124.4</ele>
        <time>2012-06-07T12:24:57Z</time>
      </trkpt>
      <trkpt lat="45.55011" lon="2.90698">
        <ele>1127.7</ele>
        <time>2012-06-07T12:26:13Z</time>
      </trkpt>
      <trkpt lat="45.54954" lon="2.90601">
        <ele>1130.1</ele>
        <time>2012-06-07T12:27:24Z</time>
      </trkpt>
      <trkpt lat="45.54896" lon="2.90504">
        <ele>1130.8</ele>
        <time>2012-06-07T12:28:36Z</time>
      </trkpt>
      <trkpt lat="45.54826" lon="2.90424">
        <ele>1136.6</ele>
        <time>2012-06-07T12:29:51Z</time>
      </trkpt>
      <trkpt lat="45.54758" lon="2.9034">
        <ele>1144</ele>
        <time>2012-06-07T12:31:01Z</time>
      </trkpt>
      <trkpt lat="45.54695" lon="2.90249">
        <ele>1150</ele>
        <time>2012-06-07T12:32:13Z</time>
      </trkpt>
      <trkpt lat="45.54618" lon="2.90182">
        <ele>1154.6</ele>
        <time>2012-06-07T12:37:08Z</time>
      </trkpt>
      <trkpt lat="45.54594" lon="2.90058">
        <ele>1161.6</ele>
        <time>2012-06-07T12:42:26Z</time>
      </trkpt>
      <trkpt lat="45.54514" lon="2.89999">
        <ele>1168.1</ele>
        <time>2012-06-07T12:44:00Z</time>
      </trkpt>
      <trkpt lat="45.54433" lon="2.89946">
        <ele>1176.8</ele>
        <time>2012-06-07T12:46:41Z</time>
      </trkpt>
      <trkpt lat="45.54354" lon="2.89883">
        <ele>1187.4</ele>
        <time>2012-06-07T12:47:58Z</time>
      </trkpt>
      <trkpt lat="45.54271" lon="2.89834">
        <ele>1194.5</ele>
        <time>2012-06-07T12:49:11Z</time>
      </trkpt>
      <trkpt lat="45.54184" lon="2.89809">
        <ele>1202.1</ele>
        <time>2012-06-07T12:51:16Z</time>
      </trkpt>
      <trkpt lat="45.54095" lon="2.89797">
        <ele>1204.4</ele>
        <time>2012-06-07T12:57:11Z</time>
      </trkpt>
      <trkpt lat="45.54006" lon="2.89798">
        <ele>1204.2</ele>
        <time>2012-06-07T12:58:21Z</time>
      </trkpt>
      <trkpt lat="45.53918" lon="2.89815">
        <ele>1203.3</ele>
        <time>2012-06-07T12:59:29Z</time>
      </trkpt>
      <trkpt lat="45.5383" lon="2.89792">
        <ele>1203.4</ele>
        <time>2012-06-07T13:00:38Z</time>
      </trkpt>
      <trkpt lat="45.53748" lon="2.89737">
        <ele>1197.9</ele>
        <time>2012-06-07T13:01:46Z</time>
      </trkpt>
      <trkpt lat="45.53677" lon="2.89816">
        <ele>1203.7</ele>
        <time>2012-06-07T13:06:03Z</time>
      </trkpt>
      <trkpt lat="45.53613" lon="2.89907">
        <ele>1214</ele>
        <time>2012-06-07T13:07:35Z</time>
      </trkpt>
      <trkpt lat="45.5365" lon="2.90025">
        <ele>1217.8</ele>
        <time>2012-06-07T13:09:33Z</time>
      </trkpt>
      <trkpt lat="45.53633" lon="2.90151">
        <ele>1217.6</ele>
        <time>2012-06-07T13:10:41Z</time>
      </trkpt>
      <trkpt lat="45.53575" lon="2.90248">
        <ele>1222.9</ele>
        <time>2012-06-07T13:11:58Z</time>
      </trkpt>
      <trkpt lat="45.53514" lon="2.90341">
        <ele>1225</ele>
        <time>2012-06-07T13:13:13Z</time>
      </trkpt>
      <trkpt lat="45.53432" lon="2.9039">
        <ele>1226.6</ele>
        <time>2012-06-07T13:14:24Z</time>
      </trkpt>
      <trkpt lat="45.53344" lon="2.90417">
        <ele>1229</ele>
        <time>2012-06-07T13:15:35Z</time>
      </trkpt>
      <trkpt lat="45.53266" lon="2.90478">
        <ele>1228.9</ele>
        <time>2012-06-07T13:16:45Z</time>
      </trkpt>
      <trkpt lat="45.53186" lon="2.90536">
        <ele>1229</ele>
        <time>2012-06-07T13:17:55Z</time>
      </trkpt>
      <trkpt lat="45.53102" lon="2.90577">
        <ele>1223</ele>
        <time>2012-06-07T13:19:05Z</time>
      </trkpt>
      <trkpt lat="45.53013" lon="2.90581">
        <ele>1218.1</ele>
        <time>2012-06-07T13:20:20Z</time>
      </trkpt>
      <trkpt lat="45.5295" lon="2.9049">
        <ele>1208.6</ele>
        <time>2012-06-07T13:22:09Z</time>
      </trkpt>
      <trkpt lat="45.52881" lon="2.9041">
        <ele>1205.1</ele>
        <time>2012-06-07T13:27:51Z</time>
      </trkpt>
      <trkpt lat="45.52794" lon="2.90381">
        <ele>1215.7</ele>
        <time>2012-06-07T13:30:00Z</time>
      </trkpt>
      <trkpt lat="45.52737" lon="2.90479">
        <ele>1230.8</ele>
        <time>2012-06-07T13:36:18Z</time>
      </trkpt>
      <trkpt lat="45.52682" lon="2.9058">
        <ele>1231.3</ele>
        <time>2012-06-07T13:37:30Z</time>
      </trkpt>
      <trkpt lat="45.52626" lon="2.90679">
        <ele>1230.3</ele>
        <time>2012-06-07T13:38:40Z</time>
      </trkpt>
      <trkpt lat="45.52571" lon="2.90779">
        <ele>1230</ele>
        <time>2012-06-07T13:39:57Z</time>
      </trkpt>
      <trkpt lat="45.52523" lon="2.90888">
        <ele>1226.1</ele>
        <time>2012-06-07T13:41:41Z</time>
      </trkpt>
      <trkpt lat="45.52479" lon="2.91">
        <ele>1222.9</ele>
        <time>2012-06-07T13:42:56Z</time>
      </trkpt>
      <trkpt lat="45.52432" lon="2.91108">
        <ele>1219.6</ele>
        <time>2012-06-07T13:45:15Z</time>
      </trkpt>
      <trkpt lat="45.52383" lon="2.91216">
        <ele>1218.1</ele>
        <time>2012-06-07T13:46:25Z</time>
      </trkpt>
      <trkpt lat="45.52309" lon="2.91289">
        <ele>1211.6</ele>
        <time>2012-06-07T13:47:30Z</time>
      </trkpt>
      <trkpt lat="45.52228" lon="2.9134">
        <ele>1209</ele>
        <time>2012-06-07T13:48:45Z</time>
      </trkpt>
      <trkpt lat="45.52139" lon="2.91332">
        <ele>1206.6</ele>
        <time>2012-06-07T13:52:02Z</time>
      </trkpt>
      <trkpt lat="45.52067" lon="2.91257">
        <ele>1203.8</ele>
        <time>2012-06-07T13:53:11Z</time>
      </trkpt>
      <trkpt lat="45.52006" lon="2.91164">
        <ele>1203.8</ele>
        <time>2012-06-07T13:54:19Z</time>
      </trkpt>
      <trkpt lat="45.51938" lon="2.91083">
        <ele>1210.2</ele>
        <time>2012-06-07T13:55:39Z</time>
      </trkpt>
      <trkpt lat="45.51851" lon="2.91054">
        <ele>1203.4</ele>
        <time>2012-06-07T13:56:54Z</time>
      </trkpt>
      <trkpt lat="45.51761" lon="2.91052">
        <ele>1195.2</ele>
        <time>2012-06-07T13:58:09Z</time>
      </trkpt>
      <trkpt lat="45.51674" lon="2.91078">
        <ele>1188.3</ele>
        <time>2012-06-07T13:59:21Z</time>
      </trkpt>
      <trkpt lat="45.51698" lon="2.91203">
        <ele>1185.6</ele>
        <time>2012-06-07T14:00:49Z</time>
      </trkpt>
      <trkpt lat="45.51733" lon="2.91319">
        <ele>1181.9</ele>
        <time>2012-06-07T14:02:03Z</time>
      </trkpt>
      <trkpt lat="45.51759" lon="2.91442">
        <ele>1176.7</ele>
        <time>2012-06-07T14:03:14Z</time>
      </trkpt>
      <trkpt lat="45.51803" lon="2.91553">
        <ele>1170.8</ele>
        <time>2012-06-07T14:04:25Z</time>
      </trkpt>
      <trkpt lat="45.51866" lon="2.91644">
        <ele>1167.3</ele>
        <time>2012-06-07T14:05:37Z</time>
      </trkpt>
      <trkpt lat="45.51911" lon="2.91754">
        <ele>1163.1</ele>
        <time>2012-06-07T14:06:48Z</time>
      </trkpt>
      <trkpt lat="45.51965" lon="2.91855">
        <ele>1152.5</ele>
        <time>2012-06-07T14:08:00Z</time>
      </trkpt>
      <trkpt lat="45.51946" lon="2.91981">
        <ele>1147.4</ele>
        <time>2012-06-07T14:09:10Z</time>
      </trkpt>
      <trkpt lat="45.51921" lon="2.92103">
        <ele>1147</ele>
        <time>2012-06-07T14:10:24Z</time>
      </trkpt>
      <trkpt lat="45.5188" lon="2.92216">
        <ele>1142.9</ele>
        <time>2012-06-07T14:11:34Z</time>
      </trkpt>
      <trkpt lat="45.51837" lon="2.92328">
        <ele>1136.1</ele>
        <time>2012-06-07T14:12:49Z</time>
      </trkpt>
      <trkpt lat="45.51804" lon="2.92447">
        <ele>1128.5</ele>
        <time>2012-06-07T14:14:04Z</time>
      </trkpt>
      <trkpt lat="45.51779" lon="2.92569">
        <ele>1121.3</ele>
        <time>2012-06-07T14:15:16Z</time>
      </trkpt>
      <trkpt lat="45.51738" lon="2.92682">
        <ele>1113.9</ele>
        <time>2012-06-07T14:17:18Z</time>
      </trkpt>
      <trkpt lat="45.51689" lon="2.92574">
        <ele>1095.8</ele>
        <time>2012-06-07T14:18:53Z</time>
      </trkpt>
      <trkpt lat="45.51637" lon="2.92679">
        <ele>1075</ele>
        <time>2012-06-07T14:28:41Z</time>
      </trkpt>
      <trkpt lat="45.51614" lon="2.92802">
        <ele>1068.5</ele>
        <time>2012-06-07T14:29:49Z</time>
      </trkpt>
      <trkpt lat="45.51593" lon="2.92675">
        <ele>1045.5</ele>
        <time>2012-06-07T14:32:00Z</time>
      </trkpt>
      <trkpt lat="45.51517" lon="2.92745">
        <ele>1027</ele>
        <time>2012-06-07T14:34:38Z</time>
      </trkpt>
      <trkpt lat="45.51503" lon="2.92871">
        <ele>1025.5</ele>
        <time>2012-06-07T14:35:58Z</time>
      </trkpt>
      <trkpt lat="45.51416" lon="2.92896">
        <ele>1024.6</ele>
        <time>2012-06-07T14:37:24Z</time>
      </trkpt>
      <trkpt lat="45.51377" lon="2.93012">
        <ele>1023.5</ele>
        <time>2012-06-07T14:38:47Z</time>
      </trkpt>
      <trkpt lat="45.51359" lon="2.93136">
        <ele>1026</ele>
        <time>2012-06-07T14:40:04Z</time>
      </trkpt>
      <trkpt lat="45.51362" lon="2.93263">
        <ele>1024.7</ele>
        <time>2012-06-07T14:41:26Z</time>
      </trkpt>
      <trkpt lat="45.51272" lon="2.93243">
        <ele>1037.6</ele>
        <time>2012-06-07T14:43:41Z</time>
      </trkpt>
      <trkpt lat="45.51188" lon="2.93199">
        <ele>1045.2</ele>
        <time>2012-06-07T14:44:49Z</time>
      </trkpt>
      <trkpt lat="45.51113" lon="2.9313">
        <ele>1055.2</ele>
        <time>2012-06-07T14:46:52Z</time>
      </trkpt>
      <trkpt lat="45.51094" lon="2.93255">
        <ele>1047</ele>
        <time>2012-06-07T14:49:46Z</time>
      </trkpt>
      <trkpt lat="45.51114" lon="2.93379">
        <ele>1038.4</ele>
        <time>2012-06-07T14:51:19Z</time>
      </trkpt>
      <trkpt lat="45.51186" lon="2.93458">
        <ele>1035.3</ele>
        <time>2012-06-07T14:53:18Z</time>
      </trkpt>
      <trkpt lat="45.51245" lon="2.9341">
        <ele>1047.6</ele>
        <time>2012-06-08T06:11:18Z</time>
      </trkpt>
      <trkpt lat="45.51245" lon="2.93404">
        <ele>1047.6</ele>
        <time>2012-06-08T06:11:22Z</time>
      </trkpt>
      <trkpt lat="45.51224" lon="2.93285">
        <ele>1055</ele>
        <time>2012-06-08T06:14:00Z</time>
      </trkpt>
      <trkpt lat="45.51135" lon="2.93278">
        <ele>1040.6</ele>
        <time>2012-06-08T06:17:42Z</time>
      </trkpt>
      <trkpt lat="45.51059" lon="2.93209">
        <ele>1057.5</ele>
        <time>2012-06-08T06:20:05Z</time>
      </trkpt>
      <trkpt lat="45.50984" lon="2.93141">
        <ele>1062.5</ele>
        <time>2012-06-08T06:21:33Z</time>
      </trkpt>
      <trkpt lat="45.50903" lon="2.93087">
        <ele>1060</ele>
        <time>2012-06-08T06:22:51Z</time>
      </trkpt>
      <trkpt lat="45.50821" lon="2.93037">
        <ele>1064.7</ele>
        <time>2012-06-08T06:24:10Z</time>
      </trkpt>
      <trkpt lat="45.50735" lon="2.93001">
        <ele>1069.7</ele>
        <time>2012-06-08T06:25:37Z</time>
      </trkpt>
      <trkpt lat="45.50649" lon="2.92966">
        <ele>1079.8</ele>
        <time>2012-06-08T06:27:01Z</time>
      </trkpt>
      <trkpt lat="45.50568" lon="2.92912">
        <ele>1089.3</ele>
        <time>2012-06-08T06:28:25Z</time>
      </trkpt>
      <trkpt lat="45.50487" lon="2.92855">
        <ele>1100</ele>
        <time>2012-06-08T06:29:47Z</time>
      </trkpt>
      <trkpt lat="45.50398" lon="2.92841">
        <ele>1111</ele>
        <time>2012-06-08T06:31:10Z</time>
      </trkpt>
      <trkpt lat="45.50311" lon="2.92816">
        <ele>1119.2</ele>
        <time>2012-06-08T06:32:30Z</time>
      </trkpt>
      <trkpt lat="45.50235" lon="2.92747">
        <ele>1128.7</ele>
        <time>2012-06-08T06:33:52Z</time>
      </trkpt>
      <trkpt lat="45.50193" lon="2.92635">
        <ele>1141</ele>
        <time>2012-06-08T06:35:20Z</time>
      </trkpt>
      <trkpt lat="45.50143" lon="2.92529">
        <ele>1149.9</ele>
        <time>2012-06-08T06:36:44Z</time>
      </trkpt>
      <trkpt lat="45.50087" lon="2.9243">
        <ele>1158.3</ele>
        <time>2012-06-08T06:38:03Z</time>
      </trkpt>
      <trkpt lat="45.50028" lon="2.92333">
        <ele>1165.7</ele>
        <time>2012-06-08T06:39:21Z</time>
      </trkpt>
      <trkpt lat="45.49984" lon="2.92223">
        <ele>1177.1</ele>
        <time>2012-06-08T06:40:43Z</time>
      </trkpt>
      <trkpt lat="45.49927" lon="2.92125">
        <ele>1182</ele>
        <time>2012-06-08T06:42:19Z</time>
      </trkpt>
      <trkpt lat="45.49895" lon="2.92005">
        <ele>1184.1</ele>
        <time>2012-06-08T06:44:19Z</time>
      </trkpt>
      <trkpt lat="45.49924" lon="2.91885">
        <ele>1192.4</ele>
        <time>2012-06-08T06:45:36Z</time>
      </trkpt>
      <trkpt lat="45.49959" lon="2.91766">
        <ele>1200.7</ele>
        <time>2012-06-08T06:46:52Z</time>
      </trkpt>
      <trkpt lat="45.50001" lon="2.91653">
        <ele>1203.7</ele>
        <time>2012-06-08T06:48:04Z</time>
      </trkpt>
      <trkpt lat="45.50008" lon="2.91525">
        <ele>1204.4</ele>
        <time>2012-06-08T06:49:19Z</time>
      </trkpt>
      <trkpt lat="45.49991" lon="2.91401">
        <ele>1203.1</ele>
        <time>2012-06-08T06:50:28Z</time>
      </trkpt>
      <trkpt lat="45.49974" lon="2.91275">
        <ele>1203.4</ele>
        <time>2012-06-08T06:51:39Z</time>
      </trkpt>
      <trkpt lat="45.49952" lon="2.91152">
        <ele>1209.6</ele>
        <time>2012-06-08T06:52:51Z</time>
      </trkpt>
      <trkpt lat="45.49932" lon="2.91027">
        <ele>1208.1</ele>
        <time>2012-06-08T06:54:02Z</time>
      </trkpt>
      <trkpt lat="45.49861" lon="2.9095">
        <ele>1217.9</ele>
        <time>2012-06-08T06:55:49Z</time>
      </trkpt>
      <trkpt lat="45.49803" lon="2.90852">
        <ele>1228.5</ele>
        <time>2012-06-08T06:57:20Z</time>
      </trkpt>
      <trkpt lat="45.49723" lon="2.90792">
        <ele>1234.6</ele>
        <time>2012-06-08T06:58:41Z</time>
      </trkpt>
      <trkpt lat="45.49657" lon="2.90879">
        <ele>1239.1</ele>
        <time>2012-06-08T07:00:40Z</time>
      </trkpt>
      <trkpt lat="45.49623" lon="2.90997">
        <ele>1237.8</ele>
        <time>2012-06-08T07:01:58Z</time>
      </trkpt>
      <trkpt lat="45.49602" lon="2.91121">
        <ele>1237</ele>
        <time>2012-06-08T07:03:14Z</time>
      </trkpt>
      <trkpt lat="45.49536" lon="2.91206">
        <ele>1237.5</ele>
        <time>2012-06-08T07:04:39Z</time>
      </trkpt>
      <trkpt lat="45.49482" lon="2.91104">
        <ele>1254.6</ele>
        <time>2012-06-08T07:06:32Z</time>
      </trkpt>
      <trkpt lat="45.49452" lon="2.90983">
        <ele>1262</ele>
        <time>2012-06-08T07:07:51Z</time>
      </trkpt>
      <trkpt lat="45.49422" lon="2.90863">
        <ele>1264.2</ele>
        <time>2012-06-08T07:09:04Z</time>
      </trkpt>
      <trkpt lat="45.49394" lon="2.90743">
        <ele>1271.4</ele>
        <time>2012-06-08T07:10:20Z</time>
      </trkpt>
      <trkpt lat="45.49366" lon="2.90621">
        <ele>1267.2</ele>
        <time>2012-06-08T07:11:35Z</time>
      </trkpt>
      <trkpt lat="45.49363" lon="2.90493">
        <ele>1263</ele>
        <time>2012-06-08T07:12:54Z</time>
      </trkpt>
      <trkpt lat="45.49329" lon="2.90376">
        <ele>1266.6</ele>
        <time>2012-06-08T07:14:12Z</time>
      </trkpt>
      <trkpt lat="45.49337" lon="2.90249">
        <ele>1256.1</ele>
        <time>2012-06-08T07:16:41Z</time>
      </trkpt>
      <trkpt lat="45.49367" lon="2.90128">
        <ele>1250.4</ele>
        <time>2012-06-08T07:20:54Z</time>
      </trkpt>
      <trkpt lat="45.49329" lon="2.90012">
        <ele>1248.2</ele>
        <time>2012-06-08T07:24:06Z</time>
      </trkpt>
      <trkpt lat="45.49333" lon="2.89884">
        <ele>1251.6</ele>
        <time>2012-06-08T07:25:20Z</time>
      </trkpt>
      <trkpt lat="45.4935" lon="2.89759">
        <ele>1257.5</ele>
        <time>2012-06-08T07:26:48Z</time>
      </trkpt>
      <trkpt lat="45.49376" lon="2.89636">
        <ele>1260</ele>
        <time>2012-06-08T07:28:04Z</time>
      </trkpt>
      <trkpt lat="45.49375" lon="2.89508">
        <ele>1265.5</ele>
        <time>2012-06-08T07:29:17Z</time>
      </trkpt>
      <trkpt lat="45.49353" lon="2.89386">
        <ele>1273.6</ele>
        <time>2012-06-08T07:30:34Z</time>
      </trkpt>
      <trkpt lat="45.49288" lon="2.89298">
        <ele>1277.1</ele>
        <time>2012-06-08T07:32:00Z</time>
      </trkpt>
      <trkpt lat="45.49199" lon="2.89276">
        <ele>1274.7</ele>
        <time>2012-06-08T07:40:58Z</time>
      </trkpt>
      <trkpt lat="45.49112" lon="2.89301">
        <ele>1271.6</ele>
        <time>2012-06-08T07:42:06Z</time>
      </trkpt>
      <trkpt lat="45.49025" lon="2.8933">
        <ele>1268.8</ele>
        <time>2012-06-08T07:43:16Z</time>
      </trkpt>
      <trkpt lat="45.48936" lon="2.89354">
        <ele>1266.1</ele>
        <time>2012-06-08T07:44:27Z</time>
      </trkpt>
      <trkpt lat="45.48847" lon="2.89364">
        <ele>1258.8</ele>
        <time>2012-06-08T07:46:29Z</time>
      </trkpt>
      <trkpt lat="45.4876" lon="2.89393">
        <ele>1262.7</ele>
        <time>2012-06-08T07:47:50Z</time>
      </trkpt>
      <trkpt lat="45.48672" lon="2.8941">
        <ele>1272.5</ele>
        <time>2012-06-08T07:49:15Z</time>
      </trkpt>
      <trkpt lat="45.48583" lon="2.89429">
        <ele>1269.7</ele>
        <time>2012-06-08T07:50:25Z</time>
      </trkpt>
      <trkpt lat="45.48495" lon="2.89445">
        <ele>1265.4</ele>
        <time>2012-06-08T07:51:31Z</time>
      </trkpt>
      <trkpt lat="45.48406" lon="2.89462">
        <ele>1259</ele>
        <time>2012-06-08T07:52:35Z</time>
      </trkpt>
      <trkpt lat="45.48319" lon="2.89487">
        <ele>1257.3</ele>
        <time>2012-06-08T07:53:42Z</time>
      </trkpt>
      <trkpt lat="45.48242" lon="2.8955">
        <ele>1253</ele>
        <time>2012-06-08T07:54:54Z</time>
      </trkpt>
      <trkpt lat="45.48174" lon="2.89632">
        <ele>1248.3</ele>
        <time>2012-06-08T07:56:05Z</time>
      </trkpt>
      <trkpt lat="45.48114" lon="2.89727">
        <ele>1244.3</ele>
        <time>2012-06-08T07:57:16Z</time>
      </trkpt>
      <trkpt lat="45.48087" lon="2.89848">
        <ele>1241.1</ele>
        <time>2012-06-08T07:58:35Z</time>
      </trkpt>
      <trkpt lat="45.48026" lon="2.89942">
        <ele>1237.9</ele>
        <time>2012-06-08T07:59:42Z</time>
      </trkpt>
      <trkpt lat="45.47937" lon="2.89951">
        <ele>1239.7</ele>
        <time>2012-06-08T08:00:53Z</time>
      </trkpt>
      <trkpt lat="45.47855" lon="2.89903">
        <ele>1241.4</ele>
        <time>2012-06-08T08:02:03Z</time>
      </trkpt>
      <trkpt lat="45.47782" lon="2.89831">
        <ele>1243</ele>
        <time>2012-06-08T08:03:28Z</time>
      </trkpt>
      <trkpt lat="45.47701" lon="2.89781">
        <ele>1237.9</ele>
        <time>2012-06-08T08:05:19Z</time>
      </trkpt>
      <trkpt lat="45.47623" lon="2.89715">
        <ele>1231.9</ele>
        <time>2012-06-08T08:06:41Z</time>
      </trkpt>
      <trkpt lat="45.47558" lon="2.89629">
        <ele>1230.9</ele>
        <time>2012-06-08T08:07:51Z</time>
      </trkpt>
      <trkpt lat="45.47469" lon="2.89619">
        <ele>1230</ele>
        <time>2012-06-08T08:12:59Z</time>
      </trkpt>
      <trkpt lat="45.4738" lon="2.89607">
        <ele>1230.9</ele>
        <time>2012-06-08T08:14:11Z</time>
      </trkpt>
      <trkpt lat="45.47291" lon="2.89594">
        <ele>1235.2</ele>
        <time>2012-06-08T08:15:23Z</time>
      </trkpt>
      <trkpt lat="45.47202" lon="2.89593">
        <ele>1231.9</ele>
        <time>2012-06-08T08:16:31Z</time>
      </trkpt>
      <trkpt lat="45.47122" lon="2.8965">
        <ele>1225.5</ele>
        <time>2012-06-08T08:17:42Z</time>
      </trkpt>
      <trkpt lat="45.47041" lon="2.89702">
        <ele>1221.2</ele>
        <time>2012-06-08T08:19:13Z</time>
      </trkpt>
      <trkpt lat="45.46954" lon="2.89736">
        <ele>1212.2</ele>
        <time>2012-06-08T08:25:30Z</time>
      </trkpt>
      <trkpt lat="45.46865" lon="2.89757">
        <ele>1202.5</ele>
        <time>2012-06-08T08:26:45Z</time>
      </trkpt>
      <trkpt lat="45.46778" lon="2.89784">
        <ele>1195.2</ele>
        <time>2012-06-08T08:27:56Z</time>
      </trkpt>
      <trkpt lat="45.46698" lon="2.8984">
        <ele>1185.4</ele>
        <time>2012-06-08T08:31:32Z</time>
      </trkpt>
      <trkpt lat="45.46611" lon="2.8987">
        <ele>1181.1</ele>
        <time>2012-06-08T08:33:45Z</time>
      </trkpt>
      <trkpt lat="45.46523" lon="2.89891">
        <ele>1183.1</ele>
        <time>2012-06-08T08:34:54Z</time>
      </trkpt>
      <trkpt lat="45.46442" lon="2.89944">
        <ele>1187.4</ele>
        <time>2012-06-08T08:36:04Z</time>
      </trkpt>
      <trkpt lat="45.46378" lon="2.90032">
        <ele>1187</ele>
        <time>2012-06-08T08:37:38Z</time>
      </trkpt>
      <trkpt lat="45.46336" lon="2.90145">
        <ele>1189.3</ele>
        <time>2012-06-08T08:38:52Z</time>
      </trkpt>
      <trkpt lat="45.46293" lon="2.90257">
        <ele>1187.8</ele>
        <time>2012-06-08T08:39:59Z</time>
      </trkpt>
      <trkpt lat="45.46213" lon="2.90316">
        <ele>1186.2</ele>
        <time>2012-06-08T08:41:11Z</time>
      </trkpt>
      <trkpt lat="45.46159" lon="2.90417">
        <ele>1185.8</ele>
        <time>2012-06-08T08:55:00Z</time>
      </trkpt>
      <trkpt lat="45.46163" lon="2.90544">
        <ele>1175.2</ele>
        <time>2012-06-08T08:56:13Z</time>
      </trkpt>
      <trkpt lat="45.46162" lon="2.90671">
        <ele>1162.4</ele>
        <time>2012-06-08T08:57:21Z</time>
      </trkpt>
      <trkpt lat="45.46141" lon="2.90795">
        <ele>1160.3</ele>
        <time>2012-06-08T08:58:37Z</time>
      </trkpt>
      <trkpt lat="45.46086" lon="2.90894">
        <ele>1171.5</ele>
        <time>2012-06-08T09:00:07Z</time>
      </trkpt>
      <trkpt lat="45.46012" lon="2.90965">
        <ele>1179.5</ele>
        <time>2012-06-08T09:01:19Z</time>
      </trkpt>
      <trkpt lat="45.45933" lon="2.91023">
        <ele>1183.8</ele>
        <time>2012-06-08T09:03:01Z</time>
      </trkpt>
      <trkpt lat="45.45843" lon="2.91025">
        <ele>1189.7</ele>
        <time>2012-06-08T09:05:05Z</time>
      </trkpt>
      <trkpt lat="45.45758" lon="2.91065">
        <ele>1178.8</ele>
        <time>2012-06-08T09:06:45Z</time>
      </trkpt>
      <trkpt lat="45.45695" lon="2.91156">
        <ele>1167.6</ele>
        <time>2012-06-08T09:09:42Z</time>
      </trkpt>
      <trkpt lat="45.4564" lon="2.91257">
        <ele>1167.1</ele>
        <time>2012-06-08T09:11:08Z</time>
      </trkpt>
      <trkpt lat="45.45583" lon="2.91355">
        <ele>1172.3</ele>
        <time>2012-06-08T09:12:29Z</time>
      </trkpt>
      <trkpt lat="45.45529" lon="2.91458">
        <ele>1169</ele>
        <time>2012-06-08T09:13:52Z</time>
      </trkpt>
      <trkpt lat="45.45444" lon="2.91498">
        <ele>1162.6</ele>
        <time>2012-06-08T09:15:53Z</time>
      </trkpt>
      <trkpt lat="45.45356" lon="2.91473">
        <ele>1160.7</ele>
        <time>2012-06-08T09:17:11Z</time>
      </trkpt>
      <trkpt lat="45.45269" lon="2.91442">
        <ele>1160.8</ele>
        <time>2012-06-08T09:18:36Z</time>
      </trkpt>
      <trkpt lat="45.45188" lon="2.91387">
        <ele>1160.7</ele>
        <time>2012-06-08T09:19:51Z</time>
      </trkpt>
      <trkpt lat="45.45098" lon="2.91386">
        <ele>1161.9</ele>
        <time>2012-06-08T09:26:35Z</time>
      </trkpt>
      <trkpt lat="45.45016" lon="2.91434">
        <ele>1158.2</ele>
        <time>2012-06-08T09:27:47Z</time>
      </trkpt>
      <trkpt lat="45.44947" lon="2.91513">
        <ele>1151.6</ele>
        <time>2012-06-08T09:29:02Z</time>
      </trkpt>
      <trkpt lat="45.44879" lon="2.91594">
        <ele>1143.6</ele>
        <time>2012-06-08T09:30:10Z</time>
      </trkpt>
      <trkpt lat="45.44789" lon="2.91595">
        <ele>1134.4</ele>
        <time>2012-06-08T09:31:36Z</time>
      </trkpt>
      <trkpt lat="45.44705" lon="2.9155">
        <ele>1130.2</ele>
        <time>2012-06-08T09:32:45Z</time>
      </trkpt>
      <trkpt lat="45.4464" lon="2.91462">
        <ele>1121.4</ele>
        <time>2012-06-08T09:34:13Z</time>
      </trkpt>
      <trkpt lat="45.44551" lon="2.91471">
        <ele>1111.4</ele>
        <time>2012-06-08T09:36:23Z</time>
      </trkpt>
      <trkpt lat="45.44561" lon="2.916">
        <ele>1096.2</ele>
        <time>2012-06-08T09:39:01Z</time>
      </trkpt>
      <trkpt lat="45.44598" lon="2.91716">
        <ele>1087.7</ele>
        <time>2012-06-08T09:40:17Z</time>
      </trkpt>
      <trkpt lat="45.44675" lon="2.9178">
        <ele>1088.9</ele>
        <time>2012-06-08T09:41:34Z</time>
      </trkpt>
      <trkpt lat="45.44726" lon="2.91885">
        <ele>1094.9</ele>
        <time>2012-06-08T09:42:53Z</time>
      </trkpt>
      <trkpt lat="45.44687" lon="2.92">
        <ele>1094.7</ele>
        <time>2012-06-08T09:45:17Z</time>
      </trkpt>
      <trkpt lat="45.44608" lon="2.92059">
        <ele>1075.3</ele>
        <time>2012-06-08T09:49:30Z</time>
      </trkpt>
      <trkpt lat="45.44542" lon="2.92145">
        <ele>1057.3</ele>
        <time>2012-06-08T09:54:00Z</time>
      </trkpt>
      <trkpt lat="45.44545" lon="2.92272">
        <ele>1045.1</ele>
        <time>2012-06-08T09:56:11Z</time>
      </trkpt>
      <trkpt lat="45.44513" lon="2.92391">
        <ele>1037.8</ele>
        <time>2012-06-08T09:57:30Z</time>
      </trkpt>
      <trkpt lat="45.44474" lon="2.92504">
        <ele>1030.3</ele>
        <time>2012-06-08T09:58:57Z</time>
      </trkpt>
      <trkpt lat="45.44385" lon="2.92481">
        <ele>1017.2</ele>
        <time>2012-06-08T10:00:33Z</time>
      </trkpt>
      <trkpt lat="45.44296" lon="2.92499">
        <ele>1008.9</ele>
        <time>2012-06-08T10:02:45Z</time>
      </trkpt>
      <trkpt lat="45.44218" lon="2.92564">
        <ele>1008.8</ele>
        <time>2012-06-08T10:04:02Z</time>
      </trkpt>
      <trkpt lat="45.44148" lon="2.92644">
        <ele>1010.1</ele>
        <time>2012-06-08T10:06:27Z</time>
      </trkpt>
      <trkpt lat="45.44156" lon="2.92705">
        <ele>1001</ele>
        <time>2012-06-08T11:03:33Z</time>
      </trkpt>
      <trkpt lat="45.44156" lon="2.92705">
        <ele>1001</ele>
        <time>2012-06-08T11:03:34Z</time>
      </trkpt>
      <trkpt lat="45.44097" lon="2.92802">
        <ele>998.7</ele>
        <time>2012-06-08T11:10:47Z</time>
      </trkpt>
      <trkpt lat="45.44011" lon="2.92833">
        <ele>994.5</ele>
        <time>2012-06-08T11:12:11Z</time>
      </trkpt>
      <trkpt lat="45.43943" lon="2.92917">
        <ele>1030.3</ele>
        <time>2012-06-08T11:17:53Z</time>
      </trkpt>
      <trkpt lat="45.43853" lon="2.92913">
        <ele>1051.8</ele>
        <time>2012-06-08T11:19:52Z</time>
      </trkpt>
      <trkpt lat="45.43788" lon="2.93">
        <ele>1098.4</ele>
        <time>2012-06-08T11:25:01Z</time>
      </trkpt>
      <trkpt lat="45.43698" lon="2.93">
        <ele>1109.9</ele>
        <time>2012-06-08T11:26:28Z</time>
      </trkpt>
      <trkpt lat="45.43619" lon="2.9306">
        <ele>1119.8</ele>
        <time>2012-06-08T11:27:56Z</time>
      </trkpt>
      <trkpt lat="45.43553" lon="2.93147">
        <ele>1128.6</ele>
        <time>2012-06-08T11:29:27Z</time>
      </trkpt>
      <trkpt lat="45.43475" lon="2.93207">
        <ele>1131.8</ele>
        <time>2012-06-08T11:32:00Z</time>
      </trkpt>
      <trkpt lat="45.43387" lon="2.93229">
        <ele>1139.1</ele>
        <time>2012-06-08T11:35:25Z</time>
      </trkpt>
      <trkpt lat="45.43298" lon="2.93211">
        <ele>1144.9</ele>
        <time>2012-06-08T11:36:41Z</time>
      </trkpt>
      <trkpt lat="45.43209" lon="2.93198">
        <ele>1151.4</ele>
        <time>2012-06-08T11:37:56Z</time>
      </trkpt>
      <trkpt lat="45.43121" lon="2.93183">
        <ele>1155.9</ele>
        <time>2012-06-08T11:39:09Z</time>
      </trkpt>
      <trkpt lat="45.43032" lon="2.9317">
        <ele>1156.8</ele>
        <time>2012-06-08T11:41:30Z</time>
      </trkpt>
      <trkpt lat="45.42943" lon="2.93165">
        <ele>1164.2</ele>
        <time>2012-06-08T11:42:45Z</time>
      </trkpt>
      <trkpt lat="45.42874" lon="2.93247">
        <ele>1172.4</ele>
        <time>2012-06-08T11:45:45Z</time>
      </trkpt>
      <trkpt lat="45.42793" lon="2.9333">
        <ele>1175.5</ele>
        <time>2012-06-08T11:47:59Z</time>
      </trkpt>
      <trkpt lat="45.42722" lon="2.934">
        <ele>1182</ele>
        <time>2012-06-08T11:49:08Z</time>
      </trkpt>
      <trkpt lat="45.42682" lon="2.93514">
        <ele>1186.7</ele>
        <time>2012-06-08T11:50:22Z</time>
      </trkpt>
      <trkpt lat="45.42652" lon="2.93634">
        <ele>1189.7</ele>
        <time>2012-06-08T11:52:14Z</time>
      </trkpt>
      <trkpt lat="45.42617" lon="2.93751">
        <ele>1188.4</ele>
        <time>2012-06-08T11:53:26Z</time>
      </trkpt>
      <trkpt lat="45.42565" lon="2.93855">
        <ele>1189</ele>
        <time>2012-06-08T11:55:52Z</time>
      </trkpt>
      <trkpt lat="45.42485" lon="2.93913">
        <ele>1187.6</ele>
        <time>2012-06-08T11:56:59Z</time>
      </trkpt>
      <trkpt lat="45.42415" lon="2.93992">
        <ele>1189</ele>
        <time>2012-06-08T11:58:07Z</time>
      </trkpt>
      <trkpt lat="45.42344" lon="2.94071">
        <ele>1189.8</ele>
        <time>2012-06-08T11:59:49Z</time>
      </trkpt>
      <trkpt lat="45.42272" lon="2.94145">
        <ele>1190.3</ele>
        <time>2012-06-08T12:00:55Z</time>
      </trkpt>
      <trkpt lat="45.42209" lon="2.94236">
        <ele>1191</ele>
        <time>2012-06-08T12:02:03Z</time>
      </trkpt>
      <trkpt lat="45.42148" lon="2.94328">
        <ele>1191</ele>
        <time>2012-06-08T12:03:11Z</time>
      </trkpt>
      <trkpt lat="45.421" lon="2.94435">
        <ele>1191.8</ele>
        <time>2012-06-08T12:15:41Z</time>
      </trkpt>
      <trkpt lat="45.4209" lon="2.94561">
        <ele>1184.1</ele>
        <time>2012-06-08T12:16:54Z</time>
      </trkpt>
      <trkpt lat="45.42088" lon="2.94689">
        <ele>1176.9</ele>
        <time>2012-06-08T12:18:04Z</time>
      </trkpt>
      <trkpt lat="45.42062" lon="2.9481">
        <ele>1172.5</ele>
        <time>2012-06-08T12:19:11Z</time>
      </trkpt>
      <trkpt lat="45.42035" lon="2.94931">
        <ele>1164.7</ele>
        <time>2012-06-08T12:20:20Z</time>
      </trkpt>
      <trkpt lat="45.41967" lon="2.95014">
        <ele>1170.5</ele>
        <time>2012-06-08T12:21:35Z</time>
      </trkpt>
      <trkpt lat="45.41923" lon="2.95125">
        <ele>1180.3</ele>
        <time>2012-06-08T12:22:51Z</time>
      </trkpt>
      <trkpt lat="45.4189" lon="2.95244">
        <ele>1184.6</ele>
        <time>2012-06-08T12:24:03Z</time>
      </trkpt>
      <trkpt lat="45.41852" lon="2.95359">
        <ele>1190.4</ele>
        <time>2012-06-08T12:25:12Z</time>
      </trkpt>
      <trkpt lat="45.41798" lon="2.95461">
        <ele>1196.6</ele>
        <time>2012-06-08T12:26:25Z</time>
      </trkpt>
      <trkpt lat="45.41712" lon="2.95496">
        <ele>1201.6</ele>
        <time>2012-06-08T12:27:35Z</time>
      </trkpt>
      <trkpt lat="45.41632" lon="2.95552">
        <ele>1205.6</ele>
        <time>2012-06-08T12:29:25Z</time>
      </trkpt>
      <trkpt lat="45.41552" lon="2.95609">
        <ele>1213.5</ele>
        <time>2012-06-08T12:30:41Z</time>
      </trkpt>
      <trkpt lat="45.41464" lon="2.95585">
        <ele>1221.5</ele>
        <time>2012-06-08T12:32:22Z</time>
      </trkpt>
      <trkpt lat="45.41399" lon="2.95499">
        <ele>1226.2</ele>
        <time>2012-06-08T12:37:24Z</time>
      </trkpt>
      <trkpt lat="45.41348" lon="2.95395">
        <ele>1230.7</ele>
        <time>2012-06-08T12:38:36Z</time>
      </trkpt>
      <trkpt lat="45.41294" lon="2.95293">
        <ele>1230.7</ele>
        <time>2012-06-08T12:43:20Z</time>
      </trkpt>
      <trkpt lat="45.41226" lon="2.95211">
        <ele>1228.2</ele>
        <time>2012-06-08T12:44:32Z</time>
      </trkpt>
      <trkpt lat="45.41162" lon="2.95122">
        <ele>1229.7</ele>
        <time>2012-06-08T12:46:34Z</time>
      </trkpt>
      <trkpt lat="45.41144" lon="2.94998">
        <ele>1218.1</ele>
        <time>2012-06-08T12:47:45Z</time>
      </trkpt>
      <trkpt lat="45.41154" lon="2.94872">
        <ele>1215.7</ele>
        <time>2012-06-08T12:48:56Z</time>
      </trkpt>
      <trkpt lat="45.41189" lon="2.94754">
        <ele>1215.4</ele>
        <time>2012-06-08T12:50:04Z</time>
      </trkpt>
      <trkpt lat="45.41162" lon="2.94633">
        <ele>1221.5</ele>
        <time>2012-06-08T12:52:00Z</time>
      </trkpt>
      <trkpt lat="45.41083" lon="2.94576">
        <ele>1233.5</ele>
        <time>2012-06-08T12:53:29Z</time>
      </trkpt>
      <trkpt lat="45.41003" lon="2.94516">
        <ele>1241.6</ele>
        <time>2012-06-08T12:54:56Z</time>
      </trkpt>
      <trkpt lat="45.40924" lon="2.94458">
        <ele>1247.2</ele>
        <time>2012-06-08T12:56:13Z</time>
      </trkpt>
      <trkpt lat="45.40844" lon="2.944">
        <ele>1249.7</ele>
        <time>2012-06-08T12:57:26Z</time>
      </trkpt>
      <trkpt lat="45.40764" lon="2.94343">
        <ele>1254.7</ele>
        <time>2012-06-08T12:58:44Z</time>
      </trkpt>
      <trkpt lat="45.40685" lon="2.94285">
        <ele>1261.7</ele>
        <time>2012-06-08T13:00:04Z</time>
      </trkpt>
      <trkpt lat="45.40605" lon="2.94228">
        <ele>1269.1</ele>
        <time>2012-06-08T13:01:18Z</time>
      </trkpt>
      <trkpt lat="45.40526" lon="2.94171">
        <ele>1272.2</ele>
        <time>2012-06-08T13:02:32Z</time>
      </trkpt>
      <trkpt lat="45.40445" lon="2.94228">
        <ele>1263.7</ele>
        <time>2012-06-08T13:03:58Z</time>
      </trkpt>
      <trkpt lat="45.40379" lon="2.94315">
        <ele>1252</ele>
        <time>2012-06-08T13:05:16Z</time>
      </trkpt>
      <trkpt lat="45.40313" lon="2.94227">
        <ele>1251.2</ele>
        <time>2012-06-08T13:06:43Z</time>
      </trkpt>
      <trkpt lat="45.40265" lon="2.9412">
        <ele>1251.6</ele>
        <time>2012-06-08T13:07:55Z</time>
      </trkpt>
      <trkpt lat="45.40223" lon="2.94007">
        <ele>1247.1</ele>
        <time>2012-06-08T13:09:09Z</time>
      </trkpt>
      <trkpt lat="45.40181" lon="2.93895">
        <ele>1242.3</ele>
        <time>2012-06-08T13:10:18Z</time>
      </trkpt>
      <trkpt lat="45.40146" lon="2.93778">
        <ele>1238.5</ele>
        <time>2012-06-08T13:11:26Z</time>
      </trkpt>
      <trkpt lat="45.40117" lon="2.93659">
        <ele>1227.8</ele>
        <time>2012-06-08T13:12:42Z</time>
      </trkpt>
      <trkpt lat="45.4005" lon="2.93573">
        <ele>1216.2</ele>
        <time>2012-06-08T13:14:20Z</time>
      </trkpt>
      <trkpt lat="45.40016" lon="2.93454">
        <ele>1203.7</ele>
        <time>2012-06-08T13:16:05Z</time>
      </trkpt>
      <trkpt lat="45.3994" lon="2.93386">
        <ele>1206</ele>
        <time>2012-06-08T13:17:26Z</time>
      </trkpt>
      <trkpt lat="45.39858" lon="2.93333">
        <ele>1207.1</ele>
        <time>2012-06-08T13:18:40Z</time>
      </trkpt>
      <trkpt lat="45.39791" lon="2.93249">
        <ele>1210.6</ele>
        <time>2012-06-08T13:19:50Z</time>
      </trkpt>
      <trkpt lat="45.39723" lon="2.93167">
        <ele>1210.6</ele>
        <time>2012-06-08T13:20:59Z</time>
      </trkpt>
      <trkpt lat="45.39647" lon="2.93099">
        <ele>1219.5</ele>
        <time>2012-06-08T13:22:35Z</time>
      </trkpt>
      <trkpt lat="45.39561" lon="2.93066">
        <ele>1220.2</ele>
        <time>2012-06-08T13:23:52Z</time>
      </trkpt>
      <trkpt lat="45.39492" lon="2.92984">
        <ele>1215.6</ele>
        <time>2012-06-08T13:25:12Z</time>
      </trkpt>
      <trkpt lat="45.39406" lon="2.92954">
        <ele>1220.8</ele>
        <time>2012-06-08T13:26:26Z</time>
      </trkpt>
      <trkpt lat="45.39331" lon="2.92881">
        <ele>1218.4</ele>
        <time>2012-06-08T13:27:47Z</time>
      </trkpt>
      <trkpt lat="45.39267" lon="2.92793">
        <ele>1217.3</ele>
        <time>2012-06-08T13:28:59Z</time>
      </trkpt>
      <trkpt lat="45.39202" lon="2.92706">
        <ele>1216.5</ele>
        <time>2012-06-08T13:32:26Z</time>
      </trkpt>
      <trkpt lat="45.39131" lon="2.92627">
        <ele>1215</ele>
        <time>2012-06-08T13:33:54Z</time>
      </trkpt>
      <trkpt lat="45.39064" lon="2.92542">
        <ele>1215.7</ele>
        <time>2012-06-08T13:35:05Z</time>
      </trkpt>
      <trkpt lat="45.38996" lon="2.92461">
        <ele>1212.3</ele>
        <time>2012-06-08T13:36:16Z</time>
      </trkpt>
      <trkpt lat="45.38913" lon="2.92413">
        <ele>1207.3</ele>
        <time>2012-06-08T13:37:41Z</time>
      </trkpt>
      <trkpt lat="45.38831" lon="2.92462">
        <ele>1203.5</ele>
        <time>2012-06-08T13:39:18Z</time>
      </trkpt>
      <trkpt lat="45.38767" lon="2.92552">
        <ele>1204.2</ele>
        <time>2012-06-08T13:41:54Z</time>
      </trkpt>
      <trkpt lat="45.38687" lon="2.9261">
        <ele>1204.5</ele>
        <time>2012-06-08T13:43:23Z</time>
      </trkpt>
      <trkpt lat="45.38616" lon="2.92687">
        <ele>1206.1</ele>
        <time>2012-06-08T13:46:21Z</time>
      </trkpt>
      <trkpt lat="45.38687" lon="2.92605">
        <ele>1203.4</ele>
        <time>2012-06-08T14:01:59Z</time>
      </trkpt>
      <trkpt lat="45.38767" lon="2.92547">
        <ele>1204.6</ele>
        <time>2012-06-08T14:03:14Z</time>
      </trkpt>
      <trkpt lat="45.38831" lon="2.9246">
        <ele>1203.9</ele>
        <time>2012-06-08T14:04:27Z</time>
      </trkpt>
      <trkpt lat="45.38863" lon="2.92342">
        <ele>1203.6</ele>
        <time>2012-06-08T14:07:31Z</time>
      </trkpt>
      <trkpt lat="45.38861" lon="2.92256">
        <ele>1248.3</ele>
        <time>2012-06-09T06:05:33Z</time>
      </trkpt>
      <trkpt lat="45.38861" lon="2.92255">
        <ele>1247.8</ele>
        <time>2012-06-09T06:05:34Z</time>
      </trkpt>
      <trkpt lat="45.3881" lon="2.9215">
        <ele>1223.3</ele>
        <time>2012-06-09T06:09:42Z</time>
      </trkpt>
      <trkpt lat="45.38876" lon="2.92064">
        <ele>1237.5</ele>
        <time>2012-06-09T06:11:04Z</time>
      </trkpt>
      <trkpt lat="45.38907" lon="2.91944">
        <ele>1251.5</ele>
        <time>2012-06-09T06:12:17Z</time>
      </trkpt>
      <trkpt lat="45.38939" lon="2.91826">
        <ele>1257.9</ele>
        <time>2012-06-09T06:14:48Z</time>
      </trkpt>
      <trkpt lat="45.38968" lon="2.91705">
        <ele>1261.6</ele>
        <time>2012-06-09T06:16:53Z</time>
      </trkpt>
      <trkpt lat="45.39019" lon="2.916">
        <ele>1279.4</ele>
        <time>2012-06-09T06:19:19Z</time>
      </trkpt>
      <trkpt lat="45.39024" lon="2.91473">
        <ele>1300.4</ele>
        <time>2012-06-09T06:21:51Z</time>
      </trkpt>
      <trkpt lat="45.3901" lon="2.91602">
        <ele>1278.2</ele>
        <time>2012-06-09T06:36:37Z</time>
      </trkpt>
      <trkpt lat="45.38965" lon="2.91713">
        <ele>1262.3</ele>
        <time>2012-06-09T06:38:18Z</time>
      </trkpt>
      <trkpt lat="45.39055" lon="2.91724">
        <ele>1263.5</ele>
        <time>2012-06-09T06:40:59Z</time>
      </trkpt>
      <trkpt lat="45.39128" lon="2.91652">
        <ele>1268.4</ele>
        <time>2012-06-09T06:42:15Z</time>
      </trkpt>
      <trkpt lat="45.39201" lon="2.91577">
        <ele>1269.6</ele>
        <time>2012-06-09T06:43:24Z</time>
      </trkpt>
      <trkpt lat="45.39225" lon="2.91456">
        <ele>1272.5</ele>
        <time>2012-06-09T06:47:34Z</time>
      </trkpt>
      <trkpt lat="45.3926" lon="2.91338">
        <ele>1274.6</ele>
        <time>2012-06-09T06:48:42Z</time>
      </trkpt>
      <trkpt lat="45.3929" lon="2.91218">
        <ele>1274.9</ele>
        <time>2012-06-09T06:49:52Z</time>
      </trkpt>
      <trkpt lat="45.39284" lon="2.9109">
        <ele>1273.2</ele>
        <time>2012-06-09T06:51:00Z</time>
      </trkpt>
      <trkpt lat="45.39272" lon="2.90964">
        <ele>1270.2</ele>
        <time>2012-06-09T06:52:07Z</time>
      </trkpt>
      <trkpt lat="45.39263" lon="2.90837">
        <ele>1267.8</ele>
        <time>2012-06-09T06:53:17Z</time>
      </trkpt>
      <trkpt lat="45.39251" lon="2.90712">
        <ele>1262.2</ele>
        <time>2012-06-09T06:54:29Z</time>
      </trkpt>
      <trkpt lat="45.39264" lon="2.90586">
        <ele>1256.5</ele>
        <time>2012-06-09T06:55:40Z</time>
      </trkpt>
      <trkpt lat="45.39292" lon="2.90466">
        <ele>1251.1</ele>
        <time>2012-06-09T06:56:51Z</time>
      </trkpt>
      <trkpt lat="45.3934" lon="2.90358">
        <ele>1243.4</ele>
        <time>2012-06-09T06:58:05Z</time>
      </trkpt>
      <trkpt lat="45.39416" lon="2.90292">
        <ele>1236.8</ele>
        <time>2012-06-09T07:01:28Z</time>
      </trkpt>
      <trkpt lat="45.39486" lon="2.90214">
        <ele>1232.5</ele>
        <time>2012-06-09T07:02:41Z</time>
      </trkpt>
      <trkpt lat="45.39512" lon="2.90091">
        <ele>1223.6</ele>
        <time>2012-06-09T07:04:02Z</time>
      </trkpt>
      <trkpt lat="45.39579" lon="2.90006">
        <ele>1213.3</ele>
        <time>2012-06-09T07:05:19Z</time>
      </trkpt>
      <trkpt lat="45.39589" lon="2.8988">
        <ele>1206.5</ele>
        <time>2012-06-09T07:06:31Z</time>
      </trkpt>
      <trkpt lat="45.3958" lon="2.89753">
        <ele>1202.6</ele>
        <time>2012-06-09T07:07:42Z</time>
      </trkpt>
      <trkpt lat="45.39523" lon="2.89655">
        <ele>1198</ele>
        <time>2012-06-09T07:08:55Z</time>
      </trkpt>
      <trkpt lat="45.39487" lon="2.89539">
        <ele>1194.4</ele>
        <time>2012-06-09T07:10:07Z</time>
      </trkpt>
      <trkpt lat="45.39451" lon="2.89423">
        <ele>1186.2</ele>
        <time>2012-06-09T07:11:19Z</time>
      </trkpt>
      <trkpt lat="45.39412" lon="2.8931">
        <ele>1181.7</ele>
        <time>2012-06-09T07:12:29Z</time>
      </trkpt>
      <trkpt lat="45.39373" lon="2.89195">
        <ele>1175.3</ele>
        <time>2012-06-09T07:13:40Z</time>
      </trkpt>
      <trkpt lat="45.39327" lon="2.89086">
        <ele>1162.7</ele>
        <time>2012-06-09T07:14:54Z</time>
      </trkpt>
      <trkpt lat="45.39256" lon="2.89009">
        <ele>1148.8</ele>
        <time>2012-06-09T07:16:13Z</time>
      </trkpt>
      <trkpt lat="45.39268" lon="2.88882">
        <ele>1137.3</ele>
        <time>2012-06-09T07:17:55Z</time>
      </trkpt>
      <trkpt lat="45.39262" lon="2.88754">
        <ele>1126.8</ele>
        <time>2012-06-09T07:19:11Z</time>
      </trkpt>
      <trkpt lat="45.39221" lon="2.88641">
        <ele>1118.9</ele>
        <time>2012-06-09T07:20:24Z</time>
      </trkpt>
      <trkpt lat="45.39153" lon="2.88561">
        <ele>1104.9</ele>
        <time>2012-06-09T07:21:46Z</time>
      </trkpt>
      <trkpt lat="45.39167" lon="2.88435">
        <ele>1094.9</ele>
        <time>2012-06-09T07:23:03Z</time>
      </trkpt>
      <trkpt lat="45.39216" lon="2.88328">
        <ele>1083.2</ele>
        <time>2012-06-09T07:24:19Z</time>
      </trkpt>
      <trkpt lat="45.39254" lon="2.88213">
        <ele>1079.4</ele>
        <time>2012-06-09T07:25:30Z</time>
      </trkpt>
      <trkpt lat="45.39246" lon="2.88086">
        <ele>1072.5</ele>
        <time>2012-06-09T07:26:46Z</time>
      </trkpt>
      <trkpt lat="45.39335" lon="2.8807">
        <ele>1066.9</ele>
        <time>2012-06-09T07:30:04Z</time>
      </trkpt>
      <trkpt lat="45.39389" lon="2.87967">
        <ele>1075.7</ele>
        <time>2012-06-09T07:37:49Z</time>
      </trkpt>
      <trkpt lat="45.3941" lon="2.87844">
        <ele>1077</ele>
        <time>2012-06-09T07:39:12Z</time>
      </trkpt>
      <trkpt lat="45.39423" lon="2.87719">
        <ele>1078.3</ele>
        <time>2012-06-09T07:40:24Z</time>
      </trkpt>
      <trkpt lat="45.39448" lon="2.87596">
        <ele>1077</ele>
        <time>2012-06-09T07:41:36Z</time>
      </trkpt>
      <trkpt lat="45.39487" lon="2.87482">
        <ele>1076</ele>
        <time>2012-06-09T07:42:44Z</time>
      </trkpt>
      <trkpt lat="45.3954" lon="2.8738">
        <ele>1082.2</ele>
        <time>2012-06-09T07:43:58Z</time>
      </trkpt>
      <trkpt lat="45.39602" lon="2.87289">
        <ele>1087.6</ele>
        <time>2012-06-09T07:45:09Z</time>
      </trkpt>
      <trkpt lat="45.39626" lon="2.87167">
        <ele>1088.6</ele>
        <time>2012-06-09T07:46:19Z</time>
      </trkpt>
      <trkpt lat="45.39667" lon="2.87053">
        <ele>1091.6</ele>
        <time>2012-06-09T07:47:30Z</time>
      </trkpt>
      <trkpt lat="45.39709" lon="2.86941">
        <ele>1094.2</ele>
        <time>2012-06-09T07:48:35Z</time>
      </trkpt>
      <trkpt lat="45.39755" lon="2.86833">
        <ele>1088.6</ele>
        <time>2012-06-09T07:49:46Z</time>
      </trkpt>
      <trkpt lat="45.398" lon="2.86723">
        <ele>1075.7</ele>
        <time>2012-06-09T07:51:01Z</time>
      </trkpt>
      <trkpt lat="45.39864" lon="2.86635">
        <ele>1051.9</ele>
        <time>2012-06-09T07:52:34Z</time>
      </trkpt>
      <trkpt lat="45.39913" lon="2.8653">
        <ele>1060.3</ele>
        <time>2012-06-09T07:55:35Z</time>
      </trkpt>
      <trkpt lat="45.39939" lon="2.86408">
        <ele>1074.3</ele>
        <time>2012-06-09T07:57:14Z</time>
      </trkpt>
      <trkpt lat="45.39952" lon="2.86282">
        <ele>1084.9</ele>
        <time>2012-06-09T08:01:03Z</time>
      </trkpt>
      <trkpt lat="45.39924" lon="2.86162">
        <ele>1091</ele>
        <time>2012-06-09T08:05:19Z</time>
      </trkpt>
      <trkpt lat="45.39905" lon="2.86037">
        <ele>1100.8</ele>
        <time>2012-06-09T08:07:23Z</time>
      </trkpt>
      <trkpt lat="45.39924" lon="2.85912">
        <ele>1115.5</ele>
        <time>2012-06-09T08:09:09Z</time>
      </trkpt>
      <trkpt lat="45.39954" lon="2.85792">
        <ele>1122.2</ele>
        <time>2012-06-09T08:10:42Z</time>
      </trkpt>
      <trkpt lat="45.40041" lon="2.85828">
        <ele>1132.8</ele>
        <time>2012-06-09T08:12:21Z</time>
      </trkpt>
      <trkpt lat="45.40111" lon="2.85905">
        <ele>1133.9</ele>
        <time>2012-06-09T08:13:37Z</time>
      </trkpt>
      <trkpt lat="45.40199" lon="2.8593">
        <ele>1124.4</ele>
        <time>2012-06-09T08:14:52Z</time>
      </trkpt>
      <trkpt lat="45.4025" lon="2.85972">
        <ele>1096.3</ele>
        <time>2012-06-09T08:35:09Z</time>
      </trkpt>
      <trkpt lat="45.40303" lon="2.86041">
        <ele>1088.1</ele>
        <time>2012-06-09T08:36:44Z</time>
      </trkpt>
      <trkpt lat="45.40339" lon="2.86011">
        <ele>1107.4</ele>
        <time>2012-06-09T08:42:13Z</time>
      </trkpt>
      <trkpt lat="45.40426" lon="2.85983">
        <ele>1102.8</ele>
        <time>2012-06-09T08:44:24Z</time>
      </trkpt>
      <trkpt lat="45.40515" lon="2.85981">
        <ele>1102.8</ele>
        <time>2012-06-09T08:46:44Z</time>
      </trkpt>
      <trkpt lat="45.40595" lon="2.85925">
        <ele>1106.4</ele>
        <time>2012-06-09T08:50:00Z</time>
      </trkpt>
      <trkpt lat="45.40683" lon="2.85909">
        <ele>1115.2</ele>
        <time>2012-06-09T08:51:44Z</time>
      </trkpt>
      <trkpt lat="45.40732" lon="2.85802">
        <ele>1125.3</ele>
        <time>2012-06-09T08:54:16Z</time>
      </trkpt>
      <trkpt lat="45.40798" lon="2.85717">
        <ele>1130</ele>
        <time>2012-06-09T08:55:40Z</time>
      </trkpt>
      <trkpt lat="45.4087" lon="2.85641">
        <ele>1138.7</ele>
        <time>2012-06-09T08:57:14Z</time>
      </trkpt>
      <trkpt lat="45.40943" lon="2.85568">
        <ele>1140.1</ele>
        <time>2012-06-09T08:58:43Z</time>
      </trkpt>
      <trkpt lat="45.41021" lon="2.85506">
        <ele>1137.6</ele>
        <time>2012-06-09T09:00:00Z</time>
      </trkpt>
      <trkpt lat="45.41102" lon="2.85451">
        <ele>1123.2</ele>
        <time>2012-06-09T09:02:00Z</time>
      </trkpt>
      <trkpt lat="45.41185" lon="2.85406">
        <ele>1115</ele>
        <time>2012-06-09T09:03:22Z</time>
      </trkpt>
      <trkpt lat="45.41272" lon="2.85382">
        <ele>1110.1</ele>
        <time>2012-06-09T09:05:00Z</time>
      </trkpt>
      <trkpt lat="45.41298" lon="2.85258">
        <ele>1107.5</ele>
        <time>2012-06-09T09:11:37Z</time>
      </trkpt>
      <trkpt lat="45.41301" lon="2.85131">
        <ele>1106.4</ele>
        <time>2012-06-09T09:13:00Z</time>
      </trkpt>
      <trkpt lat="45.41299" lon="2.85004">
        <ele>1103.6</ele>
        <time>2012-06-09T09:14:43Z</time>
      </trkpt>
      <trkpt lat="45.41273" lon="2.84883">
        <ele>1101.6</ele>
        <time>2012-06-09T09:16:26Z</time>
      </trkpt>
      <trkpt lat="45.41312" lon="2.84769">
        <ele>1105.1</ele>
        <time>2012-06-09T09:17:46Z</time>
      </trkpt>
      <trkpt lat="45.41325" lon="2.84642">
        <ele>1104.1</ele>
        <time>2012-06-09T09:19:05Z</time>
      </trkpt>
      <trkpt lat="45.41336" lon="2.84516">
        <ele>1104.2</ele>
        <time>2012-06-09T09:20:21Z</time>
      </trkpt>
      <trkpt lat="45.41349" lon="2.84389">
        <ele>1100.8</ele>
        <time>2012-06-09T09:21:38Z</time>
      </trkpt>
      <trkpt lat="45.4135" lon="2.84261">
        <ele>1099.3</ele>
        <time>2012-06-09T09:23:07Z</time>
      </trkpt>
      <trkpt lat="45.41328" lon="2.84138">
        <ele>1096.1</ele>
        <time>2012-06-09T09:24:25Z</time>
      </trkpt>
      <trkpt lat="45.41284" lon="2.84027">
        <ele>1091</ele>
        <time>2012-06-09T09:28:46Z</time>
      </trkpt>
      <trkpt lat="45.41231" lon="2.83925">
        <ele>1084.7</ele>
        <time>2012-06-09T09:30:04Z</time>
      </trkpt>
      <trkpt lat="45.41319" lon="2.83894">
        <ele>1063.4</ele>
        <time>2012-06-09T09:33:50Z</time>
      </trkpt>
      <trkpt lat="45.41402" lon="2.83944">
        <ele>1056.6</ele>
        <time>2012-06-09T09:36:35Z</time>
      </trkpt>
      <trkpt lat="45.41491" lon="2.83931">
        <ele>1045.4</ele>
        <time>2012-06-09T09:39:00Z</time>
      </trkpt>
      <trkpt lat="45.4158" lon="2.8395">
        <ele>1032.7</ele>
        <time>2012-06-09T09:40:28Z</time>
      </trkpt>
      <trkpt lat="45.41667" lon="2.83926">
        <ele>1018.6</ele>
        <time>2012-06-09T09:41:54Z</time>
      </trkpt>
      <trkpt lat="45.41753" lon="2.83888">
        <ele>992.8</ele>
        <time>2012-06-09T09:44:01Z</time>
      </trkpt>
      <trkpt lat="45.41737" lon="2.83762">
        <ele>1007.5</ele>
        <time>2012-06-09T09:47:19Z</time>
      </trkpt>
      <trkpt lat="45.41752" lon="2.83635">
        <ele>1004.8</ele>
        <time>2012-06-09T10:26:08Z</time>
      </trkpt>
      <trkpt lat="45.41719" lon="2.83517">
        <ele>995.7</ele>
        <time>2012-06-09T10:27:53Z</time>
      </trkpt>
      <trkpt lat="45.41649" lon="2.83439">
        <ele>982.8</ele>
        <time>2012-06-09T10:29:19Z</time>
      </trkpt>
      <trkpt lat="45.41575" lon="2.83368">
        <ele>989.2</ele>
        <time>2012-06-09T10:31:06Z</time>
      </trkpt>
      <trkpt lat="45.41485" lon="2.83366">
        <ele>992.4</ele>
        <time>2012-06-09T10:32:24Z</time>
      </trkpt>
      <trkpt lat="45.41403" lon="2.83314">
        <ele>990.7</ele>
        <time>2012-06-09T10:33:42Z</time>
      </trkpt>
      <trkpt lat="45.41323" lon="2.83258">
        <ele>990.1</ele>
        <time>2012-06-09T10:34:56Z</time>
      </trkpt>
      <trkpt lat="45.41242" lon="2.83204">
        <ele>989.1</ele>
        <time>2012-06-09T10:36:09Z</time>
      </trkpt>
      <trkpt lat="45.41163" lon="2.83147">
        <ele>986.4</ele>
        <time>2012-06-09T10:37:15Z</time>
      </trkpt>
      <trkpt lat="45.41082" lon="2.83094">
        <ele>981.3</ele>
        <time>2012-06-09T10:38:27Z</time>
      </trkpt>
      <trkpt lat="45.41003" lon="2.83034">
        <ele>975.6</ele>
        <time>2012-06-09T10:39:35Z</time>
      </trkpt>
      <trkpt lat="45.40922" lon="2.82979">
        <ele>970.2</ele>
        <time>2012-06-09T10:40:44Z</time>
      </trkpt>
      <trkpt lat="45.40862" lon="2.82885">
        <ele>964.9</ele>
        <time>2012-06-09T10:41:53Z</time>
      </trkpt>
      <trkpt lat="45.40813" lon="2.8278">
        <ele>967.4</ele>
        <time>2012-06-09T10:43:12Z</time>
      </trkpt>
      <trkpt lat="45.40755" lon="2.82682">
        <ele>966.6</ele>
        <time>2012-06-09T10:46:02Z</time>
      </trkpt>
      <trkpt lat="45.40796" lon="2.82568">
        <ele>970.8</ele>
        <time>2012-06-09T10:51:00Z</time>
      </trkpt>
      <trkpt lat="45.40776" lon="2.82444">
        <ele>966</ele>
        <time>2012-06-09T10:53:51Z</time>
      </trkpt>
      <trkpt lat="45.40767" lon="2.82318">
        <ele>969.9</ele>
        <time>2012-06-09T10:55:13Z</time>
      </trkpt>
      <trkpt lat="45.40735" lon="2.82198">
        <ele>977.3</ele>
        <time>2012-06-09T10:56:36Z</time>
      </trkpt>
      <trkpt lat="45.40693" lon="2.82087">
        <ele>983.6</ele>
        <time>2012-06-09T10:57:51Z</time>
      </trkpt>
      <trkpt lat="45.40665" lon="2.81967">
        <ele>992</ele>
        <time>2012-06-09T10:59:07Z</time>
      </trkpt>
      <trkpt lat="45.4063" lon="2.8185">
        <ele>999.5</ele>
        <time>2012-06-09T11:00:27Z</time>
      </trkpt>
      <trkpt lat="45.40595" lon="2.81731">
        <ele>1011</ele>
        <time>2012-06-09T11:01:59Z</time>
      </trkpt>
      <trkpt lat="45.40522" lon="2.8166">
        <ele>1012.6</ele>
        <time>2012-06-09T11:03:33Z</time>
      </trkpt>
      <trkpt lat="45.40433" lon="2.8166">
        <ele>1020</ele>
        <time>2012-06-09T11:04:54Z</time>
      </trkpt>
      <trkpt lat="45.40352" lon="2.81716">
        <ele>1027.3</ele>
        <time>2012-06-09T11:06:24Z</time>
      </trkpt>
      <trkpt lat="45.4029" lon="2.81624">
        <ele>1031.7</ele>
        <time>2012-06-09T11:07:57Z</time>
      </trkpt>
      <trkpt lat="45.40237" lon="2.8152">
        <ele>1032.9</ele>
        <time>2012-06-09T11:09:10Z</time>
      </trkpt>
      <trkpt lat="45.40176" lon="2.81428">
        <ele>1032.5</ele>
        <time>2012-06-09T11:10:25Z</time>
      </trkpt>
      <trkpt lat="45.40129" lon="2.8132">
        <ele>1032.9</ele>
        <time>2012-06-09T11:11:40Z</time>
      </trkpt>
      <trkpt lat="45.40084" lon="2.81209">
        <ele>1036.8</ele>
        <time>2012-06-09T11:13:02Z</time>
      </trkpt>
      <trkpt lat="45.40028" lon="2.81109">
        <ele>1047.4</ele>
        <time>2012-06-09T11:14:25Z</time>
      </trkpt>
      <trkpt lat="45.3998" lon="2.81002">
        <ele>1059.1</ele>
        <time>2012-06-09T11:15:52Z</time>
      </trkpt>
      <trkpt lat="45.39923" lon="2.80905">
        <ele>1067.5</ele>
        <time>2012-06-09T11:17:13Z</time>
      </trkpt>
      <trkpt lat="45.39877" lon="2.80795">
        <ele>1073.4</ele>
        <time>2012-06-09T11:18:30Z</time>
      </trkpt>
      <trkpt lat="45.39843" lon="2.80678">
        <ele>1080.4</ele>
        <time>2012-06-09T11:21:26Z</time>
      </trkpt>
      <trkpt lat="45.39807" lon="2.80561">
        <ele>1076.7</ele>
        <time>2012-06-09T11:23:05Z</time>
      </trkpt>
      <trkpt lat="45.39793" lon="2.80435">
        <ele>1075.2</ele>
        <time>2012-06-09T11:24:21Z</time>
      </trkpt>
      <trkpt lat="45.39778" lon="2.8031">
        <ele>1075.3</ele>
        <time>2012-06-09T11:25:41Z</time>
      </trkpt>
      <trkpt lat="45.39777" lon="2.80183">
        <ele>1071.6</ele>
        <time>2012-06-09T11:27:02Z</time>
      </trkpt>
      <trkpt lat="45.39772" lon="2.80057">
        <ele>1066.1</ele>
        <time>2012-06-09T11:28:15Z</time>
      </trkpt>
      <trkpt lat="45.39774" lon="2.7993">
        <ele>1063.4</ele>
        <time>2012-06-09T11:29:51Z</time>
      </trkpt>
      <trkpt lat="45.39758" lon="2.79804">
        <ele>1060.7</ele>
        <time>2012-06-09T11:34:15Z</time>
      </trkpt>
      <trkpt lat="45.39808" lon="2.797">
        <ele>1061.3</ele>
        <time>2012-06-09T11:35:36Z</time>
      </trkpt>
      <trkpt lat="45.39834" lon="2.79577">
        <ele>1067.1</ele>
        <time>2012-06-09T11:37:01Z</time>
      </trkpt>
      <trkpt lat="45.39819" lon="2.7945">
        <ele>1068.4</ele>
        <time>2012-06-09T11:38:20Z</time>
      </trkpt>
      <trkpt lat="45.39808" lon="2.79324">
        <ele>1074.2</ele>
        <time>2012-06-09T11:39:27Z</time>
      </trkpt>
      <trkpt lat="45.39826" lon="2.792">
        <ele>1073.7</ele>
        <time>2012-06-09T11:41:24Z</time>
      </trkpt>
      <trkpt lat="45.39831" lon="2.79072">
        <ele>1073.7</ele>
        <time>2012-06-09T11:47:16Z</time>
      </trkpt>
      <trkpt lat="45.39811" lon="2.78948">
        <ele>1073.7</ele>
        <time>2012-06-09T11:48:39Z</time>
      </trkpt>
      <trkpt lat="45.39792" lon="2.78824">
        <ele>1073.3</ele>
        <time>2012-06-09T11:50:17Z</time>
      </trkpt>
      <trkpt lat="45.39812" lon="2.78699">
        <ele>1073.8</ele>
        <time>2012-06-09T11:51:41Z</time>
      </trkpt>
      <trkpt lat="45.3985" lon="2.78584">
        <ele>1066.2</ele>
        <time>2012-06-09T11:53:44Z</time>
      </trkpt>
      <trkpt lat="45.39855" lon="2.78456">
        <ele>1067.5</ele>
        <time>2012-06-09T11:54:57Z</time>
      </trkpt>
      <trkpt lat="45.39854" lon="2.78328">
        <ele>1062.9</ele>
        <time>2012-06-09T11:56:09Z</time>
      </trkpt>
      <trkpt lat="45.39818" lon="2.78213">
        <ele>1065.3</ele>
        <time>2012-06-09T11:57:19Z</time>
      </trkpt>
      <trkpt lat="45.39812" lon="2.78086">
        <ele>1066.9</ele>
        <time>2012-06-09T11:58:26Z</time>
      </trkpt>
      <trkpt lat="45.39807" lon="2.77959">
        <ele>1062.9</ele>
        <time>2012-06-09T11:59:33Z</time>
      </trkpt>
      <trkpt lat="45.39803" lon="2.77831">
        <ele>1060.8</ele>
        <time>2012-06-09T12:00:41Z</time>
      </trkpt>
      <trkpt lat="45.39807" lon="2.77703">
        <ele>1057</ele>
        <time>2012-06-09T12:01:49Z</time>
      </trkpt>
      <trkpt lat="45.39832" lon="2.77581">
        <ele>1049.4</ele>
        <time>2012-06-09T12:03:35Z</time>
      </trkpt>
      <trkpt lat="45.39885" lon="2.77479">
        <ele>1046</ele>
        <time>2012-06-09T12:06:21Z</time>
      </trkpt>
      <trkpt lat="45.39946" lon="2.77385">
        <ele>1042.8</ele>
        <time>2012-06-09T12:07:45Z</time>
      </trkpt>
      <trkpt lat="45.40004" lon="2.77289">
        <ele>1041.1</ele>
        <time>2012-06-09T12:09:16Z</time>
      </trkpt>
      <trkpt lat="45.40075" lon="2.77211">
        <ele>1039.4</ele>
        <time>2012-06-09T12:16:54Z</time>
      </trkpt>
      <trkpt lat="45.40133" lon="2.77113">
        <ele>1034.8</ele>
        <time>2012-06-09T12:18:21Z</time>
      </trkpt>
      <trkpt lat="45.40206" lon="2.7704">
        <ele>1026.3</ele>
        <time>2012-06-09T12:19:41Z</time>
      </trkpt>
      <trkpt lat="45.40233" lon="2.76919">
        <ele>1023.7</ele>
        <time>2012-06-09T12:21:02Z</time>
      </trkpt>
      <trkpt lat="45.40251" lon="2.76794">
        <ele>1018.7</ele>
        <time>2012-06-09T12:22:15Z</time>
      </trkpt>
      <trkpt lat="45.40219" lon="2.76675">
        <ele>1004.2</ele>
        <time>2012-06-09T12:24:23Z</time>
      </trkpt>
      <trkpt lat="45.40169" lon="2.7657">
        <ele>1005.6</ele>
        <time>2012-06-09T12:25:50Z</time>
      </trkpt>
      <trkpt lat="45.40138" lon="2.76451">
        <ele>999.8</ele>
        <time>2012-06-09T12:27:36Z</time>
      </trkpt>
      <trkpt lat="45.40108" lon="2.76331">
        <ele>985.7</ele>
        <time>2012-06-09T12:30:20Z</time>
      </trkpt>
      <trkpt lat="45.40102" lon="2.76203">
        <ele>987.7</ele>
        <time>2012-06-09T12:34:27Z</time>
      </trkpt>
      <trkpt lat="45.40104" lon="2.76076">
        <ele>994.7</ele>
        <time>2012-06-09T12:36:24Z</time>
      </trkpt>
      <trkpt lat="45.40038" lon="2.7599">
        <ele>989</ele>
        <time>2012-06-09T12:40:45Z</time>
      </trkpt>
      <trkpt lat="45.40044" lon="2.75862">
        <ele>992.6</ele>
        <time>2012-06-09T12:42:51Z</time>
      </trkpt>
      <trkpt lat="45.40037" lon="2.75735">
        <ele>997.1</ele>
        <time>2012-06-09T12:44:18Z</time>
      </trkpt>
      <trkpt lat="45.40013" lon="2.75612">
        <ele>997.6</ele>
        <time>2012-06-09T12:45:51Z</time>
      </trkpt>
      <trkpt lat="45.40001" lon="2.75485">
        <ele>1000.5</ele>
        <time>2012-06-09T12:47:35Z</time>
      </trkpt>
      <trkpt lat="45.39975" lon="2.75364">
        <ele>1006.3</ele>
        <time>2012-06-09T12:49:03Z</time>
      </trkpt>
      <trkpt lat="45.39947" lon="2.75243">
        <ele>1014.2</ele>
        <time>2012-06-09T12:50:29Z</time>
      </trkpt>
      <trkpt lat="45.39948" lon="2.75116">
        <ele>1011.7</ele>
        <time>2012-06-09T12:51:50Z</time>
      </trkpt>
      <trkpt lat="45.3994" lon="2.7499">
        <ele>1013.7</ele>
        <time>2012-06-09T12:53:12Z</time>
      </trkpt>
      <trkpt lat="45.39975" lon="2.74872">
        <ele>1012.4</ele>
        <time>2012-06-09T12:56:47Z</time>
      </trkpt>
      <trkpt lat="45.40031" lon="2.74774">
        <ele>1006.5</ele>
        <time>2012-06-09T12:58:02Z</time>
      </trkpt>
      <trkpt lat="45.40012" lon="2.74649">
        <ele>1000.6</ele>
        <time>2012-06-09T12:59:16Z</time>
      </trkpt>
      <trkpt lat="45.39986" lon="2.74527">
        <ele>1000.1</ele>
        <time>2012-06-09T13:00:29Z</time>
      </trkpt>
      <trkpt lat="45.39943" lon="2.74415">
        <ele>1002.9</ele>
        <time>2012-06-09T13:01:42Z</time>
      </trkpt>
      <trkpt lat="45.39913" lon="2.74294">
        <ele>1006.3</ele>
        <time>2012-06-09T13:02:53Z</time>
      </trkpt>
      <trkpt lat="45.39877" lon="2.74179">
        <ele>1006.4</ele>
        <time>2012-06-09T13:04:04Z</time>
      </trkpt>
      <trkpt lat="45.39817" lon="2.74085">
        <ele>1001.6</ele>
        <time>2012-06-09T13:05:13Z</time>
      </trkpt>
      <trkpt lat="45.39769" lon="2.73978">
        <ele>997.5</ele>
        <time>2012-06-09T13:06:25Z</time>
      </trkpt>
      <trkpt lat="45.39718" lon="2.73874">
        <ele>990</ele>
        <time>2012-06-09T13:07:44Z</time>
      </trkpt>
      <trkpt lat="45.39665" lon="2.73771">
        <ele>983.9</ele>
        <time>2012-06-09T13:08:50Z</time>
      </trkpt>
      <trkpt lat="45.39602" lon="2.73681">
        <ele>974.4</ele>
        <time>2012-06-09T13:10:05Z</time>
      </trkpt>
      <trkpt lat="45.39559" lon="2.73569">
        <ele>972</ele>
        <time>2012-06-09T13:11:17Z</time>
      </trkpt>
      <trkpt lat="45.39541" lon="2.73445">
        <ele>970.6</ele>
        <time>2012-06-09T13:12:27Z</time>
      </trkpt>
      <trkpt lat="45.3951" lon="2.73326">
        <ele>960.7</ele>
        <time>2012-06-09T13:13:42Z</time>
      </trkpt>
      <trkpt lat="45.39469" lon="2.73213">
        <ele>947.7</ele>
        <time>2012-06-09T13:15:10Z</time>
      </trkpt>
      <trkpt lat="45.39411" lon="2.73118">
        <ele>956.7</ele>
        <time>2012-06-09T13:16:24Z</time>
      </trkpt>
      <trkpt lat="45.39402" lon="2.72991">
        <ele>960.1</ele>
        <time>2012-06-09T13:17:34Z</time>
      </trkpt>
      <trkpt lat="45.39432" lon="2.72871">
        <ele>962.5</ele>
        <time>2012-06-09T13:18:47Z</time>
      </trkpt>
      <trkpt lat="45.39456" lon="2.72748">
        <ele>962.5</ele>
        <time>2012-06-09T13:20:08Z</time>
      </trkpt>
      <trkpt lat="45.39507" lon="2.72644">
        <ele>960.4</ele>
        <time>2012-06-09T13:21:21Z</time>
      </trkpt>
      <trkpt lat="45.39554" lon="2.72535">
        <ele>958.1</ele>
        <time>2012-06-09T13:22:43Z</time>
      </trkpt>
      <trkpt lat="45.39596" lon="2.72423">
        <ele>954.7</ele>
        <time>2012-06-09T13:24:03Z</time>
      </trkpt>
      <trkpt lat="45.39633" lon="2.72308">
        <ele>951.7</ele>
        <time>2012-06-09T13:25:15Z</time>
      </trkpt>
      <trkpt lat="45.39642" lon="2.72181">
        <ele>948.3</ele>
        <time>2012-06-09T13:26:30Z</time>
      </trkpt>
      <trkpt lat="45.39617" lon="2.72059">
        <ele>943.8</ele>
        <time>2012-06-09T13:27:48Z</time>
      </trkpt>
      <trkpt lat="45.39588" lon="2.71939">
        <ele>935.2</ele>
        <time>2012-06-09T13:29:03Z</time>
      </trkpt>
      <trkpt lat="45.39567" lon="2.71816">
        <ele>931.6</ele>
        <time>2012-06-09T13:30:17Z</time>
      </trkpt>
      <trkpt lat="45.39535" lon="2.71697">
        <ele>929.5</ele>
        <time>2012-06-09T13:31:23Z</time>
      </trkpt>
      <trkpt lat="45.39555" lon="2.71574">
        <ele>927.6</ele>
        <time>2012-06-09T13:32:41Z</time>
      </trkpt>
      <trkpt lat="45.39586" lon="2.71454">
        <ele>925.7</ele>
        <time>2012-06-09T13:33:52Z</time>
      </trkpt>
      <trkpt lat="45.39655" lon="2.71376">
        <ele>924.7</ele>
        <time>2012-06-09T13:34:58Z</time>
      </trkpt>
      <trkpt lat="45.39628" lon="2.71255">
        <ele>923.9</ele>
        <time>2012-06-09T13:37:00Z</time>
      </trkpt>
      <trkpt lat="45.39616" lon="2.71129">
        <ele>924.7</ele>
        <time>2012-06-09T13:38:27Z</time>
      </trkpt>
      <trkpt lat="45.39549" lon="2.71045">
        <ele>929.2</ele>
        <time>2012-06-09T13:42:11Z</time>
      </trkpt>
      <trkpt lat="45.39587" lon="2.70928">
        <ele>917.9</ele>
        <time>2012-06-09T13:49:22Z</time>
      </trkpt>
      <trkpt lat="45.39637" lon="2.70822">
        <ele>914</ele>
        <time>2012-06-09T13:50:57Z</time>
      </trkpt>
      <trkpt lat="45.3963" lon="2.70695">
        <ele>924.8</ele>
        <time>2012-06-09T13:53:06Z</time>
      </trkpt>
      <trkpt lat="45.39676" lon="2.70586">
        <ele>924.3</ele>
        <time>2012-06-09T13:54:38Z</time>
      </trkpt>
      <trkpt lat="45.39758" lon="2.70531">
        <ele>916.5</ele>
        <time>2012-06-09T13:56:17Z</time>
      </trkpt>
      <trkpt lat="45.39844" lon="2.70499">
        <ele>898.3</ele>
        <time>2012-06-09T13:57:52Z</time>
      </trkpt>
      <trkpt lat="45.39903" lon="2.70404">
        <ele>896.7</ele>
        <time>2012-06-09T13:59:42Z</time>
      </trkpt>
      <trkpt lat="45.39981" lon="2.7034">
        <ele>897.9</ele>
        <time>2012-06-09T14:01:16Z</time>
      </trkpt>
      <trkpt lat="45.40022" lon="2.70227">
        <ele>896.9</ele>
        <time>2012-06-09T14:02:46Z</time>
      </trkpt>
      <trkpt lat="45.40019" lon="2.701">
        <ele>891.5</ele>
        <time>2012-06-09T14:04:14Z</time>
      </trkpt>
      <trkpt lat="45.40012" lon="2.69972">
        <ele>895.6</ele>
        <time>2012-06-09T14:06:27Z</time>
      </trkpt>
      <trkpt lat="45.39952" lon="2.69878">
        <ele>896.5</ele>
        <time>2012-06-09T14:08:03Z</time>
      </trkpt>
      <trkpt lat="45.39929" lon="2.69755">
        <ele>896.2</ele>
        <time>2012-06-09T14:09:41Z</time>
      </trkpt>
      <trkpt lat="45.39883" lon="2.69645">
        <ele>887.4</ele>
        <time>2012-06-09T14:11:01Z</time>
      </trkpt>
      <trkpt lat="45.39835" lon="2.69538">
        <ele>876.4</ele>
        <time>2012-06-09T14:12:20Z</time>
      </trkpt>
      <trkpt lat="45.3987" lon="2.69421">
        <ele>873.7</ele>
        <time>2012-06-09T14:13:47Z</time>
      </trkpt>
      <trkpt lat="45.39917" lon="2.69314">
        <ele>878</ele>
        <time>2012-06-09T14:15:13Z</time>
      </trkpt>
      <trkpt lat="45.39995" lon="2.69253">
        <ele>878.3</ele>
        <time>2012-06-09T14:16:35Z</time>
      </trkpt>
      <trkpt lat="45.40081" lon="2.69213">
        <ele>879.7</ele>
        <time>2012-06-09T14:17:50Z</time>
      </trkpt>
      <trkpt lat="45.40152" lon="2.69137">
        <ele>883.2</ele>
        <time>2012-06-09T14:19:21Z</time>
      </trkpt>
      <trkpt lat="45.40241" lon="2.69116">
        <ele>872.8</ele>
        <time>2012-06-09T14:22:33Z</time>
      </trkpt>
      <trkpt lat="45.4033" lon="2.69128">
        <ele>873.3</ele>
        <time>2012-06-09T14:26:36Z</time>
      </trkpt>
      <trkpt lat="45.40412" lon="2.69178">
        <ele>875.5</ele>
        <time>2012-06-09T14:36:16Z</time>
      </trkpt>
      <trkpt lat="45.40478" lon="2.69266">
        <ele>877.1</ele>
        <time>2012-06-09T14:42:46Z</time>
      </trkpt>
      <trkpt lat="45.40556" lon="2.69203">
        <ele>878.6</ele>
        <time>2012-06-09T14:54:27Z</time>
      </trkpt>
      <trkpt lat="45.40538" lon="2.69077">
        <ele>880.5</ele>
        <time>2012-06-09T14:57:24Z</time>
      </trkpt>
      <trkpt lat="45.40449" lon="2.69058">
        <ele>883.3</ele>
        <time>2012-06-09T14:58:44Z</time>
      </trkpt>
      <trkpt lat="45.40366" lon="2.69014">
        <ele>879.4</ele>
        <time>2012-06-09T15:00:16Z</time>
      </trkpt>
      <trkpt lat="45.40323" lon="2.68902">
        <ele>881.1</ele>
        <time>2012-06-09T15:01:33Z</time>
      </trkpt>
      <trkpt lat="45.40296" lon="2.6878">
        <ele>880.9</ele>
        <time>2012-06-09T15:02:46Z</time>
      </trkpt>
      <trkpt lat="45.40241" lon="2.68681">
        <ele>880.1</ele>
        <time>2012-06-09T15:03:50Z</time>
      </trkpt>
      <trkpt lat="45.40296" lon="2.68579">
        <ele>881.8</ele>
        <time>2012-06-09T15:05:32Z</time>
      </trkpt>
      <trkpt lat="45.40365" lon="2.68499">
        <ele>872.4</ele>
        <time>2012-06-09T15:06:57Z</time>
      </trkpt>
      <trkpt lat="45.40371" lon="2.68371">
        <ele>871.4</ele>
        <time>2012-06-09T15:08:37Z</time>
      </trkpt>
      <trkpt lat="45.40382" lon="2.68245">
        <ele>871</ele>
        <time>2012-06-09T15:10:48Z</time>
      </trkpt>
      <trkpt lat="45.40466" lon="2.68288">
        <ele>871.1</ele>
        <time>2012-06-09T15:12:51Z</time>
      </trkpt>
      <trkpt lat="45.40555" lon="2.68271">
        <ele>873</ele>
        <time>2012-06-09T15:15:21Z</time>
      </trkpt>
      <trkpt lat="45.40555" lon="2.68257">
        <ele>869.6</ele>
      </trkpt>
      <trkpt lat="45.40565" lon="2.68236">
        <ele>869.7</ele>
      </trkpt>
      <trkpt lat="45.40585" lon="2.68219">
        <ele>871.2</ele>
      </trkpt>
      <trkpt lat="45.40602" lon="2.68202">
        <ele>872.9</ele>
      </trkpt>
      <trkpt lat="45.40609" lon="2.68198">
        <ele>873.5</ele>
      </trkpt>
      <trkpt lat="45.40628" lon="2.68205">
        <ele>875.7</ele>
      </trkpt>
      <trkpt lat="45.40641" lon="2.6819">
        <ele>876</ele>
      </trkpt>
      <trkpt lat="45.40661" lon="2.68177">
        <ele>876.6</ele>
      </trkpt>
      <trkpt lat="45.4068" lon="2.68175">
        <ele>879.8</ele>
      </trkpt>
      <trkpt lat="45.40691" lon="2.6815">
        <ele>880.1</ele>
      </trkpt>
      <trkpt lat="45.407" lon="2.68112">
        <ele>878.4</ele>
      </trkpt>
      <trkpt lat="45.40724" lon="2.68088">
        <ele>880.2</ele>
      </trkpt>
      <trkpt lat="45.40723" lon="2.68065">
        <ele>876.3</ele>
      </trkpt>
      <trkpt lat="45.40735" lon="2.6805">
        <ele>874.9</ele>
      </trkpt>
      <trkpt lat="45.40763" lon="2.68024">
        <ele>871.7</ele>
      </trkpt>
      <trkpt lat="45.40775" lon="2.68021">
        <ele>872.3</ele>
      </trkpt>
      <trkpt lat="45.40814" lon="2.68037">
        <ele>878.7</ele>
      </trkpt>
      <trkpt lat="45.40871" lon="2.68047">
        <ele>883.9</ele>
      </trkpt>
      <trkpt lat="45.40918" lon="2.68012">
        <ele>880.2</ele>
      </trkpt>
      <trkpt lat="45.40955" lon="2.6799">
        <ele>878.1</ele>
      </trkpt>
      <trkpt lat="45.40996" lon="2.67992">
        <ele>880.2</ele>
      </trkpt>
      <trkpt lat="45.41022" lon="2.68018">
        <ele>884</ele>
      </trkpt>
      <trkpt lat="45.41031" lon="2.68022">
        <ele>884.2</ele>
      </trkpt>
      <trkpt lat="45.41061" lon="2.68022">
        <ele>883.3</ele>
      </trkpt>
      <trkpt lat="45.41064" lon="2.68019">
        <ele>882.9</ele>
      </trkpt>
      <trkpt lat="45.41067" lon="2.68003">
        <ele>881.5</ele>
      </trkpt>
      <trkpt lat="45.4107" lon="2.67966">
        <ele>874.6</ele>
      </trkpt>
      <trkpt lat="45.41079" lon="2.67943">
        <ele>870.1</ele>
      </trkpt>
      <trkpt lat="45.41086" lon="2.67939">
        <ele>869.3</ele>
      </trkpt>
      <trkpt lat="45.41112" lon="2.67937">
        <ele>868.7</ele>
      </trkpt>
      <trkpt lat="45.41124" lon="2.67949">
        <ele>870.6</ele>
      </trkpt>
      <trkpt lat="45.41142" lon="2.6797">
        <ele>873.9</ele>
      </trkpt>
      <trkpt lat="45.41145" lon="2.67982">
        <ele>875.8</ele>
      </trkpt>
      <trkpt lat="45.41138" lon="2.68005">
        <ele>879.6</ele>
      </trkpt>
      <trkpt lat="45.41133" lon="2.68047">
        <ele>884.3</ele>
      </trkpt>
      <trkpt lat="45.41138" lon="2.68059">
        <ele>885.6</ele>
      </trkpt>
      <trkpt lat="45.41155" lon="2.68065">
        <ele>886.5</ele>
      </trkpt>
      <trkpt lat="45.41162" lon="2.68064">
        <ele>886.4</ele>
      </trkpt>
      <trkpt lat="45.41191" lon="2.68025">
        <ele>882.9</ele>
      </trkpt>
      <trkpt lat="45.4122" lon="2.68">
        <ele>879.9</ele>
      </trkpt>
      <trkpt lat="45.41244" lon="2.67974">
        <ele>875.9</ele>
      </trkpt>
      <trkpt lat="45.4126" lon="2.67968">
        <ele>875.3</ele>
      </trkpt>
      <trkpt lat="45.41305" lon="2.67981">
        <ele>879.4</ele>
      </trkpt>
      <trkpt lat="45.41332" lon="2.67978">
        <ele>880</ele>
      </trkpt>
      <trkpt lat="45.41351" lon="2.67957">
        <ele>879.9</ele>
      </trkpt>
      <trkpt lat="45.41389" lon="2.67936">
        <ele>882.2</ele>
      </trkpt>
      <trkpt lat="45.41415" lon="2.67921">
        <ele>883.5</ele>
      </trkpt>
      <trkpt lat="45.41424" lon="2.67919">
        <ele>885</ele>
      </trkpt>
      <trkpt lat="45.41482" lon="2.67957">
        <ele>900.8</ele>
      </trkpt>
      <trkpt lat="45.41517" lon="2.67973">
        <ele>906.2</ele>
      </trkpt>
      <trkpt lat="45.41525" lon="2.67984">
        <ele>907.3</ele>
      </trkpt>
      <trkpt lat="45.41542" lon="2.67991">
        <ele>908.8</ele>
      </trkpt>
      <trkpt lat="45.41573" lon="2.67974">
        <ele>911.1</ele>
      </trkpt>
      <trkpt lat="45.41583" lon="2.67954">
        <ele>912</ele>
      </trkpt>
      <trkpt lat="45.41578" lon="2.67911">
        <ele>911.6</ele>
      </trkpt>
      <trkpt lat="45.41564" lon="2.67845">
        <ele>913.7</ele>
      </trkpt>
      <trkpt lat="45.41555" lon="2.67811">
        <ele>913.9</ele>
      </trkpt>
      <trkpt lat="45.41556" lon="2.67803">
        <ele>914.1</ele>
      </trkpt>
      <trkpt lat="45.41563" lon="2.67799">
        <ele>914.6</ele>
      </trkpt>
      <trkpt lat="45.41629" lon="2.67807">
        <ele>917</ele>
      </trkpt>
      <trkpt lat="45.41645" lon="2.67827">
        <ele>918</ele>
      </trkpt>
      <trkpt lat="45.41682" lon="2.67848">
        <ele>919.7</ele>
      </trkpt>
      <trkpt lat="45.41695" lon="2.67847">
        <ele>920.5</ele>
      </trkpt>
      <trkpt lat="45.41711" lon="2.67836">
        <ele>921.2</ele>
      </trkpt>
      <trkpt lat="45.41733" lon="2.67829">
        <ele>922.1</ele>
      </trkpt>
      <trkpt lat="45.41777" lon="2.67828">
        <ele>921.3</ele>
      </trkpt>
      <trkpt lat="45.41795" lon="2.67822">
        <ele>920</ele>
      </trkpt>
      <trkpt lat="45.41811" lon="2.67806">
        <ele>918.4</ele>
      </trkpt>
      <trkpt lat="45.41818" lon="2.67787">
        <ele>917.1</ele>
      </trkpt>
      <trkpt lat="45.4183" lon="2.67783">
        <ele>915.9</ele>
      </trkpt>
      <trkpt lat="45.4186" lon="2.67779">
        <ele>914</ele>
      </trkpt>
      <trkpt lat="45.41871" lon="2.67766">
        <ele>912.5</ele>
      </trkpt>
      <trkpt lat="45.41879" lon="2.67748">
        <ele>910.6</ele>
      </trkpt>
      <trkpt lat="45.41906" lon="2.67755">
        <ele>909.3</ele>
      </trkpt>
      <trkpt lat="45.41933" lon="2.67757">
        <ele>905.4</ele>
      </trkpt>
      <trkpt lat="45.41963" lon="2.67753">
        <ele>898.6</ele>
      </trkpt>
      <trkpt lat="45.41989" lon="2.67743">
        <ele>891.4</ele>
      </trkpt>
      <trkpt lat="45.41997" lon="2.67734">
        <ele>888.4</ele>
      </trkpt>
      <trkpt lat="45.42052" lon="2.67749">
        <ele>889.2</ele>
      </trkpt>
      <trkpt lat="45.42073" lon="2.67759">
        <ele>891</ele>
      </trkpt>
      <trkpt lat="45.42088" lon="2.67772">
        <ele>893.2</ele>
      </trkpt>
      <trkpt lat="45.42177" lon="2.67814">
        <ele>895.1</ele>
      </trkpt>
      <trkpt lat="45.42208" lon="2.67815">
        <ele>893.9</ele>
      </trkpt>
      <trkpt lat="45.42217" lon="2.6781">
        <ele>892.8</ele>
      </trkpt>
      <trkpt lat="45.42233" lon="2.6778">
        <ele>888.5</ele>
      </trkpt>
      <trkpt lat="45.42255" lon="2.67767">
        <ele>886.7</ele>
      </trkpt>
      <trkpt lat="45.42265" lon="2.6777">
        <ele>886.7</ele>
      </trkpt>
      <trkpt lat="45.42272" lon="2.67774">
        <ele>887</ele>
      </trkpt>
      <trkpt lat="45.42273" lon="2.67787">
        <ele>888.4</ele>
      </trkpt>
      <trkpt lat="45.42274" lon="2.67797">
        <ele>889.5</ele>
      </trkpt>
      <trkpt lat="45.42291" lon="2.67823">
        <ele>892.3</ele>
      </trkpt>
      <trkpt lat="45.42351" lon="2.67896">
        <ele>901.6</ele>
      </trkpt>
      <trkpt lat="45.42422" lon="2.67973">
        <ele>907.8</ele>
      </trkpt>
      <trkpt lat="45.42439" lon="2.67988">
        <ele>906.3</ele>
      </trkpt>
      <trkpt lat="45.42443" lon="2.67995">
        <ele>906.2</ele>
      </trkpt>
      <trkpt lat="45.42444" lon="2.68018">
        <ele>908</ele>
      </trkpt>
      <trkpt lat="45.42446" lon="2.68033">
        <ele>908.7</ele>
      </trkpt>
      <trkpt lat="45.42458" lon="2.68073">
        <ele>908.4</ele>
      </trkpt>
      <trkpt lat="45.42466" lon="2.68109">
        <ele>908.6</ele>
      </trkpt>
      <trkpt lat="45.42469" lon="2.68129">
        <ele>909.3</ele>
      </trkpt>
      <trkpt lat="45.42463" lon="2.68144">
        <ele>912.3</ele>
      </trkpt>
      <trkpt lat="45.42467" lon="2.68156">
        <ele>912.1</ele>
      </trkpt>
      <trkpt lat="45.42467" lon="2.68173">
        <ele>913.5</ele>
      </trkpt>
      <trkpt lat="45.42476" lon="2.68186">
        <ele>912.3</ele>
      </trkpt>
      <trkpt lat="45.42482" lon="2.68204">
        <ele>912.5</ele>
      </trkpt>
      <trkpt lat="45.42485" lon="2.68243">
        <ele>916</ele>
      </trkpt>
      <trkpt lat="45.42492" lon="2.68258">
        <ele>915.4</ele>
      </trkpt>
      <trkpt lat="45.4251" lon="2.68261">
        <ele>911.5</ele>
      </trkpt>
      <trkpt lat="45.42514" lon="2.68265">
        <ele>910.9</ele>
      </trkpt>
      <trkpt lat="45.42515" lon="2.68398">
        <ele>919.6</ele>
      </trkpt>
      <trkpt lat="45.42523" lon="2.68471">
        <ele>925.4</ele>
      </trkpt>
      <trkpt lat="45.4253" lon="2.68497">
        <ele>927.2</ele>
      </trkpt>
      <trkpt lat="45.42524" lon="2.68513">
        <ele>929.1</ele>
      </trkpt>
      <trkpt lat="45.42525" lon="2.68525">
        <ele>930.1</ele>
      </trkpt>
      <trkpt lat="45.42554" lon="2.68518">
        <ele>927.1</ele>
      </trkpt>
      <trkpt lat="45.42561" lon="2.68507">
        <ele>925.5</ele>
      </trkpt>
      <trkpt lat="45.42578" lon="2.68506">
        <ele>924</ele>
      </trkpt>
      <trkpt lat="45.42606" lon="2.68511">
        <ele>926.7</ele>
      </trkpt>
      <trkpt lat="45.42623" lon="2.68544">
        <ele>931.7</ele>
      </trkpt>
      <trkpt lat="45.42624" lon="2.68553">
        <ele>932.7</ele>
      </trkpt>
      <trkpt lat="45.42636" lon="2.68595">
        <ele>937.5</ele>
      </trkpt>
      <trkpt lat="45.42624" lon="2.68636">
        <ele>939.6</ele>
      </trkpt>
      <trkpt lat="45.42632" lon="2.68662">
        <ele>941.8</ele>
      </trkpt>
      <trkpt lat="45.42654" lon="2.68659">
        <ele>942.3</ele>
      </trkpt>
      <trkpt lat="45.42661" lon="2.68673">
        <ele>942.8</ele>
      </trkpt>
      <trkpt lat="45.42668" lon="2.687">
        <ele>942.7</ele>
      </trkpt>
      <trkpt lat="45.42668" lon="2.68714">
        <ele>942.5</ele>
      </trkpt>
      <trkpt lat="45.42661" lon="2.68725">
        <ele>942.5</ele>
      </trkpt>
      <trkpt lat="45.42658" lon="2.68746">
        <ele>942.5</ele>
      </trkpt>
      <trkpt lat="45.42661" lon="2.68771">
        <ele>942.1</ele>
      </trkpt>
      <trkpt lat="45.42649" lon="2.6877">
        <ele>943</ele>
      </trkpt>
      <trkpt lat="45.42633" lon="2.68782">
        <ele>944.1</ele>
      </trkpt>
      <trkpt lat="45.42618" lon="2.68807">
        <ele>945.4</ele>
      </trkpt>
      <trkpt lat="45.4262" lon="2.68816">
        <ele>945.3</ele>
      </trkpt>
      <trkpt lat="45.42611" lon="2.68829">
        <ele>946.3</ele>
      </trkpt>
      <trkpt lat="45.42598" lon="2.6884">
        <ele>948</ele>
      </trkpt>
      <trkpt lat="45.42581" lon="2.6885">
        <ele>949.8</ele>
      </trkpt>
      <trkpt lat="45.42574" lon="2.68874">
        <ele>950.7</ele>
      </trkpt>
      <trkpt lat="45.42558" lon="2.68894">
        <ele>950.5</ele>
      </trkpt>
      <trkpt lat="45.42549" lon="2.68927">
        <ele>949.7</ele>
      </trkpt>
      <trkpt lat="45.42572" lon="2.68981">
        <ele>952.9</ele>
      </trkpt>
      <trkpt lat="45.42592" lon="2.69015">
        <ele>956.9</ele>
      </trkpt>
      <trkpt lat="45.426" lon="2.69042">
        <ele>959.4</ele>
      </trkpt>
      <trkpt lat="45.42601" lon="2.6907">
        <ele>960.7</ele>
      </trkpt>
      <trkpt lat="45.42607" lon="2.69086">
        <ele>962.8</ele>
      </trkpt>
      <trkpt lat="45.426" lon="2.69118">
        <ele>963.4</ele>
      </trkpt>
      <trkpt lat="45.42602" lon="2.6915">
        <ele>965.9</ele>
      </trkpt>
      <trkpt lat="45.42617" lon="2.69175">
        <ele>969.3</ele>
      </trkpt>
      <trkpt lat="45.42628" lon="2.69213">
        <ele>972.7</ele>
      </trkpt>
      <trkpt lat="45.42646" lon="2.69222">
        <ele>973.9</ele>
      </trkpt>
      <trkpt lat="45.4266" lon="2.69243">
        <ele>974.9</ele>
      </trkpt>
      <trkpt lat="45.42649" lon="2.69258">
        <ele>975</ele>
      </trkpt>
      <trkpt lat="45.42612" lon="2.69349">
        <ele>974.7</ele>
      </trkpt>
      <trkpt lat="45.42605" lon="2.69353">
        <ele>974.5</ele>
      </trkpt>
      <trkpt lat="45.42579" lon="2.69345">
        <ele>974.8</ele>
      </trkpt>
      <trkpt lat="45.42554" lon="2.69361">
        <ele>972.2</ele>
      </trkpt>
      <trkpt lat="45.42512" lon="2.6941">
        <ele>969.2</ele>
      </trkpt>
      <trkpt lat="45.42509" lon="2.69424">
        <ele>968.9</ele>
      </trkpt>
      <trkpt lat="45.42512" lon="2.69434">
        <ele>968.5</ele>
      </trkpt>
      <trkpt lat="45.42514" lon="2.69515">
        <ele>965.8</ele>
      </trkpt>
      <trkpt lat="45.42519" lon="2.69544">
        <ele>965.1</ele>
      </trkpt>
      <trkpt lat="45.42519" lon="2.69577">
        <ele>964</ele>
      </trkpt>
      <trkpt lat="45.42537" lon="2.69634">
        <ele>963</ele>
      </trkpt>
      <trkpt lat="45.42557" lon="2.69678">
        <ele>963.6</ele>
      </trkpt>
      <trkpt lat="45.4256" lon="2.69684">
        <ele>963.6</ele>
      </trkpt>
      <trkpt lat="45.42568" lon="2.69713">
        <ele>962.9</ele>
      </trkpt>
      <trkpt lat="45.42569" lon="2.69724">
        <ele>962.3</ele>
      </trkpt>
      <trkpt lat="45.42569" lon="2.69735">
        <ele>961.6</ele>
      </trkpt>
      <trkpt lat="45.42585" lon="2.69757">
        <ele>961.8</ele>
      </trkpt>
      <trkpt lat="45.42682" lon="2.69828">
        <ele>964.9</ele>
      </trkpt>
      <trkpt lat="45.42735" lon="2.69814">
        <ele>970.7</ele>
      </trkpt>
      <trkpt lat="45.42782" lon="2.69858">
        <ele>973</ele>
      </trkpt>
      <trkpt lat="45.42806" lon="2.69952">
        <ele>971.5</ele>
      </trkpt>
      <trkpt lat="45.42803" lon="2.69964">
        <ele>970.7</ele>
      </trkpt>
      <trkpt lat="45.42803" lon="2.69985">
        <ele>969.8</ele>
      </trkpt>
      <trkpt lat="45.42807" lon="2.70013">
        <ele>968.6</ele>
      </trkpt>
      <trkpt lat="45.428" lon="2.70092">
        <ele>964.7</ele>
      </trkpt>
      <trkpt lat="45.42802" lon="2.70126">
        <ele>967.3</ele>
      </trkpt>
      <trkpt lat="45.42813" lon="2.70155">
        <ele>969.5</ele>
      </trkpt>
      <trkpt lat="45.42855" lon="2.70225">
        <ele>974.9</ele>
      </trkpt>
      <trkpt lat="45.4286" lon="2.7025">
        <ele>976.8</ele>
      </trkpt>
      <trkpt lat="45.42862" lon="2.70278">
        <ele>976.4</ele>
      </trkpt>
      <trkpt lat="45.42869" lon="2.70292">
        <ele>975.7</ele>
      </trkpt>
      <trkpt lat="45.42877" lon="2.70315">
        <ele>975</ele>
      </trkpt>
      <trkpt lat="45.42874" lon="2.70336">
        <ele>975.1</ele>
      </trkpt>
      <trkpt lat="45.42865" lon="2.7036">
        <ele>976.1</ele>
      </trkpt>
      <trkpt lat="45.42843" lon="2.7038">
        <ele>978.3</ele>
      </trkpt>
      <trkpt lat="45.42807" lon="2.70392">
        <ele>980.2</ele>
      </trkpt>
      <trkpt lat="45.42788" lon="2.70392">
        <ele>980.7</ele>
      </trkpt>
      <trkpt lat="45.42773" lon="2.70398">
        <ele>981.4</ele>
      </trkpt>
      <trkpt lat="45.42766" lon="2.7041">
        <ele>982.1</ele>
      </trkpt>
      <trkpt lat="45.42772" lon="2.70446">
        <ele>983.8</ele>
      </trkpt>
      <trkpt lat="45.42781" lon="2.70519">
        <ele>987.8</ele>
      </trkpt>
      <trkpt lat="45.42787" lon="2.70539">
        <ele>988.8</ele>
      </trkpt>
      <trkpt lat="45.4279" lon="2.70569">
        <ele>990.3</ele>
      </trkpt>
      <trkpt lat="45.42792" lon="2.7058">
        <ele>990.9</ele>
      </trkpt>
      <trkpt lat="45.42783" lon="2.70603">
        <ele>991.2</ele>
      </trkpt>
      <trkpt lat="45.42765" lon="2.70632">
        <ele>991.1</ele>
      </trkpt>
      <trkpt lat="45.42756" lon="2.70652">
        <ele>991.6</ele>
      </trkpt>
      <trkpt lat="45.42752" lon="2.7068">
        <ele>992.9</ele>
      </trkpt>
      <trkpt lat="45.42762" lon="2.70706">
        <ele>995.2</ele>
      </trkpt>
      <trkpt lat="45.42765" lon="2.70735">
        <ele>997</ele>
      </trkpt>
      <trkpt lat="45.4276" lon="2.70755">
        <ele>997.8</ele>
      </trkpt>
      <trkpt lat="45.42744" lon="2.70785">
        <ele>997.6</ele>
      </trkpt>
      <trkpt lat="45.42718" lon="2.70812">
        <ele>995.2</ele>
      </trkpt>
      <trkpt lat="45.42684" lon="2.70863">
        <ele>990.6</ele>
      </trkpt>
      <trkpt lat="45.42681" lon="2.70905">
        <ele>990.2</ele>
      </trkpt>
      <trkpt lat="45.42659" lon="2.71017">
        <ele>986.9</ele>
      </trkpt>
      <trkpt lat="45.42617" lon="2.71113">
        <ele>993.4</ele>
      </trkpt>
      <trkpt lat="45.42593" lon="2.71183">
        <ele>998.6</ele>
      </trkpt>
      <trkpt lat="45.42569" lon="2.71219">
        <ele>1003.2</ele>
      </trkpt>
      <trkpt lat="45.42543" lon="2.71242">
        <ele>1005</ele>
      </trkpt>
      <trkpt lat="45.42504" lon="2.71267">
        <ele>1005.6</ele>
      </trkpt>
      <trkpt lat="45.42476" lon="2.71281">
        <ele>1004</ele>
      </trkpt>
      <trkpt lat="45.42464" lon="2.71293">
        <ele>1003.2</ele>
      </trkpt>
      <trkpt lat="45.42461" lon="2.71359">
        <ele>1005.5</ele>
      </trkpt>
      <trkpt lat="45.42457" lon="2.71396">
        <ele>1006.4</ele>
      </trkpt>
      <trkpt lat="45.42446" lon="2.71434">
        <ele>1006.2</ele>
      </trkpt>
      <trkpt lat="45.42436" lon="2.71452">
        <ele>1005.6</ele>
      </trkpt>
      <trkpt lat="45.42363" lon="2.71541">
        <ele>1011.9</ele>
      </trkpt>
      <trkpt lat="45.42344" lon="2.71578">
        <ele>1011.8</ele>
      </trkpt>
      <trkpt lat="45.42347" lon="2.71596">
        <ele>1011.4</ele>
      </trkpt>
      <trkpt lat="45.42346" lon="2.71648">
        <ele>1011.9</ele>
      </trkpt>
      <trkpt lat="45.42341" lon="2.71678">
        <ele>1012.2</ele>
      </trkpt>
      <trkpt lat="45.42343" lon="2.71698">
        <ele>1012.5</ele>
      </trkpt>
      <trkpt lat="45.42356" lon="2.71757">
        <ele>1013.8</ele>
      </trkpt>
      <trkpt lat="45.42362" lon="2.71793">
        <ele>1014.2</ele>
      </trkpt>
      <trkpt lat="45.42362" lon="2.71837">
        <ele>1014.4</ele>
      </trkpt>
      <trkpt lat="45.4236" lon="2.71852">
        <ele>1014.7</ele>
      </trkpt>
      <trkpt lat="45.42358" lon="2.7187">
        <ele>1015</ele>
      </trkpt>
      <trkpt lat="45.42348" lon="2.71914">
        <ele>1015.9</ele>
      </trkpt>
      <trkpt lat="45.42345" lon="2.71937">
        <ele>1016.5</ele>
      </trkpt>
      <trkpt lat="45.42347" lon="2.7196">
        <ele>1017</ele>
      </trkpt>
      <trkpt lat="45.4236" lon="2.72013">
        <ele>1018.1</ele>
      </trkpt>
      <trkpt lat="45.4236" lon="2.7204">
        <ele>1018.5</ele>
      </trkpt>
      <trkpt lat="45.42355" lon="2.72098">
        <ele>1019.2</ele>
      </trkpt>
      <trkpt lat="45.42344" lon="2.72147">
        <ele>1020.1</ele>
      </trkpt>
      <trkpt lat="45.4234" lon="2.72161">
        <ele>1020.3</ele>
      </trkpt>
      <trkpt lat="45.42317" lon="2.72191">
        <ele>1020.3</ele>
      </trkpt>
      <trkpt lat="45.42278" lon="2.72227">
        <ele>1018.2</ele>
      </trkpt>
      <trkpt lat="45.42246" lon="2.72267">
        <ele>1017</ele>
      </trkpt>
      <trkpt lat="45.42249" lon="2.72276">
        <ele>1018.1</ele>
      </trkpt>
      <trkpt lat="45.42211" lon="2.72358">
        <ele>1019.3</ele>
      </trkpt>
      <trkpt lat="45.42197" lon="2.72366">
        <ele>1018.1</ele>
      </trkpt>
      <trkpt lat="45.42145" lon="2.72395">
        <ele>1015</ele>
      </trkpt>
      <trkpt lat="45.421" lon="2.72416">
        <ele>1013.8</ele>
      </trkpt>
      <trkpt lat="45.42068" lon="2.72431">
        <ele>1013.1</ele>
      </trkpt>
      <trkpt lat="45.42044" lon="2.72438">
        <ele>1013.2</ele>
      </trkpt>
      <trkpt lat="45.42028" lon="2.7244">
        <ele>1013.4</ele>
      </trkpt>
      <trkpt lat="45.42002" lon="2.72435">
        <ele>1013.4</ele>
      </trkpt>
      <trkpt lat="45.41997" lon="2.72433">
        <ele>1013.5</ele>
      </trkpt>
      <trkpt lat="45.41976" lon="2.72424">
        <ele>1014.3</ele>
      </trkpt>
      <trkpt lat="45.41957" lon="2.72413">
        <ele>1014.8</ele>
      </trkpt>
      <trkpt lat="45.41949" lon="2.72401">
        <ele>1014.6</ele>
      </trkpt>
      <trkpt lat="45.41945" lon="2.72426">
        <ele>1015.7</ele>
      </trkpt>
      <trkpt lat="45.4194" lon="2.72477">
        <ele>1016.3</ele>
      </trkpt>
      <trkpt lat="45.41927" lon="2.7249">
        <ele>1016.7</ele>
      </trkpt>
      <trkpt lat="45.41923" lon="2.72494">
        <ele>1016.8</ele>
      </trkpt>
      <trkpt lat="45.41904" lon="2.72515">
        <ele>1016.2</ele>
      </trkpt>
      <trkpt lat="45.41901" lon="2.72522">
        <ele>1015.9</ele>
      </trkpt>
      <trkpt lat="45.41893" lon="2.72539">
        <ele>1015.2</ele>
      </trkpt>
      <trkpt lat="45.41887" lon="2.72568">
        <ele>1014.3</ele>
      </trkpt>
      <trkpt lat="45.41892" lon="2.72591">
        <ele>1014</ele>
      </trkpt>
      <trkpt lat="45.41895" lon="2.72629">
        <ele>1013.5</ele>
      </trkpt>
      <trkpt lat="45.41894" lon="2.72647">
        <ele>1013.2</ele>
      </trkpt>
      <trkpt lat="45.41893" lon="2.72665">
        <ele>1012.9</ele>
      </trkpt>
      <trkpt lat="45.41892" lon="2.7268">
        <ele>1012.7</ele>
      </trkpt>
      <trkpt lat="45.4189" lon="2.72711">
        <ele>1012.4</ele>
      </trkpt>
      <trkpt lat="45.41888" lon="2.72733">
        <ele>1012.1</ele>
      </trkpt>
      <trkpt lat="45.41886" lon="2.72777">
        <ele>1011.6</ele>
      </trkpt>
      <trkpt lat="45.41885" lon="2.72781">
        <ele>1011.5</ele>
      </trkpt>
      <trkpt lat="45.41885" lon="2.72791">
        <ele>1011.4</ele>
      </trkpt>
      <trkpt lat="45.41883" lon="2.72827">
        <ele>1011.1</ele>
      </trkpt>
      <trkpt lat="45.41882" lon="2.72836">
        <ele>1011.1</ele>
      </trkpt>
      <trkpt lat="45.41881" lon="2.72856">
        <ele>1011.5</ele>
      </trkpt>
      <trkpt lat="45.4188" lon="2.72888">
        <ele>1012.2</ele>
      </trkpt>
      <trkpt lat="45.41915" lon="2.73031">
        <ele>1012.8</ele>
      </trkpt>
      <trkpt lat="45.41931" lon="2.73073">
        <ele>1013.6</ele>
      </trkpt>
      <trkpt lat="45.41981" lon="2.73173">
        <ele>1015.8</ele>
      </trkpt>
      <trkpt lat="45.41984" lon="2.73187">
        <ele>1016</ele>
      </trkpt>
      <trkpt lat="45.41988" lon="2.73205">
        <ele>1016.1</ele>
      </trkpt>
      <trkpt lat="45.41977" lon="2.73412">
        <ele>1018.4</ele>
      </trkpt>
      <trkpt lat="45.41992" lon="2.7354">
        <ele>1018.5</ele>
      </trkpt>
      <trkpt lat="45.4207" lon="2.73732">
        <ele>1016.7</ele>
      </trkpt>
      <trkpt lat="45.42074" lon="2.73741">
        <ele>1016.4</ele>
      </trkpt>
      <trkpt lat="45.422" lon="2.74056">
        <ele>1023.7</ele>
      </trkpt>
      <trkpt lat="45.42244" lon="2.74167">
        <ele>1024</ele>
      </trkpt>
      <trkpt lat="45.42264" lon="2.74195">
        <ele>1024.6</ele>
      </trkpt>
      <trkpt lat="45.4227" lon="2.74202">
        <ele>1024.7</ele>
      </trkpt>
      <trkpt lat="45.42272" lon="2.74204">
        <ele>1024.7</ele>
      </trkpt>
      <trkpt lat="45.42278" lon="2.7421">
        <ele>1024.8</ele>
      </trkpt>
      <trkpt lat="45.42283" lon="2.74273">
        <ele>1025.8</ele>
      </trkpt>
      <trkpt lat="45.42301" lon="2.74413">
        <ele>1032.5</ele>
      </trkpt>
      <trkpt lat="45.42304" lon="2.74441">
        <ele>1032.7</ele>
      </trkpt>
      <trkpt lat="45.42304" lon="2.74447">
        <ele>1032.7</ele>
      </trkpt>
      <trkpt lat="45.42301" lon="2.74503">
        <ele>1032.5</ele>
      </trkpt>
      <trkpt lat="45.42294" lon="2.74542">
        <ele>1031</ele>
      </trkpt>
      <trkpt lat="45.42293" lon="2.74582">
        <ele>1029.6</ele>
      </trkpt>
      <trkpt lat="45.42306" lon="2.74731">
        <ele>1028.8</ele>
      </trkpt>
      <trkpt lat="45.42309" lon="2.74826">
        <ele>1028.7</ele>
      </trkpt>
      <trkpt lat="45.42316" lon="2.74886">
        <ele>1030.3</ele>
      </trkpt>
      <trkpt lat="45.42327" lon="2.7492">
        <ele>1031.7</ele>
      </trkpt>
      <trkpt lat="45.42343" lon="2.75132">
        <ele>1034.2</ele>
      </trkpt>
      <trkpt lat="45.42347" lon="2.7517">
        <ele>1034.6</ele>
      </trkpt>
      <trkpt lat="45.42349" lon="2.75214">
        <ele>1036</ele>
      </trkpt>
      <trkpt lat="45.42343" lon="2.75256">
        <ele>1037.7</ele>
      </trkpt>
      <trkpt lat="45.42335" lon="2.75291">
        <ele>1038.9</ele>
      </trkpt>
      <trkpt lat="45.42326" lon="2.75319">
        <ele>1039.5</ele>
      </trkpt>
      <trkpt lat="45.42312" lon="2.75382">
        <ele>1042.7</ele>
      </trkpt>
      <trkpt lat="45.42305" lon="2.75444">
        <ele>1045.4</ele>
      </trkpt>
      <trkpt lat="45.42308" lon="2.75462">
        <ele>1046</ele>
      </trkpt>
      <trkpt lat="45.42321" lon="2.75506">
        <ele>1047.5</ele>
      </trkpt>
      <trkpt lat="45.42321" lon="2.75506">
        <ele>1047.5</ele>
      </trkpt>
      <trkpt lat="45.42322" lon="2.75508">
        <ele>1047.5</ele>
      </trkpt>
      <trkpt lat="45.42345" lon="2.75522">
        <ele>1047.3</ele>
      </trkpt>
      <trkpt lat="45.42356" lon="2.75524">
        <ele>1046.9</ele>
      </trkpt>
      <trkpt lat="45.42369" lon="2.75522">
        <ele>1046.5</ele>
      </trkpt>
      <trkpt lat="45.42378" lon="2.75526">
        <ele>1046.2</ele>
      </trkpt>
      <trkpt lat="45.42392" lon="2.75541">
        <ele>1046.1</ele>
      </trkpt>
      <trkpt lat="45.42405" lon="2.75557">
        <ele>1046.2</ele>
      </trkpt>
      <trkpt lat="45.42411" lon="2.7557">
        <ele>1046.6</ele>
      </trkpt>
      <trkpt lat="45.42411" lon="2.7558">
        <ele>1046.9</ele>
      </trkpt>
      <trkpt lat="45.42406" lon="2.75637">
        <ele>1047.6</ele>
      </trkpt>
      <trkpt lat="45.42401" lon="2.75651">
        <ele>1047.8</ele>
      </trkpt>
      <trkpt lat="45.42374" lon="2.75677">
        <ele>1048.1</ele>
      </trkpt>
      <trkpt lat="45.42366" lon="2.75689">
        <ele>1048.1</ele>
      </trkpt>
      <trkpt lat="45.42355" lon="2.75719">
        <ele>1048.2</ele>
      </trkpt>
      <trkpt lat="45.4235" lon="2.75743">
        <ele>1048.2</ele>
      </trkpt>
      <trkpt lat="45.42348" lon="2.7578">
        <ele>1047.5</ele>
      </trkpt>
      <trkpt lat="45.42342" lon="2.75817">
        <ele>1046.5</ele>
      </trkpt>
      <trkpt lat="45.42331" lon="2.75844">
        <ele>1046.1</ele>
      </trkpt>
      <trkpt lat="45.42322" lon="2.75853">
        <ele>1046.2</ele>
      </trkpt>
      <trkpt lat="45.42311" lon="2.75875">
        <ele>1046.4</ele>
      </trkpt>
      <trkpt lat="45.42283" lon="2.75906">
        <ele>1046.3</ele>
      </trkpt>
      <trkpt lat="45.42172" lon="2.76007">
        <ele>1046.7</ele>
      </trkpt>
      <trkpt lat="45.42158" lon="2.76018">
        <ele>1046.8</ele>
      </trkpt>
      <trkpt lat="45.42144" lon="2.76023">
        <ele>1046.6</ele>
      </trkpt>
      <trkpt lat="45.42135" lon="2.76024">
        <ele>1046.6</ele>
      </trkpt>
      <trkpt lat="45.42153" lon="2.76075">
        <ele>1046</ele>
      </trkpt>
      <trkpt lat="45.4216" lon="2.761">
        <ele>1045.5</ele>
      </trkpt>
      <trkpt lat="45.4217" lon="2.76116">
        <ele>1045.2</ele>
      </trkpt>
      <trkpt lat="45.42208" lon="2.76147">
        <ele>1044.2</ele>
      </trkpt>
      <trkpt lat="45.42222" lon="2.76147">
        <ele>1044.2</ele>
      </trkpt>
      <trkpt lat="45.42239" lon="2.76137">
        <ele>1044.1</ele>
      </trkpt>
      <trkpt lat="45.42277" lon="2.76125">
        <ele>1044.5</ele>
      </trkpt>
      <trkpt lat="45.42301" lon="2.76136">
        <ele>1044.8</ele>
      </trkpt>
      <trkpt lat="45.42324" lon="2.76142">
        <ele>1045.2</ele>
      </trkpt>
      <trkpt lat="45.42336" lon="2.76156">
        <ele>1045.1</ele>
      </trkpt>
      <trkpt lat="45.42356" lon="2.76201">
        <ele>1044.3</ele>
      </trkpt>
      <trkpt lat="45.42368" lon="2.76241">
        <ele>1043.6</ele>
      </trkpt>
      <trkpt lat="45.42403" lon="2.76331">
        <ele>1044.5</ele>
      </trkpt>
      <trkpt lat="45.42432" lon="2.76379">
        <ele>1044.9</ele>
      </trkpt>
      <trkpt lat="45.42481" lon="2.76487">
        <ele>1046.2</ele>
      </trkpt>
      <trkpt lat="45.42508" lon="2.76574">
        <ele>1049.9</ele>
      </trkpt>
      <trkpt lat="45.4252" lon="2.7662">
        <ele>1051.4</ele>
      </trkpt>
      <trkpt lat="45.42526" lon="2.76627">
        <ele>1051.7</ele>
      </trkpt>
      <trkpt lat="45.4257" lon="2.76642">
        <ele>1052.7</ele>
      </trkpt>
      <trkpt lat="45.42601" lon="2.76638">
        <ele>1051.9</ele>
      </trkpt>
      <trkpt lat="45.42648" lon="2.7662">
        <ele>1049.1</ele>
      </trkpt>
      <trkpt lat="45.42668" lon="2.7662">
        <ele>1048</ele>
      </trkpt>
      <trkpt lat="45.42687" lon="2.76631">
        <ele>1048.2</ele>
      </trkpt>
      <trkpt lat="45.4272" lon="2.76668">
        <ele>1049.3</ele>
      </trkpt>
      <trkpt lat="45.42731" lon="2.76696">
        <ele>1050.2</ele>
      </trkpt>
      <trkpt lat="45.42783" lon="2.76782">
        <ele>1054.7</ele>
      </trkpt>
      <trkpt lat="45.42876" lon="2.76943">
        <ele>1070.7</ele>
      </trkpt>
      <trkpt lat="45.43" lon="2.77113">
        <ele>1079.1</ele>
      </trkpt>
      <trkpt lat="45.43054" lon="2.77175">
        <ele>1083.5</ele>
      </trkpt>
      <trkpt lat="45.43058" lon="2.77194">
        <ele>1085.1</ele>
      </trkpt>
      <trkpt lat="45.43069" lon="2.7722">
        <ele>1087.3</ele>
      </trkpt>
      <trkpt lat="45.43073" lon="2.77244">
        <ele>1089.2</ele>
      </trkpt>
      <trkpt lat="45.43073" lon="2.77271">
        <ele>1089.2</ele>
      </trkpt>
      <trkpt lat="45.43083" lon="2.77315">
        <ele>1088.4</ele>
      </trkpt>
      <trkpt lat="45.43102" lon="2.77349">
        <ele>1085.8</ele>
      </trkpt>
      <trkpt lat="45.43131" lon="2.77492">
        <ele>1081.5</ele>
      </trkpt>
      <trkpt lat="45.43138" lon="2.77551">
        <ele>1082</ele>
      </trkpt>
      <trkpt lat="45.43125" lon="2.7762">
        <ele>1084.8</ele>
      </trkpt>
      <trkpt lat="45.43123" lon="2.77624">
        <ele>1085</ele>
      </trkpt>
      <trkpt lat="45.43124" lon="2.77681">
        <ele>1086.7</ele>
      </trkpt>
      <trkpt lat="45.43134" lon="2.77754">
        <ele>1087.3</ele>
      </trkpt>
      <trkpt lat="45.43138" lon="2.77855">
        <ele>1086.5</ele>
      </trkpt>
      <trkpt lat="45.43164" lon="2.7829">
        <ele>1090.4</ele>
      </trkpt>
      <trkpt lat="45.43259" lon="2.78454">
        <ele>1094.8</ele>
      </trkpt>
      <trkpt lat="45.43268" lon="2.78478">
        <ele>1095.6</ele>
      </trkpt>
      <trkpt lat="45.43294" lon="2.7853">
        <ele>1096.7</ele>
      </trkpt>
      <trkpt lat="45.43309" lon="2.78542">
        <ele>1096.5</ele>
      </trkpt>
      <trkpt lat="45.43318" lon="2.78554">
        <ele>1096.8</ele>
      </trkpt>
      <trkpt lat="45.43364" lon="2.78621">
        <ele>1096.6</ele>
      </trkpt>
      <trkpt lat="45.43395" lon="2.78672">
        <ele>1099.8</ele>
      </trkpt>
      <trkpt lat="45.43419" lon="2.78701">
        <ele>1100.3</ele>
      </trkpt>
      <trkpt lat="45.43459" lon="2.78724">
        <ele>1099.2</ele>
      </trkpt>
      <trkpt lat="45.4349" lon="2.7878">
        <ele>1101</ele>
      </trkpt>
      <trkpt lat="45.43507" lon="2.78877">
        <ele>1104.8</ele>
      </trkpt>
      <trkpt lat="45.43511" lon="2.78906">
        <ele>1105.4</ele>
      </trkpt>
      <trkpt lat="45.43528" lon="2.78992">
        <ele>1109.7</ele>
      </trkpt>
      <trkpt lat="45.43534" lon="2.79004">
        <ele>1110.1</ele>
      </trkpt>
      <trkpt lat="45.43542" lon="2.79014">
        <ele>1110.2</ele>
      </trkpt>
      <trkpt lat="45.43556" lon="2.79022">
        <ele>1109.8</ele>
      </trkpt>
      <trkpt lat="45.43578" lon="2.79039">
        <ele>1109.6</ele>
      </trkpt>
      <trkpt lat="45.43587" lon="2.79047">
        <ele>1109.6</ele>
      </trkpt>
      <trkpt lat="45.43591" lon="2.79055">
        <ele>1109.8</ele>
      </trkpt>
      <trkpt lat="45.4359" lon="2.79059">
        <ele>1110.1</ele>
      </trkpt>
      <trkpt lat="45.43587" lon="2.79062">
        <ele>1110.5</ele>
      </trkpt>
      <trkpt lat="45.43541" lon="2.79091">
        <ele>1113.8</ele>
      </trkpt>
      <trkpt lat="45.4354" lon="2.79093">
        <ele>1113.9</ele>
      </trkpt>
      <trkpt lat="45.43572" lon="2.7919">
        <ele>1115.7</ele>
      </trkpt>
      <trkpt lat="45.43601" lon="2.79304">
        <ele>1117.7</ele>
      </trkpt>
      <trkpt lat="45.4359" lon="2.79411">
        <ele>1122.4</ele>
      </trkpt>
      <trkpt lat="45.43591" lon="2.79418">
        <ele>1122.7</ele>
      </trkpt>
      <trkpt lat="45.43611" lon="2.7946">
        <ele>1123.8</ele>
      </trkpt>
      <trkpt lat="45.43652" lon="2.79562">
        <ele>1127.6</ele>
      </trkpt>
      <trkpt lat="45.43668" lon="2.79619">
        <ele>1130.2</ele>
      </trkpt>
      <trkpt lat="45.43676" lon="2.79632">
        <ele>1130.2</ele>
      </trkpt>
      <trkpt lat="45.43696" lon="2.79648">
        <ele>1129.8</ele>
      </trkpt>
      <trkpt lat="45.43705" lon="2.79659">
        <ele>1129.8</ele>
      </trkpt>
      <trkpt lat="45.43713" lon="2.79668">
        <ele>1129.8</ele>
      </trkpt>
      <trkpt lat="45.43717" lon="2.79684">
        <ele>1129.6</ele>
      </trkpt>
      <trkpt lat="45.43729" lon="2.79757">
        <ele>1129.4</ele>
      </trkpt>
      <trkpt lat="45.43732" lon="2.79763">
        <ele>1129.3</ele>
      </trkpt>
      <trkpt lat="45.4374" lon="2.79766">
        <ele>1129.1</ele>
      </trkpt>
      <trkpt lat="45.43822" lon="2.79773">
        <ele>1129.8</ele>
      </trkpt>
      <trkpt lat="45.43851" lon="2.7977">
        <ele>1130.6</ele>
      </trkpt>
      <trkpt lat="45.43858" lon="2.79775">
        <ele>1130.9</ele>
      </trkpt>
      <trkpt lat="45.43885" lon="2.79808">
        <ele>1133</ele>
      </trkpt>
      <trkpt lat="45.43893" lon="2.79807">
        <ele>1133.4</ele>
      </trkpt>
      <trkpt lat="45.43902" lon="2.79808">
        <ele>1133.9</ele>
      </trkpt>
      <trkpt lat="45.43894" lon="2.79772">
        <ele>1132.2</ele>
      </trkpt>
      <trkpt lat="45.43897" lon="2.79756">
        <ele>1131.7</ele>
      </trkpt>
      <trkpt lat="45.43902" lon="2.79744">
        <ele>1131.4</ele>
      </trkpt>
      <trkpt lat="45.43963" lon="2.79647">
        <ele>1129</ele>
      </trkpt>
      <trkpt lat="45.44002" lon="2.79596">
        <ele>1127.5</ele>
      </trkpt>
      <trkpt lat="45.44027" lon="2.79548">
        <ele>1126.4</ele>
      </trkpt>
      <trkpt lat="45.44045" lon="2.79501">
        <ele>1125.2</ele>
      </trkpt>
      <trkpt lat="45.44061" lon="2.79442">
        <ele>1124.9</ele>
      </trkpt>
      <trkpt lat="45.44108" lon="2.792">
        <ele>1123.1</ele>
      </trkpt>
      <trkpt lat="45.44112" lon="2.7919">
        <ele>1122.4</ele>
      </trkpt>
      <trkpt lat="45.44118" lon="2.7918">
        <ele>1121.6</ele>
      </trkpt>
      <trkpt lat="45.44129" lon="2.79167">
        <ele>1120.4</ele>
      </trkpt>
      <trkpt lat="45.44138" lon="2.79162">
        <ele>1119.6</ele>
      </trkpt>
      <trkpt lat="45.44154" lon="2.79159">
        <ele>1118.8</ele>
      </trkpt>
      <trkpt lat="45.44161" lon="2.7916">
        <ele>1118.6</ele>
      </trkpt>
      <trkpt lat="45.44195" lon="2.79177">
        <ele>1118.4</ele>
      </trkpt>
      <trkpt lat="45.44203" lon="2.79179">
        <ele>1118.2</ele>
      </trkpt>
      <trkpt lat="45.44259" lon="2.79177">
        <ele>1115</ele>
      </trkpt>
      <trkpt lat="45.44288" lon="2.7918">
        <ele>1113.1</ele>
      </trkpt>
      <trkpt lat="45.44366" lon="2.79203">
        <ele>1108.4</ele>
      </trkpt>
      <trkpt lat="45.44394" lon="2.79214">
        <ele>1106.8</ele>
      </trkpt>
      <trkpt lat="45.44426" lon="2.79234">
        <ele>1106</ele>
      </trkpt>
      <trkpt lat="45.4446" lon="2.79273">
        <ele>1107.2</ele>
      </trkpt>
      <trkpt lat="45.44469" lon="2.79278">
        <ele>1107.1</ele>
      </trkpt>
      <trkpt lat="45.44477" lon="2.7928">
        <ele>1106.7</ele>
      </trkpt>
      <trkpt lat="45.44485" lon="2.79278">
        <ele>1105.7</ele>
      </trkpt>
      <trkpt lat="45.44492" lon="2.79273">
        <ele>1104.3</ele>
      </trkpt>
      <trkpt lat="45.44496" lon="2.79267">
        <ele>1103</ele>
      </trkpt>
      <trkpt lat="45.44497" lon="2.79279">
        <ele>1104.8</ele>
      </trkpt>
      <trkpt lat="45.44493" lon="2.79307">
        <ele>1109.4</ele>
      </trkpt>
      <trkpt lat="45.44495" lon="2.79327">
        <ele>1112.3</ele>
      </trkpt>
      <trkpt lat="45.44503" lon="2.79339">
        <ele>1113.7</ele>
      </trkpt>
      <trkpt lat="45.44539" lon="2.79344">
        <ele>1115.7</ele>
      </trkpt>
      <trkpt lat="45.44565" lon="2.79356">
        <ele>1118.2</ele>
      </trkpt>
      <trkpt lat="45.44596" lon="2.79379">
        <ele>1120.9</ele>
      </trkpt>
      <trkpt lat="45.44608" lon="2.79456">
        <ele>1126.9</ele>
      </trkpt>
      <trkpt lat="45.44653" lon="2.79502">
        <ele>1126.9</ele>
      </trkpt>
      <trkpt lat="45.44664" lon="2.7951">
        <ele>1126.9</ele>
      </trkpt>
      <trkpt lat="45.44674" lon="2.79552">
        <ele>1129.4</ele>
      </trkpt>
      <trkpt lat="45.44684" lon="2.79571">
        <ele>1130.4</ele>
      </trkpt>
      <trkpt lat="45.44703" lon="2.79597">
        <ele>1131.3</ele>
      </trkpt>
      <trkpt lat="45.44706" lon="2.79622">
        <ele>1132.4</ele>
      </trkpt>
      <trkpt lat="45.44722" lon="2.79665">
        <ele>1134.2</ele>
      </trkpt>
      <trkpt lat="45.4473" lon="2.79698">
        <ele>1135.1</ele>
      </trkpt>
      <trkpt lat="45.44745" lon="2.7973">
        <ele>1135.6</ele>
      </trkpt>
      <trkpt lat="45.4475" lon="2.79734">
        <ele>1135.6</ele>
      </trkpt>
      <trkpt lat="45.44759" lon="2.79798">
        <ele>1138.5</ele>
      </trkpt>
      <trkpt lat="45.44762" lon="2.79821">
        <ele>1139.6</ele>
      </trkpt>
      <trkpt lat="45.4479" lon="2.7984">
        <ele>1140.6</ele>
      </trkpt>
      <trkpt lat="45.44845" lon="2.79853">
        <ele>1141.2</ele>
      </trkpt>
      <trkpt lat="45.44872" lon="2.79851">
        <ele>1141</ele>
      </trkpt>
      <trkpt lat="45.44941" lon="2.79857">
        <ele>1141.1</ele>
      </trkpt>
      <trkpt lat="45.44991" lon="2.79847">
        <ele>1141</ele>
      </trkpt>
      <trkpt lat="45.45038" lon="2.79843">
        <ele>1139.6</ele>
      </trkpt>
      <trkpt lat="45.45076" lon="2.79851">
        <ele>1138.3</ele>
      </trkpt>
      <trkpt lat="45.4513" lon="2.79941">
        <ele>1136.1</ele>
      </trkpt>
      <trkpt lat="45.45153" lon="2.79985">
        <ele>1135.1</ele>
      </trkpt>
      <trkpt lat="45.45163" lon="2.8003">
        <ele>1134.7</ele>
      </trkpt>
      <trkpt lat="45.45169" lon="2.80081">
        <ele>1134.7</ele>
      </trkpt>
      <trkpt lat="45.45167" lon="2.80132">
        <ele>1136.1</ele>
      </trkpt>
      <trkpt lat="45.45185" lon="2.80231">
        <ele>1137.1</ele>
      </trkpt>
      <trkpt lat="45.45212" lon="2.80364">
        <ele>1142.6</ele>
      </trkpt>
      <trkpt lat="45.45257" lon="2.80516">
        <ele>1148.9</ele>
      </trkpt>
      <trkpt lat="45.45292" lon="2.80602">
        <ele>1150.5</ele>
      </trkpt>
      <trkpt lat="45.45353" lon="2.80688">
        <ele>1153.7</ele>
      </trkpt>
      <trkpt lat="45.45379" lon="2.80719">
        <ele>1155.2</ele>
      </trkpt>
      <trkpt lat="45.4547" lon="2.80777">
        <ele>1158.2</ele>
      </trkpt>
      <trkpt lat="45.45551" lon="2.80887">
        <ele>1162.4</ele>
      </trkpt>
      <trkpt lat="45.45594" lon="2.80916">
        <ele>1162.7</ele>
      </trkpt>
      <trkpt lat="45.45667" lon="2.80963">
        <ele>1162.6</ele>
      </trkpt>
      <trkpt lat="45.45663" lon="2.81014">
        <ele>1164.4</ele>
      </trkpt>
      <trkpt lat="45.45638" lon="2.81173">
        <ele>1174.9</ele>
      </trkpt>
      <trkpt lat="45.45616" lon="2.81295">
        <ele>1182.2</ele>
      </trkpt>
      <trkpt lat="45.45608" lon="2.81342">
        <ele>1184.2</ele>
      </trkpt>
      <trkpt lat="45.45588" lon="2.81389">
        <ele>1188.2</ele>
      </trkpt>
      <trkpt lat="45.45566" lon="2.81434">
        <ele>1195.7</ele>
      </trkpt>
      <trkpt lat="45.45539" lon="2.81459">
        <ele>1202.9</ele>
      </trkpt>
      <trkpt lat="45.45503" lon="2.81454">
        <ele>1204.8</ele>
      </trkpt>
      <trkpt lat="45.45474" lon="2.81438">
        <ele>1205.4</ele>
      </trkpt>
      <trkpt lat="45.45424" lon="2.81408">
        <ele>1205.3</ele>
      </trkpt>
      <trkpt lat="45.45388" lon="2.81411">
        <ele>1211.9</ele>
      </trkpt>
      <trkpt lat="45.45352" lon="2.81392">
        <ele>1213.5</ele>
      </trkpt>
      <trkpt lat="45.45315" lon="2.8136">
        <ele>1213</ele>
      </trkpt>
      <trkpt lat="45.45273" lon="2.81314">
        <ele>1213.4</ele>
      </trkpt>
      <trkpt lat="45.45241" lon="2.81284">
        <ele>1214.9</ele>
      </trkpt>
      <trkpt lat="45.45158" lon="2.81248">
        <ele>1217.1</ele>
      </trkpt>
      <trkpt lat="45.45126" lon="2.81244">
        <ele>1217.7</ele>
      </trkpt>
      <trkpt lat="45.45101" lon="2.81244">
        <ele>1218.6</ele>
      </trkpt>
      <trkpt lat="45.4507" lon="2.81252">
        <ele>1219.6</ele>
      </trkpt>
      <trkpt lat="45.44972" lon="2.81381">
        <ele>1229.6</ele>
      </trkpt>
      <trkpt lat="45.44947" lon="2.81408">
        <ele>1229.7</ele>
      </trkpt>
      <trkpt lat="45.44932" lon="2.81461">
        <ele>1231.5</ele>
      </trkpt>
      <trkpt lat="45.4492" lon="2.81519">
        <ele>1233.4</ele>
      </trkpt>
      <trkpt lat="45.44929" lon="2.81556">
        <ele>1238.6</ele>
      </trkpt>
      <trkpt lat="45.44936" lon="2.81656">
        <ele>1246.4</ele>
      </trkpt>
      <trkpt lat="45.44941" lon="2.81684">
        <ele>1248.6</ele>
      </trkpt>
      <trkpt lat="45.44947" lon="2.81708">
        <ele>1250.6</ele>
      </trkpt>
      <trkpt lat="45.44951" lon="2.81734">
        <ele>1252</ele>
      </trkpt>
      <trkpt lat="45.44947" lon="2.81755">
        <ele>1252.1</ele>
      </trkpt>
      <trkpt lat="45.44899" lon="2.81791">
        <ele>1249</ele>
      </trkpt>
      <trkpt lat="45.44861" lon="2.81857">
        <ele>1251.2</ele>
      </trkpt>
      <trkpt lat="45.44859" lon="2.81856">
        <ele>1251.1</ele>
      </trkpt>
      <trkpt lat="45.44921" lon="2.81919">
        <ele>1255.1</ele>
      </trkpt>
      <trkpt lat="45.4496" lon="2.81988">
        <ele>1257.8</ele>
      </trkpt>
      <trkpt lat="45.44974" lon="2.82023">
        <ele>1259</ele>
      </trkpt>
      <trkpt lat="45.4496" lon="2.81988">
        <ele>1257.8</ele>
      </trkpt>
      <trkpt lat="45.44921" lon="2.81919">
        <ele>1255.1</ele>
      </trkpt>
      <trkpt lat="45.44859" lon="2.81856">
        <ele>1251.1</ele>
      </trkpt>
      <trkpt lat="45.44861" lon="2.81857">
        <ele>1251.2</ele>
      </trkpt>
      <trkpt lat="45.44899" lon="2.81791">
        <ele>1249</ele>
      </trkpt>
      <trkpt lat="45.44947" lon="2.81755">
        <ele>1252.1</ele>
      </trkpt>
      <trkpt lat="45.44951" lon="2.81734">
        <ele>1252</ele>
      </trkpt>
      <trkpt lat="45.44947" lon="2.81708">
        <ele>1250.6</ele>
      </trkpt>
      <trkpt lat="45.44941" lon="2.81684">
        <ele>1248.6</ele>
      </trkpt>
      <trkpt lat="45.44936" lon="2.81656">
        <ele>1246.4</ele>
      </trkpt>
      <trkpt lat="45.44929" lon="2.81556">
        <ele>1238.6</ele>
      </trkpt>
      <trkpt lat="45.4492" lon="2.81519">
        <ele>1233.4</ele>
      </trkpt>
      <trkpt lat="45.44932" lon="2.81461">
        <ele>1231.5</ele>
      </trkpt>
      <trkpt lat="45.44947" lon="2.81408">
        <ele>1229.7</ele>
      </trkpt>
      <trkpt lat="45.44972" lon="2.81381">
        <ele>1229.6</ele>
      </trkpt>
      <trkpt lat="45.4507" lon="2.81252">
        <ele>1219.6</ele>
      </trkpt>
      <trkpt lat="45.45101" lon="2.81244">
        <ele>1218.6</ele>
      </trkpt>
      <trkpt lat="45.45126" lon="2.81244">
        <ele>1217.7</ele>
      </trkpt>
      <trkpt lat="45.45158" lon="2.81248">
        <ele>1217.1</ele>
      </trkpt>
      <trkpt lat="45.45241" lon="2.81284">
        <ele>1214.9</ele>
      </trkpt>
      <trkpt lat="45.45273" lon="2.81314">
        <ele>1213.4</ele>
      </trkpt>
      <trkpt lat="45.45315" lon="2.8136">
        <ele>1213</ele>
      </trkpt>
      <trkpt lat="45.45352" lon="2.81392">
        <ele>1213.5</ele>
      </trkpt>
      <trkpt lat="45.45388" lon="2.81411">
        <ele>1211.9</ele>
      </trkpt>
      <trkpt lat="45.45424" lon="2.81408">
        <ele>1205.3</ele>
      </trkpt>
      <trkpt lat="45.45474" lon="2.81438">
        <ele>1205.4</ele>
      </trkpt>
      <trkpt lat="45.45503" lon="2.81454">
        <ele>1204.8</ele>
      </trkpt>
      <trkpt lat="45.45539" lon="2.81459">
        <ele>1202.9</ele>
      </trkpt>
      <trkpt lat="45.45566" lon="2.81434">
        <ele>1195.7</ele>
      </trkpt>
      <trkpt lat="45.45588" lon="2.81389">
        <ele>1188.2</ele>
      </trkpt>
      <trkpt lat="45.45608" lon="2.81342">
        <ele>1184.2</ele>
      </trkpt>
      <trkpt lat="45.45616" lon="2.81295">
        <ele>1182.2</ele>
      </trkpt>
      <trkpt lat="45.45638" lon="2.81173">
        <ele>1174.9</ele>
      </trkpt>
      <trkpt lat="45.45663" lon="2.81014">
        <ele>1164.4</ele>
      </trkpt>
      <trkpt lat="45.45725" lon="2.81087">
        <ele>1162.8</ele>
      </trkpt>
      <trkpt lat="45.4575" lon="2.8112">
        <ele>1164.5</ele>
      </trkpt>
      <trkpt lat="45.45795" lon="2.81208">
        <ele>1168.2</ele>
      </trkpt>
      <trkpt lat="45.45842" lon="2.81269">
        <ele>1166</ele>
      </trkpt>
      <trkpt lat="45.45878" lon="2.81346">
        <ele>1166.5</ele>
      </trkpt>
      <trkpt lat="45.459" lon="2.81385">
        <ele>1166</ele>
      </trkpt>
      <trkpt lat="45.45928" lon="2.8144">
        <ele>1165.6</ele>
      </trkpt>
      <trkpt lat="45.45944" lon="2.81477">
        <ele>1166.4</ele>
      </trkpt>
      <trkpt lat="45.46003" lon="2.81582">
        <ele>1169.2</ele>
      </trkpt>
      <trkpt lat="45.46012" lon="2.81747">
        <ele>1179.8</ele>
      </trkpt>
      <trkpt lat="45.46015" lon="2.81818">
        <ele>1182.1</ele>
      </trkpt>
      <trkpt lat="45.46032" lon="2.8187">
        <ele>1182</ele>
      </trkpt>
      <trkpt lat="45.46047" lon="2.8195">
        <ele>1183.7</ele>
      </trkpt>
      <trkpt lat="45.46056" lon="2.81973">
        <ele>1183.3</ele>
      </trkpt>
      <trkpt lat="45.4608" lon="2.82067">
        <ele>1181.4</ele>
      </trkpt>
      <trkpt lat="45.46093" lon="2.8216">
        <ele>1182.1</ele>
      </trkpt>
      <trkpt lat="45.46112" lon="2.82214">
        <ele>1180.9</ele>
      </trkpt>
      <trkpt lat="45.46133" lon="2.82281">
        <ele>1179.8</ele>
      </trkpt>
      <trkpt lat="45.4614" lon="2.82374">
        <ele>1178.9</ele>
      </trkpt>
      <trkpt lat="45.46147" lon="2.82403">
        <ele>1176.6</ele>
      </trkpt>
      <trkpt lat="45.4618" lon="2.825">
        <ele>1172.2</ele>
      </trkpt>
      <trkpt lat="45.46189" lon="2.82532">
        <ele>1169.7</ele>
      </trkpt>
      <trkpt lat="45.4619" lon="2.82553">
        <ele>1168.8</ele>
      </trkpt>
      <trkpt lat="45.46191" lon="2.82572">
        <ele>1168</ele>
      </trkpt>
      <trkpt lat="45.4623" lon="2.82587">
        <ele>1165</ele>
      </trkpt>
      <trkpt lat="45.46245" lon="2.82574">
        <ele>1164.2</ele>
      </trkpt>
      <trkpt lat="45.46262" lon="2.82561">
        <ele>1163.5</ele>
      </trkpt>
      <trkpt lat="45.46311" lon="2.82557">
        <ele>1162.3</ele>
      </trkpt>
      <trkpt lat="45.46328" lon="2.82552">
        <ele>1161.6</ele>
      </trkpt>
      <trkpt lat="45.46334" lon="2.82549">
        <ele>1161.4</ele>
      </trkpt>
      <trkpt lat="45.46364" lon="2.82534">
        <ele>1161.8</ele>
      </trkpt>
      <trkpt lat="45.46398" lon="2.82503">
        <ele>1160.8</ele>
      </trkpt>
      <trkpt lat="45.46416" lon="2.82477">
        <ele>1160.2</ele>
      </trkpt>
      <trkpt lat="45.46427" lon="2.82462">
        <ele>1159.8</ele>
      </trkpt>
      <trkpt lat="45.46454" lon="2.8247">
        <ele>1160.5</ele>
      </trkpt>
      <trkpt lat="45.4646" lon="2.82476">
        <ele>1160.8</ele>
      </trkpt>
      <trkpt lat="45.46473" lon="2.82501">
        <ele>1161.8</ele>
      </trkpt>
      <trkpt lat="45.46478" lon="2.82532">
        <ele>1164.7</ele>
      </trkpt>
      <trkpt lat="45.46508" lon="2.82616">
        <ele>1170.2</ele>
      </trkpt>
      <trkpt lat="45.46522" lon="2.8265">
        <ele>1169.5</ele>
      </trkpt>
      <trkpt lat="45.46538" lon="2.82697">
        <ele>1169.8</ele>
      </trkpt>
      <trkpt lat="45.46558" lon="2.82749">
        <ele>1170.7</ele>
      </trkpt>
      <trkpt lat="45.46575" lon="2.82784">
        <ele>1170.4</ele>
      </trkpt>
      <trkpt lat="45.46589" lon="2.82804">
        <ele>1170.2</ele>
      </trkpt>
      <trkpt lat="45.46595" lon="2.82818">
        <ele>1170.5</ele>
      </trkpt>
      <trkpt lat="45.4661" lon="2.82848">
        <ele>1171</ele>
      </trkpt>
      <trkpt lat="45.46623" lon="2.82868">
        <ele>1171.3</ele>
      </trkpt>
      <trkpt lat="45.46661" lon="2.82926">
        <ele>1173.1</ele>
      </trkpt>
      <trkpt lat="45.46683" lon="2.8296">
        <ele>1175.4</ele>
      </trkpt>
      <trkpt lat="45.46701" lon="2.82996">
        <ele>1177.2</ele>
      </trkpt>
      <trkpt lat="45.46708" lon="2.83015">
        <ele>1177.7</ele>
      </trkpt>
      <trkpt lat="45.46719" lon="2.83058">
        <ele>1179</ele>
      </trkpt>
      <trkpt lat="45.46749" lon="2.83237">
        <ele>1182.2</ele>
      </trkpt>
      <trkpt lat="45.46778" lon="2.83412">
        <ele>1190.5</ele>
      </trkpt>
      <trkpt lat="45.46838" lon="2.83771">
        <ele>1189.1</ele>
      </trkpt>
      <trkpt lat="45.4685" lon="2.83823">
        <ele>1187.4</ele>
      </trkpt>
      <trkpt lat="45.4687" lon="2.83886">
        <ele>1186.9</ele>
      </trkpt>
      <trkpt lat="45.4689" lon="2.83933">
        <ele>1186.9</ele>
      </trkpt>
      <trkpt lat="45.46902" lon="2.83958">
        <ele>1187.2</ele>
      </trkpt>
      <trkpt lat="45.46944" lon="2.84028">
        <ele>1187.5</ele>
      </trkpt>
      <trkpt lat="45.47" lon="2.84112">
        <ele>1186.3</ele>
      </trkpt>
      <trkpt lat="45.47016" lon="2.84133">
        <ele>1186.3</ele>
      </trkpt>
      <trkpt lat="45.47029" lon="2.84149">
        <ele>1186.4</ele>
      </trkpt>
      <trkpt lat="45.47046" lon="2.84166">
        <ele>1186.7</ele>
      </trkpt>
      <trkpt lat="45.47094" lon="2.84208">
        <ele>1185.4</ele>
      </trkpt>
      <trkpt lat="45.47111" lon="2.84229">
        <ele>1185</ele>
      </trkpt>
      <trkpt lat="45.47114" lon="2.84237">
        <ele>1184.8</ele>
      </trkpt>
      <trkpt lat="45.47125" lon="2.84222">
        <ele>1186</ele>
      </trkpt>
      <trkpt lat="45.47132" lon="2.84201">
        <ele>1187</ele>
      </trkpt>
      <trkpt lat="45.47143" lon="2.84184">
        <ele>1187.6</ele>
      </trkpt>
      <trkpt lat="45.47171" lon="2.84161">
        <ele>1188.1</ele>
      </trkpt>
      <trkpt lat="45.47178" lon="2.84152">
        <ele>1188.3</ele>
      </trkpt>
      <trkpt lat="45.47163" lon="2.84082">
        <ele>1189</ele>
      </trkpt>
      <trkpt lat="45.47161" lon="2.84065">
        <ele>1188.8</ele>
      </trkpt>
      <trkpt lat="45.47162" lon="2.84046">
        <ele>1188.5</ele>
      </trkpt>
      <trkpt lat="45.47169" lon="2.84004">
        <ele>1188.1</ele>
      </trkpt>
      <trkpt lat="45.47181" lon="2.83949">
        <ele>1187.1</ele>
      </trkpt>
      <trkpt lat="45.47195" lon="2.83905">
        <ele>1186.6</ele>
      </trkpt>
      <trkpt lat="45.47203" lon="2.83889">
        <ele>1186.7</ele>
      </trkpt>
      <trkpt lat="45.47227" lon="2.83859">
        <ele>1186.9</ele>
      </trkpt>
      <trkpt lat="45.47249" lon="2.83837">
        <ele>1187</ele>
      </trkpt>
      <trkpt lat="45.47257" lon="2.83806">
        <ele>1187.7</ele>
      </trkpt>
      <trkpt lat="45.47257" lon="2.8378">
        <ele>1188.3</ele>
      </trkpt>
      <trkpt lat="45.47252" lon="2.83721">
        <ele>1189.3</ele>
      </trkpt>
      <trkpt lat="45.47244" lon="2.83694">
        <ele>1189.5</ele>
      </trkpt>
      <trkpt lat="45.47236" lon="2.83675">
        <ele>1189.4</ele>
      </trkpt>
      <trkpt lat="45.47234" lon="2.83662">
        <ele>1189.3</ele>
      </trkpt>
      <trkpt lat="45.47236" lon="2.83644">
        <ele>1189</ele>
      </trkpt>
      <trkpt lat="45.47254" lon="2.83593">
        <ele>1188.2</ele>
      </trkpt>
      <trkpt lat="45.47255" lon="2.83575">
        <ele>1187.8</ele>
      </trkpt>
      <trkpt lat="45.47252" lon="2.83533">
        <ele>1186.8</ele>
      </trkpt>
      <trkpt lat="45.4726" lon="2.8351">
        <ele>1186.3</ele>
      </trkpt>
      <trkpt lat="45.4727" lon="2.83492">
        <ele>1186.3</ele>
      </trkpt>
      <trkpt lat="45.47291" lon="2.8347">
        <ele>1186.8</ele>
      </trkpt>
      <trkpt lat="45.47297" lon="2.83432">
        <ele>1187.5</ele>
      </trkpt>
      <trkpt lat="45.47312" lon="2.83363">
        <ele>1187.6</ele>
      </trkpt>
      <trkpt lat="45.4733" lon="2.83333">
        <ele>1188.7</ele>
      </trkpt>
      <trkpt lat="45.47363" lon="2.83307">
        <ele>1190.8</ele>
      </trkpt>
      <trkpt lat="45.47418" lon="2.8325">
        <ele>1194.1</ele>
      </trkpt>
      <trkpt lat="45.47483" lon="2.83188">
        <ele>1199.8</ele>
      </trkpt>
      <trkpt lat="45.47505" lon="2.83166">
        <ele>1202</ele>
      </trkpt>
      <trkpt lat="45.47505" lon="2.83166">
        <ele>1202</ele>
      </trkpt>
      <trkpt lat="45.47552" lon="2.83118">
        <ele>1201.2</ele>
      </trkpt>
      <trkpt lat="45.47564" lon="2.83091">
        <ele>1200.7</ele>
      </trkpt>
      <trkpt lat="45.47572" lon="2.83058">
        <ele>1199.8</ele>
      </trkpt>
      <trkpt lat="45.47574" lon="2.82973">
        <ele>1196.7</ele>
      </trkpt>
      <trkpt lat="45.47573" lon="2.82925">
        <ele>1194.8</ele>
      </trkpt>
      <trkpt lat="45.47557" lon="2.82874">
        <ele>1191.8</ele>
      </trkpt>
      <trkpt lat="45.47551" lon="2.82848">
        <ele>1190.5</ele>
      </trkpt>
      <trkpt lat="45.47558" lon="2.82798">
        <ele>1189.3</ele>
      </trkpt>
      <trkpt lat="45.47583" lon="2.82706">
        <ele>1189.4</ele>
      </trkpt>
      <trkpt lat="45.47601" lon="2.82681">
        <ele>1190.1</ele>
      </trkpt>
      <trkpt lat="45.47628" lon="2.82658">
        <ele>1191.5</ele>
      </trkpt>
      <trkpt lat="45.47641" lon="2.82637">
        <ele>1192.1</ele>
      </trkpt>
      <trkpt lat="45.47641" lon="2.82605">
        <ele>1191.8</ele>
      </trkpt>
      <trkpt lat="45.4766" lon="2.82553">
        <ele>1189.9</ele>
      </trkpt>
      <trkpt lat="45.47676" lon="2.82532">
        <ele>1187.2</ele>
      </trkpt>
      <trkpt lat="45.477" lon="2.82512">
        <ele>1183.4</ele>
      </trkpt>
      <trkpt lat="45.4775" lon="2.82483">
        <ele>1177.6</ele>
      </trkpt>
      <trkpt lat="45.47767" lon="2.82471">
        <ele>1177.7</ele>
      </trkpt>
      <trkpt lat="45.47773" lon="2.82441">
        <ele>1176.2</ele>
      </trkpt>
      <trkpt lat="45.47769" lon="2.8243">
        <ele>1175.1</ele>
      </trkpt>
      <trkpt lat="45.47766" lon="2.82416">
        <ele>1174</ele>
      </trkpt>
      <trkpt lat="45.47763" lon="2.82411">
        <ele>1174.1</ele>
      </trkpt>
      <trkpt lat="45.47746" lon="2.82411">
        <ele>1172.3</ele>
      </trkpt>
      <trkpt lat="45.47725" lon="2.82375">
        <ele>1173.1</ele>
      </trkpt>
      <trkpt lat="45.47712" lon="2.82335">
        <ele>1173.5</ele>
      </trkpt>
      <trkpt lat="45.47712" lon="2.82312">
        <ele>1176.5</ele>
      </trkpt>
      <trkpt lat="45.47707" lon="2.823">
        <ele>1177.4</ele>
      </trkpt>
      <trkpt lat="45.47689" lon="2.82298">
        <ele>1174.9</ele>
      </trkpt>
      <trkpt lat="45.47684" lon="2.82294">
        <ele>1174.8</ele>
      </trkpt>
      <trkpt lat="45.47668" lon="2.82281">
        <ele>1174.4</ele>
      </trkpt>
      <trkpt lat="45.47643" lon="2.82252">
        <ele>1171.4</ele>
      </trkpt>
      <trkpt lat="45.47642" lon="2.82235">
        <ele>1173.8</ele>
      </trkpt>
      <trkpt lat="45.47606" lon="2.82209">
        <ele>1168.1</ele>
      </trkpt>
      <trkpt lat="45.47585" lon="2.82197">
        <ele>1164.9</ele>
      </trkpt>
      <trkpt lat="45.47569" lon="2.82171">
        <ele>1164.7</ele>
      </trkpt>
      <trkpt lat="45.47501" lon="2.82141">
        <ele>1144</ele>
      </trkpt>
      <trkpt lat="45.4746" lon="2.82108">
        <ele>1136.9</ele>
      </trkpt>
      <trkpt lat="45.47459" lon="2.82091">
        <ele>1138.8</ele>
      </trkpt>
      <trkpt lat="45.47445" lon="2.82041">
        <ele>1139.9</ele>
      </trkpt>
      <trkpt lat="45.47436" lon="2.81986">
        <ele>1144.5</ele>
      </trkpt>
      <trkpt lat="45.47417" lon="2.81966">
        <ele>1143.2</ele>
      </trkpt>
      <trkpt lat="45.47398" lon="2.81964">
        <ele>1137.9</ele>
      </trkpt>
      <trkpt lat="45.47358" lon="2.8194">
        <ele>1130.2</ele>
      </trkpt>
      <trkpt lat="45.47325" lon="2.81872">
        <ele>1130.5</ele>
      </trkpt>
      <trkpt lat="45.47288" lon="2.81825">
        <ele>1121.2</ele>
      </trkpt>
      <trkpt lat="45.47269" lon="2.81783">
        <ele>1116.8</ele>
      </trkpt>
      <trkpt lat="45.47243" lon="2.81805">
        <ele>1106.3</ele>
      </trkpt>
      <trkpt lat="45.47235" lon="2.818">
        <ele>1105.4</ele>
      </trkpt>
      <trkpt lat="45.4721" lon="2.81778">
        <ele>1101.2</ele>
      </trkpt>
      <trkpt lat="45.47196" lon="2.81761">
        <ele>1097.5</ele>
      </trkpt>
      <trkpt lat="45.4719" lon="2.81752">
        <ele>1095.5</ele>
      </trkpt>
      <trkpt lat="45.47187" lon="2.81744">
        <ele>1094.7</ele>
      </trkpt>
      <trkpt lat="45.47168" lon="2.81671">
        <ele>1090.3</ele>
      </trkpt>
      <trkpt lat="45.47165" lon="2.81653">
        <ele>1090.9</ele>
      </trkpt>
      <trkpt lat="45.47164" lon="2.81638">
        <ele>1091.9</ele>
      </trkpt>
      <trkpt lat="45.47144" lon="2.81591">
        <ele>1092.5</ele>
      </trkpt>
      <trkpt lat="45.47111" lon="2.81547">
        <ele>1086.2</ele>
      </trkpt>
      <trkpt lat="45.47083" lon="2.81502">
        <ele>1079.2</ele>
      </trkpt>
      <trkpt lat="45.47078" lon="2.81493">
        <ele>1080.1</ele>
      </trkpt>
      <trkpt lat="45.47074" lon="2.81476">
        <ele>1080.8</ele>
      </trkpt>
      <trkpt lat="45.4707" lon="2.81429">
        <ele>1080.9</ele>
      </trkpt>
      <trkpt lat="45.4707" lon="2.81425">
        <ele>1080.9</ele>
      </trkpt>
      <trkpt lat="45.47069" lon="2.81409">
        <ele>1081.1</ele>
      </trkpt>
      <trkpt lat="45.4706" lon="2.81327">
        <ele>1082.7</ele>
      </trkpt>
      <trkpt lat="45.47057" lon="2.81313">
        <ele>1082.7</ele>
      </trkpt>
      <trkpt lat="45.47043" lon="2.81275">
        <ele>1081.6</ele>
      </trkpt>
      <trkpt lat="45.47003" lon="2.81207">
        <ele>1077.4</ele>
      </trkpt>
      <trkpt lat="45.46983" lon="2.81179">
        <ele>1077.5</ele>
      </trkpt>
      <trkpt lat="45.46971" lon="2.81158">
        <ele>1077.3</ele>
      </trkpt>
      <trkpt lat="45.46962" lon="2.81102">
        <ele>1076.8</ele>
      </trkpt>
      <trkpt lat="45.46957" lon="2.81082">
        <ele>1076.4</ele>
      </trkpt>
      <trkpt lat="45.46947" lon="2.81062">
        <ele>1074.9</ele>
      </trkpt>
      <trkpt lat="45.46932" lon="2.81038">
        <ele>1072.4</ele>
      </trkpt>
      <trkpt lat="45.46928" lon="2.81029">
        <ele>1071.4</ele>
      </trkpt>
      <trkpt lat="45.46927" lon="2.81017">
        <ele>1070.5</ele>
      </trkpt>
      <trkpt lat="45.4693" lon="2.80958">
        <ele>1070.1</ele>
      </trkpt>
      <trkpt lat="45.46928" lon="2.80944">
        <ele>1069.8</ele>
      </trkpt>
      <trkpt lat="45.46925" lon="2.80932">
        <ele>1069.4</ele>
      </trkpt>
      <trkpt lat="45.46918" lon="2.80922">
        <ele>1068.2</ele>
      </trkpt>
      <trkpt lat="45.46904" lon="2.80909">
        <ele>1067.5</ele>
      </trkpt>
      <trkpt lat="45.46879" lon="2.80866">
        <ele>1066.6</ele>
      </trkpt>
      <trkpt lat="45.46872" lon="2.80849">
        <ele>1066.2</ele>
      </trkpt>
      <trkpt lat="45.46868" lon="2.80831">
        <ele>1066</ele>
      </trkpt>
      <trkpt lat="45.46856" lon="2.80759">
        <ele>1068.3</ele>
      </trkpt>
      <trkpt lat="45.4685" lon="2.80738">
        <ele>1068.9</ele>
      </trkpt>
      <trkpt lat="45.46841" lon="2.80717">
        <ele>1069.2</ele>
      </trkpt>
      <trkpt lat="45.46795" lon="2.80634">
        <ele>1066.9</ele>
      </trkpt>
      <trkpt lat="45.46773" lon="2.80584">
        <ele>1064.9</ele>
      </trkpt>
      <trkpt lat="45.46759" lon="2.80541">
        <ele>1062.6</ele>
      </trkpt>
      <trkpt lat="45.46743" lon="2.80496">
        <ele>1060.6</ele>
      </trkpt>
      <trkpt lat="45.46706" lon="2.80405">
        <ele>1060.7</ele>
      </trkpt>
      <trkpt lat="45.46691" lon="2.80357">
        <ele>1060.2</ele>
      </trkpt>
      <trkpt lat="45.46684" lon="2.80317">
        <ele>1060.2</ele>
      </trkpt>
      <trkpt lat="45.46676" lon="2.80222">
        <ele>1062.4</ele>
      </trkpt>
      <trkpt lat="45.46674" lon="2.80188">
        <ele>1063.3</ele>
      </trkpt>
      <trkpt lat="45.46674" lon="2.80168">
        <ele>1064.1</ele>
      </trkpt>
      <trkpt lat="45.46679" lon="2.8012">
        <ele>1066.7</ele>
      </trkpt>
      <trkpt lat="45.46678" lon="2.80105">
        <ele>1066.8</ele>
      </trkpt>
      <trkpt lat="45.46675" lon="2.80091">
        <ele>1066.2</ele>
      </trkpt>
      <trkpt lat="45.46668" lon="2.80069">
        <ele>1065.4</ele>
      </trkpt>
      <trkpt lat="45.46659" lon="2.80046">
        <ele>1065.4</ele>
      </trkpt>
      <trkpt lat="45.46625" lon="2.79982">
        <ele>1063.6</ele>
      </trkpt>
      <trkpt lat="45.466" lon="2.79935">
        <ele>1063.3</ele>
      </trkpt>
      <trkpt lat="45.46574" lon="2.79897">
        <ele>1062</ele>
      </trkpt>
      <trkpt lat="45.46561" lon="2.79877">
        <ele>1060.8</ele>
      </trkpt>
      <trkpt lat="45.46559" lon="2.79873">
        <ele>1060.7</ele>
      </trkpt>
      <trkpt lat="45.46556" lon="2.79864">
        <ele>1060.5</ele>
      </trkpt>
      <trkpt lat="45.46551" lon="2.79845">
        <ele>1060.5</ele>
      </trkpt>
      <trkpt lat="45.46537" lon="2.79779">
        <ele>1058.4</ele>
      </trkpt>
      <trkpt lat="45.46444" lon="2.79568">
        <ele>1051.5</ele>
      </trkpt>
      <trkpt lat="45.46441" lon="2.79513">
        <ele>1052.1</ele>
      </trkpt>
      <trkpt lat="45.46431" lon="2.79458">
        <ele>1052.2</ele>
      </trkpt>
      <trkpt lat="45.46414" lon="2.79331">
        <ele>1052.9</ele>
      </trkpt>
      <trkpt lat="45.46426" lon="2.79266">
        <ele>1061.5</ele>
      </trkpt>
      <trkpt lat="45.46432" lon="2.79157">
        <ele>1074.6</ele>
      </trkpt>
      <trkpt lat="45.46422" lon="2.79117">
        <ele>1075.5</ele>
      </trkpt>
      <trkpt lat="45.46404" lon="2.79089">
        <ele>1074.7</ele>
      </trkpt>
      <trkpt lat="45.46381" lon="2.79025">
        <ele>1075.6</ele>
      </trkpt>
      <trkpt lat="45.46359" lon="2.7898">
        <ele>1074.1</ele>
      </trkpt>
      <trkpt lat="45.46348" lon="2.78933">
        <ele>1074.4</ele>
      </trkpt>
      <trkpt lat="45.46332" lon="2.78897">
        <ele>1073.4</ele>
      </trkpt>
      <trkpt lat="45.46328" lon="2.78886">
        <ele>1073.5</ele>
      </trkpt>
      <trkpt lat="45.46325" lon="2.78878">
        <ele>1073.7</ele>
      </trkpt>
      <trkpt lat="45.46297" lon="2.78876">
        <ele>1073.1</ele>
      </trkpt>
      <trkpt lat="45.46269" lon="2.78834">
        <ele>1076.5</ele>
      </trkpt>
      <trkpt lat="45.46278" lon="2.78814">
        <ele>1077.6</ele>
      </trkpt>
      <trkpt lat="45.46283" lon="2.78797">
        <ele>1078.6</ele>
      </trkpt>
      <trkpt lat="45.46282" lon="2.7874">
        <ele>1082</ele>
      </trkpt>
      <trkpt lat="45.46277" lon="2.78696">
        <ele>1083.6</ele>
      </trkpt>
      <trkpt lat="45.4627" lon="2.78661">
        <ele>1084.9</ele>
      </trkpt>
      <trkpt lat="45.46294" lon="2.78636">
        <ele>1083.9</ele>
      </trkpt>
      <trkpt lat="45.46316" lon="2.78614">
        <ele>1083.9</ele>
      </trkpt>
      <trkpt lat="45.46421" lon="2.78536">
        <ele>1101.5</ele>
      </trkpt>
      <trkpt lat="45.46436" lon="2.78521">
        <ele>1107.6</ele>
      </trkpt>
      <trkpt lat="45.4644" lon="2.78503">
        <ele>1110.8</ele>
      </trkpt>
      <trkpt lat="45.46431" lon="2.78483">
        <ele>1110.7</ele>
      </trkpt>
      <trkpt lat="45.4646" lon="2.78462">
        <ele>1121.3</ele>
      </trkpt>
      <trkpt lat="45.46518" lon="2.78458">
        <ele>1137.6</ele>
      </trkpt>
      <trkpt lat="45.46529" lon="2.78437">
        <ele>1143</ele>
      </trkpt>
      <trkpt lat="45.46515" lon="2.78417">
        <ele>1142.4</ele>
      </trkpt>
      <trkpt lat="45.46516" lon="2.7839">
        <ele>1146</ele>
      </trkpt>
      <trkpt lat="45.46505" lon="2.78328">
        <ele>1151.7</ele>
      </trkpt>
      <trkpt lat="45.465" lon="2.78303">
        <ele>1154</ele>
      </trkpt>
      <trkpt lat="45.46503" lon="2.78287">
        <ele>1156.6</ele>
      </trkpt>
      <trkpt lat="45.46521" lon="2.78281">
        <ele>1160.1</ele>
      </trkpt>
      <trkpt lat="45.46532" lon="2.78268">
        <ele>1163</ele>
      </trkpt>
      <trkpt lat="45.46558" lon="2.78252">
        <ele>1167.8</ele>
      </trkpt>
      <trkpt lat="45.46573" lon="2.7825">
        <ele>1169.8</ele>
      </trkpt>
      <trkpt lat="45.46589" lon="2.78247">
        <ele>1172.3</ele>
      </trkpt>
      <trkpt lat="45.46577" lon="2.78187">
        <ele>1174.7</ele>
      </trkpt>
      <trkpt lat="45.46566" lon="2.78162">
        <ele>1174.8</ele>
      </trkpt>
      <trkpt lat="45.46543" lon="2.78116">
        <ele>1172.6</ele>
      </trkpt>
      <trkpt lat="45.4654" lon="2.78085">
        <ele>1172.7</ele>
      </trkpt>
      <trkpt lat="45.46536" lon="2.78059">
        <ele>1172.5</ele>
      </trkpt>
      <trkpt lat="45.46523" lon="2.78032">
        <ele>1171.2</ele>
      </trkpt>
      <trkpt lat="45.46513" lon="2.78006">
        <ele>1170.4</ele>
      </trkpt>
      <trkpt lat="45.46507" lon="2.77986">
        <ele>1170.5</ele>
      </trkpt>
      <trkpt lat="45.46504" lon="2.77939">
        <ele>1172.3</ele>
      </trkpt>
      <trkpt lat="45.46503" lon="2.77902">
        <ele>1173.8</ele>
      </trkpt>
      <trkpt lat="45.46492" lon="2.77864">
        <ele>1174.2</ele>
      </trkpt>
      <trkpt lat="45.46487" lon="2.77846">
        <ele>1174.3</ele>
      </trkpt>
      <trkpt lat="45.46473" lon="2.77811">
        <ele>1173.1</ele>
      </trkpt>
      <trkpt lat="45.46466" lon="2.77785">
        <ele>1172.2</ele>
      </trkpt>
      <trkpt lat="45.46464" lon="2.77753">
        <ele>1171.6</ele>
      </trkpt>
      <trkpt lat="45.46463" lon="2.77744">
        <ele>1171.3</ele>
      </trkpt>
      <trkpt lat="45.46468" lon="2.77702">
        <ele>1170.6</ele>
      </trkpt>
      <trkpt lat="45.46464" lon="2.77662">
        <ele>1169.5</ele>
      </trkpt>
      <trkpt lat="45.4646" lon="2.77618">
        <ele>1170</ele>
      </trkpt>
      <trkpt lat="45.46463" lon="2.77593">
        <ele>1170.6</ele>
      </trkpt>
      <trkpt lat="45.46469" lon="2.77546">
        <ele>1168.4</ele>
      </trkpt>
      <trkpt lat="45.46496" lon="2.77455">
        <ele>1163.7</ele>
      </trkpt>
      <trkpt lat="45.46527" lon="2.77359">
        <ele>1155.5</ele>
      </trkpt>
      <trkpt lat="45.4655" lon="2.77318">
        <ele>1151.5</ele>
      </trkpt>
      <trkpt lat="45.46565" lon="2.77291">
        <ele>1149.6</ele>
      </trkpt>
      <trkpt lat="45.46557" lon="2.77237">
        <ele>1146.9</ele>
      </trkpt>
      <trkpt lat="45.46546" lon="2.77189">
        <ele>1143</ele>
      </trkpt>
      <trkpt lat="45.46527" lon="2.7712">
        <ele>1137.3</ele>
      </trkpt>
      <trkpt lat="45.46525" lon="2.77068">
        <ele>1133.7</ele>
      </trkpt>
      <trkpt lat="45.46519" lon="2.77061">
        <ele>1133.3</ele>
      </trkpt>
      <trkpt lat="45.46469" lon="2.77042">
        <ele>1127.4</ele>
      </trkpt>
      <trkpt lat="45.46465" lon="2.77037">
        <ele>1126.6</ele>
      </trkpt>
      <trkpt lat="45.46465" lon="2.77027">
        <ele>1126.4</ele>
      </trkpt>
      <trkpt lat="45.46468" lon="2.77013">
        <ele>1126.5</ele>
      </trkpt>
      <trkpt lat="45.4647" lon="2.77007">
        <ele>1126.6</ele>
      </trkpt>
      <trkpt lat="45.46473" lon="2.77009">
        <ele>1127</ele>
      </trkpt>
      <trkpt lat="45.46482" lon="2.77006">
        <ele>1128.1</ele>
      </trkpt>
      <trkpt lat="45.46481" lon="2.76992">
        <ele>1127.7</ele>
      </trkpt>
      <trkpt lat="45.46473" lon="2.76949">
        <ele>1126.6</ele>
      </trkpt>
      <trkpt lat="45.46452" lon="2.76898">
        <ele>1123.3</ele>
      </trkpt>
      <trkpt lat="45.46449" lon="2.76883">
        <ele>1122.7</ele>
      </trkpt>
      <trkpt lat="45.46447" lon="2.76876">
        <ele>1122.3</ele>
      </trkpt>
      <trkpt lat="45.46444" lon="2.76868">
        <ele>1121.8</ele>
      </trkpt>
      <trkpt lat="45.46436" lon="2.76862">
        <ele>1120.7</ele>
      </trkpt>
      <trkpt lat="45.46426" lon="2.76854">
        <ele>1119.4</ele>
      </trkpt>
      <trkpt lat="45.46428" lon="2.76835">
        <ele>1119.4</ele>
      </trkpt>
      <trkpt lat="45.4643" lon="2.76812">
        <ele>1119.2</ele>
      </trkpt>
      <trkpt lat="45.46428" lon="2.76793">
        <ele>1118.7</ele>
      </trkpt>
      <trkpt lat="45.46425" lon="2.76784">
        <ele>1118.2</ele>
      </trkpt>
      <trkpt lat="45.4642" lon="2.76768">
        <ele>1117.5</ele>
      </trkpt>
      <trkpt lat="45.46427" lon="2.76741">
        <ele>1117.8</ele>
      </trkpt>
      <trkpt lat="45.46428" lon="2.76715">
        <ele>1117.8</ele>
      </trkpt>
      <trkpt lat="45.46412" lon="2.76613">
        <ele>1117.8</ele>
      </trkpt>
      <trkpt lat="45.4641" lon="2.76581">
        <ele>1118.6</ele>
      </trkpt>
      <trkpt lat="45.46413" lon="2.76547">
        <ele>1118.5</ele>
      </trkpt>
      <trkpt lat="45.46429" lon="2.76495">
        <ele>1117.8</ele>
      </trkpt>
      <trkpt lat="45.46444" lon="2.76453">
        <ele>1117.3</ele>
      </trkpt>
      <trkpt lat="45.46442" lon="2.76434">
        <ele>1117.1</ele>
      </trkpt>
      <trkpt lat="45.46447" lon="2.76415">
        <ele>1117</ele>
      </trkpt>
      <trkpt lat="45.46451" lon="2.764">
        <ele>1117.1</ele>
      </trkpt>
      <trkpt lat="45.46449" lon="2.76384">
        <ele>1117.2</ele>
      </trkpt>
      <trkpt lat="45.46446" lon="2.76348">
        <ele>1117.5</ele>
      </trkpt>
      <trkpt lat="45.46457" lon="2.76246">
        <ele>1115.5</ele>
      </trkpt>
      <trkpt lat="45.46455" lon="2.76236">
        <ele>1115.5</ele>
      </trkpt>
      <trkpt lat="45.4641" lon="2.76132">
        <ele>1116</ele>
      </trkpt>
      <trkpt lat="45.46401" lon="2.76093">
        <ele>1116.7</ele>
      </trkpt>
      <trkpt lat="45.46369" lon="2.76023">
        <ele>1114</ele>
      </trkpt>
      <trkpt lat="45.46347" lon="2.75941">
        <ele>1109.7</ele>
      </trkpt>
      <trkpt lat="45.46322" lon="2.75871">
        <ele>1106.4</ele>
      </trkpt>
      <trkpt lat="45.46336" lon="2.7581">
        <ele>1100.4</ele>
      </trkpt>
      <trkpt lat="45.46309" lon="2.75719">
        <ele>1103</ele>
      </trkpt>
      <trkpt lat="45.46289" lon="2.7567">
        <ele>1105.2</ele>
      </trkpt>
      <trkpt lat="45.4628" lon="2.75591">
        <ele>1099.8</ele>
      </trkpt>
      <trkpt lat="45.46273" lon="2.75536">
        <ele>1096</ele>
      </trkpt>
      <trkpt lat="45.4624" lon="2.75459">
        <ele>1093.5</ele>
      </trkpt>
      <trkpt lat="45.46221" lon="2.75367">
        <ele>1091.6</ele>
      </trkpt>
      <trkpt lat="45.46221" lon="2.75337">
        <ele>1091.1</ele>
      </trkpt>
      <trkpt lat="45.46222" lon="2.75267">
        <ele>1087.6</ele>
      </trkpt>
      <trkpt lat="45.46237" lon="2.75173">
        <ele>1085</ele>
      </trkpt>
      <trkpt lat="45.46254" lon="2.75072">
        <ele>1085.5</ele>
      </trkpt>
      <trkpt lat="45.46288" lon="2.75034">
        <ele>1083.1</ele>
      </trkpt>
      <trkpt lat="45.46344" lon="2.75009">
        <ele>1080.3</ele>
      </trkpt>
      <trkpt lat="45.46376" lon="2.75022">
        <ele>1078.3</ele>
      </trkpt>
      <trkpt lat="45.46411" lon="2.75024">
        <ele>1076.1</ele>
      </trkpt>
      <trkpt lat="45.4645" lon="2.75043">
        <ele>1072.7</ele>
      </trkpt>
      <trkpt lat="45.46458" lon="2.75064">
        <ele>1072.3</ele>
      </trkpt>
      <trkpt lat="45.46456" lon="2.75132">
        <ele>1072.9</ele>
      </trkpt>
      <trkpt lat="45.46459" lon="2.75226">
        <ele>1071.9</ele>
      </trkpt>
      <trkpt lat="45.46476" lon="2.75293">
        <ele>1071.8</ele>
      </trkpt>
      <trkpt lat="45.46485" lon="2.75321">
        <ele>1072.3</ele>
      </trkpt>
      <trkpt lat="45.46552" lon="2.75319">
        <ele>1071.6</ele>
      </trkpt>
      <trkpt lat="45.46635" lon="2.75366">
        <ele>1078.8</ele>
      </trkpt>
      <trkpt lat="45.46643" lon="2.75367">
        <ele>1079.8</ele>
      </trkpt>
      <trkpt lat="45.46657" lon="2.75358">
        <ele>1080.6</ele>
      </trkpt>
      <trkpt lat="45.46699" lon="2.75323">
        <ele>1081.1</ele>
      </trkpt>
      <trkpt lat="45.4672" lon="2.75319">
        <ele>1082.7</ele>
      </trkpt>
      <trkpt lat="45.46733" lon="2.75292">
        <ele>1081.1</ele>
      </trkpt>
      <trkpt lat="45.4674" lon="2.75271">
        <ele>1079.5</ele>
      </trkpt>
      <trkpt lat="45.46744" lon="2.75249">
        <ele>1077.6</ele>
      </trkpt>
      <trkpt lat="45.46746" lon="2.75233">
        <ele>1078.3</ele>
      </trkpt>
      <trkpt lat="45.46783" lon="2.75249">
        <ele>1081.2</ele>
      </trkpt>
      <trkpt lat="45.46792" lon="2.75246">
        <ele>1082.1</ele>
      </trkpt>
      <trkpt lat="45.468" lon="2.75226">
        <ele>1083</ele>
      </trkpt>
      <trkpt lat="45.46814" lon="2.75203">
        <ele>1084.1</ele>
      </trkpt>
      <trkpt lat="45.46841" lon="2.7519">
        <ele>1085.7</ele>
      </trkpt>
      <trkpt lat="45.46868" lon="2.75196">
        <ele>1087.3</ele>
      </trkpt>
      <trkpt lat="45.46902" lon="2.75178">
        <ele>1088.7</ele>
      </trkpt>
      <trkpt lat="45.46946" lon="2.75174">
        <ele>1089</ele>
      </trkpt>
      <trkpt lat="45.46968" lon="2.75186">
        <ele>1089.4</ele>
      </trkpt>
      <trkpt lat="45.46988" lon="2.752">
        <ele>1090</ele>
      </trkpt>
      <trkpt lat="45.47021" lon="2.75234">
        <ele>1089.6</ele>
      </trkpt>
      <trkpt lat="45.47069" lon="2.75265">
        <ele>1086.8</ele>
      </trkpt>
      <trkpt lat="45.47082" lon="2.75367">
        <ele>1094.8</ele>
      </trkpt>
      <trkpt lat="45.47098" lon="2.75464">
        <ele>1099.4</ele>
      </trkpt>
      <trkpt lat="45.47116" lon="2.75497">
        <ele>1100.3</ele>
      </trkpt>
      <trkpt lat="45.47156" lon="2.75546">
        <ele>1102.4</ele>
      </trkpt>
      <trkpt lat="45.47156" lon="2.75547">
        <ele>1102.4</ele>
      </trkpt>
      <trkpt lat="45.47172" lon="2.75561">
        <ele>1103.2</ele>
      </trkpt>
      <trkpt lat="45.47232" lon="2.75609">
        <ele>1104.8</ele>
      </trkpt>
      <trkpt lat="45.47275" lon="2.75654">
        <ele>1104.5</ele>
      </trkpt>
      <trkpt lat="45.47311" lon="2.75699">
        <ele>1104.6</ele>
      </trkpt>
      <trkpt lat="45.47359" lon="2.75784">
        <ele>1102.7</ele>
      </trkpt>
      <trkpt lat="45.47371" lon="2.75852">
        <ele>1105.3</ele>
      </trkpt>
      <trkpt lat="45.47394" lon="2.75969">
        <ele>1108.4</ele>
      </trkpt>
      <trkpt lat="45.47404" lon="2.76035">
        <ele>1109.3</ele>
      </trkpt>
      <trkpt lat="45.47463" lon="2.76103">
        <ele>1106.7</ele>
      </trkpt>
      <trkpt lat="45.4748" lon="2.76127">
        <ele>1106.1</ele>
      </trkpt>
      <trkpt lat="45.47495" lon="2.76149">
        <ele>1105.7</ele>
      </trkpt>
      <trkpt lat="45.47513" lon="2.76133">
        <ele>1104.3</ele>
      </trkpt>
      <trkpt lat="45.47541" lon="2.76169">
        <ele>1104.6</ele>
      </trkpt>
      <trkpt lat="45.47585" lon="2.76204">
        <ele>1103.8</ele>
      </trkpt>
      <trkpt lat="45.47599" lon="2.76223">
        <ele>1103.4</ele>
      </trkpt>
      <trkpt lat="45.47611" lon="2.76246">
        <ele>1103.2</ele>
      </trkpt>
      <trkpt lat="45.47646" lon="2.76287">
        <ele>1102.5</ele>
      </trkpt>
      <trkpt lat="45.47667" lon="2.76331">
        <ele>1102.9</ele>
      </trkpt>
      <trkpt lat="45.47678" lon="2.76367">
        <ele>1103.6</ele>
      </trkpt>
      <trkpt lat="45.47691" lon="2.76429">
        <ele>1104.9</ele>
      </trkpt>
      <trkpt lat="45.47715" lon="2.76481">
        <ele>1106.7</ele>
      </trkpt>
      <trkpt lat="45.47748" lon="2.7651">
        <ele>1109.4</ele>
      </trkpt>
      <trkpt lat="45.47768" lon="2.76542">
        <ele>1111.4</ele>
      </trkpt>
      <trkpt lat="45.47782" lon="2.76575">
        <ele>1113.7</ele>
      </trkpt>
      <trkpt lat="45.47792" lon="2.76643">
        <ele>1119.2</ele>
      </trkpt>
      <trkpt lat="45.47805" lon="2.76747">
        <ele>1129.3</ele>
      </trkpt>
      <trkpt lat="45.47811" lon="2.76758">
        <ele>1130.9</ele>
      </trkpt>
      <trkpt lat="45.47831" lon="2.76762">
        <ele>1133</ele>
      </trkpt>
      <trkpt lat="45.4784" lon="2.76771">
        <ele>1134.7</ele>
      </trkpt>
      <trkpt lat="45.47878" lon="2.76796">
        <ele>1140.7</ele>
      </trkpt>
      <trkpt lat="45.47882" lon="2.76832">
        <ele>1144.5</ele>
      </trkpt>
      <trkpt lat="45.47896" lon="2.76857">
        <ele>1149.6</ele>
      </trkpt>
      <trkpt lat="45.47949" lon="2.76861">
        <ele>1156.8</ele>
      </trkpt>
      <trkpt lat="45.47978" lon="2.76843">
        <ele>1157.2</ele>
      </trkpt>
      <trkpt lat="45.47999" lon="2.76847">
        <ele>1160.5</ele>
      </trkpt>
      <trkpt lat="45.4804" lon="2.76876">
        <ele>1166.4</ele>
      </trkpt>
      <trkpt lat="45.48071" lon="2.76907">
        <ele>1172.2</ele>
      </trkpt>
      <trkpt lat="45.481" lon="2.76927">
        <ele>1172.5</ele>
      </trkpt>
      <trkpt lat="45.48118" lon="2.76952">
        <ele>1172.4</ele>
      </trkpt>
      <trkpt lat="45.48128" lon="2.76978">
        <ele>1173.8</ele>
      </trkpt>
      <trkpt lat="45.48134" lon="2.76996">
        <ele>1175</ele>
      </trkpt>
      <trkpt lat="45.48156" lon="2.77154">
        <ele>1185.1</ele>
      </trkpt>
      <trkpt lat="45.48181" lon="2.77225">
        <ele>1183.6</ele>
      </trkpt>
      <trkpt lat="45.48235" lon="2.77335">
        <ele>1177.5</ele>
      </trkpt>
      <trkpt lat="45.4825" lon="2.77375">
        <ele>1176.5</ele>
      </trkpt>
      <trkpt lat="45.4826" lon="2.77432">
        <ele>1175.1</ele>
      </trkpt>
      <trkpt lat="45.48271" lon="2.77454">
        <ele>1173.3</ele>
      </trkpt>
      <trkpt lat="45.48328" lon="2.77512">
        <ele>1170.2</ele>
      </trkpt>
      <trkpt lat="45.4832" lon="2.77577">
        <ele>1170.5</ele>
      </trkpt>
      <trkpt lat="45.48355" lon="2.77569">
        <ele>1169.4</ele>
      </trkpt>
      <trkpt lat="45.48381" lon="2.77559">
        <ele>1168.5</ele>
      </trkpt>
      <trkpt lat="45.48423" lon="2.77525">
        <ele>1167.4</ele>
      </trkpt>
      <trkpt lat="45.48451" lon="2.77505">
        <ele>1170.6</ele>
      </trkpt>
      <trkpt lat="45.48461" lon="2.77503">
        <ele>1171.9</ele>
      </trkpt>
      <trkpt lat="45.48469" lon="2.77507">
        <ele>1173</ele>
      </trkpt>
      <trkpt lat="45.48478" lon="2.77516">
        <ele>1174.3</ele>
      </trkpt>
      <trkpt lat="45.48506" lon="2.77626">
        <ele>1177.7</ele>
      </trkpt>
      <trkpt lat="45.48518" lon="2.77661">
        <ele>1178.7</ele>
      </trkpt>
      <trkpt lat="45.48548" lon="2.77714">
        <ele>1182.7</ele>
      </trkpt>
      <trkpt lat="45.48587" lon="2.77759">
        <ele>1188.2</ele>
      </trkpt>
      <trkpt lat="45.48594" lon="2.77761">
        <ele>1189.3</ele>
      </trkpt>
      <trkpt lat="45.486" lon="2.77761">
        <ele>1190.3</ele>
      </trkpt>
      <trkpt lat="45.48623" lon="2.7772">
        <ele>1193</ele>
      </trkpt>
      <trkpt lat="45.48642" lon="2.7771">
        <ele>1194.8</ele>
      </trkpt>
      <trkpt lat="45.48676" lon="2.77727">
        <ele>1199</ele>
      </trkpt>
      <trkpt lat="45.48688" lon="2.77721">
        <ele>1198.5</ele>
      </trkpt>
      <trkpt lat="45.48698" lon="2.7772">
        <ele>1198.3</ele>
      </trkpt>
      <trkpt lat="45.48741" lon="2.7775">
        <ele>1201</ele>
      </trkpt>
      <trkpt lat="45.48779" lon="2.77786">
        <ele>1198.3</ele>
      </trkpt>
      <trkpt lat="45.48815" lon="2.77811">
        <ele>1193.4</ele>
      </trkpt>
      <trkpt lat="45.48831" lon="2.77825">
        <ele>1191.7</ele>
      </trkpt>
      <trkpt lat="45.48876" lon="2.77852">
        <ele>1191.2</ele>
      </trkpt>
      <trkpt lat="45.48887" lon="2.77852">
        <ele>1190.4</ele>
      </trkpt>
      <trkpt lat="45.48895" lon="2.77858">
        <ele>1190</ele>
      </trkpt>
      <trkpt lat="45.48907" lon="2.77849">
        <ele>1188.8</ele>
      </trkpt>
      <trkpt lat="45.48914" lon="2.77852">
        <ele>1188.4</ele>
      </trkpt>
      <trkpt lat="45.48928" lon="2.7787">
        <ele>1188.9</ele>
      </trkpt>
      <trkpt lat="45.48933" lon="2.77878">
        <ele>1189.2</ele>
      </trkpt>
      <trkpt lat="45.48968" lon="2.77893">
        <ele>1190.7</ele>
      </trkpt>
      <trkpt lat="45.48991" lon="2.77897">
        <ele>1191.7</ele>
      </trkpt>
      <trkpt lat="45.49001" lon="2.77892">
        <ele>1192.1</ele>
      </trkpt>
      <trkpt lat="45.4903" lon="2.77892">
        <ele>1193.6</ele>
      </trkpt>
      <trkpt lat="45.4906" lon="2.77896">
        <ele>1195.2</ele>
      </trkpt>
      <trkpt lat="45.49082" lon="2.77911">
        <ele>1196.8</ele>
      </trkpt>
      <trkpt lat="45.49102" lon="2.7792">
        <ele>1195.1</ele>
      </trkpt>
      <trkpt lat="45.49114" lon="2.77948">
        <ele>1194.6</ele>
      </trkpt>
      <trkpt lat="45.49123" lon="2.77979">
        <ele>1194.3</ele>
      </trkpt>
      <trkpt lat="45.49129" lon="2.77977">
        <ele>1193.4</ele>
      </trkpt>
      <trkpt lat="45.49135" lon="2.77979">
        <ele>1192.6</ele>
      </trkpt>
      <trkpt lat="45.49142" lon="2.77989">
        <ele>1191.7</ele>
      </trkpt>
      <trkpt lat="45.49147" lon="2.78001">
        <ele>1191.1</ele>
      </trkpt>
      <trkpt lat="45.49168" lon="2.78084">
        <ele>1192.8</ele>
      </trkpt>
      <trkpt lat="45.49178" lon="2.78135">
        <ele>1195.1</ele>
      </trkpt>
      <trkpt lat="45.49189" lon="2.78154">
        <ele>1194.3</ele>
      </trkpt>
      <trkpt lat="45.49196" lon="2.78159">
        <ele>1193.1</ele>
      </trkpt>
      <trkpt lat="45.49206" lon="2.78162">
        <ele>1191.2</ele>
      </trkpt>
      <trkpt lat="45.49217" lon="2.78157">
        <ele>1188.6</ele>
      </trkpt>
      <trkpt lat="45.49249" lon="2.78116">
        <ele>1180.4</ele>
      </trkpt>
      <trkpt lat="45.49262" lon="2.78102">
        <ele>1179.3</ele>
      </trkpt>
      <trkpt lat="45.49301" lon="2.78074">
        <ele>1177.8</ele>
      </trkpt>
      <trkpt lat="45.49311" lon="2.78061">
        <ele>1177.8</ele>
      </trkpt>
      <trkpt lat="45.49318" lon="2.78048">
        <ele>1177.9</ele>
      </trkpt>
      <trkpt lat="45.49323" lon="2.78031">
        <ele>1178.2</ele>
      </trkpt>
      <trkpt lat="45.49332" lon="2.77984">
        <ele>1179.3</ele>
      </trkpt>
      <trkpt lat="45.49331" lon="2.77968">
        <ele>1179.7</ele>
      </trkpt>
      <trkpt lat="45.49331" lon="2.77953">
        <ele>1180</ele>
      </trkpt>
      <trkpt lat="45.49327" lon="2.77913">
        <ele>1180.5</ele>
      </trkpt>
      <trkpt lat="45.49317" lon="2.77862">
        <ele>1177.3</ele>
      </trkpt>
      <trkpt lat="45.49321" lon="2.77851">
        <ele>1176.8</ele>
      </trkpt>
      <trkpt lat="45.49331" lon="2.77843">
        <ele>1176.5</ele>
      </trkpt>
      <trkpt lat="45.49341" lon="2.77845">
        <ele>1175.6</ele>
      </trkpt>
      <trkpt lat="45.49355" lon="2.77852">
        <ele>1174</ele>
      </trkpt>
      <trkpt lat="45.49389" lon="2.77891">
        <ele>1173.1</ele>
      </trkpt>
      <trkpt lat="45.4941" lon="2.77907">
        <ele>1172.5</ele>
      </trkpt>
      <trkpt lat="45.49426" lon="2.77911">
        <ele>1171.8</ele>
      </trkpt>
      <trkpt lat="45.49453" lon="2.77906">
        <ele>1170</ele>
      </trkpt>
      <trkpt lat="45.49492" lon="2.77885">
        <ele>1167.4</ele>
      </trkpt>
      <trkpt lat="45.49506" lon="2.77875">
        <ele>1167.8</ele>
      </trkpt>
      <trkpt lat="45.49588" lon="2.77816">
        <ele>1175</ele>
      </trkpt>
      <trkpt lat="45.49636" lon="2.7778">
        <ele>1173.6</ele>
      </trkpt>
      <trkpt lat="45.49639" lon="2.77782">
        <ele>1173.7</ele>
      </trkpt>
      <trkpt lat="45.49641" lon="2.77786">
        <ele>1173.9</ele>
      </trkpt>
      <trkpt lat="45.49644" lon="2.77802">
        <ele>1174.7</ele>
      </trkpt>
      <trkpt lat="45.49648" lon="2.77809">
        <ele>1175</ele>
      </trkpt>
      <trkpt lat="45.49654" lon="2.77829">
        <ele>1175.8</ele>
      </trkpt>
      <trkpt lat="45.4966" lon="2.77836">
        <ele>1176.2</ele>
      </trkpt>
      <trkpt lat="45.49671" lon="2.77856">
        <ele>1178.4</ele>
      </trkpt>
      <trkpt lat="45.49678" lon="2.77876">
        <ele>1180.5</ele>
      </trkpt>
      <trkpt lat="45.49689" lon="2.77899">
        <ele>1182.5</ele>
      </trkpt>
      <trkpt lat="45.497" lon="2.77912">
        <ele>1183.3</ele>
      </trkpt>
      <trkpt lat="45.49716" lon="2.77943">
        <ele>1185</ele>
      </trkpt>
      <trkpt lat="45.49721" lon="2.77956">
        <ele>1185.8</ele>
      </trkpt>
      <trkpt lat="45.49723" lon="2.77978">
        <ele>1187.1</ele>
      </trkpt>
      <trkpt lat="45.49747" lon="2.78025">
        <ele>1192.4</ele>
      </trkpt>
      <trkpt lat="45.4975" lon="2.78045">
        <ele>1195.5</ele>
      </trkpt>
      <trkpt lat="45.49754" lon="2.78052">
        <ele>1196.3</ele>
      </trkpt>
      <trkpt lat="45.49761" lon="2.78055">
        <ele>1196.4</ele>
      </trkpt>
      <trkpt lat="45.49765" lon="2.78061">
        <ele>1196.9</ele>
      </trkpt>
      <trkpt lat="45.49767" lon="2.78071">
        <ele>1198.2</ele>
      </trkpt>
      <trkpt lat="45.49767" lon="2.78116">
        <ele>1204.3</ele>
      </trkpt>
      <trkpt lat="45.49769" lon="2.78136">
        <ele>1207</ele>
      </trkpt>
      <trkpt lat="45.49762" lon="2.7817">
        <ele>1211.6</ele>
      </trkpt>
      <trkpt lat="45.49768" lon="2.78182">
        <ele>1213.5</ele>
      </trkpt>
      <trkpt lat="45.49772" lon="2.78185">
        <ele>1214</ele>
      </trkpt>
      <trkpt lat="45.49778" lon="2.78185">
        <ele>1214.1</ele>
      </trkpt>
      <trkpt lat="45.49791" lon="2.78192">
        <ele>1215.4</ele>
      </trkpt>
      <trkpt lat="45.49805" lon="2.7819">
        <ele>1215.4</ele>
      </trkpt>
      <trkpt lat="45.49813" lon="2.78192">
        <ele>1215.9</ele>
      </trkpt>
      <trkpt lat="45.49829" lon="2.78219">
        <ele>1220.7</ele>
      </trkpt>
      <trkpt lat="45.49856" lon="2.78244">
        <ele>1221.8</ele>
      </trkpt>
      <trkpt lat="45.49889" lon="2.78288">
        <ele>1224.5</ele>
      </trkpt>
      <trkpt lat="45.49905" lon="2.78302">
        <ele>1224.5</ele>
      </trkpt>
      <trkpt lat="45.49915" lon="2.78307">
        <ele>1223.8</ele>
      </trkpt>
      <trkpt lat="45.49939" lon="2.78331">
        <ele>1226.6</ele>
      </trkpt>
      <trkpt lat="45.49952" lon="2.78358">
        <ele>1231.3</ele>
      </trkpt>
      <trkpt lat="45.49955" lon="2.78375">
        <ele>1234.5</ele>
      </trkpt>
      <trkpt lat="45.49956" lon="2.78401">
        <ele>1239.6</ele>
      </trkpt>
      <trkpt lat="45.4998" lon="2.78439">
        <ele>1245.2</ele>
      </trkpt>
      <trkpt lat="45.50024" lon="2.78486">
        <ele>1248.9</ele>
      </trkpt>
      <trkpt lat="45.50053" lon="2.78546">
        <ele>1252.3</ele>
      </trkpt>
      <trkpt lat="45.50069" lon="2.78587">
        <ele>1256.6</ele>
      </trkpt>
      <trkpt lat="45.5008" lon="2.78638">
        <ele>1262.7</ele>
      </trkpt>
      <trkpt lat="45.50089" lon="2.78668">
        <ele>1266</ele>
      </trkpt>
      <trkpt lat="45.50095" lon="2.7868">
        <ele>1266</ele>
      </trkpt>
      <trkpt lat="45.50112" lon="2.78698">
        <ele>1265.1</ele>
      </trkpt>
      <trkpt lat="45.50117" lon="2.78727">
        <ele>1268.1</ele>
      </trkpt>
      <trkpt lat="45.50129" lon="2.78759">
        <ele>1271</ele>
      </trkpt>
      <trkpt lat="45.50159" lon="2.788">
        <ele>1273.3</ele>
      </trkpt>
      <trkpt lat="45.50173" lon="2.78842">
        <ele>1276.5</ele>
      </trkpt>
      <trkpt lat="45.50176" lon="2.78868">
        <ele>1278.1</ele>
      </trkpt>
      <trkpt lat="45.50197" lon="2.78917">
        <ele>1281.7</ele>
      </trkpt>
      <trkpt lat="45.5019" lon="2.78957">
        <ele>1283.2</ele>
      </trkpt>
      <trkpt lat="45.502" lon="2.78978">
        <ele>1284.8</ele>
      </trkpt>
      <trkpt lat="45.50214" lon="2.78992">
        <ele>1287.1</ele>
      </trkpt>
      <trkpt lat="45.5024" lon="2.78992">
        <ele>1289.9</ele>
      </trkpt>
      <trkpt lat="45.50273" lon="2.79014">
        <ele>1292.2</ele>
      </trkpt>
      <trkpt lat="45.50292" lon="2.7904">
        <ele>1292.5</ele>
      </trkpt>
      <trkpt lat="45.50322" lon="2.7907">
        <ele>1294.1</ele>
      </trkpt>
      <trkpt lat="45.50373" lon="2.79082">
        <ele>1294</ele>
      </trkpt>
      <trkpt lat="45.5042" lon="2.79044">
        <ele>1292.4</ele>
      </trkpt>
      <trkpt lat="45.50438" lon="2.79028">
        <ele>1291.3</ele>
      </trkpt>
      <trkpt lat="45.50452" lon="2.79022">
        <ele>1290.4</ele>
      </trkpt>
      <trkpt lat="45.50477" lon="2.79028">
        <ele>1289.5</ele>
      </trkpt>
      <trkpt lat="45.50492" lon="2.79028">
        <ele>1288.7</ele>
      </trkpt>
      <trkpt lat="45.50524" lon="2.79057">
        <ele>1287</ele>
      </trkpt>
      <trkpt lat="45.5054" lon="2.79078">
        <ele>1286.7</ele>
      </trkpt>
      <trkpt lat="45.50549" lon="2.79113">
        <ele>1287.5</ele>
      </trkpt>
      <trkpt lat="45.50548" lon="2.79144">
        <ele>1289.1</ele>
      </trkpt>
      <trkpt lat="45.50582" lon="2.79215">
        <ele>1289.6</ele>
      </trkpt>
      <trkpt lat="45.5059" lon="2.79247">
        <ele>1289.2</ele>
      </trkpt>
      <trkpt lat="45.50625" lon="2.7934">
        <ele>1290</ele>
      </trkpt>
      <trkpt lat="45.50639" lon="2.79375">
        <ele>1292.5</ele>
      </trkpt>
      <trkpt lat="45.50649" lon="2.79378">
        <ele>1292.7</ele>
      </trkpt>
      <trkpt lat="45.50658" lon="2.794">
        <ele>1295.4</ele>
      </trkpt>
      <trkpt lat="45.50667" lon="2.79431">
        <ele>1298.5</ele>
      </trkpt>
      <trkpt lat="45.50685" lon="2.79468">
        <ele>1298.9</ele>
      </trkpt>
      <trkpt lat="45.50702" lon="2.79476">
        <ele>1298.8</ele>
      </trkpt>
      <trkpt lat="45.50715" lon="2.79492">
        <ele>1300.1</ele>
      </trkpt>
      <trkpt lat="45.50723" lon="2.79505">
        <ele>1302.1</ele>
      </trkpt>
      <trkpt lat="45.50729" lon="2.79523">
        <ele>1306</ele>
      </trkpt>
      <trkpt lat="45.50761" lon="2.79531">
        <ele>1308.1</ele>
      </trkpt>
      <trkpt lat="45.50771" lon="2.79536">
        <ele>1309.1</ele>
      </trkpt>
      <trkpt lat="45.5078" lon="2.79549">
        <ele>1312.1</ele>
      </trkpt>
      <trkpt lat="45.50815" lon="2.79557">
        <ele>1313.4</ele>
      </trkpt>
      <trkpt lat="45.50826" lon="2.79572">
        <ele>1317.1</ele>
      </trkpt>
      <trkpt lat="45.50839" lon="2.79583">
        <ele>1319</ele>
      </trkpt>
      <trkpt lat="45.50891" lon="2.79638">
        <ele>1328.3</ele>
      </trkpt>
      <trkpt lat="45.50911" lon="2.79669">
        <ele>1335.4</ele>
      </trkpt>
      <trkpt lat="45.50936" lon="2.79678">
        <ele>1333.1</ele>
      </trkpt>
      <trkpt lat="45.50959" lon="2.79713">
        <ele>1338.4</ele>
      </trkpt>
      <trkpt lat="45.50994" lon="2.79744">
        <ele>1341.2</ele>
      </trkpt>
      <trkpt lat="45.51011" lon="2.79751">
        <ele>1339.8</ele>
      </trkpt>
      <trkpt lat="45.51029" lon="2.79793">
        <ele>1344.2</ele>
      </trkpt>
      <trkpt lat="45.51068" lon="2.79836">
        <ele>1344.6</ele>
      </trkpt>
      <trkpt lat="45.51095" lon="2.79864">
        <ele>1344.8</ele>
      </trkpt>
      <trkpt lat="45.51126" lon="2.79884">
        <ele>1343.6</ele>
      </trkpt>
      <trkpt lat="45.51131" lon="2.79889">
        <ele>1343.5</ele>
      </trkpt>
      <trkpt lat="45.51131" lon="2.79891">
        <ele>1343.7</ele>
      </trkpt>
      <trkpt lat="45.51131" lon="2.79905">
        <ele>1345.2</ele>
      </trkpt>
      <trkpt lat="45.51139" lon="2.79921">
        <ele>1345.6</ele>
      </trkpt>
      <trkpt lat="45.51138" lon="2.79937">
        <ele>1348.2</ele>
      </trkpt>
      <trkpt lat="45.51143" lon="2.79952">
        <ele>1349.7</ele>
      </trkpt>
      <trkpt lat="45.51146" lon="2.79968">
        <ele>1351.6</ele>
      </trkpt>
      <trkpt lat="45.51152" lon="2.79983">
        <ele>1352.8</ele>
      </trkpt>
      <trkpt lat="45.51146" lon="2.80008">
        <ele>1357.7</ele>
      </trkpt>
      <trkpt lat="45.51135" lon="2.80038">
        <ele>1363.9</ele>
      </trkpt>
      <trkpt lat="45.51125" lon="2.80052">
        <ele>1367.2</ele>
      </trkpt>
      <trkpt lat="45.51121" lon="2.80076">
        <ele>1370.9</ele>
      </trkpt>
      <trkpt lat="45.51121" lon="2.80104">
        <ele>1375</ele>
      </trkpt>
      <trkpt lat="45.51113" lon="2.80132">
        <ele>1379.9</ele>
      </trkpt>
      <trkpt lat="45.51102" lon="2.80157">
        <ele>1384.4</ele>
      </trkpt>
      <trkpt lat="45.51078" lon="2.80174">
        <ele>1389.5</ele>
      </trkpt>
      <trkpt lat="45.51063" lon="2.80176">
        <ele>1392.7</ele>
      </trkpt>
      <trkpt lat="45.51041" lon="2.80164">
        <ele>1394.7</ele>
      </trkpt>
      <trkpt lat="45.51014" lon="2.80143">
        <ele>1396.7</ele>
      </trkpt>
      <trkpt lat="45.51003" lon="2.80147">
        <ele>1399.4</ele>
      </trkpt>
      <trkpt lat="45.50991" lon="2.80141">
        <ele>1400.7</ele>
      </trkpt>
      <trkpt lat="45.50985" lon="2.80135">
        <ele>1400.9</ele>
      </trkpt>
      <trkpt lat="45.50962" lon="2.80121">
        <ele>1403.2</ele>
      </trkpt>
      <trkpt lat="45.50944" lon="2.80114">
        <ele>1405.7</ele>
      </trkpt>
      <trkpt lat="45.50938" lon="2.80112">
        <ele>1406.6</ele>
      </trkpt>
      <trkpt lat="45.50922" lon="2.8012">
        <ele>1410.8</ele>
      </trkpt>
      <trkpt lat="45.50907" lon="2.80141">
        <ele>1415.1</ele>
      </trkpt>
      <trkpt lat="45.50887" lon="2.802">
        <ele>1423.6</ele>
      </trkpt>
      <trkpt lat="45.50885" lon="2.80253">
        <ele>1430.8</ele>
      </trkpt>
      <trkpt lat="45.50892" lon="2.80299">
        <ele>1435.5</ele>
      </trkpt>
      <trkpt lat="45.50906" lon="2.80338">
        <ele>1439.1</ele>
      </trkpt>
      <trkpt lat="45.50913" lon="2.80369">
        <ele>1442.8</ele>
      </trkpt>
      <trkpt lat="45.50918" lon="2.80386">
        <ele>1444.8</ele>
      </trkpt>
      <trkpt lat="45.50915" lon="2.804">
        <ele>1446.8</ele>
      </trkpt>
      <trkpt lat="45.50905" lon="2.80421">
        <ele>1449.6</ele>
      </trkpt>
      <trkpt lat="45.50898" lon="2.80436">
        <ele>1451.2</ele>
      </trkpt>
      <trkpt lat="45.50892" lon="2.80455">
        <ele>1453.2</ele>
      </trkpt>
      <trkpt lat="45.50899" lon="2.80487">
        <ele>1456.5</ele>
      </trkpt>
      <trkpt lat="45.50913" lon="2.8051">
        <ele>1459.3</ele>
      </trkpt>
      <trkpt lat="45.50924" lon="2.80539">
        <ele>1463.4</ele>
      </trkpt>
      <trkpt lat="45.50941" lon="2.80568">
        <ele>1467.7</ele>
      </trkpt>
      <trkpt lat="45.50953" lon="2.80605">
        <ele>1471.4</ele>
      </trkpt>
      <trkpt lat="45.50968" lon="2.80645">
        <ele>1474.8</ele>
      </trkpt>
      <trkpt lat="45.50975" lon="2.80682">
        <ele>1478.7</ele>
      </trkpt>
      <trkpt lat="45.5103" lon="2.80721">
        <ele>1492.1</ele>
      </trkpt>
      <trkpt lat="45.51064" lon="2.80736">
        <ele>1500.8</ele>
      </trkpt>
      <trkpt lat="45.51095" lon="2.80737">
        <ele>1506.8</ele>
      </trkpt>
      <trkpt lat="45.51118" lon="2.80759">
        <ele>1512.2</ele>
      </trkpt>
      <trkpt lat="45.51142" lon="2.80789">
        <ele>1517.4</ele>
      </trkpt>
      <trkpt lat="45.51158" lon="2.80796">
        <ele>1520.3</ele>
      </trkpt>
      <trkpt lat="45.51172" lon="2.80797">
        <ele>1522</ele>
      </trkpt>
      <trkpt lat="45.51184" lon="2.80792">
        <ele>1522.6</ele>
      </trkpt>
      <trkpt lat="45.51233" lon="2.80809">
        <ele>1526.4</ele>
      </trkpt>
      <trkpt lat="45.51258" lon="2.80816">
        <ele>1528</ele>
      </trkpt>
      <trkpt lat="45.51301" lon="2.80814">
        <ele>1528.3</ele>
      </trkpt>
      <trkpt lat="45.51356" lon="2.80816">
        <ele>1528</ele>
      </trkpt>
      <trkpt lat="45.51371" lon="2.80825">
        <ele>1529.3</ele>
      </trkpt>
      <trkpt lat="45.51387" lon="2.80841">
        <ele>1531.6</ele>
      </trkpt>
      <trkpt lat="45.51401" lon="2.80873">
        <ele>1535.5</ele>
      </trkpt>
      <trkpt lat="45.51443" lon="2.80998">
        <ele>1551.6</ele>
      </trkpt>
      <trkpt lat="45.51479" lon="2.81077">
        <ele>1565.2</ele>
      </trkpt>
      <trkpt lat="45.51497" lon="2.81137">
        <ele>1571.9</ele>
      </trkpt>
      <trkpt lat="45.51519" lon="2.81155">
        <ele>1576.5</ele>
      </trkpt>
      <trkpt lat="45.51543" lon="2.81187">
        <ele>1582.9</ele>
      </trkpt>
      <trkpt lat="45.51566" lon="2.81182">
        <ele>1587</ele>
      </trkpt>
      <trkpt lat="45.51578" lon="2.8119">
        <ele>1589.9</ele>
      </trkpt>
      <trkpt lat="45.51584" lon="2.81201">
        <ele>1592</ele>
      </trkpt>
      <trkpt lat="45.51591" lon="2.81203">
        <ele>1593.8</ele>
      </trkpt>
      <trkpt lat="45.51659" lon="2.81327">
        <ele>1614.7</ele>
      </trkpt>
      <trkpt lat="45.51662" lon="2.81349">
        <ele>1616.4</ele>
      </trkpt>
      <trkpt lat="45.51662" lon="2.81362">
        <ele>1617</ele>
      </trkpt>
      <trkpt lat="45.51654" lon="2.81393">
        <ele>1616.1</ele>
      </trkpt>
      <trkpt lat="45.51654" lon="2.81406">
        <ele>1616.7</ele>
      </trkpt>
      <trkpt lat="45.51673" lon="2.81456">
        <ele>1623.5</ele>
      </trkpt>
      <trkpt lat="45.51687" lon="2.81503">
        <ele>1627.5</ele>
      </trkpt>
      <trkpt lat="45.51705" lon="2.81544">
        <ele>1630.3</ele>
      </trkpt>
      <trkpt lat="45.51711" lon="2.81566">
        <ele>1630.6</ele>
      </trkpt>
      <trkpt lat="45.51722" lon="2.81575">
        <ele>1632.8</ele>
      </trkpt>
      <trkpt lat="45.51735" lon="2.81593">
        <ele>1635.5</ele>
      </trkpt>
      <trkpt lat="45.51735" lon="2.81602">
        <ele>1635.6</ele>
      </trkpt>
      <trkpt lat="45.51738" lon="2.81608">
        <ele>1636.4</ele>
      </trkpt>
      <trkpt lat="45.51744" lon="2.81615">
        <ele>1637.9</ele>
      </trkpt>
      <trkpt lat="45.51748" lon="2.81645">
        <ele>1639.2</ele>
      </trkpt>
      <trkpt lat="45.51741" lon="2.81772">
        <ele>1640.3</ele>
      </trkpt>
      <trkpt lat="45.51747" lon="2.81814">
        <ele>1641.4</ele>
      </trkpt>
      <trkpt lat="45.51749" lon="2.81854">
        <ele>1641</ele>
      </trkpt>
      <trkpt lat="45.51746" lon="2.81881">
        <ele>1639.2</ele>
      </trkpt>
      <trkpt lat="45.51734" lon="2.81919">
        <ele>1634.7</ele>
      </trkpt>
      <trkpt lat="45.51724" lon="2.81926">
        <ele>1632.3</ele>
      </trkpt>
      <trkpt lat="45.51697" lon="2.81932">
        <ele>1625.3</ele>
      </trkpt>
      <trkpt lat="45.51686" lon="2.81938">
        <ele>1622.8</ele>
      </trkpt>
      <trkpt lat="45.51684" lon="2.81946">
        <ele>1622.7</ele>
      </trkpt>
      <trkpt lat="45.51672" lon="2.81948">
        <ele>1619.7</ele>
      </trkpt>
      <trkpt lat="45.51668" lon="2.81951">
        <ele>1618.8</ele>
      </trkpt>
      <trkpt lat="45.51665" lon="2.81962">
        <ele>1618.9</ele>
      </trkpt>
      <trkpt lat="45.51629" lon="2.81987">
        <ele>1612.5</ele>
      </trkpt>
      <trkpt lat="45.51625" lon="2.81987">
        <ele>1611.6</ele>
      </trkpt>
      <trkpt lat="45.51602" lon="2.82004">
        <ele>1607.6</ele>
      </trkpt>
      <trkpt lat="45.51593" lon="2.82024">
        <ele>1607</ele>
      </trkpt>
      <trkpt lat="45.51584" lon="2.8203">
        <ele>1605.3</ele>
      </trkpt>
      <trkpt lat="45.51578" lon="2.82046">
        <ele>1605.5</ele>
      </trkpt>
      <trkpt lat="45.51568" lon="2.8206">
        <ele>1604.9</ele>
      </trkpt>
      <trkpt lat="45.51564" lon="2.82101">
        <ele>1606.6</ele>
      </trkpt>
      <trkpt lat="45.51555" lon="2.82139">
        <ele>1606.1</ele>
      </trkpt>
      <trkpt lat="45.5154" lon="2.82164">
        <ele>1603.6</ele>
      </trkpt>
      <trkpt lat="45.51519" lon="2.82195">
        <ele>1600.1</ele>
      </trkpt>
      <trkpt lat="45.51515" lon="2.82204">
        <ele>1599.8</ele>
      </trkpt>
      <trkpt lat="45.51508" lon="2.82205">
        <ele>1598.6</ele>
      </trkpt>
      <trkpt lat="45.51506" lon="2.82207">
        <ele>1598.4</ele>
      </trkpt>
      <trkpt lat="45.51472" lon="2.8226">
        <ele>1603</ele>
      </trkpt>
      <trkpt lat="45.5144" lon="2.82304">
        <ele>1612.2</ele>
      </trkpt>
      <trkpt lat="45.51435" lon="2.82321">
        <ele>1615.5</ele>
      </trkpt>
      <trkpt lat="45.51421" lon="2.82349">
        <ele>1621.3</ele>
      </trkpt>
      <trkpt lat="45.51405" lon="2.82381">
        <ele>1627.6</ele>
      </trkpt>
      <trkpt lat="45.5141" lon="2.82389">
        <ele>1628.7</ele>
      </trkpt>
      <trkpt lat="45.51419" lon="2.82397">
        <ele>1629.5</ele>
      </trkpt>
      <trkpt lat="45.51477" lon="2.82462">
        <ele>1637.2</ele>
      </trkpt>
      <trkpt lat="45.515" lon="2.82484">
        <ele>1639.9</ele>
      </trkpt>
      <trkpt lat="45.51551" lon="2.82514">
        <ele>1639.9</ele>
      </trkpt>
      <trkpt lat="45.51579" lon="2.82547">
        <ele>1643.2</ele>
      </trkpt>
      <trkpt lat="45.51596" lon="2.82584">
        <ele>1648.6</ele>
      </trkpt>
      <trkpt lat="45.51615" lon="2.82652">
        <ele>1658.1</ele>
      </trkpt>
      <trkpt lat="45.5162" lon="2.82701">
        <ele>1665.7</ele>
      </trkpt>
      <trkpt lat="45.51623" lon="2.82716">
        <ele>1667.7</ele>
      </trkpt>
      <trkpt lat="45.51641" lon="2.82788">
        <ele>1676.2</ele>
      </trkpt>
      <trkpt lat="45.51668" lon="2.82866">
        <ele>1682.5</ele>
      </trkpt>
      <trkpt lat="45.51666" lon="2.82886">
        <ele>1683.9</ele>
      </trkpt>
      <trkpt lat="45.51666" lon="2.82916">
        <ele>1686</ele>
      </trkpt>
      <trkpt lat="45.51671" lon="2.82968">
        <ele>1683.7</ele>
      </trkpt>
      <trkpt lat="45.51676" lon="2.82991">
        <ele>1683.5</ele>
      </trkpt>
      <trkpt lat="45.51715" lon="2.82941">
        <ele>1692.5</ele>
      </trkpt>
      <trkpt lat="45.51758" lon="2.82901">
        <ele>1698.6</ele>
      </trkpt>
      <trkpt lat="45.51799" lon="2.82871">
        <ele>1705.5</ele>
      </trkpt>
      <trkpt lat="45.51816" lon="2.8285">
        <ele>1706.6</ele>
      </trkpt>
      <trkpt lat="45.51854" lon="2.82809">
        <ele>1708.3</ele>
      </trkpt>
      <trkpt lat="45.51915" lon="2.82765">
        <ele>1713.2</ele>
      </trkpt>
      <trkpt lat="45.51942" lon="2.82753">
        <ele>1716.3</ele>
      </trkpt>
      <trkpt lat="45.51962" lon="2.82754">
        <ele>1720.2</ele>
      </trkpt>
      <trkpt lat="45.51967" lon="2.82745">
        <ele>1720.2</ele>
      </trkpt>
      <trkpt lat="45.51964" lon="2.82731">
        <ele>1718.4</ele>
      </trkpt>
      <trkpt lat="45.5197" lon="2.82701">
        <ele>1717.2</ele>
      </trkpt>
      <trkpt lat="45.51982" lon="2.8268">
        <ele>1718.7</ele>
      </trkpt>
      <trkpt lat="45.51999" lon="2.82665">
        <ele>1722.7</ele>
      </trkpt>
      <trkpt lat="45.52002" lon="2.82656">
        <ele>1723.3</ele>
      </trkpt>
      <trkpt lat="45.52001" lon="2.82643">
        <ele>1722.7</ele>
      </trkpt>
      <trkpt lat="45.51998" lon="2.82633">
        <ele>1721.6</ele>
      </trkpt>
      <trkpt lat="45.52008" lon="2.82615">
        <ele>1724</ele>
      </trkpt>
      <trkpt lat="45.52008" lon="2.82606">
        <ele>1723.8</ele>
      </trkpt>
      <trkpt lat="45.52006" lon="2.82595">
        <ele>1723</ele>
      </trkpt>
      <trkpt lat="45.52007" lon="2.82579">
        <ele>1723.2</ele>
      </trkpt>
      <trkpt lat="45.5201" lon="2.82563">
        <ele>1724.7</ele>
      </trkpt>
      <trkpt lat="45.52023" lon="2.82534">
        <ele>1729.7</ele>
      </trkpt>
      <trkpt lat="45.52033" lon="2.82502">
        <ele>1734.2</ele>
      </trkpt>
      <trkpt lat="45.52032" lon="2.82483">
        <ele>1734.8</ele>
      </trkpt>
      <trkpt lat="45.52035" lon="2.82458">
        <ele>1737</ele>
      </trkpt>
      <trkpt lat="45.52041" lon="2.82433">
        <ele>1740</ele>
      </trkpt>
      <trkpt lat="45.52043" lon="2.82382">
        <ele>1740.1</ele>
      </trkpt>
      <trkpt lat="45.5205" lon="2.82359">
        <ele>1741</ele>
      </trkpt>
      <trkpt lat="45.52061" lon="2.82335">
        <ele>1742.7</ele>
      </trkpt>
      <trkpt lat="45.52076" lon="2.82322">
        <ele>1744.6</ele>
      </trkpt>
      <trkpt lat="45.52082" lon="2.82338">
        <ele>1748</ele>
      </trkpt>
      <trkpt lat="45.52094" lon="2.82364">
        <ele>1751.5</ele>
      </trkpt>
      <trkpt lat="45.52136" lon="2.82418">
        <ele>1764.4</ele>
      </trkpt>
      <trkpt lat="45.52166" lon="2.82447">
        <ele>1772.3</ele>
      </trkpt>
      <trkpt lat="45.52208" lon="2.82466">
        <ele>1780.7</ele>
      </trkpt>
      <trkpt lat="45.52225" lon="2.82472">
        <ele>1784.4</ele>
      </trkpt>
      <trkpt lat="45.52244" lon="2.82481">
        <ele>1789.1</ele>
      </trkpt>
      <trkpt lat="45.52267" lon="2.82485">
        <ele>1795.1</ele>
      </trkpt>
      <trkpt lat="45.52301" lon="2.82483">
        <ele>1803.3</ele>
      </trkpt>
      <trkpt lat="45.52322" lon="2.82479">
        <ele>1807.9</ele>
      </trkpt>
      <trkpt lat="45.52332" lon="2.82474">
        <ele>1809.6</ele>
      </trkpt>
      <trkpt lat="45.52357" lon="2.82441">
        <ele>1812.3</ele>
      </trkpt>
      <trkpt lat="45.52428" lon="2.82365">
        <ele>1821.8</ele>
      </trkpt>
      <trkpt lat="45.52434" lon="2.82344">
        <ele>1819.7</ele>
      </trkpt>
      <trkpt lat="45.52439" lon="2.8232">
        <ele>1817.5</ele>
      </trkpt>
      <trkpt lat="45.52495" lon="2.82252">
        <ele>1822.9</ele>
      </trkpt>
      <trkpt lat="45.52503" lon="2.8223">
        <ele>1823.6</ele>
      </trkpt>
      <trkpt lat="45.52523" lon="2.82183">
        <ele>1819.7</ele>
      </trkpt>
      <trkpt lat="45.52547" lon="2.8211">
        <ele>1819.4</ele>
      </trkpt>
      <trkpt lat="45.52564" lon="2.82074">
        <ele>1818.5</ele>
      </trkpt>
      <trkpt lat="45.52573" lon="2.82061">
        <ele>1817.1</ele>
      </trkpt>
      <trkpt lat="45.52596" lon="2.82039">
        <ele>1811</ele>
      </trkpt>
      <trkpt lat="45.52617" lon="2.82013">
        <ele>1804.6</ele>
      </trkpt>
      <trkpt lat="45.5263" lon="2.81992">
        <ele>1799.9</ele>
      </trkpt>
      <trkpt lat="45.5264" lon="2.81968">
        <ele>1793.5</ele>
      </trkpt>
      <trkpt lat="45.52657" lon="2.81944">
        <ele>1787.7</ele>
      </trkpt>
      <trkpt lat="45.52672" lon="2.81923">
        <ele>1784.1</ele>
      </trkpt>
      <trkpt lat="45.52692" lon="2.81905">
        <ele>1777.9</ele>
      </trkpt>
      <trkpt lat="45.52705" lon="2.81871">
        <ele>1772.6</ele>
      </trkpt>
      <trkpt lat="45.5273" lon="2.81789">
        <ele>1771.3</ele>
      </trkpt>
      <trkpt lat="45.52734" lon="2.81772">
        <ele>1772</ele>
      </trkpt>
      <trkpt lat="45.52731" lon="2.8174">
        <ele>1771.8</ele>
      </trkpt>
      <trkpt lat="45.52732" lon="2.81724">
        <ele>1772.6</ele>
      </trkpt>
      <trkpt lat="45.52745" lon="2.81699">
        <ele>1778</ele>
      </trkpt>
      <trkpt lat="45.52752" lon="2.81682">
        <ele>1780.4</ele>
      </trkpt>
      <trkpt lat="45.52752" lon="2.81663">
        <ele>1782.3</ele>
      </trkpt>
      <trkpt lat="45.52747" lon="2.81639">
        <ele>1786.9</ele>
      </trkpt>
      <trkpt lat="45.5275" lon="2.81623">
        <ele>1792</ele>
      </trkpt>
      <trkpt lat="45.52757" lon="2.81612">
        <ele>1793.3</ele>
      </trkpt>
      <trkpt lat="45.52769" lon="2.8161">
        <ele>1791.8</ele>
      </trkpt>
      <trkpt lat="45.52764" lon="2.81593">
        <ele>1796.9</ele>
      </trkpt>
      <trkpt lat="45.5278" lon="2.81596">
        <ele>1793.9</ele>
      </trkpt>
      <trkpt lat="45.52772" lon="2.81584">
        <ele>1798.2</ele>
      </trkpt>
      <trkpt lat="45.52767" lon="2.81552">
        <ele>1808.9</ele>
      </trkpt>
      <trkpt lat="45.52757" lon="2.81516">
        <ele>1818.9</ele>
      </trkpt>
      <trkpt lat="45.52755" lon="2.81501">
        <ele>1822.7</ele>
      </trkpt>
      <trkpt lat="45.52756" lon="2.81493">
        <ele>1824.3</ele>
      </trkpt>
      <trkpt lat="45.52759" lon="2.81489">
        <ele>1825.5</ele>
      </trkpt>
      <trkpt lat="45.52778" lon="2.81507">
        <ele>1824.9</ele>
      </trkpt>
      <trkpt lat="45.52779" lon="2.81505">
        <ele>1825.8</ele>
      </trkpt>
      <trkpt lat="45.52776" lon="2.81492">
        <ele>1828.4</ele>
      </trkpt>
      <trkpt lat="45.52771" lon="2.81466">
        <ele>1831.9</ele>
      </trkpt>
      <trkpt lat="45.52772" lon="2.81458">
        <ele>1833.4</ele>
      </trkpt>
      <trkpt lat="45.52775" lon="2.81456">
        <ele>1834.5</ele>
      </trkpt>
      <trkpt lat="45.52783" lon="2.81461">
        <ele>1835.3</ele>
      </trkpt>
      <trkpt lat="45.52792" lon="2.81463">
        <ele>1837</ele>
      </trkpt>
      <trkpt lat="45.52802" lon="2.81455">
        <ele>1840.7</ele>
      </trkpt>
      <trkpt lat="45.52805" lon="2.81449">
        <ele>1842.5</ele>
      </trkpt>
      <trkpt lat="45.528" lon="2.81444">
        <ele>1842.4</ele>
      </trkpt>
      <trkpt lat="45.52797" lon="2.81423">
        <ele>1845.6</ele>
      </trkpt>
      <trkpt lat="45.52799" lon="2.81411">
        <ele>1846.7</ele>
      </trkpt>
      <trkpt lat="45.52806" lon="2.81403">
        <ele>1847.6</ele>
      </trkpt>
      <trkpt lat="45.52812" lon="2.81401">
        <ele>1849</ele>
      </trkpt>
      <trkpt lat="45.52818" lon="2.8139">
        <ele>1849.5</ele>
      </trkpt>
      <trkpt lat="45.52819" lon="2.81389">
        <ele>1849.7</ele>
      </trkpt>
      <trkpt lat="45.52828" lon="2.81383">
        <ele>1851.7</ele>
      </trkpt>
      <trkpt lat="45.52835" lon="2.81375">
        <ele>1851.9</ele>
      </trkpt>
      <trkpt lat="45.52845" lon="2.81371">
        <ele>1848.2</ele>
      </trkpt>
      <trkpt lat="45.52856" lon="2.8136">
        <ele>1844.3</ele>
      </trkpt>
      <trkpt lat="45.52883" lon="2.81322">
        <ele>1835.3</ele>
      </trkpt>
      <trkpt lat="45.52901" lon="2.81305">
        <ele>1828</ele>
      </trkpt>
      <trkpt lat="45.52924" lon="2.81292">
        <ele>1819.9</ele>
      </trkpt>
      <trkpt lat="45.5294" lon="2.81257">
        <ele>1810.5</ele>
      </trkpt>
      <trkpt lat="45.52963" lon="2.81222">
        <ele>1801.2</ele>
      </trkpt>
      <trkpt lat="45.52986" lon="2.8119">
        <ele>1799.1</ele>
      </trkpt>
      <trkpt lat="45.52994" lon="2.81176">
        <ele>1800.4</ele>
      </trkpt>
      <trkpt lat="45.52996" lon="2.81169">
        <ele>1801</ele>
      </trkpt>
      <trkpt lat="45.53004" lon="2.81163">
        <ele>1801</ele>
      </trkpt>
      <trkpt lat="45.53017" lon="2.81158">
        <ele>1799.2</ele>
      </trkpt>
      <trkpt lat="45.53032" lon="2.81151">
        <ele>1797.1</ele>
      </trkpt>
      <trkpt lat="45.53037" lon="2.81136">
        <ele>1794.4</ele>
      </trkpt>
      <trkpt lat="45.53042" lon="2.8112">
        <ele>1791.7</ele>
      </trkpt>
      <trkpt lat="45.53041" lon="2.81098">
        <ele>1788.3</ele>
      </trkpt>
      <trkpt lat="45.53046" lon="2.81086">
        <ele>1786.4</ele>
      </trkpt>
      <trkpt lat="45.53046" lon="2.81072">
        <ele>1784.1</ele>
      </trkpt>
      <trkpt lat="45.53043" lon="2.81061">
        <ele>1782.3</ele>
      </trkpt>
      <trkpt lat="45.53036" lon="2.81044">
        <ele>1779.3</ele>
      </trkpt>
      <trkpt lat="45.53034" lon="2.81026">
        <ele>1776.1</ele>
      </trkpt>
      <trkpt lat="45.53029" lon="2.81004">
        <ele>1772.1</ele>
      </trkpt>
      <trkpt lat="45.53025" lon="2.80996">
        <ele>1770.2</ele>
      </trkpt>
      <trkpt lat="45.53023" lon="2.80988">
        <ele>1768.1</ele>
      </trkpt>
      <trkpt lat="45.53026" lon="2.80977">
        <ele>1765.6</ele>
      </trkpt>
      <trkpt lat="45.53035" lon="2.80967">
        <ele>1764.5</ele>
      </trkpt>
      <trkpt lat="45.53042" lon="2.80962">
        <ele>1764.5</ele>
      </trkpt>
      <trkpt lat="45.53053" lon="2.8094">
        <ele>1762.7</ele>
      </trkpt>
      <trkpt lat="45.5306" lon="2.80917">
        <ele>1761</ele>
      </trkpt>
      <trkpt lat="45.5307" lon="2.809">
        <ele>1761.8</ele>
      </trkpt>
      <trkpt lat="45.53077" lon="2.80897">
        <ele>1763.8</ele>
      </trkpt>
      <trkpt lat="45.5308" lon="2.80881">
        <ele>1762.9</ele>
      </trkpt>
      <trkpt lat="45.53088" lon="2.80871">
        <ele>1760.2</ele>
      </trkpt>
      <trkpt lat="45.53088" lon="2.80846">
        <ele>1757.9</ele>
      </trkpt>
      <trkpt lat="45.53091" lon="2.80839">
        <ele>1755.7</ele>
      </trkpt>
      <trkpt lat="45.53094" lon="2.80835">
        <ele>1753.9</ele>
      </trkpt>
      <trkpt lat="45.53092" lon="2.80832">
        <ele>1754.4</ele>
      </trkpt>
      <trkpt lat="45.53091" lon="2.80814">
        <ele>1750.5</ele>
      </trkpt>
      <trkpt lat="45.53099" lon="2.80796">
        <ele>1743.7</ele>
      </trkpt>
      <trkpt lat="45.531" lon="2.80775">
        <ele>1739.3</ele>
      </trkpt>
      <trkpt lat="45.53107" lon="2.80752">
        <ele>1734.5</ele>
      </trkpt>
      <trkpt lat="45.53112" lon="2.8075">
        <ele>1734</ele>
      </trkpt>
      <trkpt lat="45.53129" lon="2.80751">
        <ele>1733.4</ele>
      </trkpt>
      <trkpt lat="45.53139" lon="2.80749">
        <ele>1732.9</ele>
      </trkpt>
      <trkpt lat="45.53143" lon="2.80742">
        <ele>1732.4</ele>
      </trkpt>
      <trkpt lat="45.53145" lon="2.80736">
        <ele>1732.1</ele>
      </trkpt>
      <trkpt lat="45.53148" lon="2.80726">
        <ele>1731.9</ele>
      </trkpt>
      <trkpt lat="45.53149" lon="2.80716">
        <ele>1731.7</ele>
      </trkpt>
      <trkpt lat="45.53149" lon="2.80706">
        <ele>1731.4</ele>
      </trkpt>
      <trkpt lat="45.53149" lon="2.80703">
        <ele>1731.3</ele>
      </trkpt>
      <trkpt lat="45.53148" lon="2.80684">
        <ele>1730.5</ele>
      </trkpt>
      <trkpt lat="45.53152" lon="2.80586">
        <ele>1717.8</ele>
      </trkpt>
      <trkpt lat="45.53155" lon="2.80565">
        <ele>1715.2</ele>
      </trkpt>
      <trkpt lat="45.53154" lon="2.80541">
        <ele>1710.2</ele>
      </trkpt>
      <trkpt lat="45.53156" lon="2.80525">
        <ele>1708</ele>
      </trkpt>
      <trkpt lat="45.53165" lon="2.80505">
        <ele>1708.2</ele>
      </trkpt>
      <trkpt lat="45.53171" lon="2.80497">
        <ele>1707.7</ele>
      </trkpt>
      <trkpt lat="45.53174" lon="2.80484">
        <ele>1706</ele>
      </trkpt>
      <trkpt lat="45.53176" lon="2.80465">
        <ele>1703.2</ele>
      </trkpt>
      <trkpt lat="45.53182" lon="2.80445">
        <ele>1699.6</ele>
      </trkpt>
      <trkpt lat="45.53181" lon="2.80431">
        <ele>1697.5</ele>
      </trkpt>
      <trkpt lat="45.53185" lon="2.8042">
        <ele>1695</ele>
      </trkpt>
      <trkpt lat="45.53185" lon="2.80405">
        <ele>1693.7</ele>
      </trkpt>
      <trkpt lat="45.53194" lon="2.80389">
        <ele>1691.3</ele>
      </trkpt>
      <trkpt lat="45.53201" lon="2.8038">
        <ele>1690</ele>
      </trkpt>
      <trkpt lat="45.53211" lon="2.80319">
        <ele>1687.6</ele>
      </trkpt>
      <trkpt lat="45.53237" lon="2.80274">
        <ele>1691.1</ele>
      </trkpt>
      <trkpt lat="45.53245" lon="2.80246">
        <ele>1694.7</ele>
      </trkpt>
      <trkpt lat="45.53252" lon="2.80232">
        <ele>1695.6</ele>
      </trkpt>
      <trkpt lat="45.53258" lon="2.80208">
        <ele>1694.2</ele>
      </trkpt>
      <trkpt lat="45.53267" lon="2.80193">
        <ele>1692.1</ele>
      </trkpt>
      <trkpt lat="45.53271" lon="2.80184">
        <ele>1691.7</ele>
      </trkpt>
      <trkpt lat="45.53278" lon="2.80178">
        <ele>1690.4</ele>
      </trkpt>
      <trkpt lat="45.53279" lon="2.80173">
        <ele>1690.7</ele>
      </trkpt>
      <trkpt lat="45.53277" lon="2.80167">
        <ele>1691.8</ele>
      </trkpt>
      <trkpt lat="45.53282" lon="2.80124">
        <ele>1697.5</ele>
      </trkpt>
      <trkpt lat="45.53293" lon="2.80092">
        <ele>1703.4</ele>
      </trkpt>
      <trkpt lat="45.53294" lon="2.80062">
        <ele>1707.8</ele>
      </trkpt>
      <trkpt lat="45.53297" lon="2.80056">
        <ele>1708.9</ele>
      </trkpt>
      <trkpt lat="45.53299" lon="2.80049">
        <ele>1710</ele>
      </trkpt>
      <trkpt lat="45.533" lon="2.80036">
        <ele>1711.7</ele>
      </trkpt>
      <trkpt lat="45.53305" lon="2.80031">
        <ele>1713</ele>
      </trkpt>
      <trkpt lat="45.53314" lon="2.80004">
        <ele>1717.7</ele>
      </trkpt>
      <trkpt lat="45.53317" lon="2.79998">
        <ele>1718.4</ele>
      </trkpt>
      <trkpt lat="45.53324" lon="2.79985">
        <ele>1717.3</ele>
      </trkpt>
      <trkpt lat="45.53342" lon="2.79976">
        <ele>1713.8</ele>
      </trkpt>
      <trkpt lat="45.53381" lon="2.79979">
        <ele>1700.9</ele>
      </trkpt>
      <trkpt lat="45.53395" lon="2.79969">
        <ele>1695.6</ele>
      </trkpt>
      <trkpt lat="45.53399" lon="2.79964">
        <ele>1694.1</ele>
      </trkpt>
      <trkpt lat="45.53416" lon="2.7995">
        <ele>1688.6</ele>
      </trkpt>
      <trkpt lat="45.53438" lon="2.79955">
        <ele>1684.1</ele>
      </trkpt>
      <trkpt lat="45.53463" lon="2.79973">
        <ele>1678.3</ele>
      </trkpt>
      <trkpt lat="45.53476" lon="2.79979">
        <ele>1675.1</ele>
      </trkpt>
      <trkpt lat="45.53485" lon="2.79976">
        <ele>1673.1</ele>
      </trkpt>
      <trkpt lat="45.53495" lon="2.79976">
        <ele>1670.9</ele>
      </trkpt>
      <trkpt lat="45.53507" lon="2.79967">
        <ele>1670.3</ele>
      </trkpt>
      <trkpt lat="45.53524" lon="2.79975">
        <ele>1669.9</ele>
      </trkpt>
      <trkpt lat="45.53543" lon="2.79993">
        <ele>1670.4</ele>
      </trkpt>
      <trkpt lat="45.53562" lon="2.79992">
        <ele>1671.2</ele>
      </trkpt>
      <trkpt lat="45.53587" lon="2.80009">
        <ele>1670</ele>
      </trkpt>
      <trkpt lat="45.53635" lon="2.80025">
        <ele>1668.5</ele>
      </trkpt>
      <trkpt lat="45.53655" lon="2.80034">
        <ele>1668.5</ele>
      </trkpt>
      <trkpt lat="45.53667" lon="2.80042">
        <ele>1668.4</ele>
      </trkpt>
      <trkpt lat="45.53674" lon="2.80044">
        <ele>1667.8</ele>
      </trkpt>
      <trkpt lat="45.53702" lon="2.80065">
        <ele>1666.2</ele>
      </trkpt>
      <trkpt lat="45.53742" lon="2.80086">
        <ele>1669.3</ele>
      </trkpt>
      <trkpt lat="45.53778" lon="2.80092">
        <ele>1668.6</ele>
      </trkpt>
      <trkpt lat="45.53782" lon="2.80094">
        <ele>1668.3</ele>
      </trkpt>
      <trkpt lat="45.53859" lon="2.80105">
        <ele>1665.5</ele>
      </trkpt>
      <trkpt lat="45.53872" lon="2.80105">
        <ele>1663.6</ele>
      </trkpt>
      <trkpt lat="45.53881" lon="2.8011">
        <ele>1662.9</ele>
      </trkpt>
      <trkpt lat="45.53917" lon="2.80117">
        <ele>1658.8</ele>
      </trkpt>
      <trkpt lat="45.53936" lon="2.80126">
        <ele>1656.8</ele>
      </trkpt>
      <trkpt lat="45.53981" lon="2.80137">
        <ele>1649.5</ele>
      </trkpt>
      <trkpt lat="45.54005" lon="2.80136">
        <ele>1645.3</ele>
      </trkpt>
      <trkpt lat="45.54042" lon="2.80129">
        <ele>1641.9</ele>
      </trkpt>
      <trkpt lat="45.5405" lon="2.80131">
        <ele>1640.9</ele>
      </trkpt>
      <trkpt lat="45.54085" lon="2.80105">
        <ele>1643.7</ele>
      </trkpt>
      <trkpt lat="45.54094" lon="2.80102">
        <ele>1646.3</ele>
      </trkpt>
      <trkpt lat="45.5412" lon="2.80102">
        <ele>1651.8</ele>
      </trkpt>
      <trkpt lat="45.54156" lon="2.80115">
        <ele>1658.5</ele>
      </trkpt>
      <trkpt lat="45.5418" lon="2.80137">
        <ele>1662.6</ele>
      </trkpt>
      <trkpt lat="45.54201" lon="2.80143">
        <ele>1667.1</ele>
      </trkpt>
      <trkpt lat="45.54211" lon="2.80151">
        <ele>1669.4</ele>
      </trkpt>
      <trkpt lat="45.54228" lon="2.80158">
        <ele>1673.8</ele>
      </trkpt>
      <trkpt lat="45.54276" lon="2.80186">
        <ele>1672.9</ele>
      </trkpt>
      <trkpt lat="45.54297" lon="2.80183">
        <ele>1675.5</ele>
      </trkpt>
      <trkpt lat="45.54309" lon="2.80188">
        <ele>1673.9</ele>
      </trkpt>
      <trkpt lat="45.54332" lon="2.80177">
        <ele>1680.2</ele>
      </trkpt>
      <trkpt lat="45.54352" lon="2.80174">
        <ele>1678.6</ele>
      </trkpt>
      <trkpt lat="45.54366" lon="2.80169">
        <ele>1678.5</ele>
      </trkpt>
      <trkpt lat="45.54383" lon="2.8017">
        <ele>1675.2</ele>
      </trkpt>
      <trkpt lat="45.54418" lon="2.80156">
        <ele>1669.4</ele>
      </trkpt>
      <trkpt lat="45.54419" lon="2.80143">
        <ele>1667.5</ele>
      </trkpt>
      <trkpt lat="45.54422" lon="2.80135">
        <ele>1666.2</ele>
      </trkpt>
      <trkpt lat="45.54432" lon="2.80133">
        <ele>1665.4</ele>
      </trkpt>
      <trkpt lat="45.54442" lon="2.80136">
        <ele>1665.2</ele>
      </trkpt>
      <trkpt lat="45.54455" lon="2.80152">
        <ele>1666.2</ele>
      </trkpt>
      <trkpt lat="45.54488" lon="2.80162">
        <ele>1664.7</ele>
      </trkpt>
      <trkpt lat="45.54494" lon="2.80161">
        <ele>1664.1</ele>
      </trkpt>
      <trkpt lat="45.54522" lon="2.80139">
        <ele>1654.9</ele>
      </trkpt>
      <trkpt lat="45.5455" lon="2.80111">
        <ele>1648.3</ele>
      </trkpt>
      <trkpt lat="45.54566" lon="2.80089">
        <ele>1647.8</ele>
      </trkpt>
      <trkpt lat="45.54589" lon="2.80049">
        <ele>1643.9</ele>
      </trkpt>
      <trkpt lat="45.54618" lon="2.80043">
        <ele>1631.8</ele>
      </trkpt>
      <trkpt lat="45.54621" lon="2.8004">
        <ele>1630.8</ele>
      </trkpt>
      <trkpt lat="45.54621" lon="2.80022">
        <ele>1632.4</ele>
      </trkpt>
      <trkpt lat="45.54624" lon="2.80004">
        <ele>1633</ele>
      </trkpt>
      <trkpt lat="45.54648" lon="2.79948">
        <ele>1623.8</ele>
      </trkpt>
      <trkpt lat="45.54653" lon="2.7993">
        <ele>1621.9</ele>
      </trkpt>
      <trkpt lat="45.54678" lon="2.79986">
        <ele>1613.8</ele>
      </trkpt>
      <trkpt lat="45.5469" lon="2.80023">
        <ele>1603.3</ele>
      </trkpt>
      <trkpt lat="45.54704" lon="2.80004">
        <ele>1601.4</ele>
      </trkpt>
      <trkpt lat="45.54712" lon="2.79985">
        <ele>1598.8</ele>
      </trkpt>
      <trkpt lat="45.54718" lon="2.79968">
        <ele>1596.1</ele>
      </trkpt>
      <trkpt lat="45.54732" lon="2.79907">
        <ele>1588.8</ele>
      </trkpt>
      <trkpt lat="45.54734" lon="2.79904">
        <ele>1587.6</ele>
      </trkpt>
      <trkpt lat="45.5474" lon="2.79911">
        <ele>1585.8</ele>
      </trkpt>
      <trkpt lat="45.54756" lon="2.7994">
        <ele>1579.8</ele>
      </trkpt>
      <trkpt lat="45.54778" lon="2.79961">
        <ele>1571.5</ele>
      </trkpt>
      <trkpt lat="45.5479" lon="2.79985">
        <ele>1566.5</ele>
      </trkpt>
      <trkpt lat="45.54795" lon="2.79998">
        <ele>1564.2</ele>
      </trkpt>
      <trkpt lat="45.54797" lon="2.80009">
        <ele>1560.2</ele>
      </trkpt>
      <trkpt lat="45.54799" lon="2.80009">
        <ele>1559.4</ele>
      </trkpt>
      <trkpt lat="45.54825" lon="2.79984">
        <ele>1553</ele>
      </trkpt>
      <trkpt lat="45.54844" lon="2.79962">
        <ele>1548.9</ele>
      </trkpt>
      <trkpt lat="45.54852" lon="2.79947">
        <ele>1548</ele>
      </trkpt>
      <trkpt lat="45.54861" lon="2.79928">
        <ele>1546.8</ele>
      </trkpt>
      <trkpt lat="45.54875" lon="2.79915">
        <ele>1543.9</ele>
      </trkpt>
      <trkpt lat="45.54882" lon="2.79911">
        <ele>1542</ele>
      </trkpt>
      <trkpt lat="45.54899" lon="2.79923">
        <ele>1538.9</ele>
      </trkpt>
      <trkpt lat="45.54917" lon="2.7993">
        <ele>1535.3</ele>
      </trkpt>
      <trkpt lat="45.54927" lon="2.79943">
        <ele>1534.2</ele>
      </trkpt>
      <trkpt lat="45.54936" lon="2.79964">
        <ele>1533.5</ele>
      </trkpt>
      <trkpt lat="45.54958" lon="2.79993">
        <ele>1530.9</ele>
      </trkpt>
      <trkpt lat="45.54971" lon="2.80013">
        <ele>1527.1</ele>
      </trkpt>
      <trkpt lat="45.54988" lon="2.80033">
        <ele>1522.3</ele>
      </trkpt>
      <trkpt lat="45.5501" lon="2.80045">
        <ele>1517.9</ele>
      </trkpt>
      <trkpt lat="45.5502" lon="2.80046">
        <ele>1516.1</ele>
      </trkpt>
      <trkpt lat="45.55025" lon="2.80041">
        <ele>1515.9</ele>
      </trkpt>
      <trkpt lat="45.55042" lon="2.80009">
        <ele>1517.7</ele>
      </trkpt>
      <trkpt lat="45.55047" lon="2.79992">
        <ele>1518.2</ele>
      </trkpt>
      <trkpt lat="45.55054" lon="2.79987">
        <ele>1517.2</ele>
      </trkpt>
      <trkpt lat="45.5507" lon="2.79987">
        <ele>1514.9</ele>
      </trkpt>
      <trkpt lat="45.55098" lon="2.80006">
        <ele>1508.7</ele>
      </trkpt>
      <trkpt lat="45.55117" lon="2.80013">
        <ele>1502.9</ele>
      </trkpt>
      <trkpt lat="45.55143" lon="2.80007">
        <ele>1498.3</ele>
      </trkpt>
      <trkpt lat="45.55155" lon="2.80011">
        <ele>1494.5</ele>
      </trkpt>
      <trkpt lat="45.55161" lon="2.80014">
        <ele>1492.3</ele>
      </trkpt>
      <trkpt lat="45.55171" lon="2.8002">
        <ele>1488.6</ele>
      </trkpt>
      <trkpt lat="45.55176" lon="2.80018">
        <ele>1488.3</ele>
      </trkpt>
      <trkpt lat="45.55185" lon="2.80016">
        <ele>1487.4</ele>
      </trkpt>
      <trkpt lat="45.5521" lon="2.80005">
        <ele>1486</ele>
      </trkpt>
      <trkpt lat="45.55222" lon="2.80005">
        <ele>1483.9</ele>
      </trkpt>
      <trkpt lat="45.55231" lon="2.79994">
        <ele>1483.3</ele>
      </trkpt>
      <trkpt lat="45.55239" lon="2.79988">
        <ele>1481.6</ele>
      </trkpt>
      <trkpt lat="45.55242" lon="2.79984">
        <ele>1481</ele>
      </trkpt>
      <trkpt lat="45.55246" lon="2.79961">
        <ele>1479.4</ele>
      </trkpt>
      <trkpt lat="45.5525" lon="2.79956">
        <ele>1478.4</ele>
      </trkpt>
      <trkpt lat="45.55255" lon="2.79955">
        <ele>1477.1</ele>
      </trkpt>
      <trkpt lat="45.55264" lon="2.7996">
        <ele>1475</ele>
      </trkpt>
      <trkpt lat="45.55272" lon="2.79951">
        <ele>1472.5</ele>
      </trkpt>
      <trkpt lat="45.55275" lon="2.79948">
        <ele>1471.6</ele>
      </trkpt>
      <trkpt lat="45.55285" lon="2.79948">
        <ele>1469</ele>
      </trkpt>
      <trkpt lat="45.55303" lon="2.79965">
        <ele>1465.1</ele>
      </trkpt>
      <trkpt lat="45.55312" lon="2.79982">
        <ele>1463.6</ele>
      </trkpt>
      <trkpt lat="45.55324" lon="2.79997">
        <ele>1461.2</ele>
      </trkpt>
      <trkpt lat="45.55344" lon="2.80052">
        <ele>1456</ele>
      </trkpt>
      <trkpt lat="45.55357" lon="2.80076">
        <ele>1453.3</ele>
      </trkpt>
      <trkpt lat="45.55389" lon="2.80114">
        <ele>1442.5</ele>
      </trkpt>
      <trkpt lat="45.55418" lon="2.80126">
        <ele>1437.7</ele>
      </trkpt>
      <trkpt lat="45.5543" lon="2.80137">
        <ele>1435.1</ele>
      </trkpt>
      <trkpt lat="45.55452" lon="2.80144">
        <ele>1431.4</ele>
      </trkpt>
      <trkpt lat="45.55478" lon="2.80157">
        <ele>1428.5</ele>
      </trkpt>
      <trkpt lat="45.5549" lon="2.80167">
        <ele>1428</ele>
      </trkpt>
      <trkpt lat="45.55495" lon="2.80171">
        <ele>1427</ele>
      </trkpt>
      <trkpt lat="45.55528" lon="2.80196">
        <ele>1421.7</ele>
      </trkpt>
      <trkpt lat="45.55545" lon="2.80212">
        <ele>1421</ele>
      </trkpt>
      <trkpt lat="45.55564" lon="2.80222">
        <ele>1421.4</ele>
      </trkpt>
      <trkpt lat="45.55605" lon="2.80235">
        <ele>1420.8</ele>
      </trkpt>
      <trkpt lat="45.55624" lon="2.80234">
        <ele>1418.2</ele>
      </trkpt>
      <trkpt lat="45.55632" lon="2.80233">
        <ele>1417.1</ele>
      </trkpt>
      <trkpt lat="45.55652" lon="2.80238">
        <ele>1415.5</ele>
      </trkpt>
      <trkpt lat="45.55673" lon="2.80233">
        <ele>1412.3</ele>
      </trkpt>
      <trkpt lat="45.5571" lon="2.80214">
        <ele>1406.4</ele>
      </trkpt>
      <trkpt lat="45.55772" lon="2.80194">
        <ele>1400.8</ele>
      </trkpt>
      <trkpt lat="45.55809" lon="2.80165">
        <ele>1395.7</ele>
      </trkpt>
      <trkpt lat="45.55879" lon="2.80131">
        <ele>1392</ele>
      </trkpt>
      <trkpt lat="45.55914" lon="2.80113">
        <ele>1388.7</ele>
      </trkpt>
      <trkpt lat="45.55917" lon="2.80112">
        <ele>1388.5</ele>
      </trkpt>
      <trkpt lat="45.55926" lon="2.80109">
        <ele>1387.4</ele>
      </trkpt>
      <trkpt lat="45.55927" lon="2.80102">
        <ele>1385.6</ele>
      </trkpt>
      <trkpt lat="45.55931" lon="2.80102">
        <ele>1385.4</ele>
      </trkpt>
      <trkpt lat="45.55938" lon="2.801">
        <ele>1384.4</ele>
      </trkpt>
      <trkpt lat="45.55953" lon="2.80099">
        <ele>1383</ele>
      </trkpt>
      <trkpt lat="45.5596" lon="2.80102">
        <ele>1383.6</ele>
      </trkpt>
      <trkpt lat="45.55975" lon="2.80094">
        <ele>1379.7</ele>
      </trkpt>
      <trkpt lat="45.5599" lon="2.80099">
        <ele>1380.5</ele>
      </trkpt>
      <trkpt lat="45.55999" lon="2.801">
        <ele>1380.3</ele>
      </trkpt>
      <trkpt lat="45.56052" lon="2.80096">
        <ele>1369.6</ele>
      </trkpt>
      <trkpt lat="45.56061" lon="2.80091">
        <ele>1365.7</ele>
      </trkpt>
      <trkpt lat="45.56073" lon="2.80094">
        <ele>1365</ele>
      </trkpt>
      <trkpt lat="45.56121" lon="2.80101">
        <ele>1359.3</ele>
      </trkpt>
      <trkpt lat="45.56174" lon="2.80121">
        <ele>1355</ele>
      </trkpt>
      <trkpt lat="45.562" lon="2.80126">
        <ele>1351.3</ele>
      </trkpt>
      <trkpt lat="45.5623" lon="2.8012">
        <ele>1344.8</ele>
      </trkpt>
      <trkpt lat="45.56242" lon="2.80119">
        <ele>1342.5</ele>
      </trkpt>
      <trkpt lat="45.56251" lon="2.80117">
        <ele>1341</ele>
      </trkpt>
      <trkpt lat="45.56261" lon="2.80116">
        <ele>1340.4</ele>
      </trkpt>
      <trkpt lat="45.5627" lon="2.8012">
        <ele>1340.1</ele>
      </trkpt>
      <trkpt lat="45.56283" lon="2.80126">
        <ele>1339.6</ele>
      </trkpt>
      <trkpt lat="45.56304" lon="2.80128">
        <ele>1338.3</ele>
      </trkpt>
      <trkpt lat="45.56319" lon="2.80133">
        <ele>1337.4</ele>
      </trkpt>
      <trkpt lat="45.56337" lon="2.80144">
        <ele>1335.8</ele>
      </trkpt>
      <trkpt lat="45.56354" lon="2.80196">
        <ele>1331.1</ele>
      </trkpt>
      <trkpt lat="45.56375" lon="2.80217">
        <ele>1327.4</ele>
      </trkpt>
      <trkpt lat="45.56386" lon="2.80222">
        <ele>1326</ele>
      </trkpt>
      <trkpt lat="45.56395" lon="2.80226">
        <ele>1325</ele>
      </trkpt>
      <trkpt lat="45.56427" lon="2.80232">
        <ele>1321.5</ele>
      </trkpt>
      <trkpt lat="45.5646" lon="2.80238">
        <ele>1317</ele>
      </trkpt>
      <trkpt lat="45.5648" lon="2.80241">
        <ele>1314.4</ele>
      </trkpt>
      <trkpt lat="45.56492" lon="2.80234">
        <ele>1312.9</ele>
      </trkpt>
      <trkpt lat="45.56513" lon="2.80264">
        <ele>1308.5</ele>
      </trkpt>
      <trkpt lat="45.56534" lon="2.80273">
        <ele>1303.9</ele>
      </trkpt>
      <trkpt lat="45.56552" lon="2.80265">
        <ele>1300.2</ele>
      </trkpt>
      <trkpt lat="45.5657" lon="2.80252">
        <ele>1296.1</ele>
      </trkpt>
      <trkpt lat="45.56577" lon="2.80249">
        <ele>1294.4</ele>
      </trkpt>
      <trkpt lat="45.56602" lon="2.8024">
        <ele>1290.2</ele>
      </trkpt>
      <trkpt lat="45.5662" lon="2.80239">
        <ele>1287.8</ele>
      </trkpt>
      <trkpt lat="45.56642" lon="2.80229">
        <ele>1284.5</ele>
      </trkpt>
      <trkpt lat="45.5666" lon="2.8022">
        <ele>1281.8</ele>
      </trkpt>
      <trkpt lat="45.56664" lon="2.8021">
        <ele>1280.9</ele>
      </trkpt>
      <trkpt lat="45.56701" lon="2.8012">
        <ele>1273</ele>
      </trkpt>
      <trkpt lat="45.56707" lon="2.80109">
        <ele>1272</ele>
      </trkpt>
      <trkpt lat="45.56699" lon="2.80099">
        <ele>1272.3</ele>
      </trkpt>
      <trkpt lat="45.56689" lon="2.80093">
        <ele>1272.8</ele>
      </trkpt>
      <trkpt lat="45.56658" lon="2.80091">
        <ele>1275.3</ele>
      </trkpt>
      <trkpt lat="45.56644" lon="2.80086">
        <ele>1276.4</ele>
      </trkpt>
      <trkpt lat="45.56638" lon="2.80079">
        <ele>1276.4</ele>
      </trkpt>
      <trkpt lat="45.56634" lon="2.80075">
        <ele>1276.5</ele>
      </trkpt>
      <trkpt lat="45.56626" lon="2.80058">
        <ele>1276.3</ele>
      </trkpt>
      <trkpt lat="45.56617" lon="2.80022">
        <ele>1275.9</ele>
      </trkpt>
      <trkpt lat="45.56605" lon="2.79984">
        <ele>1278.2</ele>
      </trkpt>
      <trkpt lat="45.5661" lon="2.79951">
        <ele>1277.5</ele>
      </trkpt>
      <trkpt lat="45.56621" lon="2.79914">
        <ele>1274</ele>
      </trkpt>
      <trkpt lat="45.56626" lon="2.79881">
        <ele>1271.9</ele>
      </trkpt>
      <trkpt lat="45.56627" lon="2.79836">
        <ele>1271.2</ele>
      </trkpt>
      <trkpt lat="45.56625" lon="2.79789">
        <ele>1269.6</ele>
      </trkpt>
      <trkpt lat="45.56626" lon="2.79764">
        <ele>1268</ele>
      </trkpt>
      <trkpt lat="45.56631" lon="2.79739">
        <ele>1264.1</ele>
      </trkpt>
      <trkpt lat="45.56627" lon="2.79701">
        <ele>1258.6</ele>
      </trkpt>
      <trkpt lat="45.56618" lon="2.79689">
        <ele>1258</ele>
      </trkpt>
      <trkpt lat="45.5661" lon="2.79684">
        <ele>1258.3</ele>
      </trkpt>
      <trkpt lat="45.56585" lon="2.79675">
        <ele>1259.9</ele>
      </trkpt>
      <trkpt lat="45.56571" lon="2.79669">
        <ele>1258.6</ele>
      </trkpt>
      <trkpt lat="45.56586" lon="2.7966">
        <ele>1255.2</ele>
      </trkpt>
      <trkpt lat="45.56614" lon="2.79654">
        <ele>1250</ele>
      </trkpt>
      <trkpt lat="45.56639" lon="2.79655">
        <ele>1247.6</ele>
      </trkpt>
      <trkpt lat="45.56662" lon="2.79665">
        <ele>1248.1</ele>
      </trkpt>
      <trkpt lat="45.56682" lon="2.79676">
        <ele>1245.3</ele>
      </trkpt>
      <trkpt lat="45.56692" lon="2.79688">
        <ele>1244</ele>
      </trkpt>
      <trkpt lat="45.56696" lon="2.79699">
        <ele>1244</ele>
      </trkpt>
      <trkpt lat="45.56705" lon="2.79691">
        <ele>1241.2</ele>
      </trkpt>
      <trkpt lat="45.56717" lon="2.79687">
        <ele>1238</ele>
      </trkpt>
      <trkpt lat="45.56734" lon="2.79687">
        <ele>1234</ele>
      </trkpt>
      <trkpt lat="45.56772" lon="2.79665">
        <ele>1226</ele>
      </trkpt>
      <trkpt lat="45.56779" lon="2.7964">
        <ele>1223.3</ele>
      </trkpt>
      <trkpt lat="45.56791" lon="2.79632">
        <ele>1222.1</ele>
      </trkpt>
      <trkpt lat="45.56799" lon="2.79627">
        <ele>1221.5</ele>
      </trkpt>
      <trkpt lat="45.56803" lon="2.79618">
        <ele>1221.2</ele>
      </trkpt>
      <trkpt lat="45.56797" lon="2.79618">
        <ele>1221.3</ele>
      </trkpt>
      <trkpt lat="45.56771" lon="2.79619">
        <ele>1222.1</ele>
      </trkpt>
      <trkpt lat="45.56747" lon="2.79611">
        <ele>1222</ele>
      </trkpt>
      <trkpt lat="45.56719" lon="2.79591">
        <ele>1221.7</ele>
      </trkpt>
      <trkpt lat="45.56631" lon="2.79568">
        <ele>1220.9</ele>
      </trkpt>
      <trkpt lat="45.56592" lon="2.79568">
        <ele>1222.3</ele>
      </trkpt>
      <trkpt lat="45.5653" lon="2.79561">
        <ele>1217.6</ele>
      </trkpt>
      <trkpt lat="45.56492" lon="2.79565">
        <ele>1216.4</ele>
      </trkpt>
      <trkpt lat="45.56442" lon="2.79579">
        <ele>1216.2</ele>
      </trkpt>
      <trkpt lat="45.5642" lon="2.79579">
        <ele>1214.7</ele>
      </trkpt>
      <trkpt lat="45.56397" lon="2.79582">
        <ele>1213.9</ele>
      </trkpt>
      <trkpt lat="45.56354" lon="2.79595">
        <ele>1214.9</ele>
      </trkpt>
      <trkpt lat="45.56329" lon="2.79599">
        <ele>1214.2</ele>
      </trkpt>
      <trkpt lat="45.56319" lon="2.79594">
        <ele>1212.6</ele>
      </trkpt>
      <trkpt lat="45.56316" lon="2.79584">
        <ele>1210.5</ele>
      </trkpt>
      <trkpt lat="45.56316" lon="2.7956">
        <ele>1208.5</ele>
      </trkpt>
      <trkpt lat="45.56321" lon="2.79539">
        <ele>1207</ele>
      </trkpt>
      <trkpt lat="45.56332" lon="2.79526">
        <ele>1206.2</ele>
      </trkpt>
      <trkpt lat="45.56354" lon="2.7952">
        <ele>1206.1</ele>
      </trkpt>
      <trkpt lat="45.56397" lon="2.79485">
        <ele>1203.2</ele>
      </trkpt>
      <trkpt lat="45.56419" lon="2.79456">
        <ele>1199.6</ele>
      </trkpt>
      <trkpt lat="45.56445" lon="2.79392">
        <ele>1188.8</ele>
      </trkpt>
      <trkpt lat="45.56457" lon="2.79377">
        <ele>1185.2</ele>
      </trkpt>
      <trkpt lat="45.5647" lon="2.79368">
        <ele>1182.4</ele>
      </trkpt>
      <trkpt lat="45.56488" lon="2.79367">
        <ele>1180.3</ele>
      </trkpt>
      <trkpt lat="45.56502" lon="2.79374">
        <ele>1180.1</ele>
      </trkpt>
      <trkpt lat="45.56516" lon="2.79384">
        <ele>1180.7</ele>
      </trkpt>
      <trkpt lat="45.56535" lon="2.79389">
        <ele>1179.8</ele>
      </trkpt>
      <trkpt lat="45.56548" lon="2.79379">
        <ele>1176.9</ele>
      </trkpt>
      <trkpt lat="45.56569" lon="2.7937">
        <ele>1173.4</ele>
      </trkpt>
      <trkpt lat="45.56584" lon="2.79372">
        <ele>1172.5</ele>
      </trkpt>
      <trkpt lat="45.56601" lon="2.79379">
        <ele>1172.8</ele>
      </trkpt>
      <trkpt lat="45.56622" lon="2.79384">
        <ele>1172.7</ele>
      </trkpt>
      <trkpt lat="45.56635" lon="2.79384">
        <ele>1172</ele>
      </trkpt>
      <trkpt lat="45.56655" lon="2.79374">
        <ele>1169.4</ele>
      </trkpt>
      <trkpt lat="45.56665" lon="2.79358">
        <ele>1166.2</ele>
      </trkpt>
      <trkpt lat="45.56672" lon="2.79338">
        <ele>1163</ele>
      </trkpt>
      <trkpt lat="45.56675" lon="2.79309">
        <ele>1158.8</ele>
      </trkpt>
      <trkpt lat="45.56698" lon="2.79244">
        <ele>1149.7</ele>
      </trkpt>
      <trkpt lat="45.56707" lon="2.7923">
        <ele>1147.5</ele>
      </trkpt>
      <trkpt lat="45.56719" lon="2.79223">
        <ele>1146.5</ele>
      </trkpt>
      <trkpt lat="45.56746" lon="2.792">
        <ele>1142.9</ele>
      </trkpt>
      <trkpt lat="45.56756" lon="2.79196">
        <ele>1142</ele>
      </trkpt>
      <trkpt lat="45.56776" lon="2.79199">
        <ele>1141.6</ele>
      </trkpt>
      <trkpt lat="45.56791" lon="2.79202">
        <ele>1141.5</ele>
      </trkpt>
      <trkpt lat="45.5681" lon="2.79215">
        <ele>1143.4</ele>
      </trkpt>
      <trkpt lat="45.56821" lon="2.79216">
        <ele>1143.1</ele>
      </trkpt>
      <trkpt lat="45.56885" lon="2.79163">
        <ele>1125.8</ele>
      </trkpt>
      <trkpt lat="45.56918" lon="2.79141">
        <ele>1119.7</ele>
      </trkpt>
      <trkpt lat="45.56956" lon="2.79112">
        <ele>1117.1</ele>
      </trkpt>
      <trkpt lat="45.56971" lon="2.79105">
        <ele>1116.1</ele>
      </trkpt>
      <trkpt lat="45.56986" lon="2.79105">
        <ele>1116.4</ele>
      </trkpt>
      <trkpt lat="45.56991" lon="2.79096">
        <ele>1114.3</ele>
      </trkpt>
      <trkpt lat="45.56975" lon="2.79092">
        <ele>1113.2</ele>
      </trkpt>
      <trkpt lat="45.56954" lon="2.7908">
        <ele>1111.3</ele>
      </trkpt>
      <trkpt lat="45.56929" lon="2.79076">
        <ele>1111.3</ele>
      </trkpt>
      <trkpt lat="45.56906" lon="2.79076">
        <ele>1111.8</ele>
      </trkpt>
      <trkpt lat="45.56839" lon="2.79091">
        <ele>1115.5</ele>
      </trkpt>
      <trkpt lat="45.56828" lon="2.79087">
        <ele>1115.3</ele>
      </trkpt>
      <trkpt lat="45.56875" lon="2.79059">
        <ele>1111.8</ele>
      </trkpt>
      <trkpt lat="45.56898" lon="2.79049">
        <ele>1110.3</ele>
      </trkpt>
      <trkpt lat="45.5699" lon="2.78965">
        <ele>1101.7</ele>
      </trkpt>
      <trkpt lat="45.56997" lon="2.78961">
        <ele>1100.9</ele>
      </trkpt>
      <trkpt lat="45.57014" lon="2.78938">
        <ele>1097.8</ele>
      </trkpt>
      <trkpt lat="45.57017" lon="2.78915">
        <ele>1095.5</ele>
      </trkpt>
      <trkpt lat="45.57027" lon="2.78897">
        <ele>1095.6</ele>
      </trkpt>
      <trkpt lat="45.5708" lon="2.78881">
        <ele>1089.9</ele>
      </trkpt>
      <trkpt lat="45.57097" lon="2.7888">
        <ele>1088.5</ele>
      </trkpt>
      <trkpt lat="45.57106" lon="2.78882">
        <ele>1087.9</ele>
      </trkpt>
      <trkpt lat="45.57121" lon="2.78881">
        <ele>1086.8</ele>
      </trkpt>
      <trkpt lat="45.57131" lon="2.78874">
        <ele>1086.1</ele>
      </trkpt>
      <trkpt lat="45.5714" lon="2.78859">
        <ele>1085.1</ele>
      </trkpt>
      <trkpt lat="45.57164" lon="2.78846">
        <ele>1082.7</ele>
      </trkpt>
      <trkpt lat="45.57179" lon="2.78842">
        <ele>1081.3</ele>
      </trkpt>
      <trkpt lat="45.57194" lon="2.78829">
        <ele>1079.6</ele>
      </trkpt>
      <trkpt lat="45.57207" lon="2.78809">
        <ele>1079.6</ele>
      </trkpt>
      <trkpt lat="45.57233" lon="2.7879">
        <ele>1078.5</ele>
      </trkpt>
      <trkpt lat="45.57243" lon="2.78789">
        <ele>1077.8</ele>
      </trkpt>
      <trkpt lat="45.57268" lon="2.78793">
        <ele>1075.6</ele>
      </trkpt>
      <trkpt lat="45.57284" lon="2.78788">
        <ele>1074.7</ele>
      </trkpt>
      <trkpt lat="45.57314" lon="2.78775">
        <ele>1072.7</ele>
      </trkpt>
      <trkpt lat="45.57329" lon="2.78762">
        <ele>1071.4</ele>
      </trkpt>
      <trkpt lat="45.57351" lon="2.78748">
        <ele>1069</ele>
      </trkpt>
      <trkpt lat="45.57359" lon="2.7875">
        <ele>1068.2</ele>
      </trkpt>
      <trkpt lat="45.57381" lon="2.78749">
        <ele>1065.8</ele>
      </trkpt>
      <trkpt lat="45.57385" lon="2.78749">
        <ele>1065.4</ele>
      </trkpt>
      <trkpt lat="45.57418" lon="2.78734">
        <ele>1061.8</ele>
      </trkpt>
      <trkpt lat="45.57435" lon="2.78714">
        <ele>1061.3</ele>
      </trkpt>
      <trkpt lat="45.57451" lon="2.7868">
        <ele>1060.1</ele>
      </trkpt>
      <trkpt lat="45.57454" lon="2.78666">
        <ele>1059.6</ele>
      </trkpt>
      <trkpt lat="45.57458" lon="2.78655">
        <ele>1059.3</ele>
      </trkpt>
      <trkpt lat="45.57458" lon="2.78646">
        <ele>1059.1</ele>
      </trkpt>
      <trkpt lat="45.57465" lon="2.78603">
        <ele>1058.1</ele>
      </trkpt>
      <trkpt lat="45.57475" lon="2.7858">
        <ele>1057.2</ele>
      </trkpt>
      <trkpt lat="45.57491" lon="2.78546">
        <ele>1055.8</ele>
      </trkpt>
      <trkpt lat="45.5752" lon="2.78511">
        <ele>1054.7</ele>
      </trkpt>
      <trkpt lat="45.57555" lon="2.78478">
        <ele>1054.2</ele>
      </trkpt>
      <trkpt lat="45.57565" lon="2.78476">
        <ele>1054.3</ele>
      </trkpt>
      <trkpt lat="45.5758" lon="2.78466">
        <ele>1054.3</ele>
      </trkpt>
      <trkpt lat="45.576" lon="2.78436">
        <ele>1055.5</ele>
      </trkpt>
      <trkpt lat="45.57633" lon="2.78377">
        <ele>1058.1</ele>
      </trkpt>
      <trkpt lat="45.57667" lon="2.783">
        <ele>1057.7</ele>
      </trkpt>
      <trkpt lat="45.57696" lon="2.78246">
        <ele>1059.6</ele>
      </trkpt>
      <trkpt lat="45.57713" lon="2.78203">
        <ele>1057.6</ele>
      </trkpt>
      <trkpt lat="45.57743" lon="2.78174">
        <ele>1056.9</ele>
      </trkpt>
      <trkpt lat="45.57766" lon="2.78147">
        <ele>1056.6</ele>
      </trkpt>
      <trkpt lat="45.57771" lon="2.78144">
        <ele>1057.1</ele>
      </trkpt>
      <trkpt lat="45.57772" lon="2.78139">
        <ele>1056.8</ele>
      </trkpt>
      <trkpt lat="45.57787" lon="2.78105">
        <ele>1055.9</ele>
      </trkpt>
      <trkpt lat="45.57792" lon="2.78098">
        <ele>1056</ele>
      </trkpt>
      <trkpt lat="45.57802" lon="2.78081">
        <ele>1056.1</ele>
      </trkpt>
      <trkpt lat="45.57829" lon="2.78052">
        <ele>1060.3</ele>
      </trkpt>
      <trkpt lat="45.57858" lon="2.7803">
        <ele>1065</ele>
      </trkpt>
      <trkpt lat="45.57887" lon="2.78015">
        <ele>1070.2</ele>
      </trkpt>
      <trkpt lat="45.57912" lon="2.78007">
        <ele>1074.8</ele>
      </trkpt>
      <trkpt lat="45.57925" lon="2.78007">
        <ele>1075.9</ele>
      </trkpt>
      <trkpt lat="45.57946" lon="2.78008">
        <ele>1076.7</ele>
      </trkpt>
      <trkpt lat="45.57961" lon="2.78019">
        <ele>1077.4</ele>
      </trkpt>
      <trkpt lat="45.57963" lon="2.7802">
        <ele>1077.5</ele>
      </trkpt>
      <trkpt lat="45.57989" lon="2.7804">
        <ele>1080</ele>
      </trkpt>
      <trkpt lat="45.58007" lon="2.78042">
        <ele>1081.8</ele>
      </trkpt>
      <trkpt lat="45.58044" lon="2.78041">
        <ele>1085.7</ele>
      </trkpt>
      <trkpt lat="45.58069" lon="2.78035">
        <ele>1087.7</ele>
      </trkpt>
      <trkpt lat="45.58108" lon="2.78032">
        <ele>1090.3</ele>
      </trkpt>
      <trkpt lat="45.58122" lon="2.78024">
        <ele>1090.5</ele>
      </trkpt>
      <trkpt lat="45.58142" lon="2.78006">
        <ele>1090.4</ele>
      </trkpt>
      <trkpt lat="45.58159" lon="2.77999">
        <ele>1091.3</ele>
      </trkpt>
      <trkpt lat="45.58171" lon="2.77975">
        <ele>1089.6</ele>
      </trkpt>
      <trkpt lat="45.58201" lon="2.77904">
        <ele>1082</ele>
      </trkpt>
      <trkpt lat="45.58219" lon="2.77882">
        <ele>1079.1</ele>
      </trkpt>
      <trkpt lat="45.58235" lon="2.77873">
        <ele>1078.3</ele>
      </trkpt>
      <trkpt lat="45.58246" lon="2.77874">
        <ele>1078.8</ele>
      </trkpt>
      <trkpt lat="45.5826" lon="2.7788">
        <ele>1078.6</ele>
      </trkpt>
      <trkpt lat="45.58271" lon="2.7789">
        <ele>1078.4</ele>
      </trkpt>
      <trkpt lat="45.58284" lon="2.77942">
        <ele>1080.6</ele>
      </trkpt>
      <trkpt lat="45.58294" lon="2.77968">
        <ele>1080.3</ele>
      </trkpt>
      <trkpt lat="45.58313" lon="2.77987">
        <ele>1077.6</ele>
      </trkpt>
      <trkpt lat="45.58323" lon="2.7803">
        <ele>1078.9</ele>
      </trkpt>
      <trkpt lat="45.58333" lon="2.78039">
        <ele>1077.8</ele>
      </trkpt>
      <trkpt lat="45.58349" lon="2.78039">
        <ele>1075.4</ele>
      </trkpt>
      <trkpt lat="45.58367" lon="2.78046">
        <ele>1073.3</ele>
      </trkpt>
      <trkpt lat="45.58384" lon="2.7805">
        <ele>1070.9</ele>
      </trkpt>
      <trkpt lat="45.58409" lon="2.78049">
        <ele>1067</ele>
      </trkpt>
      <trkpt lat="45.58416" lon="2.78056">
        <ele>1066.1</ele>
      </trkpt>
      <trkpt lat="45.5844" lon="2.78099">
        <ele>1060.2</ele>
      </trkpt>
      <trkpt lat="45.58474" lon="2.78193">
        <ele>1047.5</ele>
      </trkpt>
      <trkpt lat="45.58482" lon="2.7823">
        <ele>1042.8</ele>
      </trkpt>
      <trkpt lat="45.58482" lon="2.78242">
        <ele>1042.3</ele>
      </trkpt>
      <trkpt lat="45.58482" lon="2.78258">
        <ele>1040.7</ele>
      </trkpt>
      <trkpt lat="45.58481" lon="2.78276">
        <ele>1038.3</ele>
      </trkpt>
      <trkpt lat="45.58478" lon="2.78296">
        <ele>1036.4</ele>
      </trkpt>
      <trkpt lat="45.5847" lon="2.78314">
        <ele>1036.5</ele>
      </trkpt>
      <trkpt lat="45.58461" lon="2.78343">
        <ele>1034.5</ele>
      </trkpt>
      <trkpt lat="45.58451" lon="2.7839">
        <ele>1026.8</ele>
      </trkpt>
      <trkpt lat="45.58444" lon="2.78413">
        <ele>1023</ele>
      </trkpt>
      <trkpt lat="45.58431" lon="2.7843">
        <ele>1023.6</ele>
      </trkpt>
      <trkpt lat="45.58421" lon="2.78452">
        <ele>1023.7</ele>
      </trkpt>
      <trkpt lat="45.58421" lon="2.78469">
        <ele>1022</ele>
      </trkpt>
      <trkpt lat="45.58422" lon="2.78487">
        <ele>1020.1</ele>
      </trkpt>
      <trkpt lat="45.58438" lon="2.78513">
        <ele>1015.9</ele>
      </trkpt>
      <trkpt lat="45.58445" lon="2.78522">
        <ele>1014.8</ele>
      </trkpt>
      <trkpt lat="45.58463" lon="2.78543">
        <ele>1011.5</ele>
      </trkpt>
      <trkpt lat="45.58475" lon="2.78563">
        <ele>1009.4</ele>
      </trkpt>
      <trkpt lat="45.58489" lon="2.78595">
        <ele>1006.8</ele>
      </trkpt>
      <trkpt lat="45.58501" lon="2.78612">
        <ele>1004</ele>
      </trkpt>
      <trkpt lat="45.58515" lon="2.78614">
        <ele>999.1</ele>
      </trkpt>
      <trkpt lat="45.58527" lon="2.78608">
        <ele>994.7</ele>
      </trkpt>
      <trkpt lat="45.58535" lon="2.78596">
        <ele>991.2</ele>
      </trkpt>
      <trkpt lat="45.58554" lon="2.7854">
        <ele>982.6</ele>
      </trkpt>
      <trkpt lat="45.58565" lon="2.78531">
        <ele>978.3</ele>
      </trkpt>
      <trkpt lat="45.58597" lon="2.78533">
        <ele>968.8</ele>
      </trkpt>
      <trkpt lat="45.58607" lon="2.78525">
        <ele>966.6</ele>
      </trkpt>
      <trkpt lat="45.58617" lon="2.78524">
        <ele>964.6</ele>
      </trkpt>
      <trkpt lat="45.58621" lon="2.7852">
        <ele>963.6</ele>
      </trkpt>
      <trkpt lat="45.58625" lon="2.78506">
        <ele>962.3</ele>
      </trkpt>
      <trkpt lat="45.58634" lon="2.78427">
        <ele>957.9</ele>
      </trkpt>
      <trkpt lat="45.58631" lon="2.78382">
        <ele>958.7</ele>
      </trkpt>
      <trkpt lat="45.58634" lon="2.78375">
        <ele>957.3</ele>
      </trkpt>
      <trkpt lat="45.5864" lon="2.78378">
        <ele>954.5</ele>
      </trkpt>
      <trkpt lat="45.58651" lon="2.78388">
        <ele>949.9</ele>
      </trkpt>
      <trkpt lat="45.58652" lon="2.78403">
        <ele>950.1</ele>
      </trkpt>
      <trkpt lat="45.58653" lon="2.78417">
        <ele>950.3</ele>
      </trkpt>
      <trkpt lat="45.58656" lon="2.78429">
        <ele>950</ele>
      </trkpt>
      <trkpt lat="45.58658" lon="2.78431">
        <ele>949.5</ele>
      </trkpt>
      <trkpt lat="45.58657" lon="2.78413">
        <ele>948.5</ele>
      </trkpt>
      <trkpt lat="45.58674" lon="2.78275">
        <ele>941.9</ele>
      </trkpt>
      <trkpt lat="45.58681" lon="2.78235">
        <ele>943.9</ele>
      </trkpt>
      <trkpt lat="45.5869" lon="2.78206">
        <ele>945</ele>
      </trkpt>
      <trkpt lat="45.58703" lon="2.78184">
        <ele>943.8</ele>
      </trkpt>
      <trkpt lat="45.58713" lon="2.78154">
        <ele>942.7</ele>
      </trkpt>
      <trkpt lat="45.5873" lon="2.78115">
        <ele>938.8</ele>
      </trkpt>
      <trkpt lat="45.58739" lon="2.78102">
        <ele>935.3</ele>
      </trkpt>
      <trkpt lat="45.58749" lon="2.78075">
        <ele>930.4</ele>
      </trkpt>
      <trkpt lat="45.58746" lon="2.78061">
        <ele>931.7</ele>
      </trkpt>
      <trkpt lat="45.58749" lon="2.78043">
        <ele>930</ele>
      </trkpt>
      <trkpt lat="45.5876" lon="2.78016">
        <ele>932.2</ele>
      </trkpt>
      <trkpt lat="45.58758" lon="2.78002">
        <ele>931.4</ele>
      </trkpt>
      <trkpt lat="45.5876" lon="2.77984">
        <ele>931.7</ele>
      </trkpt>
      <trkpt lat="45.58758" lon="2.77966">
        <ele>930.7</ele>
      </trkpt>
      <trkpt lat="45.58751" lon="2.77947">
        <ele>928.1</ele>
      </trkpt>
      <trkpt lat="45.58739" lon="2.77924">
        <ele>933.3</ele>
      </trkpt>
      <trkpt lat="45.58735" lon="2.77898">
        <ele>935</ele>
      </trkpt>
      <trkpt lat="45.58734" lon="2.77882">
        <ele>935.3</ele>
      </trkpt>
      <trkpt lat="45.58734" lon="2.77867">
        <ele>935</ele>
      </trkpt>
      <trkpt lat="45.58736" lon="2.77862">
        <ele>934</ele>
      </trkpt>
      <trkpt lat="45.58739" lon="2.77858">
        <ele>932.4</ele>
      </trkpt>
      <trkpt lat="45.58748" lon="2.77857">
        <ele>928</ele>
      </trkpt>
      <trkpt lat="45.58754" lon="2.77856">
        <ele>928.1</ele>
      </trkpt>
      <trkpt lat="45.58758" lon="2.77844">
        <ele>929</ele>
      </trkpt>
      <trkpt lat="45.58789" lon="2.77789">
        <ele>931.3</ele>
      </trkpt>
      <trkpt lat="45.58818" lon="2.77744">
        <ele>927.6</ele>
      </trkpt>
      <trkpt lat="45.58831" lon="2.77734">
        <ele>926.5</ele>
      </trkpt>
      <trkpt lat="45.58852" lon="2.77725">
        <ele>929.7</ele>
      </trkpt>
      <trkpt lat="45.58883" lon="2.77707">
        <ele>934.8</ele>
      </trkpt>
      <trkpt lat="45.58891" lon="2.77699">
        <ele>935.7</ele>
      </trkpt>
      <trkpt lat="45.58893" lon="2.77691">
        <ele>935.1</ele>
      </trkpt>
      <trkpt lat="45.58903" lon="2.776">
        <ele>934.8</ele>
      </trkpt>
      <trkpt lat="45.58907" lon="2.77592">
        <ele>935.8</ele>
      </trkpt>
      <trkpt lat="45.58913" lon="2.77588">
        <ele>937.2</ele>
      </trkpt>
      <trkpt lat="45.58921" lon="2.77587">
        <ele>938.1</ele>
      </trkpt>
      <trkpt lat="45.58936" lon="2.77578">
        <ele>938.2</ele>
      </trkpt>
      <trkpt lat="45.58936" lon="2.77569">
        <ele>938</ele>
      </trkpt>
      <trkpt lat="45.58938" lon="2.77556">
        <ele>937.8</ele>
      </trkpt>
      <trkpt lat="45.5894" lon="2.77551">
        <ele>937.7</ele>
      </trkpt>
      <trkpt lat="45.58945" lon="2.77548">
        <ele>937.6</ele>
      </trkpt>
      <trkpt lat="45.58964" lon="2.77551">
        <ele>937.5</ele>
      </trkpt>
      <trkpt lat="45.58973" lon="2.77556">
        <ele>937.6</ele>
      </trkpt>
      <trkpt lat="45.58978" lon="2.77564">
        <ele>937.9</ele>
      </trkpt>
      <trkpt lat="45.58983" lon="2.77576">
        <ele>938.4</ele>
      </trkpt>
      <trkpt lat="45.58985" lon="2.77582">
        <ele>938.8</ele>
      </trkpt>
      <trkpt lat="45.58988" lon="2.77569">
        <ele>938.1</ele>
      </trkpt>
      <trkpt lat="45.58989" lon="2.77494">
        <ele>933.7</ele>
      </trkpt>
      <trkpt lat="45.58991" lon="2.7747">
        <ele>930.4</ele>
      </trkpt>
      <trkpt lat="45.58977" lon="2.77433">
        <ele>925.8</ele>
      </trkpt>
      <trkpt lat="45.58968" lon="2.77417">
        <ele>923.8</ele>
      </trkpt>
      <trkpt lat="45.58954" lon="2.77402">
        <ele>922</ele>
      </trkpt>
      <trkpt lat="45.5894" lon="2.77392">
        <ele>920.6</ele>
      </trkpt>
      <trkpt lat="45.58921" lon="2.77388">
        <ele>920.2</ele>
      </trkpt>
      <trkpt lat="45.58917" lon="2.7738">
        <ele>918.8</ele>
      </trkpt>
      <trkpt lat="45.58925" lon="2.77357">
        <ele>915.1</ele>
      </trkpt>
      <trkpt lat="45.58931" lon="2.77329">
        <ele>911.2</ele>
      </trkpt>
      <trkpt lat="45.5893" lon="2.77322">
        <ele>910.8</ele>
      </trkpt>
      <trkpt lat="45.58915" lon="2.77303">
        <ele>910.6</ele>
      </trkpt>
      <trkpt lat="45.58911" lon="2.77292">
        <ele>912</ele>
      </trkpt>
      <trkpt lat="45.58905" lon="2.77262">
        <ele>914.1</ele>
      </trkpt>
      <trkpt lat="45.58901" lon="2.77221">
        <ele>916</ele>
      </trkpt>
      <trkpt lat="45.58909" lon="2.7719">
        <ele>911.9</ele>
      </trkpt>
      <trkpt lat="45.58912" lon="2.77163">
        <ele>910.5</ele>
      </trkpt>
      <trkpt lat="45.58925" lon="2.77131">
        <ele>907.8</ele>
      </trkpt>
      <trkpt lat="45.58942" lon="2.77065">
        <ele>906.7</ele>
      </trkpt>
      <trkpt lat="45.58943" lon="2.77043">
        <ele>906.3</ele>
      </trkpt>
      <trkpt lat="45.5892" lon="2.76958">
        <ele>904.7</ele>
      </trkpt>
      <trkpt lat="45.58921" lon="2.76929">
        <ele>902.6</ele>
      </trkpt>
      <trkpt lat="45.58934" lon="2.76916">
        <ele>900.9</ele>
      </trkpt>
      <trkpt lat="45.58968" lon="2.76902">
        <ele>898.4</ele>
      </trkpt>
      <trkpt lat="45.58984" lon="2.76887">
        <ele>897</ele>
      </trkpt>
      <trkpt lat="45.58993" lon="2.76865">
        <ele>896</ele>
      </trkpt>
      <trkpt lat="45.58996" lon="2.76839">
        <ele>895.2</ele>
      </trkpt>
      <trkpt lat="45.59006" lon="2.76791">
        <ele>894.3</ele>
      </trkpt>
      <trkpt lat="45.5901" lon="2.76748">
        <ele>893.5</ele>
      </trkpt>
      <trkpt lat="45.59007" lon="2.7671">
        <ele>892.4</ele>
      </trkpt>
      <trkpt lat="45.59007" lon="2.76682">
        <ele>891.7</ele>
      </trkpt>
      <trkpt lat="45.58993" lon="2.76676">
        <ele>891.6</ele>
      </trkpt>
      <trkpt lat="45.58979" lon="2.76671">
        <ele>892.1</ele>
      </trkpt>
      <trkpt lat="45.58957" lon="2.76662">
        <ele>893</ele>
      </trkpt>
      <trkpt lat="45.58953" lon="2.7666">
        <ele>893.2</ele>
      </trkpt>
      <trkpt lat="45.58955" lon="2.76641">
        <ele>892.9</ele>
      </trkpt>
      <trkpt lat="45.58978" lon="2.76516">
        <ele>890.2</ele>
      </trkpt>
      <trkpt lat="45.58987" lon="2.76462">
        <ele>889.1</ele>
      </trkpt>
      <trkpt lat="45.58989" lon="2.76453">
        <ele>888.9</ele>
      </trkpt>
      <trkpt lat="45.58999" lon="2.76408">
        <ele>887.8</ele>
      </trkpt>
      <trkpt lat="45.5905" lon="2.76154">
        <ele>882.5</ele>
      </trkpt>
      <trkpt lat="45.59054" lon="2.76121">
        <ele>882.6</ele>
      </trkpt>
      <trkpt lat="45.59056" lon="2.76075">
        <ele>882.6</ele>
      </trkpt>
      <trkpt lat="45.59054" lon="2.76031">
        <ele>882.6</ele>
      </trkpt>
      <trkpt lat="45.59042" lon="2.75949">
        <ele>881.8</ele>
      </trkpt>
      <trkpt lat="45.59041" lon="2.75938">
        <ele>881.5</ele>
      </trkpt>
      <trkpt lat="45.59025" lon="2.75845">
        <ele>877.9</ele>
      </trkpt>
      <trkpt lat="45.5902" lon="2.75818">
        <ele>876.9</ele>
      </trkpt>
      <trkpt lat="45.59016" lon="2.75749">
        <ele>875.4</ele>
      </trkpt>
      <trkpt lat="45.59012" lon="2.75227">
        <ele>866.8</ele>
      </trkpt>
      <trkpt lat="45.59012" lon="2.75029">
        <ele>864.7</ele>
      </trkpt>
      <trkpt lat="45.59013" lon="2.75029">
        <ele>864.7</ele>
      </trkpt>
      <trkpt lat="45.59032" lon="2.75029">
        <ele>865.2</ele>
      </trkpt>
      <trkpt lat="45.59045" lon="2.75028">
        <ele>865.6</ele>
      </trkpt>
      <trkpt lat="45.59061" lon="2.75028">
        <ele>866</ele>
      </trkpt>
      <trkpt lat="45.59063" lon="2.75028">
        <ele>866.1</ele>
      </trkpt>
      <trkpt lat="45.59066" lon="2.75028">
        <ele>866.2</ele>
      </trkpt>
      <trkpt lat="45.59071" lon="2.75028">
        <ele>866.3</ele>
      </trkpt>
      <trkpt lat="45.59062" lon="2.74941">
        <ele>866.2</ele>
      </trkpt>
      <trkpt lat="45.59068" lon="2.7494">
        <ele>866.5</ele>
      </trkpt>
      <trkpt lat="45.59066" lon="2.74928">
        <ele>866.6</ele>
      </trkpt>
      <trkpt lat="45.59085" lon="2.74924">
        <ele>868.2</ele>
      </trkpt>
      <trkpt lat="45.591" lon="2.7497">
        <ele>870.2</ele>
      </trkpt>
      <trkpt lat="45.59106" lon="2.74993">
        <ele>870.4</ele>
      </trkpt>
      <trkpt lat="45.59106" lon="2.75004">
        <ele>870.1</ele>
      </trkpt>
      <trkpt lat="45.59107" lon="2.75007">
        <ele>870.3</ele>
      </trkpt>
      <trkpt lat="45.59106" lon="2.75012">
        <ele>870.1</ele>
      </trkpt>
      <trkpt lat="45.59106" lon="2.75022">
        <ele>870.1</ele>
      </trkpt>
      <trkpt lat="45.59102" lon="2.75052">
        <ele>869.6</ele>
      </trkpt>
      <trkpt lat="45.59103" lon="2.75062">
        <ele>869.8</ele>
      </trkpt>
      <trkpt lat="45.59107" lon="2.75075">
        <ele>870.3</ele>
      </trkpt>
      <trkpt lat="45.59117" lon="2.7509">
        <ele>871.1</ele>
      </trkpt>
      <trkpt lat="45.59122" lon="2.7509">
        <ele>871.6</ele>
      </trkpt>
      <trkpt lat="45.5915" lon="2.7509">
        <ele>874.2</ele>
      </trkpt>
      <trkpt lat="45.59155" lon="2.7509">
        <ele>874.7</ele>
      </trkpt>
      <trkpt lat="45.59159" lon="2.75091">
        <ele>875</ele>
      </trkpt>
      <trkpt lat="45.59158" lon="2.75096">
        <ele>874.8</ele>
      </trkpt>
      <trkpt lat="45.59148" lon="2.75155">
        <ele>872.2</ele>
      </trkpt>
      <trkpt lat="45.59145" lon="2.75293">
        <ele>873.2</ele>
      </trkpt>
      <trkpt lat="45.59144" lon="2.75309">
        <ele>873.3</ele>
      </trkpt>
      <trkpt lat="45.59141" lon="2.75437">
        <ele>874.3</ele>
      </trkpt>
    </trkseg>
  </trk>
</gpx>